<?xml version="1.0" encoding="UTF-8" standalone="no" ?>
<gpx xmlns="http://www.topografix.com/GPX/1/1" xmlns:xsi="http://www.w3.org/2001/XMLSchema-instance" xsi:schemaLocation="http://www.topografix.com/GPX/1/1 http://www.topografix.com/GPX/1/1/gpx.xsd" version="1.1" creator="VisuGPX - https://www.visugpx.com">
  <metadata>
    <name>Montpellier City Tour</name>
  </metadata>
  <wpt lat="43.60794" lon="3.89196">
    <ele>23.7</ele>
    <name><![CDATA[Borne de la ville]]></name>
    <type><![CDATA[drink]]></type>
  </wpt>
  <wpt lat="43.60971" lon="3.8811">
    <ele>40.8</ele>
    <name><![CDATA[Borne de la ville]]></name>
    <type><![CDATA[drink]]></type>
  </wpt>
  <wpt lat="43.6118" lon="3.86796">
    <ele>42</ele>
    <name><![CDATA[Terrain de sport]]></name>
    <type><![CDATA[drink]]></type>
  </wpt>
  <wpt lat="43.63194" lon="3.83169">
    <ele>76.3</ele>
    <name><![CDATA[Parc de jeu]]></name>
    <type><![CDATA[drink]]></type>
  </wpt>
  <wpt lat="43.64196" lon="3.86585">
    <ele>88</ele>
    <name><![CDATA[Parcours sportif]]></name>
    <type><![CDATA[drink]]></type>
  </wpt>
  <trk>
    <name><![CDATA[Montpellier City Tour]]></name>
    <extensions>
      <line xmlns="http://www.topografix.com/GPX/gpx_style/0/2">
        <color>0000FF</color>
        <width>4</width>
      </line>
    </extensions>
    <trkseg>
      <trkpt lat="43.63077" lon="3.9111">
        <ele>31.590661</ele>
        <time>2021-01-03T11:58:04.558Z</time>
        <extensions>
          <visugpx:TrkExtension xmlns:visugpx="https://www.visugpx.com/editgpx/">
            <visugpx:node>45</visugpx:node>
            </visugpx:TrkExtension>
        </extensions>
      </trkpt>
      <trkpt lat="43.63077" lon="3.9111">
        <ele>31.590661</ele>
        <time>2021-01-03T11:58:04.558Z</time>
      </trkpt>
      <trkpt lat="43.63077" lon="3.9111">
        <ele>31.590661</ele>
        <time>2021-01-03T11:58:04.558Z</time>
      </trkpt>
      <trkpt lat="43.63077" lon="3.9111">
        <ele>31.590661</ele>
        <time>2021-01-03T11:58:04.558Z</time>
      </trkpt>
      <trkpt lat="43.63077" lon="3.9111">
        <ele>31.590661</ele>
        <time>2021-01-03T11:58:04.558Z</time>
      </trkpt>
      <trkpt lat="43.63062" lon="3.90988">
        <ele>31.590661</ele>
        <time>2021-01-03T11:58:25.695Z</time>
      </trkpt>
      <trkpt lat="43.63059" lon="3.90965">
        <ele>31.598911</ele>
        <time>2021-01-03T11:58:29.601Z</time>
      </trkpt>
      <trkpt lat="43.6305" lon="3.90976">
        <ele>31.604973</ele>
        <time>2021-01-03T11:58:32.853Z</time>
      </trkpt>
      <trkpt lat="43.63028" lon="3.91008">
        <ele>31.620948</ele>
        <time>2021-01-03T11:58:40.211Z</time>
      </trkpt>
      <trkpt lat="43.63022" lon="3.91007">
        <ele>31.624058</ele>
        <time>2021-01-03T11:58:41.595Z</time>
      </trkpt>
      <trkpt lat="43.63017" lon="3.91003">
        <ele>31.626699</ele>
        <time>2021-01-03T11:58:42.856Z</time>
      </trkpt>
      <trkpt lat="43.63011" lon="3.91011">
        <ele>31.631096</ele>
        <time>2021-01-03T11:58:44.761Z</time>
      </trkpt>
      <trkpt lat="43.63009" lon="3.91014">
        <ele>31.632544</ele>
        <time>2021-01-03T11:58:45.364Z</time>
      </trkpt>
      <trkpt lat="43.63004" lon="3.91021">
        <ele>31.635851</ele>
        <time>2021-01-03T11:58:46.724Z</time>
      </trkpt>
      <trkpt lat="43.63001" lon="3.91017">
        <ele>31.637621</ele>
        <time>2021-01-03T11:58:47.856Z</time>
      </trkpt>
      <trkpt lat="43.62977" lon="3.9095">
        <ele>31.664838</ele>
        <time>2021-01-03T11:59:00.403Z</time>
      </trkpt>
      <trkpt lat="43.62947" lon="3.90912">
        <ele>31.661923</ele>
        <time>2021-01-03T11:59:10.017Z</time>
      </trkpt>
      <trkpt lat="43.62933" lon="3.90895">
        <ele>31.626755</ele>
        <time>2021-01-03T11:59:14.256Z</time>
      </trkpt>
      <trkpt lat="43.6291" lon="3.90819">
        <ele>31.510269</ele>
        <time>2021-01-03T11:59:27.756Z</time>
      </trkpt>
      <trkpt lat="43.62899" lon="3.90823">
        <ele>31.487032</ele>
        <time>2021-01-03T11:59:32.027Z</time>
      </trkpt>
      <trkpt lat="43.62889" lon="3.90838">
        <ele>31.459448</ele>
        <time>2021-01-03T11:59:37.078Z</time>
      </trkpt>
      <trkpt lat="43.62849" lon="3.90906">
        <ele>31.334716</ele>
        <time>2021-01-03T11:59:59.943Z</time>
      </trkpt>
      <trkpt lat="43.62847" lon="3.90909">
        <ele>31.329747</ele>
        <time>2021-01-03T12:00:00.581Z</time>
      </trkpt>
      <trkpt lat="43.62828" lon="3.90939">
        <ele>31.409524</ele>
        <time>2021-01-03T12:00:09.127Z</time>
      </trkpt>
      <trkpt lat="43.62776" lon="3.91014">
        <ele>31.625397</ele>
        <time>2021-01-03T12:00:37.989Z</time>
      </trkpt>
      <trkpt lat="43.62766" lon="3.91024">
        <ele>31.660487</ele>
        <time>2021-01-03T12:00:42.740Z</time>
      </trkpt>
      <trkpt lat="43.62762" lon="3.91032">
        <ele>31.682872</ele>
        <time>2021-01-03T12:00:44.971Z</time>
      </trkpt>
      <trkpt lat="43.62722" lon="3.91087">
        <ele>31.843009</ele>
        <time>2021-01-03T12:00:58.870Z</time>
      </trkpt>
      <trkpt lat="43.62694" lon="3.91107">
        <ele>32.03443</ele>
        <time>2021-01-03T12:01:06.921Z</time>
      </trkpt>
      <trkpt lat="43.62689" lon="3.91113">
        <ele>32.076264</ele>
        <time>2021-01-03T12:01:08.850Z</time>
      </trkpt>
      <trkpt lat="43.62636" lon="3.9104">
        <ele>32.5348</ele>
        <time>2021-01-03T12:01:28.525Z</time>
      </trkpt>
      <trkpt lat="43.62596" lon="3.91085">
        <ele>32.856185</ele>
        <time>2021-01-03T12:01:42.176Z</time>
      </trkpt>
      <trkpt lat="43.62586" lon="3.91098">
        <ele>32.939821</ele>
        <time>2021-01-03T12:01:45.868Z</time>
      </trkpt>
      <trkpt lat="43.62554" lon="3.91139">
        <ele>33.176827</ele>
        <time>2021-01-03T12:01:56.443Z</time>
      </trkpt>
      <trkpt lat="43.62547" lon="3.91149">
        <ele>33.232187</ele>
        <time>2021-01-03T12:01:58.726Z</time>
      </trkpt>
      <trkpt lat="43.62513" lon="3.91195">
        <ele>33.492835</ele>
        <time>2021-01-03T12:02:09.990Z</time>
      </trkpt>
      <trkpt lat="43.62472" lon="3.91247">
        <ele>33.795135</ele>
        <time>2021-01-03T12:02:23.003Z</time>
      </trkpt>
      <trkpt lat="43.62472" lon="3.91247">
        <ele>33.795135</ele>
        <time>2021-01-03T12:02:23.008Z</time>
      </trkpt>
      <trkpt lat="43.62379" lon="3.91365">
        <ele>35.295636</ele>
        <time>2021-01-03T12:03:00.598Z</time>
      </trkpt>
      <trkpt lat="43.62404" lon="3.91426">
        <ele>35.982731</ele>
        <time>2021-01-03T12:03:15.632Z</time>
      </trkpt>
      <trkpt lat="43.62448" lon="3.91535">
        <ele>36.811727</ele>
        <time>2021-01-03T12:03:41.356Z</time>
      </trkpt>
      <trkpt lat="43.62376" lon="3.91589">
        <ele>37.407425</ele>
        <time>2021-01-03T12:04:03.489Z</time>
      </trkpt>
      <trkpt lat="43.62336" lon="3.91623">
        <ele>37.56786</ele>
        <time>2021-01-03T12:04:13.905Z</time>
      </trkpt>
      <trkpt lat="43.62269" lon="3.91682">
        <ele>36.863088</ele>
        <time>2021-01-03T12:04:29.405Z</time>
      </trkpt>
      <trkpt lat="43.62266" lon="3.91685">
        <ele>36.831531</ele>
        <time>2021-01-03T12:04:30.138Z</time>
      </trkpt>
      <trkpt lat="43.62266" lon="3.91685">
        <ele>36.831531</ele>
        <time>2021-01-03T12:04:30.164Z</time>
      </trkpt>
      <trkpt lat="43.62251" lon="3.91692">
        <ele>36.691137</ele>
        <time>2021-01-03T12:04:33.325Z</time>
      </trkpt>
      <trkpt lat="43.62242" lon="3.91696">
        <ele>36.606716</ele>
        <time>2021-01-03T12:04:35.136Z</time>
      </trkpt>
      <trkpt lat="43.62235" lon="3.91699">
        <ele>36.537463</ele>
        <time>2021-01-03T12:04:36.705Z</time>
      </trkpt>
      <trkpt lat="43.62231" lon="3.91694">
        <ele>36.493098</ele>
        <time>2021-01-03T12:04:38.096Z</time>
      </trkpt>
      <trkpt lat="43.62226" lon="3.91689">
        <ele>36.439392</ele>
        <time>2021-01-03T12:04:39.746Z</time>
      </trkpt>
      <trkpt lat="43.62223" lon="3.91687">
        <ele>36.401478</ele>
        <time>2021-01-03T12:04:40.945Z</time>
      </trkpt>
      <trkpt lat="43.62217" lon="3.91684">
        <ele>36.346484</ele>
        <time>2021-01-03T12:04:42.519Z</time>
      </trkpt>
      <trkpt lat="43.62213" lon="3.91683">
        <ele>36.310818</ele>
        <time>2021-01-03T12:04:43.539Z</time>
      </trkpt>
      <trkpt lat="43.62209" lon="3.91684">
        <ele>36.27618</ele>
        <time>2021-01-03T12:04:44.526Z</time>
      </trkpt>
      <trkpt lat="43.62203" lon="3.91685">
        <ele>36.226516</ele>
        <time>2021-01-03T12:04:46.029Z</time>
      </trkpt>
      <trkpt lat="43.62198" lon="3.91688">
        <ele>36.176572</ele>
        <time>2021-01-03T12:04:47.630Z</time>
      </trkpt>
      <trkpt lat="43.62198" lon="3.91688">
        <ele>36.176572</ele>
        <time>2021-01-03T12:04:47.632Z</time>
      </trkpt>
      <trkpt lat="43.62196" lon="3.9169">
        <ele>36.149348</ele>
        <time>2021-01-03T12:04:48.464Z</time>
      </trkpt>
      <trkpt lat="43.62192" lon="3.91695">
        <ele>36.107534</ele>
        <time>2021-01-03T12:04:49.765Z</time>
      </trkpt>
      <trkpt lat="43.62189" lon="3.917">
        <ele>36.064679</ele>
        <time>2021-01-03T12:04:51.063Z</time>
      </trkpt>
      <trkpt lat="43.62186" lon="3.91706">
        <ele>36.014085</ele>
        <time>2021-01-03T12:04:52.362Z</time>
      </trkpt>
      <trkpt lat="43.62185" lon="3.9171">
        <ele>35.981661</ele>
        <time>2021-01-03T12:04:53.240Z</time>
      </trkpt>
      <trkpt lat="43.62184" lon="3.91716">
        <ele>35.94189</ele>
        <time>2021-01-03T12:04:54.318Z</time>
      </trkpt>
      <trkpt lat="43.6219" lon="3.91748">
        <ele>35.707934</ele>
        <time>2021-01-03T12:05:01.024Z</time>
      </trkpt>
      <trkpt lat="43.62193" lon="3.91753">
        <ele>35.666222</ele>
        <time>2021-01-03T12:05:02.074Z</time>
      </trkpt>
      <trkpt lat="43.62195" lon="3.91754">
        <ele>35.649692</ele>
        <time>2021-01-03T12:05:02.544Z</time>
      </trkpt>
      <trkpt lat="43.62208" lon="3.91762">
        <ele>35.513299</ele>
        <time>2021-01-03T12:05:06.383Z</time>
      </trkpt>
      <trkpt lat="43.62218" lon="3.91762">
        <ele>35.41757</ele>
        <time>2021-01-03T12:05:09.075Z</time>
      </trkpt>
      <trkpt lat="43.62223" lon="3.91759">
        <ele>35.365814</ele>
        <time>2021-01-03T12:05:10.553Z</time>
      </trkpt>
      <trkpt lat="43.62232" lon="3.91763">
        <ele>35.27083</ele>
        <time>2021-01-03T12:05:17.408Z</time>
      </trkpt>
      <trkpt lat="43.62249" lon="3.91784">
        <ele>35.055989</ele>
        <time>2021-01-03T12:05:33.038Z</time>
      </trkpt>
      <trkpt lat="43.62258" lon="3.91793">
        <ele>34.944879</ele>
        <time>2021-01-03T12:05:41.121Z</time>
      </trkpt>
      <trkpt lat="43.62293" lon="3.91829">
        <ele>34.532619</ele>
        <time>2021-01-03T12:06:11.087Z</time>
      </trkpt>
      <trkpt lat="43.62377" lon="3.91927">
        <ele>34.161456</ele>
        <time>2021-01-03T12:07:27.545Z</time>
      </trkpt>
      <trkpt lat="43.62377" lon="3.91927">
        <ele>34.160842</ele>
        <time>2021-01-03T12:07:27.731Z</time>
      </trkpt>
      <trkpt lat="43.62426" lon="3.92004">
        <ele>34.006298</ele>
        <time>2021-01-03T12:08:19.418Z</time>
      </trkpt>
      <trkpt lat="43.62504" lon="3.92111">
        <ele>34.429947</ele>
        <time>2021-01-03T12:09:36.151Z</time>
      </trkpt>
      <trkpt lat="43.62516" lon="3.92132">
        <ele>34.519044</ele>
        <time>2021-01-03T12:09:49.226Z</time>
      </trkpt>
      <trkpt lat="43.62515" lon="3.92145">
        <ele>34.564053</ele>
        <time>2021-01-03T12:09:55.880Z</time>
      </trkpt>
      <trkpt lat="43.62518" lon="3.92156">
        <ele>34.602732</ele>
        <time>2021-01-03T12:10:01.547Z</time>
      </trkpt>
      <trkpt lat="43.62509" lon="3.92161">
        <ele>34.647448</ele>
        <time>2021-01-03T12:10:04.746Z</time>
      </trkpt>
      <trkpt lat="43.62513" lon="3.92169">
        <ele>34.678312</ele>
        <time>2021-01-03T12:10:07.257Z</time>
      </trkpt>
      <trkpt lat="43.62554" lon="3.92202">
        <ele>35.097609</ele>
        <time>2021-01-03T12:10:27.241Z</time>
      </trkpt>
      <trkpt lat="43.6271" lon="3.92618">
        <ele>41.178391</ele>
        <time>2021-01-03T12:13:03.991Z</time>
      </trkpt>
      <trkpt lat="43.62653" lon="3.92671">
        <ele>42.644984</ele>
        <time>2021-01-03T12:13:38.506Z</time>
      </trkpt>
      <trkpt lat="43.62562" lon="3.92766">
        <ele>45.078442</ele>
        <time>2021-01-03T12:14:32.337Z</time>
      </trkpt>
      <trkpt lat="43.62557" lon="3.92775">
        <ele>45.232496</ele>
        <time>2021-01-03T12:14:37.264Z</time>
      </trkpt>
      <trkpt lat="43.6249" lon="3.92712">
        <ele>46.61372</ele>
        <time>2021-01-03T12:15:01.338Z</time>
      </trkpt>
      <trkpt lat="43.62425" lon="3.92667">
        <ele>47.83806</ele>
        <time>2021-01-03T12:15:23.956Z</time>
      </trkpt>
      <trkpt lat="43.6241" lon="3.92704">
        <ele>48.413245</ele>
        <time>2021-01-03T12:15:37.539Z</time>
      </trkpt>
      <trkpt lat="43.6239" lon="3.92759">
        <ele>49.32141</ele>
        <time>2021-01-03T12:15:57.239Z</time>
      </trkpt>
      <trkpt lat="43.62376" lon="3.92789">
        <ele>49.83671</ele>
        <time>2021-01-03T12:16:09.340Z</time>
      </trkpt>
      <trkpt lat="43.62362" lon="3.92821">
        <ele>50.396252</ele>
        <time>2021-01-03T12:16:22.768Z</time>
      </trkpt>
      <trkpt lat="43.62341" lon="3.92865">
        <ele>51.173888</ele>
        <time>2021-01-03T12:16:41.657Z</time>
      </trkpt>
      <trkpt lat="43.6234" lon="3.92889">
        <ele>51.526748</ele>
        <time>2021-01-03T12:16:50.244Z</time>
      </trkpt>
      <trkpt lat="43.62386" lon="3.92958">
        <ele>52.847924</ele>
        <time>2021-01-03T12:17:23.017Z</time>
      </trkpt>
      <trkpt lat="43.62386" lon="3.92958">
        <ele>52.847924</ele>
        <time>2021-01-03T12:17:23.144Z</time>
      </trkpt>
      <trkpt lat="43.62426" lon="3.93031">
        <ele>54.117417</ele>
        <time>2021-01-03T12:17:53.635Z</time>
      </trkpt>
      <trkpt lat="43.62445" lon="3.93094">
        <ele>55.071914</ele>
        <time>2021-01-03T12:18:17.213Z</time>
      </trkpt>
      <trkpt lat="43.62471" lon="3.93222">
        <ele>55.792878</ele>
        <time>2021-01-03T12:18:58.084Z</time>
      </trkpt>
      <trkpt lat="43.62474" lon="3.93249">
        <ele>55.912907</ele>
        <time>2021-01-03T12:19:06.274Z</time>
      </trkpt>
      <trkpt lat="43.62475" lon="3.93253">
        <ele>55.9328</ele>
        <time>2021-01-03T12:19:07.534Z</time>
      </trkpt>
      <trkpt lat="43.62498" lon="3.93401">
        <ele>55.934662</ele>
        <time>2021-01-03T12:19:47.623Z</time>
      </trkpt>
      <trkpt lat="43.62511" lon="3.93528">
        <ele>54.867341</ele>
        <time>2021-01-03T12:20:18.910Z</time>
      </trkpt>
      <trkpt lat="43.62512" lon="3.93551">
        <ele>54.674315</ele>
        <time>2021-01-03T12:20:24.502Z</time>
      </trkpt>
      <trkpt lat="43.62504" lon="3.93619">
        <ele>54.100238</ele>
        <time>2021-01-03T12:20:41.185Z</time>
      </trkpt>
      <trkpt lat="43.62505" lon="3.93704">
        <ele>53.39602</ele>
        <time>2021-01-03T12:21:01.957Z</time>
      </trkpt>
      <trkpt lat="43.62505" lon="3.93728">
        <ele>53.199305</ele>
        <time>2021-01-03T12:21:07.810Z</time>
      </trkpt>
      <trkpt lat="43.62486" lon="3.93955">
        <ele>52.016111</ele>
        <time>2021-01-03T12:22:05.769Z</time>
      </trkpt>
      <trkpt lat="43.62474" lon="3.93968">
        <ele>51.971516</ele>
        <time>2021-01-03T12:22:11.615Z</time>
      </trkpt>
      <trkpt lat="43.62411" lon="3.93996">
        <ele>51.787934</ele>
        <time>2021-01-03T12:22:36.019Z</time>
      </trkpt>
      <trkpt lat="43.6241" lon="3.93999">
        <ele>51.780615</ele>
        <time>2021-01-03T12:22:37.018Z</time>
      </trkpt>
      <trkpt lat="43.62411" lon="3.94011">
        <ele>51.755813</ele>
        <time>2021-01-03T12:22:40.307Z</time>
      </trkpt>
      <trkpt lat="43.62461" lon="3.9427">
        <ele>52.747112</ele>
        <time>2021-01-03T12:23:57.819Z</time>
      </trkpt>
      <trkpt lat="43.62473" lon="3.94395">
        <ele>53.170842</ele>
        <time>2021-01-03T12:24:35.616Z</time>
      </trkpt>
      <trkpt lat="43.6247" lon="3.94435">
        <ele>53.307706</ele>
        <time>2021-01-03T12:24:47.544Z</time>
      </trkpt>
      <trkpt lat="43.62432" lon="3.94609">
        <ele>52.35862</ele>
        <time>2021-01-03T12:25:35.479Z</time>
      </trkpt>
      <trkpt lat="43.62422" lon="3.94777">
        <ele>50.173558</ele>
        <time>2021-01-03T12:26:14.605Z</time>
      </trkpt>
      <trkpt lat="43.6242" lon="3.94807">
        <ele>49.475603</ele>
        <time>2021-01-03T12:26:21.230Z</time>
      </trkpt>
      <trkpt lat="43.62419" lon="3.94821">
        <ele>49.129251</ele>
        <time>2021-01-03T12:26:24.412Z</time>
      </trkpt>
      <trkpt lat="43.62419" lon="3.94825">
        <ele>49.040884</ele>
        <time>2021-01-03T12:26:25.271Z</time>
      </trkpt>
      <trkpt lat="43.62382" lon="3.94838">
        <ele>47.81973</ele>
        <time>2021-01-03T12:26:36.684Z</time>
      </trkpt>
      <trkpt lat="43.62286" lon="3.94869">
        <ele>44.657344</ele>
        <time>2021-01-03T12:27:06.554Z</time>
      </trkpt>
      <trkpt lat="43.62286" lon="3.94869">
        <ele>44.641501</ele>
        <time>2021-01-03T12:27:06.667Z</time>
      </trkpt>
      <trkpt lat="43.62199" lon="3.94904">
        <ele>41.881182</ele>
        <time>2021-01-03T12:27:34.864Z</time>
      </trkpt>
      <trkpt lat="43.61853" lon="3.9498">
        <ele>32.55243</ele>
        <time>2021-01-03T12:29:24.207Z</time>
      </trkpt>
      <trkpt lat="43.61836" lon="3.94985">
        <ele>32.165082</ele>
        <time>2021-01-03T12:29:30.059Z</time>
      </trkpt>
      <trkpt lat="43.61778" lon="3.94889">
        <ele>30.684065</ele>
        <time>2021-01-03T12:29:48.397Z</time>
      </trkpt>
      <trkpt lat="43.61711" lon="3.94766">
        <ele>30.325796</ele>
        <time>2021-01-03T12:30:13.219Z</time>
      </trkpt>
      <trkpt lat="43.61687" lon="3.94717">
        <ele>30.185073</ele>
        <time>2021-01-03T12:30:24.076Z</time>
      </trkpt>
      <trkpt lat="43.61672" lon="3.94691">
        <ele>30.25151</ele>
        <time>2021-01-03T12:30:29.948Z</time>
      </trkpt>
      <trkpt lat="43.61678" lon="3.94679">
        <ele>30.283602</ele>
        <time>2021-01-03T12:30:34.164Z</time>
      </trkpt>
      <trkpt lat="43.61697" lon="3.94583">
        <ele>30.504879</ele>
        <time>2021-01-03T12:31:01.964Z</time>
      </trkpt>
      <trkpt lat="43.61715" lon="3.94408">
        <ele>30.965538</ele>
        <time>2021-01-03T12:31:51.387Z</time>
      </trkpt>
      <trkpt lat="43.61727" lon="3.94372">
        <ele>31.091136</ele>
        <time>2021-01-03T12:32:02.761Z</time>
      </trkpt>
      <trkpt lat="43.61737" lon="3.94355">
        <ele>31.159307</ele>
        <time>2021-01-03T12:32:08.802Z</time>
      </trkpt>
      <trkpt lat="43.61751" lon="3.94334">
        <ele>31.249401</ele>
        <time>2021-01-03T12:32:17.091Z</time>
      </trkpt>
      <trkpt lat="43.61761" lon="3.94308">
        <ele>31.341087</ele>
        <time>2021-01-03T12:32:25.416Z</time>
      </trkpt>
      <trkpt lat="43.61802" lon="3.94063">
        <ele>32.529983</ele>
        <time>2021-01-03T12:33:39.464Z</time>
      </trkpt>
      <trkpt lat="43.61816" lon="3.93957">
        <ele>33.083084</ele>
        <time>2021-01-03T12:34:11.395Z</time>
      </trkpt>
      <trkpt lat="43.61817" lon="3.93943">
        <ele>33.154589</ele>
        <time>2021-01-03T12:34:15.670Z</time>
      </trkpt>
      <trkpt lat="43.61817" lon="3.93938">
        <ele>33.179989</ele>
        <time>2021-01-03T12:34:17.269Z</time>
      </trkpt>
      <trkpt lat="43.61816" lon="3.93932">
        <ele>33.210997</ele>
        <time>2021-01-03T12:34:19.111Z</time>
      </trkpt>
      <trkpt lat="43.61813" lon="3.93883">
        <ele>33.45799</ele>
        <time>2021-01-03T12:34:28.486Z</time>
      </trkpt>
      <trkpt lat="43.61819" lon="3.9383">
        <ele>33.729958</ele>
        <time>2021-01-03T12:34:38.732Z</time>
      </trkpt>
      <trkpt lat="43.61836" lon="3.93772">
        <ele>34.044189</ele>
        <time>2021-01-03T12:34:50.556Z</time>
      </trkpt>
      <trkpt lat="43.61843" lon="3.93748">
        <ele>34.172852</ele>
        <time>2021-01-03T12:34:55.501Z</time>
      </trkpt>
      <trkpt lat="43.61843" lon="3.93746">
        <ele>34.185141</ele>
        <time>2021-01-03T12:34:56.073Z</time>
      </trkpt>
      <trkpt lat="43.6186" lon="3.93649">
        <ele>34.689417</ele>
        <time>2021-01-03T12:35:14.759Z</time>
      </trkpt>
      <trkpt lat="43.61861" lon="3.93637">
        <ele>34.749221</ele>
        <time>2021-01-03T12:35:17.023Z</time>
      </trkpt>
      <trkpt lat="43.61861" lon="3.93637">
        <ele>34.749221</ele>
        <time>2021-01-03T12:35:17.467Z</time>
      </trkpt>
      <trkpt lat="43.61861" lon="3.93637">
        <ele>34.749221</ele>
        <time>2021-01-03T12:35:17.534Z</time>
      </trkpt>
      <trkpt lat="43.61864" lon="3.93603">
        <ele>34.921564</ele>
        <time>2021-01-03T12:35:23.872Z</time>
      </trkpt>
      <trkpt lat="43.61919" lon="3.93352">
        <ele>36.960883</ele>
        <time>2021-01-03T12:36:17.626Z</time>
      </trkpt>
      <trkpt lat="43.6194" lon="3.93161">
        <ele>39.246417</ele>
        <time>2021-01-03T12:37:02.271Z</time>
      </trkpt>
      <trkpt lat="43.61956" lon="3.93052">
        <ele>40.737302</ele>
        <time>2021-01-03T12:37:28.958Z</time>
      </trkpt>
      <trkpt lat="43.61962" lon="3.93003">
        <ele>41.525122</ele>
        <time>2021-01-03T12:37:40.872Z</time>
      </trkpt>
      <trkpt lat="43.61964" lon="3.92989">
        <ele>41.76889</ele>
        <time>2021-01-03T12:37:44.168Z</time>
      </trkpt>
      <trkpt lat="43.61936" lon="3.92989">
        <ele>42.407485</ele>
        <time>2021-01-03T12:37:54.020Z</time>
      </trkpt>
      <trkpt lat="43.61806" lon="3.9299">
        <ele>45.384622</ele>
        <time>2021-01-03T12:38:39.337Z</time>
      </trkpt>
      <trkpt lat="43.61743" lon="3.92991">
        <ele>46.888664</ele>
        <time>2021-01-03T12:39:02.817Z</time>
      </trkpt>
      <trkpt lat="43.61737" lon="3.92992">
        <ele>47.028873</ele>
        <time>2021-01-03T12:39:04.983Z</time>
      </trkpt>
      <trkpt lat="43.61699" lon="3.92996">
        <ele>47.937185</ele>
        <time>2021-01-03T12:39:18.664Z</time>
      </trkpt>
      <trkpt lat="43.61699" lon="3.92989">
        <ele>48.055697</ele>
        <time>2021-01-03T12:39:20.419Z</time>
      </trkpt>
      <trkpt lat="43.61697" lon="3.92915">
        <ele>49.245671</ele>
        <time>2021-01-03T12:39:38.706Z</time>
      </trkpt>
      <trkpt lat="43.6167" lon="3.92894">
        <ele>49.45846</ele>
        <time>2021-01-03T12:39:48.307Z</time>
      </trkpt>
      <trkpt lat="43.61668" lon="3.92893">
        <ele>49.474559</ele>
        <time>2021-01-03T12:39:49.216Z</time>
      </trkpt>
      <trkpt lat="43.6163" lon="3.92865">
        <ele>49.763765</ele>
        <time>2021-01-03T12:40:00.967Z</time>
      </trkpt>
      <trkpt lat="43.61623" lon="3.9286">
        <ele>49.817054</ele>
        <time>2021-01-03T12:40:02.874Z</time>
      </trkpt>
      <trkpt lat="43.61619" lon="3.92857">
        <ele>49.847816</ele>
        <time>2021-01-03T12:40:04.024Z</time>
      </trkpt>
      <trkpt lat="43.61584" lon="3.92858">
        <ele>50.086888</ele>
        <time>2021-01-03T12:40:12.503Z</time>
      </trkpt>
      <trkpt lat="43.61565" lon="3.92855">
        <ele>50.218699</ele>
        <time>2021-01-03T12:40:17.172Z</time>
      </trkpt>
      <trkpt lat="43.61545" lon="3.92843">
        <ele>50.365736</ele>
        <time>2021-01-03T12:40:22.096Z</time>
      </trkpt>
      <trkpt lat="43.61529" lon="3.92729">
        <ele>50.094596</ele>
        <time>2021-01-03T12:40:40.527Z</time>
      </trkpt>
      <trkpt lat="43.61492" lon="3.92525">
        <ele>49.387742</ele>
        <time>2021-01-03T12:41:13.491Z</time>
      </trkpt>
      <trkpt lat="43.61461" lon="3.92424">
        <ele>49.025885</ele>
        <time>2021-01-03T12:41:31.742Z</time>
      </trkpt>
      <trkpt lat="43.6143" lon="3.92373">
        <ele>48.807995</ele>
        <time>2021-01-03T12:41:41.983Z</time>
      </trkpt>
      <trkpt lat="43.61411" lon="3.92355">
        <ele>48.596041</ele>
        <time>2021-01-03T12:41:47.132Z</time>
      </trkpt>
      <trkpt lat="43.61388" lon="3.92341">
        <ele>48.318343</ele>
        <time>2021-01-03T12:41:52.346Z</time>
      </trkpt>
      <trkpt lat="43.61356" lon="3.92331">
        <ele>47.952585</ele>
        <time>2021-01-03T12:41:59.203Z</time>
      </trkpt>
      <trkpt lat="43.6135" lon="3.92331">
        <ele>47.882208</ele>
        <time>2021-01-03T12:42:00.539Z</time>
      </trkpt>
      <trkpt lat="43.6135" lon="3.92315">
        <ele>47.754407</ele>
        <time>2021-01-03T12:42:08.528Z</time>
        <extensions>
          <visugpx:TrkExtension xmlns:visugpx="https://www.visugpx.com/editgpx/">
            <visugpx:node>1</visugpx:node>
            </visugpx:TrkExtension>
        </extensions>
      </trkpt>
      <trkpt lat="43.61352" lon="3.92311">
        <ele>49.1</ele>
      </trkpt>
      <trkpt lat="43.61334" lon="3.92296">
        <ele>49.1</ele>
      </trkpt>
      <trkpt lat="43.61321" lon="3.92288">
        <ele>48.7</ele>
      </trkpt>
      <trkpt lat="43.61306" lon="3.9228">
        <ele>48.3</ele>
      </trkpt>
      <trkpt lat="43.61293" lon="3.92276">
        <ele>48</ele>
      </trkpt>
      <trkpt lat="43.61273" lon="3.92264">
        <ele>47.5</ele>
      </trkpt>
      <trkpt lat="43.61244" lon="3.92245">
        <ele>46.7</ele>
      </trkpt>
      <trkpt lat="43.61203" lon="3.92218">
        <ele>44.9</ele>
      </trkpt>
      <trkpt lat="43.61191" lon="3.92213">
        <ele>44.4</ele>
      </trkpt>
      <trkpt lat="43.61141" lon="3.92202">
        <ele>43.4</ele>
      </trkpt>
      <trkpt lat="43.61138" lon="3.922">
        <ele>43.4</ele>
      </trkpt>
      <trkpt lat="43.61139" lon="3.92158">
        <ele>43.4</ele>
      </trkpt>
      <trkpt lat="43.6114" lon="3.92103">
        <ele>45.6</ele>
      </trkpt>
      <trkpt lat="43.61141" lon="3.92078">
        <ele>46.6</ele>
      </trkpt>
      <trkpt lat="43.61141" lon="3.92073">
        <ele>46.7</ele>
        <extensions>
          <visugpx:TrkExtension xmlns:visugpx="https://www.visugpx.com/editgpx/">
            <visugpx:node>2</visugpx:node>
            </visugpx:TrkExtension>
        </extensions>
      </trkpt>
      <trkpt lat="43.61142" lon="3.92002">
        <ele>48.8</ele>
      </trkpt>
      <trkpt lat="43.61144" lon="3.91921">
        <ele>44.1</ele>
      </trkpt>
      <trkpt lat="43.61144" lon="3.91918">
        <ele>44</ele>
        <extensions>
          <visugpx:TrkExtension xmlns:visugpx="https://www.visugpx.com/editgpx/">
            <visugpx:node>3</visugpx:node>
            </visugpx:TrkExtension>
        </extensions>
      </trkpt>
      <trkpt lat="43.61143" lon="3.91912">
        <ele>43.4</ele>
      </trkpt>
      <trkpt lat="43.61143" lon="3.91901">
        <ele>42.4</ele>
        <extensions>
          <visugpx:TrkExtension xmlns:visugpx="https://www.visugpx.com/editgpx/">
            <visugpx:node>4</visugpx:node>
            </visugpx:TrkExtension>
        </extensions>
      </trkpt>
      <trkpt lat="43.61142" lon="3.91895">
        <ele>39.997845</ele>
        <time>2021-01-03T12:43:44.202Z</time>
      </trkpt>
      <trkpt lat="43.61142" lon="3.91895">
        <ele>39.997845</ele>
        <time>2021-01-03T12:43:44.245Z</time>
      </trkpt>
      <trkpt lat="43.61135" lon="3.91876">
        <ele>39.47179</ele>
        <time>2021-01-03T12:43:46.775Z</time>
      </trkpt>
      <trkpt lat="43.61123" lon="3.91809">
        <ele>37.756138</ele>
        <time>2021-01-03T12:43:55.047Z</time>
      </trkpt>
      <trkpt lat="43.61118" lon="3.9178">
        <ele>36.946335</ele>
        <time>2021-01-03T12:43:58.586Z</time>
      </trkpt>
      <trkpt lat="43.61116" lon="3.91773">
        <ele>36.685303</ele>
        <time>2021-01-03T12:43:59.507Z</time>
      </trkpt>
      <trkpt lat="43.61095" lon="3.91667">
        <ele>33.221549</ele>
        <time>2021-01-03T12:44:12.223Z</time>
      </trkpt>
      <trkpt lat="43.61091" lon="3.91648">
        <ele>32.623852</ele>
        <time>2021-01-03T12:44:14.443Z</time>
      </trkpt>
      <trkpt lat="43.61082" lon="3.91604">
        <ele>31.171166</ele>
        <time>2021-01-03T12:44:19.847Z</time>
      </trkpt>
      <trkpt lat="43.61077" lon="3.91585">
        <ele>30.529938</ele>
        <time>2021-01-03T12:44:22.226Z</time>
      </trkpt>
      <trkpt lat="43.6107" lon="3.91548">
        <ele>29.37733</ele>
        <time>2021-01-03T12:44:26.812Z</time>
      </trkpt>
      <trkpt lat="43.61059" lon="3.91497">
        <ele>28.40429</ele>
        <time>2021-01-03T12:44:33.471Z</time>
      </trkpt>
      <trkpt lat="43.61056" lon="3.91484">
        <ele>28.173904</ele>
        <time>2021-01-03T12:44:35.080Z</time>
      </trkpt>
      <trkpt lat="43.61055" lon="3.91479">
        <ele>28.069879</ele>
        <time>2021-01-03T12:44:35.810Z</time>
      </trkpt>
      <trkpt lat="43.61053" lon="3.9147">
        <ele>27.902478</ele>
        <time>2021-01-03T12:44:36.953Z</time>
      </trkpt>
      <trkpt lat="43.61032" lon="3.91365">
        <ele>25.927757</ele>
        <time>2021-01-03T12:44:51.903Z</time>
      </trkpt>
      <trkpt lat="43.61013" lon="3.91272">
        <ele>24.56727</ele>
        <time>2021-01-03T12:45:05.784Z</time>
      </trkpt>
      <trkpt lat="43.61013" lon="3.91252">
        <ele>24.384357</ele>
        <time>2021-01-03T12:45:08.830Z</time>
      </trkpt>
      <trkpt lat="43.61011" lon="3.91244">
        <ele>24.316599</ele>
        <time>2021-01-03T12:45:09.907Z</time>
      </trkpt>
      <trkpt lat="43.61003" lon="3.91243">
        <ele>24.218188</ele>
        <time>2021-01-03T12:45:11.462Z</time>
      </trkpt>
      <trkpt lat="43.60994" lon="3.9124">
        <ele>24.102907</ele>
        <time>2021-01-03T12:45:13.284Z</time>
      </trkpt>
      <trkpt lat="43.60993" lon="3.91239">
        <ele>24.087842</ele>
        <time>2021-01-03T12:45:13.522Z</time>
      </trkpt>
      <trkpt lat="43.60948" lon="3.91224">
        <ele>23.530135</ele>
        <time>2021-01-03T12:45:22.292Z</time>
      </trkpt>
      <trkpt lat="43.60942" lon="3.91224">
        <ele>23.450687</ele>
        <time>2021-01-03T12:45:23.519Z</time>
      </trkpt>
      <trkpt lat="43.60939" lon="3.91224">
        <ele>23.411545</ele>
        <time>2021-01-03T12:45:24.163Z</time>
      </trkpt>
      <trkpt lat="43.60931" lon="3.91227">
        <ele>23.312733</ele>
        <time>2021-01-03T12:45:25.745Z</time>
      </trkpt>
      <trkpt lat="43.60925" lon="3.91225">
        <ele>23.237196</ele>
        <time>2021-01-03T12:45:26.983Z</time>
      </trkpt>
      <trkpt lat="43.60917" lon="3.91223">
        <ele>23.143039</ele>
        <time>2021-01-03T12:45:28.583Z</time>
      </trkpt>
      <trkpt lat="43.60915" lon="3.91222">
        <ele>23.105831</ele>
        <time>2021-01-03T12:45:29.171Z</time>
      </trkpt>
      <trkpt lat="43.6091" lon="3.91219">
        <ele>23.052465</ele>
        <time>2021-01-03T12:45:30.029Z</time>
      </trkpt>
      <trkpt lat="43.60907" lon="3.91209">
        <ele>22.955183</ele>
        <time>2021-01-03T12:45:31.624Z</time>
      </trkpt>
      <trkpt lat="43.60903" lon="3.91201">
        <ele>22.865705</ele>
        <time>2021-01-03T12:45:33.093Z</time>
      </trkpt>
      <trkpt lat="43.60902" lon="3.9119">
        <ele>22.765989</ele>
        <time>2021-01-03T12:45:34.839Z</time>
      </trkpt>
      <trkpt lat="43.60894" lon="3.91191">
        <ele>22.7748</ele>
        <time>2021-01-03T12:45:40.569Z</time>
      </trkpt>
      <trkpt lat="43.60857" lon="3.91171">
        <ele>23.002931</ele>
        <time>2021-01-03T12:46:07.951Z</time>
      </trkpt>
      <trkpt lat="43.60853" lon="3.91168">
        <ele>23.029942</ele>
        <time>2021-01-03T12:46:11.205Z</time>
      </trkpt>
      <trkpt lat="43.60847" lon="3.91162">
        <ele>23.073849</ele>
        <time>2021-01-03T12:46:16.436Z</time>
      </trkpt>
      <trkpt lat="43.60846" lon="3.91157">
        <ele>23.096165</ele>
        <time>2021-01-03T12:46:19.134Z</time>
      </trkpt>
      <trkpt lat="43.60845" lon="3.91151">
        <ele>23.122268</ele>
        <time>2021-01-03T12:46:22.244Z</time>
      </trkpt>
      <trkpt lat="43.60838" lon="3.91151">
        <ele>23.161072</ele>
        <time>2021-01-03T12:46:26.926Z</time>
      </trkpt>
      <trkpt lat="43.60838" lon="3.91138">
        <ele>23.216454</ele>
        <time>2021-01-03T12:46:30.714Z</time>
      </trkpt>
      <trkpt lat="43.60835" lon="3.91126">
        <ele>23.268109</ele>
        <time>2021-01-03T12:46:34.173Z</time>
      </trkpt>
      <trkpt lat="43.60834" lon="3.91119">
        <ele>23.300738</ele>
        <time>2021-01-03T12:46:36.284Z</time>
      </trkpt>
      <trkpt lat="43.60832" lon="3.91105">
        <ele>23.358344</ele>
        <time>2021-01-03T12:46:40.616Z</time>
      </trkpt>
      <trkpt lat="43.60824" lon="3.91013">
        <ele>23.746854</ele>
        <time>2021-01-03T12:47:10.482Z</time>
      </trkpt>
      <trkpt lat="43.60823" lon="3.90999">
        <ele>23.787019</ele>
        <time>2021-01-03T12:47:15.820Z</time>
      </trkpt>
      <trkpt lat="43.60825" lon="3.9099">
        <ele>23.795395</ele>
        <time>2021-01-03T12:47:18.566Z</time>
      </trkpt>
      <trkpt lat="43.60849" lon="3.90975">
        <ele>23.829517</ele>
        <time>2021-01-03T12:47:30.405Z</time>
      </trkpt>
      <trkpt lat="43.60853" lon="3.90935">
        <ele>23.866292</ele>
        <time>2021-01-03T12:47:42.211Z</time>
      </trkpt>
      <trkpt lat="43.60854" lon="3.90928">
        <ele>23.872934</ele>
        <time>2021-01-03T12:47:44.507Z</time>
      </trkpt>
      <trkpt lat="43.60854" lon="3.9092">
        <ele>23.880825</ele>
        <time>2021-01-03T12:47:47.460Z</time>
      </trkpt>
      <trkpt lat="43.60848" lon="3.90897">
        <ele>23.903236</ele>
        <time>2021-01-03T12:47:53.957Z</time>
      </trkpt>
      <trkpt lat="43.60842" lon="3.90877">
        <ele>23.923388</ele>
        <time>2021-01-03T12:48:00.112Z</time>
      </trkpt>
      <trkpt lat="43.60835" lon="3.90861">
        <ele>23.940683</ele>
        <time>2021-01-03T12:48:04.899Z</time>
      </trkpt>
      <trkpt lat="43.60831" lon="3.90851">
        <ele>23.950984</ele>
        <time>2021-01-03T12:48:07.829Z</time>
      </trkpt>
      <trkpt lat="43.60824" lon="3.90847">
        <ele>23.961298</ele>
        <time>2021-01-03T12:48:10.565Z</time>
      </trkpt>
      <trkpt lat="43.60822" lon="3.90836">
        <ele>23.971544</ele>
        <time>2021-01-03T12:48:13.757Z</time>
      </trkpt>
      <trkpt lat="43.60807" lon="3.90817">
        <ele>23.997797</ele>
        <time>2021-01-03T12:48:20.763Z</time>
      </trkpt>
      <trkpt lat="43.60802" lon="3.90809">
        <ele>24.006588</ele>
        <time>2021-01-03T12:48:22.967Z</time>
      </trkpt>
      <trkpt lat="43.60789" lon="3.90804">
        <ele>23.767466</ele>
        <time>2021-01-03T12:48:27.673Z</time>
      </trkpt>
      <trkpt lat="43.60749" lon="3.90776">
        <ele>22.661635</ele>
        <time>2021-01-03T12:48:42.061Z</time>
      </trkpt>
      <trkpt lat="43.60741" lon="3.90773">
        <ele>22.450935</ele>
        <time>2021-01-03T12:48:44.736Z</time>
      </trkpt>
      <trkpt lat="43.60692" lon="3.90774">
        <ele>21.267136</ele>
        <time>2021-01-03T12:48:59.329Z</time>
      </trkpt>
      <trkpt lat="43.60635" lon="3.90777">
        <ele>19.843222</ele>
        <time>2021-01-03T12:49:09.925Z</time>
      </trkpt>
      <trkpt lat="43.60636" lon="3.90701">
        <ele>19.356758</ele>
        <time>2021-01-03T12:49:20.544Z</time>
      </trkpt>
      <trkpt lat="43.60636" lon="3.90693">
        <ele>19.327411</ele>
        <time>2021-01-03T12:49:21.719Z</time>
      </trkpt>
      <trkpt lat="43.60636" lon="3.90683">
        <ele>19.289528</ele>
        <time>2021-01-03T12:49:23.301Z</time>
      </trkpt>
      <trkpt lat="43.60654" lon="3.90684">
        <ele>19.197691</ele>
        <time>2021-01-03T12:49:26.883Z</time>
      </trkpt>
      <trkpt lat="43.60688" lon="3.90684">
        <ele>19.02233</ele>
        <time>2021-01-03T12:49:34.394Z</time>
      </trkpt>
      <trkpt lat="43.60704" lon="3.90684">
        <ele>18.942788</ele>
        <time>2021-01-03T12:49:37.987Z</time>
      </trkpt>
      <trkpt lat="43.60704" lon="3.90684">
        <ele>18.942788</ele>
        <time>2021-01-03T12:49:38.030Z</time>
      </trkpt>
      <trkpt lat="43.60712" lon="3.90683">
        <ele>18.898618</ele>
        <time>2021-01-03T12:49:40.293Z</time>
      </trkpt>
      <trkpt lat="43.60721" lon="3.90682">
        <ele>18.853375</ele>
        <time>2021-01-03T12:49:42.426Z</time>
      </trkpt>
      <trkpt lat="43.6073" lon="3.90681">
        <ele>18.808582</ele>
        <time>2021-01-03T12:49:44.579Z</time>
      </trkpt>
      <trkpt lat="43.60735" lon="3.90679">
        <ele>18.779608</ele>
        <time>2021-01-03T12:49:46.092Z</time>
      </trkpt>
      <trkpt lat="43.60734" lon="3.9067">
        <ele>18.747719</ele>
        <time>2021-01-03T12:49:50.419Z</time>
      </trkpt>
      <trkpt lat="43.60738" lon="3.90603">
        <ele>19.300398</ele>
        <time>2021-01-03T12:50:24.377Z</time>
      </trkpt>
      <trkpt lat="43.60741" lon="3.90569">
        <ele>19.794174</ele>
        <time>2021-01-03T12:50:41.760Z</time>
      </trkpt>
      <trkpt lat="43.60745" lon="3.90562">
        <ele>19.923126</ele>
        <time>2021-01-03T12:50:46.334Z</time>
      </trkpt>
      <trkpt lat="43.6075" lon="3.90552">
        <ele>20.101926</ele>
        <time>2021-01-03T12:50:52.593Z</time>
      </trkpt>
      <trkpt lat="43.60818" lon="3.90541">
        <ele>21.45224</ele>
        <time>2021-01-03T12:51:40.009Z</time>
      </trkpt>
      <trkpt lat="43.60818" lon="3.90541">
        <ele>21.456199</ele>
        <time>2021-01-03T12:51:40.126Z</time>
      </trkpt>
      <trkpt lat="43.60865" lon="3.90541">
        <ele>22.388508</ele>
        <time>2021-01-03T12:52:12.645Z</time>
      </trkpt>
      <trkpt lat="43.60932" lon="3.90504">
        <ele>23.87309</ele>
        <time>2021-01-03T12:53:02.898Z</time>
      </trkpt>
      <trkpt lat="43.60932" lon="3.90504">
        <ele>23.879424</ele>
        <time>2021-01-03T12:53:03.140Z</time>
      </trkpt>
      <trkpt lat="43.60992" lon="3.90488">
        <ele>25.123657</ele>
        <time>2021-01-03T12:53:45.258Z</time>
      </trkpt>
      <trkpt lat="43.6099" lon="3.90446">
        <ele>25.754313</ele>
        <time>2021-01-03T12:53:55.520Z</time>
      </trkpt>
      <trkpt lat="43.60979" lon="3.90362">
        <ele>26.160075</ele>
        <time>2021-01-03T12:54:16.940Z</time>
      </trkpt>
      <trkpt lat="43.60969" lon="3.90338">
        <ele>26.250402</ele>
        <time>2021-01-03T12:54:22.559Z</time>
      </trkpt>
      <trkpt lat="43.60968" lon="3.90333">
        <ele>26.267478</ele>
        <time>2021-01-03T12:54:23.326Z</time>
      </trkpt>
      <trkpt lat="43.60967" lon="3.9033">
        <ele>26.280677</ele>
        <time>2021-01-03T12:54:25.076Z</time>
      </trkpt>
      <trkpt lat="43.60963" lon="3.90328">
        <ele>26.30107</ele>
        <time>2021-01-03T12:54:26.007Z</time>
      </trkpt>
      <trkpt lat="43.6097" lon="3.90317">
        <ele>26.352057</ele>
        <time>2021-01-03T12:54:28.455Z</time>
      </trkpt>
      <trkpt lat="43.60953" lon="3.90212">
        <ele>26.705826</ele>
        <time>2021-01-03T12:54:45.132Z</time>
      </trkpt>
      <trkpt lat="43.60938" lon="3.90174">
        <ele>26.293392</ele>
        <time>2021-01-03T12:54:51.783Z</time>
      </trkpt>
      <trkpt lat="43.60934" lon="3.90169">
        <ele>26.197241</ele>
        <time>2021-01-03T12:54:52.810Z</time>
      </trkpt>
      <trkpt lat="43.60923" lon="3.90162">
        <ele>25.980754</ele>
        <time>2021-01-03T12:54:55.429Z</time>
      </trkpt>
      <trkpt lat="43.60918" lon="3.90146">
        <ele>25.757846</ele>
        <time>2021-01-03T12:54:57.929Z</time>
      </trkpt>
      <trkpt lat="43.60916" lon="3.90107">
        <ele>25.250436</ele>
        <time>2021-01-03T12:55:03.384Z</time>
      </trkpt>
      <trkpt lat="43.60919" lon="3.90093">
        <ele>25.070966</ele>
        <time>2021-01-03T12:55:05.370Z</time>
      </trkpt>
      <trkpt lat="43.60924" lon="3.90089">
        <ele>24.965105</ele>
        <time>2021-01-03T12:55:06.406Z</time>
      </trkpt>
      <trkpt lat="43.60916" lon="3.90088">
        <ele>24.823692</ele>
        <time>2021-01-03T12:55:07.914Z</time>
      </trkpt>
      <trkpt lat="43.60896" lon="3.90091">
        <ele>24.459673</ele>
        <time>2021-01-03T12:55:12.023Z</time>
      </trkpt>
      <trkpt lat="43.60882" lon="3.90086">
        <ele>24.201058</ele>
        <time>2021-01-03T12:55:14.700Z</time>
      </trkpt>
      <trkpt lat="43.60822" lon="3.90083">
        <ele>23.164976</ele>
        <time>2021-01-03T12:55:25.507Z</time>
      </trkpt>
      <trkpt lat="43.60754" lon="3.90081">
        <ele>21.971716</ele>
        <time>2021-01-03T12:55:39.001Z</time>
      </trkpt>
      <trkpt lat="43.60748" lon="3.90077">
        <ele>21.852909</ele>
        <time>2021-01-03T12:55:40.659Z</time>
      </trkpt>
      <trkpt lat="43.60748" lon="3.90077">
        <ele>21.852909</ele>
        <time>2021-01-03T12:55:40.660Z</time>
      </trkpt>
      <trkpt lat="43.60745" lon="3.9007">
        <ele>21.759142</ele>
        <time>2021-01-03T12:55:41.798Z</time>
      </trkpt>
      <trkpt lat="43.60746" lon="3.90066">
        <ele>21.701655</ele>
        <time>2021-01-03T12:55:42.420Z</time>
      </trkpt>
      <trkpt lat="43.60751" lon="3.90017">
        <ele>16.4</ele>
      </trkpt>
      <trkpt lat="43.60755" lon="3.89987">
        <ele>15.9</ele>
      </trkpt>
      <trkpt lat="43.60756" lon="3.89906">
        <ele>15.9</ele>
      </trkpt>
      <trkpt lat="43.60762" lon="3.89878">
        <ele>16</ele>
      </trkpt>
      <trkpt lat="43.60762" lon="3.89872">
        <ele>16</ele>
      </trkpt>
      <trkpt lat="43.60775" lon="3.89876">
        <ele>16</ele>
        <extensions>
          <visugpx:TrkExtension xmlns:visugpx="https://www.visugpx.com/editgpx/">
            <visugpx:node>6</visugpx:node>
            </visugpx:TrkExtension>
        </extensions>
      </trkpt>
      <trkpt lat="43.60784" lon="3.89878">
        <ele>16.65686</ele>
        <time>2021-01-03T12:56:42.648Z</time>
        <extensions>
          <visugpx:TrkExtension xmlns:visugpx="https://www.visugpx.com/editgpx/">
            <visugpx:node>1</visugpx:node>
            </visugpx:TrkExtension>
        </extensions>
      </trkpt>
      <trkpt lat="43.60825" lon="3.89889">
        <ele>16.254021</ele>
        <time>2021-01-03T12:56:50.754Z</time>
      </trkpt>
      <trkpt lat="43.60852" lon="3.89896">
        <ele>15.994047</ele>
        <time>2021-01-03T12:56:56.820Z</time>
      </trkpt>
      <trkpt lat="43.60876" lon="3.89901">
        <ele>15.766834</ele>
        <time>2021-01-03T12:57:02.097Z</time>
      </trkpt>
      <trkpt lat="43.60883" lon="3.89895">
        <ele>15.692429</ele>
        <time>2021-01-03T12:57:03.938Z</time>
      </trkpt>
      <trkpt lat="43.60884" lon="3.89889">
        <ele>15.649851</ele>
        <time>2021-01-03T12:57:04.982Z</time>
      </trkpt>
      <trkpt lat="43.60882" lon="3.89884">
        <ele>15.613302</ele>
        <time>2021-01-03T12:57:05.864Z</time>
      </trkpt>
      <trkpt lat="43.60871" lon="3.89877">
        <ele>15.505776</ele>
        <time>2021-01-03T12:57:08.590Z</time>
      </trkpt>
      <trkpt lat="43.6086" lon="3.89871">
        <ele>15.50858</ele>
        <time>2021-01-03T12:57:11.406Z</time>
      </trkpt>
      <trkpt lat="43.60851" lon="3.89863">
        <ele>15.511292</ele>
        <time>2021-01-03T12:57:14.048Z</time>
      </trkpt>
      <trkpt lat="43.60848" lon="3.89861">
        <ele>15.512066</ele>
        <time>2021-01-03T12:57:14.792Z</time>
      </trkpt>
      <trkpt lat="43.60843" lon="3.8986">
        <ele>15.513156</ele>
        <time>2021-01-03T12:57:15.799Z</time>
      </trkpt>
      <trkpt lat="43.60836" lon="3.89859">
        <ele>15.514994</ele>
        <time>2021-01-03T12:57:17.553Z</time>
      </trkpt>
      <trkpt lat="43.60832" lon="3.89859">
        <ele>15.515935</ele>
        <time>2021-01-03T12:57:18.496Z</time>
      </trkpt>
      <trkpt lat="43.60832" lon="3.89856">
        <ele>15.516437</ele>
        <time>2021-01-03T12:57:19.956Z</time>
      </trkpt>
      <trkpt lat="43.60832" lon="3.89852">
        <ele>15.517063</ele>
        <time>2021-01-03T12:57:21.790Z</time>
      </trkpt>
      <trkpt lat="43.60853" lon="3.89855">
        <ele>15.522047</ele>
        <time>2021-01-03T12:57:27.850Z</time>
      </trkpt>
      <trkpt lat="43.60858" lon="3.89782">
        <ele>15.53471</ele>
        <time>2021-01-03T12:57:43.560Z</time>
      </trkpt>
      <trkpt lat="43.60898" lon="3.89761">
        <ele>15.544872</ele>
        <time>2021-01-03T12:57:56.259Z</time>
      </trkpt>
      <trkpt lat="43.60898" lon="3.89761">
        <ele>15.544923</ele>
        <time>2021-01-03T12:57:56.311Z</time>
      </trkpt>
      <trkpt lat="43.60931" lon="3.89761">
        <ele>15.468069</ele>
        <time>2021-01-03T12:58:05.885Z</time>
      </trkpt>
      <trkpt lat="43.60964" lon="3.89775">
        <ele>15.304825</ele>
        <time>2021-01-03T12:58:16.271Z</time>
      </trkpt>
      <trkpt lat="43.60934" lon="3.8975">
        <ele>15.14195</ele>
        <time>2021-01-03T12:58:26.183Z</time>
      </trkpt>
      <trkpt lat="43.60892" lon="3.89755">
        <ele>14.946981</ele>
        <time>2021-01-03T12:58:37.627Z</time>
      </trkpt>
      <trkpt lat="43.60843" lon="3.89774">
        <ele>14.712299</ele>
        <time>2021-01-03T12:58:51.425Z</time>
      </trkpt>
      <trkpt lat="43.6084" lon="3.89772">
        <ele>13.7</ele>
        <time>2021-01-04T10:04:14Z</time>
      </trkpt>
      <trkpt lat="43.6084" lon="3.89772">
        <ele>13.7</ele>
        <time>2021-01-04T10:04:14Z</time>
      </trkpt>
      <trkpt lat="43.60832" lon="3.8977">
        <ele>13.6</ele>
        <time>2021-01-04T10:04:16Z</time>
      </trkpt>
      <trkpt lat="43.6083" lon="3.89759">
        <ele>13.6</ele>
        <time>2021-01-04T10:04:18Z</time>
      </trkpt>
      <trkpt lat="43.60833" lon="3.89744">
        <ele>13.6</ele>
        <time>2021-01-04T10:04:20Z</time>
      </trkpt>
      <trkpt lat="43.60834" lon="3.89729">
        <ele>13.6</ele>
        <time>2021-01-04T10:04:22Z</time>
      </trkpt>
      <trkpt lat="43.60834" lon="3.89714">
        <ele>13.7</ele>
        <time>2021-01-04T10:04:24Z</time>
      </trkpt>
      <trkpt lat="43.60837" lon="3.89701">
        <ele>13.8</ele>
        <time>2021-01-04T10:04:26Z</time>
      </trkpt>
      <trkpt lat="43.60843" lon="3.89693">
        <ele>14.6</ele>
        <time>2021-01-04T10:04:28Z</time>
      </trkpt>
      <trkpt lat="43.60851" lon="3.89688">
        <ele>14.9</ele>
        <time>2021-01-04T10:04:30Z</time>
      </trkpt>
      <trkpt lat="43.60855" lon="3.89688">
        <ele>15.1</ele>
        <time>2021-01-04T10:04:31Z</time>
      </trkpt>
      <trkpt lat="43.60864" lon="3.89688">
        <ele>15.6</ele>
        <time>2021-01-04T10:04:32Z</time>
      </trkpt>
      <trkpt lat="43.60869" lon="3.89688">
        <ele>15.8</ele>
        <time>2021-01-04T10:04:34Z</time>
      </trkpt>
      <trkpt lat="43.60873" lon="3.89689">
        <ele>16</ele>
        <time>2021-01-04T10:04:35Z</time>
      </trkpt>
      <trkpt lat="43.60878" lon="3.89688">
        <ele>16.2</ele>
        <time>2021-01-04T10:04:36Z</time>
      </trkpt>
      <trkpt lat="43.60879" lon="3.89685">
        <ele>16.4</ele>
        <time>2021-01-04T10:04:38Z</time>
      </trkpt>
      <trkpt lat="43.60881" lon="3.89681">
        <ele>16.5</ele>
        <time>2021-01-04T10:04:39Z</time>
      </trkpt>
      <trkpt lat="43.60881" lon="3.89675">
        <ele>16.8</ele>
        <time>2021-01-04T10:04:40Z</time>
      </trkpt>
      <trkpt lat="43.60882" lon="3.89663">
        <ele>17.2</ele>
        <time>2021-01-04T10:04:42Z</time>
      </trkpt>
      <trkpt lat="43.60883" lon="3.8965">
        <ele>17.6</ele>
        <time>2021-01-04T10:04:44Z</time>
      </trkpt>
      <trkpt lat="43.60882" lon="3.89638">
        <ele>18.2</ele>
        <time>2021-01-04T10:04:46Z</time>
      </trkpt>
      <trkpt lat="43.60879" lon="3.89628">
        <ele>18.9</ele>
        <time>2021-01-04T10:04:48Z</time>
      </trkpt>
      <trkpt lat="43.60875" lon="3.89626">
        <ele>19</ele>
        <time>2021-01-04T10:04:49Z</time>
      </trkpt>
      <trkpt lat="43.60871" lon="3.89625">
        <ele>19.1</ele>
        <time>2021-01-04T10:04:50Z</time>
      </trkpt>
      <trkpt lat="43.60861" lon="3.89624">
        <ele>19.3</ele>
        <time>2021-01-04T10:04:52Z</time>
      </trkpt>
      <trkpt lat="43.60851" lon="3.8962">
        <ele>19.3</ele>
        <time>2021-01-04T10:04:54Z</time>
      </trkpt>
      <trkpt lat="43.60845" lon="3.89617">
        <ele>19.4</ele>
        <time>2021-01-04T10:04:55Z</time>
      </trkpt>
      <trkpt lat="43.6084" lon="3.89615">
        <ele>19.4</ele>
        <time>2021-01-04T10:04:56Z</time>
      </trkpt>
      <trkpt lat="43.60829" lon="3.89613">
        <ele>19.4</ele>
        <time>2021-01-04T10:04:58Z</time>
      </trkpt>
      <trkpt lat="43.60817" lon="3.89611">
        <ele>19.5</ele>
        <time>2021-01-04T10:04:59Z</time>
      </trkpt>
      <trkpt lat="43.60811" lon="3.89611">
        <ele>19.5</ele>
        <time>2021-01-04T10:05:01Z</time>
      </trkpt>
      <trkpt lat="43.60805" lon="3.8961">
        <ele>19.5</ele>
        <time>2021-01-04T10:05:02Z</time>
      </trkpt>
      <trkpt lat="43.60794" lon="3.89609">
        <ele>19.6</ele>
        <time>2021-01-04T10:05:04Z</time>
      </trkpt>
      <trkpt lat="43.60789" lon="3.89609">
        <ele>19.6</ele>
        <time>2021-01-04T10:05:05Z</time>
      </trkpt>
      <trkpt lat="43.60784" lon="3.89608">
        <ele>19.6</ele>
        <time>2021-01-04T10:05:06Z</time>
      </trkpt>
      <trkpt lat="43.60777" lon="3.896">
        <ele>19.7</ele>
        <time>2021-01-04T10:05:08Z</time>
      </trkpt>
      <trkpt lat="43.60774" lon="3.89591">
        <ele>19.7</ele>
        <time>2021-01-04T10:05:10Z</time>
      </trkpt>
      <trkpt lat="43.6077" lon="3.89585">
        <ele>19.9</ele>
        <time>2021-01-04T10:05:12Z</time>
      </trkpt>
      <trkpt lat="43.60765" lon="3.89579">
        <ele>20.1</ele>
        <time>2021-01-04T10:05:14Z</time>
      </trkpt>
      <trkpt lat="43.60763" lon="3.89568">
        <ele>20.1</ele>
        <time>2021-01-04T10:05:16Z</time>
      </trkpt>
      <trkpt lat="43.60765" lon="3.89554">
        <ele>20.1</ele>
        <time>2021-01-04T10:05:18Z</time>
      </trkpt>
      <trkpt lat="43.60767" lon="3.89547">
        <ele>20.1</ele>
        <time>2021-01-04T10:05:19Z</time>
      </trkpt>
      <trkpt lat="43.6077" lon="3.89532">
        <ele>20.1</ele>
        <time>2021-01-04T10:05:21Z</time>
      </trkpt>
      <trkpt lat="43.60771" lon="3.89524">
        <ele>20.1</ele>
        <time>2021-01-04T10:05:22Z</time>
      </trkpt>
      <trkpt lat="43.60772" lon="3.89508">
        <ele>20.2</ele>
        <time>2021-01-04T10:05:24Z</time>
      </trkpt>
      <trkpt lat="43.60773" lon="3.89491">
        <ele>20.3</ele>
        <time>2021-01-04T10:05:26Z</time>
      </trkpt>
      <trkpt lat="43.60773" lon="3.89482">
        <ele>20.3</ele>
        <time>2021-01-04T10:05:27Z</time>
      </trkpt>
      <trkpt lat="43.60774" lon="3.89466">
        <ele>20.4</ele>
        <time>2021-01-04T10:05:29Z</time>
      </trkpt>
      <trkpt lat="43.60775" lon="3.89451">
        <ele>20.5</ele>
        <time>2021-01-04T10:05:31Z</time>
      </trkpt>
      <trkpt lat="43.60776" lon="3.89437">
        <ele>20.6</ele>
        <time>2021-01-04T10:05:33Z</time>
      </trkpt>
      <trkpt lat="43.60776" lon="3.8943">
        <ele>20.6</ele>
        <time>2021-01-04T10:05:34Z</time>
      </trkpt>
      <trkpt lat="43.60777" lon="3.89421">
        <ele>20.7</ele>
        <time>2021-01-04T10:05:36Z</time>
      </trkpt>
      <trkpt lat="43.60778" lon="3.89417">
        <ele>20.7</ele>
        <time>2021-01-04T10:05:37Z</time>
      </trkpt>
      <trkpt lat="43.60778" lon="3.89416">
        <ele>20.7</ele>
        <time>2021-01-04T10:05:38Z</time>
      </trkpt>
      <trkpt lat="43.60779" lon="3.89411">
        <ele>20.8</ele>
        <time>2021-01-04T10:05:40Z</time>
      </trkpt>
      <trkpt lat="43.6078" lon="3.89404">
        <ele>20.9</ele>
        <time>2021-01-04T10:05:42Z</time>
      </trkpt>
      <trkpt lat="43.60781" lon="3.89394">
        <ele>20.9</ele>
        <time>2021-01-04T10:05:44Z</time>
      </trkpt>
      <trkpt lat="43.60782" lon="3.89388">
        <ele>21</ele>
        <time>2021-01-04T10:05:45Z</time>
      </trkpt>
      <trkpt lat="43.60782" lon="3.89381">
        <ele>21.1</ele>
        <time>2021-01-04T10:05:46Z</time>
      </trkpt>
      <trkpt lat="43.60784" lon="3.89367">
        <ele>21.2</ele>
        <time>2021-01-04T10:05:48Z</time>
      </trkpt>
      <trkpt lat="43.60784" lon="3.8936">
        <ele>21.3</ele>
        <time>2021-01-04T10:05:49Z</time>
      </trkpt>
      <trkpt lat="43.60785" lon="3.89352">
        <ele>21.3</ele>
        <time>2021-01-04T10:05:50Z</time>
      </trkpt>
      <trkpt lat="43.60786" lon="3.89338">
        <ele>21.5</ele>
        <time>2021-01-04T10:05:52Z</time>
      </trkpt>
      <trkpt lat="43.60787" lon="3.89323">
        <ele>21.6</ele>
        <time>2021-01-04T10:05:54Z</time>
      </trkpt>
      <trkpt lat="43.60787" lon="3.89315">
        <ele>21.7</ele>
        <time>2021-01-04T10:05:55Z</time>
      </trkpt>
      <trkpt lat="43.60788" lon="3.89301">
        <ele>21.8</ele>
        <time>2021-01-04T10:05:57Z</time>
      </trkpt>
      <trkpt lat="43.60788" lon="3.89293">
        <ele>21.9</ele>
        <time>2021-01-04T10:05:58Z</time>
      </trkpt>
      <trkpt lat="43.60789" lon="3.89279">
        <ele>22</ele>
        <time>2021-01-04T10:06:00Z</time>
      </trkpt>
      <trkpt lat="43.60789" lon="3.89272">
        <ele>22</ele>
        <time>2021-01-04T10:06:01Z</time>
      </trkpt>
      <trkpt lat="43.6079" lon="3.89265">
        <ele>22</ele>
        <time>2021-01-04T10:06:02Z</time>
      </trkpt>
      <trkpt lat="43.60791" lon="3.89252">
        <ele>22.1</ele>
        <time>2021-01-04T10:06:03Z</time>
      </trkpt>
      <trkpt lat="43.60791" lon="3.89245">
        <ele>22.2</ele>
        <time>2021-01-04T10:06:05Z</time>
      </trkpt>
      <trkpt lat="43.60792" lon="3.89238">
        <ele>22.2</ele>
        <time>2021-01-04T10:06:06Z</time>
      </trkpt>
      <trkpt lat="43.60792" lon="3.89225">
        <ele>22.3</ele>
        <time>2021-01-04T10:06:08Z</time>
      </trkpt>
      <trkpt lat="43.60793" lon="3.89213">
        <ele>22.4</ele>
        <time>2021-01-04T10:06:10Z</time>
      </trkpt>
      <trkpt lat="43.60794" lon="3.89202">
        <ele>22.5</ele>
        <time>2021-01-04T10:06:12Z</time>
      </trkpt>
      <trkpt lat="43.60794" lon="3.8919">
        <ele>22.5</ele>
        <time>2021-01-04T10:06:14Z</time>
      </trkpt>
      <trkpt lat="43.60794" lon="3.89182">
        <ele>22.6</ele>
        <time>2021-01-04T10:06:16Z</time>
      </trkpt>
      <trkpt lat="43.60795" lon="3.89177">
        <ele>22.6</ele>
        <time>2021-01-04T10:06:18Z</time>
      </trkpt>
      <trkpt lat="43.60792" lon="3.89169">
        <ele>22.7</ele>
        <time>2021-01-04T10:06:20Z</time>
      </trkpt>
      <trkpt lat="43.60791" lon="3.89165">
        <ele>22.7</ele>
        <time>2021-01-04T10:06:21Z</time>
      </trkpt>
      <trkpt lat="43.60789" lon="3.8916">
        <ele>22.7</ele>
        <time>2021-01-04T10:06:22Z</time>
      </trkpt>
      <trkpt lat="43.60789" lon="3.89149">
        <ele>22.7</ele>
        <time>2021-01-04T10:06:24Z</time>
      </trkpt>
      <trkpt lat="43.60793" lon="3.89138">
        <ele>22.8</ele>
        <time>2021-01-04T10:06:26Z</time>
      </trkpt>
      <trkpt lat="43.60797" lon="3.89127">
        <ele>22.8</ele>
        <time>2021-01-04T10:06:28Z</time>
      </trkpt>
      <trkpt lat="43.60798" lon="3.8912">
        <ele>22.8</ele>
        <time>2021-01-04T10:06:29Z</time>
      </trkpt>
      <trkpt lat="43.60799" lon="3.89107">
        <ele>22.8</ele>
        <time>2021-01-04T10:06:31Z</time>
      </trkpt>
      <trkpt lat="43.608" lon="3.89094">
        <ele>22.8</ele>
        <time>2021-01-04T10:06:33Z</time>
      </trkpt>
      <trkpt lat="43.60802" lon="3.89082">
        <ele>22.9</ele>
        <time>2021-01-04T10:06:34Z</time>
      </trkpt>
      <trkpt lat="43.60802" lon="3.89075">
        <ele>22.9</ele>
        <time>2021-01-04T10:06:36Z</time>
      </trkpt>
      <trkpt lat="43.60803" lon="3.8907">
        <ele>22.9</ele>
        <time>2021-01-04T10:06:37Z</time>
      </trkpt>
      <trkpt lat="43.60804" lon="3.89066">
        <ele>22.9</ele>
        <time>2021-01-04T10:06:38Z</time>
      </trkpt>
      <trkpt lat="43.60805" lon="3.89057">
        <ele>23</ele>
        <time>2021-01-04T10:06:40Z</time>
      </trkpt>
      <trkpt lat="43.60806" lon="3.89052">
        <ele>23</ele>
        <time>2021-01-04T10:06:41Z</time>
      </trkpt>
      <trkpt lat="43.60807" lon="3.89041">
        <ele>23.1</ele>
        <time>2021-01-04T10:06:43Z</time>
      </trkpt>
      <trkpt lat="43.60808" lon="3.89035">
        <ele>23.2</ele>
        <time>2021-01-04T10:06:44Z</time>
      </trkpt>
      <trkpt lat="43.60809" lon="3.89022">
        <ele>23.3</ele>
        <time>2021-01-04T10:06:46Z</time>
      </trkpt>
      <trkpt lat="43.6081" lon="3.8901">
        <ele>23.4</ele>
        <time>2021-01-04T10:06:48Z</time>
      </trkpt>
      <trkpt lat="43.60811" lon="3.88996">
        <ele>23.5</ele>
        <time>2021-01-04T10:06:50Z</time>
      </trkpt>
      <trkpt lat="43.60811" lon="3.88982">
        <ele>23.6</ele>
        <time>2021-01-04T10:06:52Z</time>
      </trkpt>
      <trkpt lat="43.60813" lon="3.88969">
        <ele>23.7</ele>
        <time>2021-01-04T10:06:54Z</time>
      </trkpt>
      <trkpt lat="43.60813" lon="3.88955">
        <ele>23.9</ele>
        <time>2021-01-04T10:06:56Z</time>
      </trkpt>
      <trkpt lat="43.60813" lon="3.8894">
        <ele>24</ele>
        <time>2021-01-04T10:06:58Z</time>
      </trkpt>
      <trkpt lat="43.60814" lon="3.88927">
        <ele>24.2</ele>
        <time>2021-01-04T10:07:00Z</time>
      </trkpt>
      <trkpt lat="43.60815" lon="3.8892">
        <ele>24.3</ele>
        <time>2021-01-04T10:07:01Z</time>
      </trkpt>
      <trkpt lat="43.60815" lon="3.88907">
        <ele>24.5</ele>
        <time>2021-01-04T10:07:03Z</time>
      </trkpt>
      <trkpt lat="43.60816" lon="3.889">
        <ele>24.6</ele>
        <time>2021-01-04T10:07:04Z</time>
      </trkpt>
      <trkpt lat="43.60816" lon="3.88887">
        <ele>24.8</ele>
        <time>2021-01-04T10:07:06Z</time>
      </trkpt>
      <trkpt lat="43.60817" lon="3.88881">
        <ele>24.9</ele>
        <time>2021-01-04T10:07:07Z</time>
      </trkpt>
      <trkpt lat="43.60818" lon="3.88867">
        <ele>25</ele>
        <time>2021-01-04T10:07:09Z</time>
      </trkpt>
      <trkpt lat="43.60818" lon="3.8886">
        <ele>25.1</ele>
        <time>2021-01-04T10:07:10Z</time>
      </trkpt>
      <trkpt lat="43.60819" lon="3.88848">
        <ele>25.2</ele>
        <time>2021-01-04T10:07:12Z</time>
      </trkpt>
      <trkpt lat="43.6082" lon="3.88835">
        <ele>25.3</ele>
        <time>2021-01-04T10:07:14Z</time>
      </trkpt>
      <trkpt lat="43.60821" lon="3.88829">
        <ele>25.3</ele>
        <time>2021-01-04T10:07:15Z</time>
      </trkpt>
      <trkpt lat="43.60821" lon="3.88823">
        <ele>25.3</ele>
        <time>2021-01-04T10:07:16Z</time>
      </trkpt>
      <trkpt lat="43.60821" lon="3.88811">
        <ele>25.3</ele>
        <time>2021-01-04T10:07:18Z</time>
      </trkpt>
      <trkpt lat="43.60821" lon="3.88806">
        <ele>25.3</ele>
        <time>2021-01-04T10:07:19Z</time>
      </trkpt>
      <trkpt lat="43.60821" lon="3.88798">
        <ele>25.3</ele>
        <time>2021-01-04T10:07:21Z</time>
      </trkpt>
      <trkpt lat="43.60821" lon="3.88795">
        <ele>25.3</ele>
        <time>2021-01-04T10:07:22Z</time>
      </trkpt>
      <trkpt lat="43.60822" lon="3.8879">
        <ele>25.3</ele>
        <time>2021-01-04T10:07:24Z</time>
      </trkpt>
      <trkpt lat="43.60824" lon="3.88787">
        <ele>25.3</ele>
        <time>2021-01-04T10:07:25Z</time>
      </trkpt>
      <trkpt lat="43.60827" lon="3.88782">
        <ele>25.4</ele>
        <time>2021-01-04T10:07:27Z</time>
      </trkpt>
      <trkpt lat="43.60829" lon="3.88779">
        <ele>25.3</ele>
        <time>2021-01-04T10:07:28Z</time>
      </trkpt>
      <trkpt lat="43.60831" lon="3.88772">
        <ele>25.3</ele>
        <time>2021-01-04T10:07:30Z</time>
      </trkpt>
      <trkpt lat="43.60831" lon="3.88767">
        <ele>25.3</ele>
        <time>2021-01-04T10:07:31Z</time>
      </trkpt>
      <trkpt lat="43.6083" lon="3.88757">
        <ele>25.3</ele>
        <time>2021-01-04T10:07:33Z</time>
      </trkpt>
      <trkpt lat="43.60828" lon="3.88747">
        <ele>25.4</ele>
        <time>2021-01-04T10:07:35Z</time>
      </trkpt>
      <trkpt lat="43.60826" lon="3.88737">
        <ele>25.4</ele>
        <time>2021-01-04T10:07:37Z</time>
      </trkpt>
      <trkpt lat="43.60825" lon="3.88733">
        <ele>25.4</ele>
        <time>2021-01-04T10:07:38Z</time>
      </trkpt>
      <trkpt lat="43.60826" lon="3.88723">
        <ele>25.4</ele>
        <time>2021-01-04T10:07:40Z</time>
      </trkpt>
      <trkpt lat="43.60829" lon="3.88713">
        <ele>25.4</ele>
        <time>2021-01-04T10:07:42Z</time>
      </trkpt>
      <trkpt lat="43.6083" lon="3.88702">
        <ele>25.5</ele>
        <time>2021-01-04T10:07:44Z</time>
      </trkpt>
      <trkpt lat="43.60831" lon="3.88696">
        <ele>25.5</ele>
        <time>2021-01-04T10:07:45Z</time>
      </trkpt>
      <trkpt lat="43.60831" lon="3.8869">
        <ele>25.5</ele>
        <time>2021-01-04T10:07:46Z</time>
      </trkpt>
      <trkpt lat="43.60831" lon="3.88681">
        <ele>25.6</ele>
        <time>2021-01-04T10:07:48Z</time>
      </trkpt>
      <trkpt lat="43.60831" lon="3.88676">
        <ele>25.6</ele>
        <time>2021-01-04T10:07:49Z</time>
      </trkpt>
      <trkpt lat="43.60829" lon="3.88667">
        <ele>25.8</ele>
        <time>2021-01-04T10:07:51Z</time>
      </trkpt>
      <trkpt lat="43.60827" lon="3.88663">
        <ele>25.8</ele>
        <time>2021-01-04T10:07:52Z</time>
      </trkpt>
      <trkpt lat="43.60822" lon="3.88658">
        <ele>26</ele>
        <time>2021-01-04T10:07:54Z</time>
      </trkpt>
      <trkpt lat="43.60818" lon="3.88655">
        <ele>26</ele>
        <time>2021-01-04T10:07:55Z</time>
      </trkpt>
      <trkpt lat="43.60809" lon="3.88651">
        <ele>26</ele>
        <time>2021-01-04T10:07:57Z</time>
      </trkpt>
      <trkpt lat="43.60804" lon="3.8865">
        <ele>26</ele>
        <time>2021-01-04T10:07:58Z</time>
      </trkpt>
      <trkpt lat="43.60794" lon="3.88648">
        <ele>26.1</ele>
        <time>2021-01-04T10:08:00Z</time>
      </trkpt>
      <trkpt lat="43.60785" lon="3.88647">
        <ele>26.3</ele>
        <time>2021-01-04T10:08:02Z</time>
      </trkpt>
      <trkpt lat="43.6078" lon="3.88646">
        <ele>26.4</ele>
        <time>2021-01-04T10:08:03Z</time>
      </trkpt>
      <trkpt lat="43.60776" lon="3.88645">
        <ele>26.7</ele>
        <time>2021-01-04T10:08:04Z</time>
      </trkpt>
      <trkpt lat="43.6077" lon="3.88641">
        <ele>27.1</ele>
        <time>2021-01-04T10:08:06Z</time>
      </trkpt>
      <trkpt lat="43.60766" lon="3.88637">
        <ele>27.5</ele>
        <time>2021-01-04T10:08:07Z</time>
      </trkpt>
      <trkpt lat="43.60761" lon="3.88627">
        <ele>28.2</ele>
        <time>2021-01-04T10:08:09Z</time>
      </trkpt>
      <trkpt lat="43.6076" lon="3.88621">
        <ele>28.5</ele>
        <time>2021-01-04T10:08:10Z</time>
      </trkpt>
      <trkpt lat="43.60759" lon="3.88609">
        <ele>29.2</ele>
        <time>2021-01-04T10:08:12Z</time>
      </trkpt>
      <trkpt lat="43.6076" lon="3.88603">
        <ele>29.6</ele>
        <time>2021-01-04T10:08:13Z</time>
      </trkpt>
      <trkpt lat="43.60761" lon="3.88591">
        <ele>30.1</ele>
        <time>2021-01-04T10:08:15Z</time>
      </trkpt>
      <trkpt lat="43.60761" lon="3.88585">
        <ele>30.4</ele>
        <time>2021-01-04T10:08:16Z</time>
      </trkpt>
      <trkpt lat="43.60761" lon="3.88573">
        <ele>30.6</ele>
        <time>2021-01-04T10:08:18Z</time>
      </trkpt>
      <trkpt lat="43.6076" lon="3.88561">
        <ele>31.1</ele>
        <time>2021-01-04T10:08:20Z</time>
      </trkpt>
      <trkpt lat="43.60759" lon="3.88555">
        <ele>31.4</ele>
        <time>2021-01-04T10:08:21Z</time>
      </trkpt>
      <trkpt lat="43.60758" lon="3.88549">
        <ele>31.7</ele>
        <time>2021-01-04T10:08:22Z</time>
      </trkpt>
      <trkpt lat="43.60758" lon="3.88537">
        <ele>32.3</ele>
        <time>2021-01-04T10:08:23Z</time>
      </trkpt>
      <trkpt lat="43.60758" lon="3.8853">
        <ele>32.6</ele>
        <time>2021-01-04T10:08:25Z</time>
      </trkpt>
      <trkpt lat="43.6076" lon="3.88518">
        <ele>33.2</ele>
        <time>2021-01-04T10:08:27Z</time>
      </trkpt>
      <trkpt lat="43.60761" lon="3.88512">
        <ele>33.5</ele>
        <time>2021-01-04T10:08:28Z</time>
      </trkpt>
      <trkpt lat="43.60764" lon="3.88501">
        <ele>34.1</ele>
        <time>2021-01-04T10:08:30Z</time>
      </trkpt>
      <trkpt lat="43.60767" lon="3.88491">
        <ele>34.6</ele>
        <time>2021-01-04T10:08:32Z</time>
      </trkpt>
      <trkpt lat="43.60769" lon="3.88485">
        <ele>34.8</ele>
        <time>2021-01-04T10:08:33Z</time>
      </trkpt>
      <trkpt lat="43.60771" lon="3.8848">
        <ele>35.1</ele>
        <time>2021-01-04T10:08:34Z</time>
      </trkpt>
      <trkpt lat="43.60775" lon="3.88469">
        <ele>35.6</ele>
        <time>2021-01-04T10:08:35Z</time>
      </trkpt>
      <trkpt lat="43.60777" lon="3.88464">
        <ele>35.8</ele>
        <time>2021-01-04T10:08:37Z</time>
      </trkpt>
      <trkpt lat="43.6078" lon="3.88459">
        <ele>36.1</ele>
        <time>2021-01-04T10:08:38Z</time>
      </trkpt>
      <trkpt lat="43.60784" lon="3.88448">
        <ele>36.5</ele>
        <time>2021-01-04T10:08:40Z</time>
      </trkpt>
      <trkpt lat="43.60789" lon="3.88441">
        <ele>36.8</ele>
        <time>2021-01-04T10:08:42Z</time>
      </trkpt>
      <trkpt lat="43.60792" lon="3.88438">
        <ele>36.9</ele>
        <time>2021-01-04T10:08:43Z</time>
      </trkpt>
      <trkpt lat="43.60794" lon="3.88435">
        <ele>37</ele>
        <time>2021-01-04T10:08:44Z</time>
      </trkpt>
      <trkpt lat="43.60798" lon="3.88428">
        <ele>37.3</ele>
        <time>2021-01-04T10:08:46Z</time>
      </trkpt>
      <trkpt lat="43.60803" lon="3.88421">
        <ele>37.5</ele>
        <time>2021-01-04T10:08:48Z</time>
      </trkpt>
      <trkpt lat="43.6081" lon="3.88413">
        <ele>37.7</ele>
        <time>2021-01-04T10:08:50Z</time>
      </trkpt>
      <trkpt lat="43.60813" lon="3.88408">
        <ele>37.8</ele>
        <time>2021-01-04T10:08:51Z</time>
      </trkpt>
      <trkpt lat="43.60816" lon="3.88403">
        <ele>37.9</ele>
        <time>2021-01-04T10:08:52Z</time>
      </trkpt>
      <trkpt lat="43.6082" lon="3.88391">
        <ele>38</ele>
        <time>2021-01-04T10:08:54Z</time>
      </trkpt>
      <trkpt lat="43.60822" lon="3.88385">
        <ele>38.1</ele>
        <time>2021-01-04T10:08:55Z</time>
      </trkpt>
      <trkpt lat="43.60824" lon="3.88373">
        <ele>38.2</ele>
        <time>2021-01-04T10:08:57Z</time>
      </trkpt>
      <trkpt lat="43.60825" lon="3.88368">
        <ele>38.2</ele>
        <time>2021-01-04T10:08:58Z</time>
      </trkpt>
      <trkpt lat="43.60827" lon="3.8836">
        <ele>38.5</ele>
        <time>2021-01-04T10:09:00Z</time>
      </trkpt>
      <trkpt lat="43.6083" lon="3.88356">
        <ele>38.7</ele>
        <time>2021-01-04T10:09:02Z</time>
      </trkpt>
      <trkpt lat="43.60834" lon="3.88355">
        <ele>38.8</ele>
        <time>2021-01-04T10:09:04Z</time>
      </trkpt>
      <trkpt lat="43.6084" lon="3.88354">
        <ele>39</ele>
        <time>2021-01-04T10:09:06Z</time>
      </trkpt>
      <trkpt lat="43.60842" lon="3.88354">
        <ele>39</ele>
        <time>2021-01-04T10:09:07Z</time>
      </trkpt>
      <trkpt lat="43.60845" lon="3.88357">
        <ele>39.1</ele>
        <time>2021-01-04T10:09:08Z</time>
      </trkpt>
      <trkpt lat="43.60851" lon="3.88359">
        <ele>39.3</ele>
        <time>2021-01-04T10:09:10Z</time>
      </trkpt>
      <trkpt lat="43.60858" lon="3.8836">
        <ele>39.4</ele>
        <time>2021-01-04T10:09:12Z</time>
      </trkpt>
      <trkpt lat="43.60864" lon="3.88361">
        <ele>39.6</ele>
        <time>2021-01-04T10:09:14Z</time>
      </trkpt>
      <trkpt lat="43.60871" lon="3.88361">
        <ele>39.7</ele>
        <time>2021-01-04T10:09:16Z</time>
      </trkpt>
      <trkpt lat="43.60878" lon="3.88353">
        <ele>40.2</ele>
        <time>2021-01-04T10:09:18Z</time>
      </trkpt>
      <trkpt lat="43.60883" lon="3.88341">
        <ele>40.4</ele>
        <time>2021-01-04T10:09:20Z</time>
      </trkpt>
      <trkpt lat="43.60886" lon="3.88329">
        <ele>40.6</ele>
        <time>2021-01-04T10:09:22Z</time>
      </trkpt>
      <trkpt lat="43.60887" lon="3.88316">
        <ele>40.7</ele>
        <time>2021-01-04T10:09:24Z</time>
      </trkpt>
      <trkpt lat="43.60888" lon="3.8831">
        <ele>40.7</ele>
        <time>2021-01-04T10:09:25Z</time>
      </trkpt>
      <trkpt lat="43.60889" lon="3.88305">
        <ele>40.7</ele>
        <time>2021-01-04T10:09:26Z</time>
      </trkpt>
      <trkpt lat="43.60892" lon="3.88295">
        <ele>40.7</ele>
        <time>2021-01-04T10:09:28Z</time>
      </trkpt>
      <trkpt lat="43.60896" lon="3.88285">
        <ele>40.7</ele>
        <time>2021-01-04T10:09:30Z</time>
      </trkpt>
      <trkpt lat="43.60897" lon="3.88281">
        <ele>40.7</ele>
        <time>2021-01-04T10:09:31Z</time>
      </trkpt>
      <trkpt lat="43.60901" lon="3.88272">
        <ele>40.7</ele>
        <time>2021-01-04T10:09:33Z</time>
      </trkpt>
      <trkpt lat="43.60903" lon="3.88268">
        <ele>40.7</ele>
        <time>2021-01-04T10:09:34Z</time>
      </trkpt>
      <trkpt lat="43.60906" lon="3.8826">
        <ele>40.7</ele>
        <time>2021-01-04T10:09:36Z</time>
      </trkpt>
      <trkpt lat="43.60908" lon="3.88251">
        <ele>40.7</ele>
        <time>2021-01-04T10:09:38Z</time>
      </trkpt>
      <trkpt lat="43.60909" lon="3.88246">
        <ele>40.7</ele>
        <time>2021-01-04T10:09:39Z</time>
      </trkpt>
      <trkpt lat="43.6091" lon="3.8824">
        <ele>40.7</ele>
        <time>2021-01-04T10:09:40Z</time>
      </trkpt>
      <trkpt lat="43.60911" lon="3.88229">
        <ele>40.7</ele>
        <time>2021-01-04T10:09:42Z</time>
      </trkpt>
      <trkpt lat="43.60911" lon="3.88223">
        <ele>40.6</ele>
        <time>2021-01-04T10:09:43Z</time>
      </trkpt>
      <trkpt lat="43.60911" lon="3.88212">
        <ele>40.7</ele>
        <time>2021-01-04T10:09:45Z</time>
      </trkpt>
      <trkpt lat="43.60913" lon="3.88208">
        <ele>40.7</ele>
        <time>2021-01-04T10:09:46Z</time>
      </trkpt>
      <trkpt lat="43.60915" lon="3.88199">
        <ele>40.5</ele>
        <time>2021-01-04T10:09:48Z</time>
      </trkpt>
      <trkpt lat="43.60919" lon="3.8819">
        <ele>40.5</ele>
        <time>2021-01-04T10:09:50Z</time>
      </trkpt>
      <trkpt lat="43.60922" lon="3.88186">
        <ele>40.5</ele>
        <time>2021-01-04T10:09:51Z</time>
      </trkpt>
      <trkpt lat="43.60925" lon="3.88182">
        <ele>40.5</ele>
        <time>2021-01-04T10:09:52Z</time>
      </trkpt>
      <trkpt lat="43.60929" lon="3.88173">
        <ele>40.4</ele>
        <time>2021-01-04T10:09:54Z</time>
      </trkpt>
      <trkpt lat="43.60934" lon="3.88163">
        <ele>40.4</ele>
        <time>2021-01-04T10:09:56Z</time>
      </trkpt>
      <trkpt lat="43.60939" lon="3.88159">
        <ele>40.3</ele>
        <time>2021-01-04T10:09:58Z</time>
      </trkpt>
      <trkpt lat="43.60944" lon="3.8816">
        <ele>39.7</ele>
        <time>2021-01-04T10:10:00Z</time>
      </trkpt>
      <trkpt lat="43.60947" lon="3.88162">
        <ele>39.7</ele>
        <time>2021-01-04T10:10:01Z</time>
      </trkpt>
      <trkpt lat="43.60952" lon="3.88169">
        <ele>39.8</ele>
        <time>2021-01-04T10:10:03Z</time>
      </trkpt>
      <trkpt lat="43.60955" lon="3.88173">
        <ele>39.8</ele>
        <time>2021-01-04T10:10:04Z</time>
      </trkpt>
      <trkpt lat="43.60959" lon="3.8818">
        <ele>39.8</ele>
        <time>2021-01-04T10:10:06Z</time>
      </trkpt>
      <trkpt lat="43.60963" lon="3.88182">
        <ele>39.9</ele>
        <time>2021-01-04T10:10:08Z</time>
      </trkpt>
      <trkpt lat="43.60966" lon="3.88182">
        <ele>40</ele>
        <time>2021-01-04T10:10:09Z</time>
      </trkpt>
      <trkpt lat="43.60967" lon="3.88182">
        <ele>40</ele>
        <time>2021-01-04T10:10:10Z</time>
      </trkpt>
      <trkpt lat="43.6097" lon="3.88186">
        <ele>40.1</ele>
        <time>2021-01-04T10:10:12Z</time>
      </trkpt>
      <trkpt lat="43.60972" lon="3.88189">
        <ele>40.1</ele>
        <time>2021-01-04T10:10:13Z</time>
      </trkpt>
      <trkpt lat="43.60975" lon="3.88198">
        <ele>40.2</ele>
        <time>2021-01-04T10:10:15Z</time>
      </trkpt>
      <trkpt lat="43.60977" lon="3.88203">
        <ele>40.2</ele>
        <time>2021-01-04T10:10:16Z</time>
      </trkpt>
      <trkpt lat="43.60981" lon="3.88209">
        <ele>40.3</ele>
        <time>2021-01-04T10:10:18Z</time>
      </trkpt>
      <trkpt lat="43.60983" lon="3.88211">
        <ele>40.6</ele>
        <time>2021-01-04T10:10:19Z</time>
      </trkpt>
      <trkpt lat="43.60986" lon="3.88213">
        <ele>40.6</ele>
        <time>2021-01-04T10:10:20Z</time>
      </trkpt>
      <trkpt lat="43.6099" lon="3.88217">
        <ele>40.6</ele>
        <time>2021-01-04T10:10:22Z</time>
      </trkpt>
      <trkpt lat="43.60993" lon="3.88223">
        <ele>40.7</ele>
        <time>2021-01-04T10:10:24Z</time>
      </trkpt>
      <trkpt lat="43.60997" lon="3.88229">
        <ele>40.8</ele>
        <time>2021-01-04T10:10:26Z</time>
      </trkpt>
      <trkpt lat="43.60999" lon="3.88233">
        <ele>40.8</ele>
        <time>2021-01-04T10:10:27Z</time>
      </trkpt>
      <trkpt lat="43.61" lon="3.88236">
        <ele>40.8</ele>
        <time>2021-01-04T10:10:28Z</time>
      </trkpt>
      <trkpt lat="43.61005" lon="3.88242">
        <ele>40.7</ele>
        <time>2021-01-04T10:10:30Z</time>
      </trkpt>
      <trkpt lat="43.61008" lon="3.88245">
        <ele>40.6</ele>
        <time>2021-01-04T10:10:31Z</time>
      </trkpt>
      <trkpt lat="43.61013" lon="3.88251">
        <ele>40.3</ele>
        <time>2021-01-04T10:10:33Z</time>
      </trkpt>
      <trkpt lat="43.61015" lon="3.88253">
        <ele>40.2</ele>
        <time>2021-01-04T10:10:34Z</time>
      </trkpt>
      <trkpt lat="43.6102" lon="3.88258">
        <ele>39.9</ele>
        <time>2021-01-04T10:10:36Z</time>
      </trkpt>
      <trkpt lat="43.61023" lon="3.8826">
        <ele>39.7</ele>
        <time>2021-01-04T10:10:37Z</time>
      </trkpt>
      <trkpt lat="43.61029" lon="3.8826">
        <ele>40.2</ele>
        <time>2021-01-04T10:10:39Z</time>
      </trkpt>
      <trkpt lat="43.61031" lon="3.88258">
        <ele>40.4</ele>
        <time>2021-01-04T10:10:40Z</time>
      </trkpt>
      <trkpt lat="43.61035" lon="3.88254">
        <ele>40.9</ele>
        <time>2021-01-04T10:10:42Z</time>
      </trkpt>
      <trkpt lat="43.61036" lon="3.88253">
        <ele>41</ele>
        <time>2021-01-04T10:10:43Z</time>
      </trkpt>
      <trkpt lat="43.61037" lon="3.88253">
        <ele>41.1</ele>
        <time>2021-01-04T10:10:45Z</time>
      </trkpt>
      <trkpt lat="43.61038" lon="3.88253">
        <ele>41.2</ele>
        <time>2021-01-04T10:10:46Z</time>
      </trkpt>
      <trkpt lat="43.61039" lon="3.88253">
        <ele>41.2</ele>
        <time>2021-01-04T10:10:48Z</time>
      </trkpt>
      <trkpt lat="43.6104" lon="3.88253">
        <ele>41.3</ele>
        <time>2021-01-04T10:10:49Z</time>
      </trkpt>
      <trkpt lat="43.61041" lon="3.88253">
        <ele>41.3</ele>
        <time>2021-01-04T10:10:50Z</time>
      </trkpt>
      <trkpt lat="43.61042" lon="3.88252">
        <ele>41.3</ele>
        <time>2021-01-04T10:10:52Z</time>
      </trkpt>
      <trkpt lat="43.61043" lon="3.88252">
        <ele>41.3</ele>
        <time>2021-01-04T10:10:58Z</time>
      </trkpt>
      <trkpt lat="43.61044" lon="3.88252">
        <ele>41.4</ele>
        <time>2021-01-04T10:10:59Z</time>
      </trkpt>
      <trkpt lat="43.61046" lon="3.88253">
        <ele>41.4</ele>
        <time>2021-01-04T10:11:01Z</time>
      </trkpt>
      <trkpt lat="43.6105" lon="3.88255">
        <ele>41.5</ele>
        <time>2021-01-04T10:11:03Z</time>
      </trkpt>
      <trkpt lat="43.61051" lon="3.88258">
        <ele>41.5</ele>
        <time>2021-01-04T10:11:04Z</time>
      </trkpt>
      <trkpt lat="43.61053" lon="3.88265">
        <ele>41.5</ele>
        <time>2021-01-04T10:11:06Z</time>
      </trkpt>
      <trkpt lat="43.61056" lon="3.88268">
        <ele>41.6</ele>
        <time>2021-01-04T10:11:07Z</time>
      </trkpt>
      <trkpt lat="43.61062" lon="3.8827">
        <ele>41.6</ele>
        <time>2021-01-04T10:11:09Z</time>
      </trkpt>
      <trkpt lat="43.61065" lon="3.88268">
        <ele>41.7</ele>
        <time>2021-01-04T10:11:10Z</time>
      </trkpt>
      <trkpt lat="43.61073" lon="3.88264">
        <ele>41.7</ele>
        <time>2021-01-04T10:11:12Z</time>
      </trkpt>
      <trkpt lat="43.61077" lon="3.88263">
        <ele>41.7</ele>
        <time>2021-01-04T10:11:13Z</time>
      </trkpt>
      <trkpt lat="43.61086" lon="3.88262">
        <ele>41.8</ele>
        <time>2021-01-04T10:11:15Z</time>
      </trkpt>
      <trkpt lat="43.6109" lon="3.88263">
        <ele>41.8</ele>
        <time>2021-01-04T10:11:16Z</time>
      </trkpt>
      <trkpt lat="43.61099" lon="3.88264">
        <ele>41.8</ele>
        <time>2021-01-04T10:11:18Z</time>
      </trkpt>
      <trkpt lat="43.61103" lon="3.88265">
        <ele>41.8</ele>
        <time>2021-01-04T10:11:19Z</time>
      </trkpt>
      <trkpt lat="43.61113" lon="3.88266">
        <ele>41.9</ele>
        <time>2021-01-04T10:11:21Z</time>
      </trkpt>
      <trkpt lat="43.61117" lon="3.88266">
        <ele>41.9</ele>
        <time>2021-01-04T10:11:22Z</time>
      </trkpt>
      <trkpt lat="43.61126" lon="3.88264">
        <ele>41.9</ele>
        <time>2021-01-04T10:11:24Z</time>
      </trkpt>
      <trkpt lat="43.6113" lon="3.88262">
        <ele>42</ele>
        <time>2021-01-04T10:11:25Z</time>
      </trkpt>
      <trkpt lat="43.61138" lon="3.88259">
        <ele>42</ele>
        <time>2021-01-04T10:11:27Z</time>
      </trkpt>
      <trkpt lat="43.61142" lon="3.8826">
        <ele>42.1</ele>
        <time>2021-01-04T10:11:28Z</time>
      </trkpt>
      <trkpt lat="43.6115" lon="3.88263">
        <ele>42.1</ele>
        <time>2021-01-04T10:11:30Z</time>
      </trkpt>
      <trkpt lat="43.61155" lon="3.88264">
        <ele>42.1</ele>
        <time>2021-01-04T10:11:31Z</time>
      </trkpt>
      <trkpt lat="43.61164" lon="3.88265">
        <ele>42.5</ele>
        <time>2021-01-04T10:11:33Z</time>
      </trkpt>
      <trkpt lat="43.6117" lon="3.88264">
        <ele>42.7</ele>
        <time>2021-01-04T10:11:34Z</time>
      </trkpt>
      <trkpt lat="43.61179" lon="3.88264">
        <ele>43.1</ele>
        <time>2021-01-04T10:11:36Z</time>
      </trkpt>
      <trkpt lat="43.61189" lon="3.88265">
        <ele>43.5</ele>
        <time>2021-01-04T10:11:38Z</time>
      </trkpt>
      <trkpt lat="43.61194" lon="3.88265">
        <ele>43.7</ele>
        <time>2021-01-04T10:11:39Z</time>
      </trkpt>
      <trkpt lat="43.61198" lon="3.88264">
        <ele>43.9</ele>
        <time>2021-01-04T10:11:40Z</time>
      </trkpt>
      <trkpt lat="43.61207" lon="3.88258">
        <ele>44.2</ele>
        <time>2021-01-04T10:11:42Z</time>
      </trkpt>
      <trkpt lat="43.61213" lon="3.88249">
        <ele>44.4</ele>
        <time>2021-01-04T10:11:44Z</time>
      </trkpt>
      <trkpt lat="43.61214" lon="3.88236">
        <ele>44.5</ele>
        <time>2021-01-04T10:11:46Z</time>
      </trkpt>
      <trkpt lat="43.61214" lon="3.88224">
        <ele>44.6</ele>
        <time>2021-01-04T10:11:48Z</time>
      </trkpt>
      <trkpt lat="43.61213" lon="3.88218">
        <ele>44.5</ele>
        <time>2021-01-04T10:11:49Z</time>
      </trkpt>
      <trkpt lat="43.61208" lon="3.88207">
        <ele>44.3</ele>
        <time>2021-01-04T10:11:51Z</time>
      </trkpt>
      <trkpt lat="43.61204" lon="3.88203">
        <ele>44.2</ele>
        <time>2021-01-04T10:11:52Z</time>
      </trkpt>
      <trkpt lat="43.61195" lon="3.88196">
        <ele>43.8</ele>
        <time>2021-01-04T10:11:54Z</time>
      </trkpt>
      <trkpt lat="43.61189" lon="3.88194">
        <ele>43.6</ele>
        <time>2021-01-04T10:11:55Z</time>
      </trkpt>
      <trkpt lat="43.61178" lon="3.8819">
        <ele>43.3</ele>
        <time>2021-01-04T10:11:57Z</time>
      </trkpt>
      <trkpt lat="43.61173" lon="3.88188">
        <ele>43.1</ele>
        <time>2021-01-04T10:11:58Z</time>
      </trkpt>
      <trkpt lat="43.6116" lon="3.88188">
        <ele>42.7</ele>
        <time>2021-01-04T10:12:00Z</time>
      </trkpt>
      <trkpt lat="43.61148" lon="3.88188">
        <ele>42.5</ele>
        <time>2021-01-04T10:12:02Z</time>
      </trkpt>
      <trkpt lat="43.6114" lon="3.88186">
        <ele>42.4</ele>
        <time>2021-01-04T10:12:04Z</time>
      </trkpt>
      <trkpt lat="43.61134" lon="3.88176">
        <ele>42.5</ele>
        <time>2021-01-04T10:12:06Z</time>
      </trkpt>
      <trkpt lat="43.61133" lon="3.88163">
        <ele>42.8</ele>
        <time>2021-01-04T10:12:08Z</time>
      </trkpt>
      <trkpt lat="43.61131" lon="3.88151">
        <ele>43</ele>
        <time>2021-01-04T10:12:10Z</time>
      </trkpt>
      <trkpt lat="43.61126" lon="3.88144">
        <ele>43</ele>
        <time>2021-01-04T10:12:12Z</time>
      </trkpt>
      <trkpt lat="43.61121" lon="3.88144">
        <ele>42.9</ele>
        <time>2021-01-04T10:12:13Z</time>
      </trkpt>
      <trkpt lat="43.6111" lon="3.88143">
        <ele>42.9</ele>
        <time>2021-01-04T10:12:15Z</time>
      </trkpt>
      <trkpt lat="43.61105" lon="3.88142">
        <ele>42.8</ele>
        <time>2021-01-04T10:12:16Z</time>
      </trkpt>
      <trkpt lat="43.61094" lon="3.8814">
        <ele>42.7</ele>
        <time>2021-01-04T10:12:18Z</time>
      </trkpt>
      <trkpt lat="43.61089" lon="3.8814">
        <ele>42.6</ele>
        <time>2021-01-04T10:12:19Z</time>
      </trkpt>
      <trkpt lat="43.61084" lon="3.88139">
        <ele>42.5</ele>
        <time>2021-01-04T10:12:20Z</time>
      </trkpt>
      <trkpt lat="43.61073" lon="3.88137">
        <ele>42.4</ele>
        <time>2021-01-04T10:12:22Z</time>
      </trkpt>
      <trkpt lat="43.61061" lon="3.88134">
        <ele>42.2</ele>
        <time>2021-01-04T10:12:24Z</time>
      </trkpt>
      <trkpt lat="43.6105" lon="3.88132">
        <ele>42.1</ele>
        <time>2021-01-04T10:12:26Z</time>
      </trkpt>
      <trkpt lat="43.61039" lon="3.8813">
        <ele>42</ele>
        <time>2021-01-04T10:12:28Z</time>
      </trkpt>
      <trkpt lat="43.61028" lon="3.88126">
        <ele>41.9</ele>
        <time>2021-01-04T10:12:30Z</time>
      </trkpt>
      <trkpt lat="43.61022" lon="3.88125">
        <ele>41.9</ele>
        <time>2021-01-04T10:12:31Z</time>
      </trkpt>
      <trkpt lat="43.61012" lon="3.88123">
        <ele>41.8</ele>
        <time>2021-01-04T10:12:33Z</time>
      </trkpt>
      <trkpt lat="43.61003" lon="3.88121">
        <ele>41.8</ele>
        <time>2021-01-04T10:12:35Z</time>
      </trkpt>
      <trkpt lat="43.60995" lon="3.88118">
        <ele>41.7</ele>
        <time>2021-01-04T10:12:37Z</time>
      </trkpt>
      <trkpt lat="43.60987" lon="3.88116">
        <ele>41.7</ele>
        <time>2021-01-04T10:12:38Z</time>
      </trkpt>
      <trkpt lat="43.60984" lon="3.88115">
        <ele>41.7</ele>
        <time>2021-01-04T10:12:40Z</time>
      </trkpt>
      <trkpt lat="43.60979" lon="3.88113">
        <ele>41.7</ele>
        <time>2021-01-04T10:12:42Z</time>
      </trkpt>
      <trkpt lat="43.60972" lon="3.8811">
        <ele>41.7</ele>
        <time>2021-01-04T10:12:44Z</time>
      </trkpt>
      <trkpt lat="43.60968" lon="3.88108">
        <ele>41.6</ele>
        <time>2021-01-04T10:12:45Z</time>
      </trkpt>
      <trkpt lat="43.60964" lon="3.88105">
        <ele>41.6</ele>
        <time>2021-01-04T10:12:46Z</time>
      </trkpt>
      <trkpt lat="43.60957" lon="3.88099">
        <ele>41.5</ele>
        <time>2021-01-04T10:12:48Z</time>
      </trkpt>
      <trkpt lat="43.60953" lon="3.88094">
        <ele>41.5</ele>
        <time>2021-01-04T10:12:49Z</time>
      </trkpt>
      <trkpt lat="43.60947" lon="3.88083">
        <ele>41.4</ele>
        <time>2021-01-04T10:12:51Z</time>
      </trkpt>
      <trkpt lat="43.60944" lon="3.88077">
        <ele>41.3</ele>
        <time>2021-01-04T10:12:52Z</time>
      </trkpt>
      <trkpt lat="43.60938" lon="3.88066">
        <ele>41.2</ele>
        <time>2021-01-04T10:12:54Z</time>
      </trkpt>
      <trkpt lat="43.60935" lon="3.88061">
        <ele>41.2</ele>
        <time>2021-01-04T10:12:55Z</time>
      </trkpt>
      <trkpt lat="43.60929" lon="3.8805">
        <ele>41.1</ele>
        <time>2021-01-04T10:12:57Z</time>
      </trkpt>
      <trkpt lat="43.60926" lon="3.88044">
        <ele>41</ele>
        <time>2021-01-04T10:12:58Z</time>
      </trkpt>
      <trkpt lat="43.60921" lon="3.88035">
        <ele>40.9</ele>
        <time>2021-01-04T10:13:00Z</time>
      </trkpt>
      <trkpt lat="43.60919" lon="3.8803">
        <ele>40.9</ele>
        <time>2021-01-04T10:13:01Z</time>
      </trkpt>
      <trkpt lat="43.60916" lon="3.88025">
        <ele>40.9</ele>
        <time>2021-01-04T10:13:02Z</time>
      </trkpt>
      <trkpt lat="43.60911" lon="3.88018">
        <ele>40.9</ele>
        <time>2021-01-04T10:13:04Z</time>
      </trkpt>
      <trkpt lat="43.60908" lon="3.88013">
        <ele>40.9</ele>
        <time>2021-01-04T10:13:06Z</time>
      </trkpt>
      <trkpt lat="43.60906" lon="3.8801">
        <ele>40.9</ele>
        <time>2021-01-04T10:13:07Z</time>
      </trkpt>
      <trkpt lat="43.609" lon="3.88007">
        <ele>40.8</ele>
        <time>2021-01-04T10:13:08Z</time>
      </trkpt>
      <trkpt lat="43.60897" lon="3.88006">
        <ele>40.8</ele>
        <time>2021-01-04T10:13:10Z</time>
      </trkpt>
      <trkpt lat="43.6089" lon="3.88">
        <ele>40.8</ele>
        <time>2021-01-04T10:13:12Z</time>
      </trkpt>
      <trkpt lat="43.60887" lon="3.87996">
        <ele>40.8</ele>
        <time>2021-01-04T10:13:13Z</time>
      </trkpt>
      <trkpt lat="43.60881" lon="3.87987">
        <ele>40.8</ele>
        <time>2021-01-04T10:13:15Z</time>
      </trkpt>
      <trkpt lat="43.60878" lon="3.87981">
        <ele>40.8</ele>
        <time>2021-01-04T10:13:16Z</time>
      </trkpt>
      <trkpt lat="43.60873" lon="3.8797">
        <ele>40.7</ele>
        <time>2021-01-04T10:13:18Z</time>
      </trkpt>
      <trkpt lat="43.6087" lon="3.87965">
        <ele>40.7</ele>
        <time>2021-01-04T10:13:19Z</time>
      </trkpt>
      <trkpt lat="43.60865" lon="3.87953">
        <ele>40.7</ele>
        <time>2021-01-04T10:13:21Z</time>
      </trkpt>
      <trkpt lat="43.60862" lon="3.87948">
        <ele>40.7</ele>
        <time>2021-01-04T10:13:22Z</time>
      </trkpt>
      <trkpt lat="43.60856" lon="3.87937">
        <ele>40.7</ele>
        <time>2021-01-04T10:13:24Z</time>
      </trkpt>
      <trkpt lat="43.6085" lon="3.87927">
        <ele>40.6</ele>
        <time>2021-01-04T10:13:26Z</time>
      </trkpt>
      <trkpt lat="43.60859" lon="3.87918">
        <ele>45.2</ele>
      </trkpt>
      <trkpt lat="43.60863" lon="3.87916">
        <ele>45.4</ele>
      </trkpt>
      <trkpt lat="43.60875" lon="3.8791">
        <ele>46.2</ele>
      </trkpt>
      <trkpt lat="43.60888" lon="3.87903">
        <ele>47.2</ele>
      </trkpt>
      <trkpt lat="43.6089" lon="3.87902">
        <ele>47.3</ele>
        <extensions>
          <visugpx:TrkExtension xmlns:visugpx="https://www.visugpx.com/editgpx/">
            <visugpx:node>31</visugpx:node>
            </visugpx:TrkExtension>
        </extensions>
      </trkpt>
      <trkpt lat="43.60893" lon="3.879">
        <ele>47.6</ele>
      </trkpt>
      <trkpt lat="43.60899" lon="3.87897">
        <ele>48</ele>
      </trkpt>
      <trkpt lat="43.60907" lon="3.87901">
        <ele>48.2</ele>
      </trkpt>
      <trkpt lat="43.60915" lon="3.87905">
        <ele>48.5</ele>
      </trkpt>
      <trkpt lat="43.60933" lon="3.87914">
        <ele>48.7</ele>
        <extensions>
          <visugpx:TrkExtension xmlns:visugpx="https://www.visugpx.com/editgpx/">
            <visugpx:node>32</visugpx:node>
            </visugpx:TrkExtension>
        </extensions>
      </trkpt>
      <trkpt lat="43.60937" lon="3.87916">
        <ele>46.035443</ele>
        <time>2021-01-03T13:10:03.034Z</time>
        <extensions>
          <visugpx:TrkExtension xmlns:visugpx="https://www.visugpx.com/editgpx/">
            <visugpx:node>27</visugpx:node>
            </visugpx:TrkExtension>
        </extensions>
      </trkpt>
      <trkpt lat="43.6096" lon="3.87924">
        <ele>46.595782</ele>
        <time>2021-01-03T13:10:10.265Z</time>
      </trkpt>
      <trkpt lat="43.60963" lon="3.87925">
        <ele>46.671411</ele>
        <time>2021-01-03T13:10:11.160Z</time>
      </trkpt>
      <trkpt lat="43.60964" lon="3.87925">
        <ele>46.685665</ele>
        <time>2021-01-03T13:10:11.337Z</time>
      </trkpt>
      <trkpt lat="43.60986" lon="3.87923">
        <ele>47.223569</ele>
        <time>2021-01-03T13:10:18.689Z</time>
      </trkpt>
      <trkpt lat="43.61009" lon="3.87917">
        <ele>47.768305</ele>
        <time>2021-01-03T13:10:25.929Z</time>
      </trkpt>
      <trkpt lat="43.61023" lon="3.87913">
        <ele>48.104268</ele>
        <time>2021-01-03T13:10:35.902Z</time>
      </trkpt>
      <trkpt lat="43.6107" lon="3.87917">
        <ele>48.323158</ele>
        <time>2021-01-03T13:11:08.698Z</time>
      </trkpt>
      <trkpt lat="43.61111" lon="3.87922">
        <ele>48.512656</ele>
        <time>2021-01-03T13:11:37.076Z</time>
      </trkpt>
      <trkpt lat="43.6113" lon="3.87922">
        <ele>48.603585</ele>
        <time>2021-01-03T13:11:50.701Z</time>
      </trkpt>
      <trkpt lat="43.61161" lon="3.87922">
        <ele>48.746921</ele>
        <time>2021-01-03T13:12:12.165Z</time>
      </trkpt>
      <trkpt lat="43.61161" lon="3.87922">
        <ele>48.748776</ele>
        <time>2021-01-03T13:12:12.410Z</time>
      </trkpt>
      <trkpt lat="43.61198" lon="3.87928">
        <ele>48.919553</ele>
        <time>2021-01-03T13:12:38.034Z</time>
      </trkpt>
      <trkpt lat="43.61219" lon="3.87932">
        <ele>48.660655</ele>
        <time>2021-01-03T13:12:52.401Z</time>
      </trkpt>
      <trkpt lat="43.61214" lon="3.87987">
        <ele>48.001061</ele>
        <time>2021-01-03T13:13:20.460Z</time>
      </trkpt>
      <trkpt lat="43.61243" lon="3.87997">
        <ele>47.504437</ele>
        <time>2021-01-03T13:13:41.551Z</time>
      </trkpt>
      <trkpt lat="43.61264" lon="3.88003">
        <ele>47.160841</ele>
        <time>2021-01-03T13:13:56.112Z</time>
      </trkpt>
      <trkpt lat="43.61291" lon="3.88013">
        <ele>46.703697</ele>
        <time>2021-01-03T13:14:15.510Z</time>
      </trkpt>
      <trkpt lat="43.61293" lon="3.88013">
        <ele>46.661076</ele>
        <time>2021-01-03T13:14:17.285Z</time>
      </trkpt>
      <trkpt lat="43.61297" lon="3.88016">
        <ele>46.588759</ele>
        <time>2021-01-03T13:14:20.370Z</time>
      </trkpt>
      <trkpt lat="43.61313" lon="3.88023">
        <ele>46.319617</ele>
        <time>2021-01-03T13:14:31.767Z</time>
      </trkpt>
      <trkpt lat="43.61322" lon="3.88028">
        <ele>46.16</ele>
        <time>2021-01-03T13:14:38.525Z</time>
      </trkpt>
      <trkpt lat="43.61347" lon="3.88041">
        <ele>46.316619</ele>
        <time>2021-01-03T13:14:57.434Z</time>
      </trkpt>
      <trkpt lat="43.6135" lon="3.88041">
        <ele>46.37172</ele>
        <time>2021-01-03T13:14:59.421Z</time>
      </trkpt>
      <trkpt lat="43.61354" lon="3.88041">
        <ele>46.453407</ele>
        <time>2021-01-03T13:15:04.573Z</time>
      </trkpt>
      <trkpt lat="43.61359" lon="3.88041">
        <ele>46.550893</ele>
        <time>2021-01-03T13:15:10.706Z</time>
      </trkpt>
      <trkpt lat="43.61359" lon="3.88041">
        <ele>46.552837</ele>
        <time>2021-01-03T13:15:10.913Z</time>
      </trkpt>
      <trkpt lat="43.6136" lon="3.88041">
        <ele>46.564505</ele>
        <time>2021-01-03T13:15:11.557Z</time>
      </trkpt>
      <trkpt lat="43.61362" lon="3.8804">
        <ele>46.596895</ele>
        <time>2021-01-03T13:15:13.620Z</time>
      </trkpt>
      <trkpt lat="43.61362" lon="3.88039">
        <ele>46.618502</ele>
        <time>2021-01-03T13:15:15.028Z</time>
      </trkpt>
      <trkpt lat="43.61363" lon="3.88038">
        <ele>46.637708</ele>
        <time>2021-01-03T13:15:16.244Z</time>
      </trkpt>
      <trkpt lat="43.61367" lon="3.88034">
        <ele>46.726904</ele>
        <time>2021-01-03T13:15:19.438Z</time>
      </trkpt>
      <trkpt lat="43.61368" lon="3.88036">
        <ele>46.765685</ele>
        <time>2021-01-03T13:15:20.823Z</time>
      </trkpt>
      <trkpt lat="43.6137" lon="3.8804">
        <ele>46.83525</ele>
        <time>2021-01-03T13:15:23.317Z</time>
      </trkpt>
      <trkpt lat="43.61378" lon="3.88032">
        <ele>47.032945</ele>
        <time>2021-01-03T13:15:30.375Z</time>
      </trkpt>
      <trkpt lat="43.61363" lon="3.88011">
        <ele>47.448933</ele>
        <time>2021-01-03T13:15:45.253Z</time>
      </trkpt>
      <trkpt lat="43.61341" lon="3.87986">
        <ele>47.999042</ele>
        <time>2021-01-03T13:16:04.944Z</time>
      </trkpt>
      <trkpt lat="43.61334" lon="3.87976">
        <ele>48.196467</ele>
        <time>2021-01-03T13:16:12.003Z</time>
      </trkpt>
      <trkpt lat="43.61304" lon="3.8795">
        <ele>48.894029</ele>
        <time>2021-01-03T13:16:36.938Z</time>
      </trkpt>
      <trkpt lat="43.613" lon="3.87928">
        <ele>49.20622</ele>
        <time>2021-01-03T13:16:48.153Z</time>
      </trkpt>
      <trkpt lat="43.61294" lon="3.87916">
        <ele>49.416058</ele>
        <time>2021-01-03T13:16:55.633Z</time>
      </trkpt>
      <trkpt lat="43.61296" lon="3.87915">
        <ele>49.466299</ele>
        <time>2021-01-03T13:16:57.444Z</time>
      </trkpt>
      <trkpt lat="43.61292" lon="3.87894">
        <ele>49.51817</ele>
        <time>2021-01-03T13:17:08.581Z</time>
      </trkpt>
      <trkpt lat="43.61281" lon="3.87868">
        <ele>49.562493</ele>
        <time>2021-01-03T13:17:23.634Z</time>
      </trkpt>
      <trkpt lat="43.61277" lon="3.87862">
        <ele>49.575978</ele>
        <time>2021-01-03T13:17:28.213Z</time>
      </trkpt>
      <trkpt lat="43.61247" lon="3.87804">
        <ele>49.681025</ele>
        <time>2021-01-03T13:18:03.837Z</time>
      </trkpt>
      <trkpt lat="43.61271" lon="3.87777">
        <ele>49.745296</ele>
        <time>2021-01-03T13:18:25.660Z</time>
      </trkpt>
      <trkpt lat="43.61274" lon="3.87773">
        <ele>49.75487</ele>
        <time>2021-01-03T13:18:28.902Z</time>
      </trkpt>
      <trkpt lat="43.61283" lon="3.87763">
        <ele>49.778129</ele>
        <time>2021-01-03T13:18:36.795Z</time>
      </trkpt>
      <trkpt lat="43.61284" lon="3.87759">
        <ele>49.784288</ele>
        <time>2021-01-03T13:18:38.872Z</time>
      </trkpt>
      <trkpt lat="43.61318" lon="3.87806">
        <ele>49.495222</ele>
        <time>2021-01-03T13:19:12.476Z</time>
      </trkpt>
      <trkpt lat="43.61317" lon="3.8781">
        <ele>49.406191</ele>
        <time>2021-01-03T13:19:14.691Z</time>
      </trkpt>
      <trkpt lat="43.61335" lon="3.87818">
        <ele>48.888338</ele>
        <time>2021-01-03T13:19:27.651Z</time>
      </trkpt>
      <trkpt lat="43.61342" lon="3.87826">
        <ele>48.628386</ele>
        <time>2021-01-03T13:19:34.179Z</time>
      </trkpt>
      <trkpt lat="43.61355" lon="3.87838">
        <ele>48.183357</ele>
        <time>2021-01-03T13:19:45.278Z</time>
      </trkpt>
      <trkpt lat="43.61356" lon="3.8784">
        <ele>48.145595</ele>
        <time>2021-01-03T13:19:46.260Z</time>
      </trkpt>
      <trkpt lat="43.61377" lon="3.87858">
        <ele>47.462549</ele>
        <time>2021-01-03T13:20:03.341Z</time>
      </trkpt>
      <trkpt lat="43.61385" lon="3.87845">
        <ele>47.106459</ele>
        <time>2021-01-03T13:20:12.248Z</time>
      </trkpt>
      <trkpt lat="43.61393" lon="3.87831">
        <ele>46.748808</ele>
        <time>2021-01-03T13:20:21.215Z</time>
      </trkpt>
      <trkpt lat="43.61396" lon="3.87825">
        <ele>46.591928</ele>
        <time>2021-01-03T13:20:25.147Z</time>
      </trkpt>
      <trkpt lat="43.61405" lon="3.87799">
        <ele>46.01777</ele>
        <time>2021-01-03T13:20:39.525Z</time>
      </trkpt>
      <trkpt lat="43.61413" lon="3.87778">
        <ele>45.540937</ele>
        <time>2021-01-03T13:20:51.453Z</time>
      </trkpt>
      <trkpt lat="43.61418" lon="3.87764">
        <ele>45.227263</ele>
        <time>2021-01-03T13:20:59.322Z</time>
      </trkpt>
      <trkpt lat="43.61424" lon="3.87744">
        <ele>44.896981</ele>
        <time>2021-01-03T13:21:10.209Z</time>
      </trkpt>
      <trkpt lat="43.61426" lon="3.87734">
        <ele>45.040592</ele>
        <time>2021-01-03T13:21:15.588Z</time>
      </trkpt>
      <trkpt lat="43.61372" lon="3.87715">
        <ele>46.082656</ele>
        <time>2021-01-03T13:21:54.521Z</time>
      </trkpt>
      <trkpt lat="43.6136" lon="3.8771">
        <ele>46.3242</ele>
        <time>2021-01-03T13:22:03.568Z</time>
      </trkpt>
      <trkpt lat="43.61309" lon="3.87693">
        <ele>47.288111</ele>
        <time>2021-01-03T13:22:39.570Z</time>
      </trkpt>
      <trkpt lat="43.61295" lon="3.87689">
        <ele>47.550795</ele>
        <time>2021-01-03T13:22:49.409Z</time>
      </trkpt>
      <trkpt lat="43.61276" lon="3.8768">
        <ele>47.93083</ele>
        <time>2021-01-03T13:23:03.584Z</time>
      </trkpt>
      <trkpt lat="43.61271" lon="3.87678">
        <ele>48.033474</ele>
        <time>2021-01-03T13:23:07.443Z</time>
      </trkpt>
      <trkpt lat="43.61274" lon="3.87656">
        <ele>48.451925</ele>
        <time>2021-01-03T13:23:19.188Z</time>
      </trkpt>
      <trkpt lat="43.61276" lon="3.87645">
        <ele>48.706992</ele>
        <time>2021-01-03T13:23:24.788Z</time>
      </trkpt>
      <trkpt lat="43.61278" lon="3.87635">
        <ele>48.956003</ele>
        <time>2021-01-03T13:23:30.240Z</time>
      </trkpt>
      <trkpt lat="43.61287" lon="3.87597">
        <ele>49.854461</ele>
        <time>2021-01-03T13:23:49.974Z</time>
      </trkpt>
      <trkpt lat="43.61291" lon="3.87575">
        <ele>50.37931</ele>
        <time>2021-01-03T13:24:01.475Z</time>
      </trkpt>
      <trkpt lat="43.61293" lon="3.87562">
        <ele>50.693919</ele>
        <time>2021-01-03T13:24:08.387Z</time>
      </trkpt>
      <trkpt lat="43.61298" lon="3.87531">
        <ele>51.420799</ele>
        <time>2021-01-03T13:24:24.320Z</time>
      </trkpt>
      <trkpt lat="43.61301" lon="3.87498">
        <ele>52.185552</ele>
        <time>2021-01-03T13:24:41.079Z</time>
      </trkpt>
      <trkpt lat="43.61301" lon="3.87476">
        <ele>52.684858</ele>
        <time>2021-01-03T13:24:52.067Z</time>
      </trkpt>
      <trkpt lat="43.61301" lon="3.87476">
        <ele>52.689459</ele>
        <time>2021-01-03T13:24:52.146Z</time>
      </trkpt>
      <trkpt lat="43.61297" lon="3.87453">
        <ele>53.237434</ele>
        <time>2021-01-03T13:25:04.175Z</time>
      </trkpt>
      <trkpt lat="43.61296" lon="3.87449">
        <ele>53.326918</ele>
        <time>2021-01-03T13:25:06.111Z</time>
      </trkpt>
      <trkpt lat="43.61272" lon="3.8746">
        <ele>54.088322</ele>
        <time>2021-01-03T13:25:23.523Z</time>
      </trkpt>
      <trkpt lat="43.61265" lon="3.87463">
        <ele>54.284941</ele>
        <time>2021-01-03T13:25:28.686Z</time>
      </trkpt>
      <trkpt lat="43.61259" lon="3.87466">
        <ele>54.465365</ele>
        <time>2021-01-03T13:25:33.463Z</time>
      </trkpt>
      <trkpt lat="43.61244" lon="3.87476">
        <ele>54.894264</ele>
        <time>2021-01-03T13:25:44.792Z</time>
      </trkpt>
      <trkpt lat="43.61243" lon="3.87472">
        <ele>54.985672</ele>
        <time>2021-01-03T13:25:47.215Z</time>
      </trkpt>
      <trkpt lat="43.61248" lon="3.87431">
        <ele>55.769687</ele>
        <time>2021-01-03T13:26:07.983Z</time>
      </trkpt>
      <trkpt lat="43.61199" lon="3.87405">
        <ele>57.148895</ele>
        <time>2021-01-03T13:26:44.378Z</time>
      </trkpt>
      <trkpt lat="43.61199" lon="3.87405">
        <ele>57.155396</ele>
        <time>2021-01-03T13:26:44.543Z</time>
      </trkpt>
      <trkpt lat="43.6118" lon="3.87392">
        <ele>57.723464</ele>
        <time>2021-01-03T13:26:59.522Z</time>
      </trkpt>
      <trkpt lat="43.61173" lon="3.87414">
        <ele>58.193488</ele>
        <time>2021-01-03T13:27:11.977Z</time>
      </trkpt>
      <trkpt lat="43.61169" lon="3.87426">
        <ele>58.433029</ele>
        <time>2021-01-03T13:27:18.283Z</time>
      </trkpt>
      <trkpt lat="43.61147" lon="3.87406">
        <ele>58.467229</ele>
        <time>2021-01-03T13:27:37.113Z</time>
      </trkpt>
      <trkpt lat="43.61143" lon="3.87425">
        <ele>58.326776</ele>
        <time>2021-01-03T13:27:47.279Z</time>
      </trkpt>
      <trkpt lat="43.61141" lon="3.87443">
        <ele>58.199095</ele>
        <time>2021-01-03T13:27:56.486Z</time>
      </trkpt>
      <trkpt lat="43.61136" lon="3.87489">
        <ele>57.874955</ele>
        <time>2021-01-03T13:28:19.872Z</time>
      </trkpt>
      <trkpt lat="43.61129" lon="3.87525">
        <ele>57.61451</ele>
        <time>2021-01-03T13:28:38.681Z</time>
      </trkpt>
      <trkpt lat="43.61127" lon="3.87532">
        <ele>57.564139</ele>
        <time>2021-01-03T13:28:42.308Z</time>
      </trkpt>
      <trkpt lat="43.61127" lon="3.87532">
        <ele>57.564139</ele>
        <time>2021-01-03T13:28:42.334Z</time>
      </trkpt>
      <trkpt lat="43.61101" lon="3.87576">
        <ele>57.165537</ele>
        <time>2021-01-03T13:29:11.067Z</time>
      </trkpt>
      <trkpt lat="43.61095" lon="3.87582">
        <ele>57.098771</ele>
        <time>2021-01-03T13:29:15.841Z</time>
      </trkpt>
      <trkpt lat="43.61091" lon="3.87583">
        <ele>57.054882</ele>
        <time>2021-01-03T13:29:19.008Z</time>
      </trkpt>
      <trkpt lat="43.61089" lon="3.87583">
        <ele>57.037285</ele>
        <time>2021-01-03T13:29:20.292Z</time>
      </trkpt>
      <trkpt lat="43.6109" lon="3.87575">
        <ele>56.97899</ele>
        <time>2021-01-03T13:29:21.461Z</time>
      </trkpt>
      <trkpt lat="43.61086" lon="3.87575">
        <ele>56.944214</ele>
        <time>2021-01-03T13:29:23.961Z</time>
      </trkpt>
      <trkpt lat="43.61084" lon="3.87601">
        <ele>56.42401</ele>
        <time>2021-01-03T13:29:27.324Z</time>
      </trkpt>
      <trkpt lat="43.61084" lon="3.87608">
        <ele>56.270931</ele>
        <time>2021-01-03T13:29:28.203Z</time>
      </trkpt>
      <trkpt lat="43.61083" lon="3.87613">
        <ele>56.143657</ele>
        <time>2021-01-03T13:29:28.909Z</time>
      </trkpt>
      <trkpt lat="43.61082" lon="3.87617">
        <ele>56.055026</ele>
        <time>2021-01-03T13:29:29.458Z</time>
      </trkpt>
      <trkpt lat="43.6108" lon="3.87624">
        <ele>55.891064</ele>
        <time>2021-01-03T13:29:30.366Z</time>
      </trkpt>
      <trkpt lat="43.61079" lon="3.87625">
        <ele>55.83658</ele>
        <time>2021-01-03T13:29:30.676Z</time>
      </trkpt>
      <trkpt lat="43.61074" lon="3.87632">
        <ele>55.630985</ele>
        <time>2021-01-03T13:29:31.832Z</time>
      </trkpt>
      <trkpt lat="43.6106" lon="3.87654">
        <ele>54.973391</ele>
        <time>2021-01-03T13:29:35.480Z</time>
      </trkpt>
      <trkpt lat="43.61059" lon="3.87658">
        <ele>54.885879</ele>
        <time>2021-01-03T13:29:35.971Z</time>
      </trkpt>
      <trkpt lat="43.61057" lon="3.87659">
        <ele>54.818428</ele>
        <time>2021-01-03T13:29:36.336Z</time>
      </trkpt>
      <trkpt lat="43.6105" lon="3.87663">
        <ele>54.59729</ele>
        <time>2021-01-03T13:29:37.597Z</time>
      </trkpt>
      <trkpt lat="43.61041" lon="3.87677">
        <ele>54.187939</ele>
        <time>2021-01-03T13:29:39.776Z</time>
      </trkpt>
      <trkpt lat="43.61036" lon="3.87685">
        <ele>53.93385</ele>
        <time>2021-01-03T13:29:41.151Z</time>
      </trkpt>
      <trkpt lat="43.61031" lon="3.87693">
        <ele>53.694279</ele>
        <time>2021-01-03T13:29:42.482Z</time>
      </trkpt>
      <trkpt lat="43.61025" lon="3.87702">
        <ele>53.421924</ele>
        <time>2021-01-03T13:29:44.008Z</time>
      </trkpt>
      <trkpt lat="43.61007" lon="3.87727">
        <ele>52.643028</ele>
        <time>2021-01-03T13:29:48.226Z</time>
      </trkpt>
      <trkpt lat="43.60994" lon="3.87711">
        <ele>52.093641</ele>
        <time>2021-01-03T13:30:00.577Z</time>
      </trkpt>
      <trkpt lat="43.60983" lon="3.87699">
        <ele>51.644781</ele>
        <time>2021-01-03T13:30:10.692Z</time>
      </trkpt>
      <trkpt lat="43.60974" lon="3.877">
        <ele>51.369271</ele>
        <time>2021-01-03T13:30:16.886Z</time>
      </trkpt>
      <trkpt lat="43.60964" lon="3.87711">
        <ele>50.947916</ele>
        <time>2021-01-03T13:30:25.634Z</time>
      </trkpt>
      <trkpt lat="43.60955" lon="3.87723">
        <ele>50.533911</ele>
        <time>2021-01-03T13:30:34.217Z</time>
      </trkpt>
      <trkpt lat="43.60955" lon="3.87723">
        <ele>50.533911</ele>
        <time>2021-01-03T13:30:34.258Z</time>
      </trkpt>
      <trkpt lat="43.60948" lon="3.87721">
        <ele>50.285183</ele>
        <time>2021-01-03T13:30:39.389Z</time>
      </trkpt>
      <trkpt lat="43.60942" lon="3.87712">
        <ele>49.99584</ele>
        <time>2021-01-03T13:30:45.403Z</time>
      </trkpt>
      <trkpt lat="43.60937" lon="3.87712">
        <ele>49.827494</ele>
        <time>2021-01-03T13:30:48.879Z</time>
      </trkpt>
      <trkpt lat="43.60932" lon="3.87713">
        <ele>49.669586</ele>
        <time>2021-01-03T13:30:52.170Z</time>
      </trkpt>
      <trkpt lat="43.60929" lon="3.87709">
        <ele>49.530987</ele>
        <time>2021-01-03T13:30:55.027Z</time>
      </trkpt>
      <trkpt lat="43.60924" lon="3.8769">
        <ele>49.042864</ele>
        <time>2021-01-03T13:31:05.177Z</time>
      </trkpt>
      <trkpt lat="43.60924" lon="3.87686">
        <ele>48.940521</ele>
        <time>2021-01-03T13:31:07.298Z</time>
      </trkpt>
      <trkpt lat="43.60913" lon="3.87674">
        <ele>48.476117</ele>
        <time>2021-01-03T13:31:24.430Z</time>
      </trkpt>
      <trkpt lat="43.60903" lon="3.87663">
        <ele>48.03533</ele>
        <time>2021-01-03T13:31:40.664Z</time>
      </trkpt>
      <trkpt lat="43.6089" lon="3.87689">
        <ele>47.290463</ele>
        <time>2021-01-03T13:31:56.093Z</time>
      </trkpt>
      <trkpt lat="43.6089" lon="3.87689">
        <ele>47.280547</ele>
        <time>2021-01-03T13:31:56.309Z</time>
      </trkpt>
      <trkpt lat="43.60874" lon="3.87713">
        <ele>46.492131</ele>
        <time>2021-01-03T13:32:12.660Z</time>
      </trkpt>
      <trkpt lat="43.6087" lon="3.87721">
        <ele>46.239182</ele>
        <time>2021-01-03T13:32:17.905Z</time>
      </trkpt>
      <trkpt lat="43.60868" lon="3.87726">
        <ele>46.116696</ele>
        <time>2021-01-03T13:32:20.453Z</time>
      </trkpt>
      <trkpt lat="43.60856" lon="3.87755">
        <ele>45.295542</ele>
        <time>2021-01-03T13:32:37.557Z</time>
      </trkpt>
      <trkpt lat="43.60852" lon="3.87754">
        <ele>45.20779</ele>
        <time>2021-01-03T13:32:40.061Z</time>
      </trkpt>
      <trkpt lat="43.60844" lon="3.87776">
        <ele>44.770062</ele>
        <time>2021-01-03T13:32:52.399Z</time>
      </trkpt>
      <trkpt lat="43.60838" lon="3.87795">
        <ele>44.389363</ele>
        <time>2021-01-03T13:33:03.114Z</time>
      </trkpt>
      <trkpt lat="43.60829" lon="3.87802">
        <ele>44.149733</ele>
        <time>2021-01-03T13:33:09.863Z</time>
      </trkpt>
      <trkpt lat="43.60828" lon="3.87805">
        <ele>44.081231</ele>
        <time>2021-01-03T13:33:11.791Z</time>
      </trkpt>
      <trkpt lat="43.60826" lon="3.8781">
        <ele>43.991009</ele>
        <time>2021-01-03T13:33:14.337Z</time>
      </trkpt>
      <trkpt lat="43.60801" lon="3.87848">
        <ele>43.07806</ele>
        <time>2021-01-03T13:33:40.034Z</time>
      </trkpt>
      <trkpt lat="43.60801" lon="3.87848">
        <ele>43.07806</ele>
        <time>2021-01-03T13:33:40.098Z</time>
      </trkpt>
      <trkpt lat="43.60766" lon="3.87796">
        <ele>41.804114</ele>
        <time>2021-01-03T13:34:15.925Z</time>
      </trkpt>
      <trkpt lat="43.60725" lon="3.87737">
        <ele>40.83995</ele>
        <time>2021-01-03T13:34:57.051Z</time>
      </trkpt>
      <trkpt lat="43.60706" lon="3.8771">
        <ele>40.813524</ele>
        <time>2021-01-03T13:35:16.070Z</time>
      </trkpt>
      <trkpt lat="43.60676" lon="3.87665">
        <ele>40.770579</ele>
        <time>2021-01-03T13:35:46.954Z</time>
      </trkpt>
      <trkpt lat="43.60693" lon="3.87618">
        <ele>40.73326</ele>
        <time>2021-01-03T13:36:13.850Z</time>
      </trkpt>
      <trkpt lat="43.60698" lon="3.87607">
        <ele>40.724136</ele>
        <time>2021-01-03T13:36:20.403Z</time>
      </trkpt>
      <trkpt lat="43.60705" lon="3.87586">
        <ele>40.707969</ele>
        <time>2021-01-03T13:36:32.024Z</time>
      </trkpt>
      <trkpt lat="43.60718" lon="3.87589">
        <ele>40.695661</ele>
        <time>2021-01-03T13:36:40.896Z</time>
      </trkpt>
      <trkpt lat="43.60741" lon="3.8759">
        <ele>41.019588</ele>
        <time>2021-01-03T13:36:57.231Z</time>
      </trkpt>
      <trkpt lat="43.6075" lon="3.87572">
        <ele>41.400878</ele>
        <time>2021-01-03T13:37:08.270Z</time>
      </trkpt>
      <trkpt lat="43.6076" lon="3.87553">
        <ele>41.812124</ele>
        <time>2021-01-03T13:37:20.156Z</time>
      </trkpt>
      <trkpt lat="43.60801" lon="3.87481">
        <ele>43.405112</ele>
        <time>2021-01-03T13:38:06.168Z</time>
      </trkpt>
      <trkpt lat="43.60819" lon="3.87506">
        <ele>44.032522</ele>
        <time>2021-01-03T13:38:24.313Z</time>
      </trkpt>
      <trkpt lat="43.6083" lon="3.87522">
        <ele>44.415299</ele>
        <time>2021-01-03T13:38:35.395Z</time>
      </trkpt>
      <trkpt lat="43.60843" lon="3.87562">
        <ele>45.247438</ele>
        <time>2021-01-03T13:38:57.556Z</time>
      </trkpt>
      <trkpt lat="43.60844" lon="3.87565">
        <ele>45.316521</ele>
        <time>2021-01-03T13:38:58.960Z</time>
      </trkpt>
      <trkpt lat="43.60851" lon="3.87564">
        <ele>45.560129</ele>
        <time>2021-01-03T13:39:03.948Z</time>
      </trkpt>
      <trkpt lat="43.60856" lon="3.87564">
        <ele>45.732528</ele>
        <time>2021-01-03T13:39:07.461Z</time>
      </trkpt>
      <trkpt lat="43.60868" lon="3.87565">
        <ele>46.138276</ele>
        <time>2021-01-03T13:39:15.830Z</time>
      </trkpt>
      <trkpt lat="43.60885" lon="3.87565">
        <ele>46.705668</ele>
        <time>2021-01-03T13:39:27.499Z</time>
      </trkpt>
      <trkpt lat="43.60888" lon="3.87564">
        <ele>46.800077</ele>
        <time>2021-01-03T13:39:29.487Z</time>
      </trkpt>
      <trkpt lat="43.60901" lon="3.87557">
        <ele>47.280769</ele>
        <time>2021-01-03T13:39:39.323Z</time>
      </trkpt>
      <trkpt lat="43.60919" lon="3.8757">
        <ele>47.948424</ele>
        <time>2021-01-03T13:39:53.075Z</time>
      </trkpt>
      <trkpt lat="43.60919" lon="3.8757">
        <ele>47.948424</ele>
        <time>2021-01-03T13:39:53.128Z</time>
      </trkpt>
      <trkpt lat="43.60936" lon="3.8758">
        <ele>48.574282</ele>
        <time>2021-01-03T13:40:06.017Z</time>
      </trkpt>
      <trkpt lat="43.60951" lon="3.87539">
        <ele>49.708732</ele>
        <time>2021-01-03T13:40:29.404Z</time>
      </trkpt>
      <trkpt lat="43.60958" lon="3.87525">
        <ele>50.118834</ele>
        <time>2021-01-03T13:40:37.865Z</time>
      </trkpt>
      <trkpt lat="43.60954" lon="3.87518">
        <ele>50.322949</ele>
        <time>2021-01-03T13:40:39.583Z</time>
      </trkpt>
      <trkpt lat="43.60956" lon="3.87514">
        <ele>50.45172</ele>
        <time>2021-01-03T13:40:42.264Z</time>
      </trkpt>
      <trkpt lat="43.60965" lon="3.87498">
        <ele>50.949251</ele>
        <time>2021-01-03T13:40:52.474Z</time>
      </trkpt>
      <trkpt lat="43.60971" lon="3.87487">
        <ele>51.199745</ele>
        <time>2021-01-03T13:40:59.570Z</time>
      </trkpt>
      <trkpt lat="43.60981" lon="3.87466">
        <ele>51.524884</ele>
        <time>2021-01-03T13:41:12.052Z</time>
      </trkpt>
      <trkpt lat="43.60984" lon="3.87461">
        <ele>51.611974</ele>
        <time>2021-01-03T13:41:15.435Z</time>
      </trkpt>
      <trkpt lat="43.61009" lon="3.87422">
        <ele>52.290258</ele>
        <time>2021-01-03T13:41:41.498Z</time>
      </trkpt>
      <trkpt lat="43.61009" lon="3.87422">
        <ele>52.292493</ele>
        <time>2021-01-03T13:41:41.571Z</time>
      </trkpt>
      <trkpt lat="43.61019" lon="3.87411">
        <ele>52.52283</ele>
        <time>2021-01-03T13:41:50.408Z</time>
      </trkpt>
      <trkpt lat="43.61031" lon="3.87428">
        <ele>52.82152</ele>
        <time>2021-01-03T13:42:01.850Z</time>
      </trkpt>
      <trkpt lat="43.61033" lon="3.87432">
        <ele>52.890793</ele>
        <time>2021-01-03T13:42:04.526Z</time>
      </trkpt>
      <trkpt lat="43.61038" lon="3.87429">
        <ele>52.972478</ele>
        <time>2021-01-03T13:42:07.630Z</time>
      </trkpt>
      <trkpt lat="43.61039" lon="3.87428">
        <ele>53.001642</ele>
        <time>2021-01-03T13:42:08.739Z</time>
      </trkpt>
      <trkpt lat="43.61044" lon="3.87419">
        <ele>53.151567</ele>
        <time>2021-01-03T13:42:14.540Z</time>
      </trkpt>
      <trkpt lat="43.61057" lon="3.87394">
        <ele>53.55404</ele>
        <time>2021-01-03T13:42:29.999Z</time>
      </trkpt>
      <trkpt lat="43.61066" lon="3.87371">
        <ele>53.889588</ele>
        <time>2021-01-03T13:42:42.886Z</time>
      </trkpt>
      <trkpt lat="43.61069" lon="3.87363">
        <ele>54.010068</ele>
        <time>2021-01-03T13:42:47.533Z</time>
      </trkpt>
      <trkpt lat="43.61101" lon="3.87375">
        <ele>54.027851</ele>
        <time>2021-01-03T13:43:10.414Z</time>
      </trkpt>
      <trkpt lat="43.61104" lon="3.87376">
        <ele>53.946693</ele>
        <time>2021-01-03T13:43:12.905Z</time>
      </trkpt>
      <trkpt lat="43.61106" lon="3.8736">
        <ele>53.67218</ele>
        <time>2021-01-03T13:43:15.522Z</time>
      </trkpt>
      <trkpt lat="43.61107" lon="3.87342">
        <ele>53.382952</ele>
        <time>2021-01-03T13:43:18.143Z</time>
      </trkpt>
      <trkpt lat="43.61109" lon="3.87323">
        <ele>53.063018</ele>
        <time>2021-01-03T13:43:20.577Z</time>
      </trkpt>
      <trkpt lat="43.61111" lon="3.87295">
        <ele>52.6072</ele>
        <time>2021-01-03T13:43:24.493Z</time>
      </trkpt>
      <trkpt lat="43.61112" lon="3.87278">
        <ele>52.324742</ele>
        <time>2021-01-03T13:43:26.524Z</time>
      </trkpt>
      <trkpt lat="43.61112" lon="3.87254">
        <ele>51.920191</ele>
        <time>2021-01-03T13:43:29.743Z</time>
      </trkpt>
      <trkpt lat="43.61113" lon="3.87244">
        <ele>51.759409</ele>
        <time>2021-01-03T13:43:31.020Z</time>
      </trkpt>
      <trkpt lat="43.61114" lon="3.87238">
        <ele>51.666337</ele>
        <time>2021-01-03T13:43:31.679Z</time>
      </trkpt>
      <trkpt lat="43.61114" lon="3.87236">
        <ele>51.62335</ele>
        <time>2021-01-03T13:43:31.992Z</time>
      </trkpt>
      <trkpt lat="43.61115" lon="3.87215">
        <ele>51.273354</ele>
        <time>2021-01-03T13:43:35.657Z</time>
      </trkpt>
      <trkpt lat="43.61116" lon="3.87195">
        <ele>50.958511</ele>
        <time>2021-01-03T13:43:39.117Z</time>
      </trkpt>
      <trkpt lat="43.61109" lon="3.87194">
        <ele>50.798712</ele>
        <time>2021-01-03T13:43:40.668Z</time>
      </trkpt>
      <trkpt lat="43.61074" lon="3.8719">
        <ele>49.930518</ele>
        <time>2021-01-03T13:43:48.831Z</time>
      </trkpt>
      <trkpt lat="43.61069" lon="3.8719">
        <ele>49.784599</ele>
        <time>2021-01-03T13:43:49.951Z</time>
      </trkpt>
      <trkpt lat="43.61053" lon="3.87176">
        <ele>49.288326</ele>
        <time>2021-01-03T13:43:54.228Z</time>
      </trkpt>
      <trkpt lat="43.61048" lon="3.87171">
        <ele>49.099041</ele>
        <time>2021-01-03T13:43:55.830Z</time>
      </trkpt>
      <trkpt lat="43.61042" lon="3.87168">
        <ele>48.938806</ele>
        <time>2021-01-03T13:43:57.081Z</time>
      </trkpt>
      <trkpt lat="43.61043" lon="3.87165">
        <ele>48.876042</ele>
        <time>2021-01-03T13:43:57.433Z</time>
      </trkpt>
      <trkpt lat="43.61043" lon="3.87163">
        <ele>48.83533</ele>
        <time>2021-01-03T13:43:57.671Z</time>
      </trkpt>
      <trkpt lat="43.61044" lon="3.8716">
        <ele>48.76103</ele>
        <time>2021-01-03T13:43:58.114Z</time>
      </trkpt>
      <trkpt lat="43.61048" lon="3.87081">
        <ele>47.189655</ele>
        <time>2021-01-03T13:44:07.952Z</time>
      </trkpt>
      <trkpt lat="43.61054" lon="3.87006">
        <ele>45.688768</ele>
        <time>2021-01-03T13:44:17.695Z</time>
      </trkpt>
      <trkpt lat="43.61061" lon="3.86909">
        <ele>45.128978</ele>
        <time>2021-01-03T13:44:32.287Z</time>
      </trkpt>
      <trkpt lat="43.6106" lon="3.86895">
        <ele>45.095959</ele>
        <time>2021-01-03T13:44:34.502Z</time>
      </trkpt>
      <trkpt lat="43.61062" lon="3.8687">
        <ele>45.035876</ele>
        <time>2021-01-03T13:44:38.996Z</time>
      </trkpt>
      <trkpt lat="43.61064" lon="3.86851">
        <ele>44.991607</ele>
        <time>2021-01-03T13:44:42.103Z</time>
      </trkpt>
      <trkpt lat="43.61069" lon="3.86845">
        <ele>44.969337</ele>
        <time>2021-01-03T13:44:43.714Z</time>
      </trkpt>
      <trkpt lat="43.61079" lon="3.86834">
        <ele>44.929351</ele>
        <time>2021-01-03T13:44:47.071Z</time>
      </trkpt>
      <trkpt lat="43.61082" lon="3.86821">
        <ele>44.897044</ele>
        <time>2021-01-03T13:44:49.183Z</time>
      </trkpt>
      <trkpt lat="43.61083" lon="3.86817">
        <ele>44.885454</ele>
        <time>2021-01-03T13:44:49.869Z</time>
      </trkpt>
      <trkpt lat="43.61083" lon="3.86817">
        <ele>44.885454</ele>
        <time>2021-01-03T13:44:49.875Z</time>
      </trkpt>
      <trkpt lat="43.61083" lon="3.86815">
        <ele>44.880476</ele>
        <time>2021-01-03T13:44:50.187Z</time>
      </trkpt>
      <trkpt lat="43.61085" lon="3.86814">
        <ele>44.874559</ele>
        <time>2021-01-03T13:44:50.567Z</time>
      </trkpt>
      <trkpt lat="43.61134" lon="3.8682">
        <ele>44.710016</ele>
        <time>2021-01-03T13:45:01.325Z</time>
      </trkpt>
      <trkpt lat="43.61143" lon="3.86821">
        <ele>44.667497</ele>
        <time>2021-01-03T13:45:03.999Z</time>
      </trkpt>
      <trkpt lat="43.61147" lon="3.86822">
        <ele>44.65137</ele>
        <time>2021-01-03T13:45:04.746Z</time>
      </trkpt>
      <trkpt lat="43.61148" lon="3.86822">
        <ele>44.647307</ele>
        <time>2021-01-03T13:45:04.931Z</time>
      </trkpt>
      <trkpt lat="43.61158" lon="3.86823">
        <ele>44.602151</ele>
        <time>2021-01-03T13:45:06.936Z</time>
      </trkpt>
      <trkpt lat="43.61167" lon="3.86824">
        <ele>44.56188</ele>
        <time>2021-01-03T13:45:09.092Z</time>
      </trkpt>
      <trkpt lat="43.61203" lon="3.86828">
        <ele>44.397688</ele>
        <time>2021-01-03T13:45:17.428Z</time>
      </trkpt>
      <trkpt lat="43.61214" lon="3.86827">
        <ele>44.351198</ele>
        <time>2021-01-03T13:45:20.376Z</time>
      </trkpt>
      <trkpt lat="43.61225" lon="3.86821">
        <ele>44.29948</ele>
        <time>2021-01-03T13:45:22.654Z</time>
      </trkpt>
      <trkpt lat="43.61221" lon="3.86816">
        <ele>44.277743</ele>
        <time>2021-01-03T13:45:23.716Z</time>
      </trkpt>
      <trkpt lat="43.61217" lon="3.86808">
        <ele>44.244546</ele>
        <time>2021-01-03T13:45:25.473Z</time>
      </trkpt>
      <trkpt lat="43.61211" lon="3.86797">
        <ele>44.200343</ele>
        <time>2021-01-03T13:45:28.069Z</time>
      </trkpt>
      <trkpt lat="43.61198" lon="3.86798">
        <ele>44.144553</ele>
        <time>2021-01-03T13:45:36.774Z</time>
      </trkpt>
      <trkpt lat="43.61197" lon="3.86798">
        <ele>44.136079</ele>
        <time>2021-01-03T13:45:38.057Z</time>
      </trkpt>
      <trkpt lat="43.6118" lon="3.86796">
        <ele>44.063082</ele>
        <time>2021-01-03T13:45:49.445Z</time>
      </trkpt>
      <trkpt lat="43.6116" lon="3.86793">
        <ele>43.971676</ele>
        <time>2021-01-03T13:46:03.707Z</time>
      </trkpt>
      <trkpt lat="43.61141" lon="3.8679">
        <ele>43.844684</ele>
        <time>2021-01-03T13:46:16.564Z</time>
      </trkpt>
      <trkpt lat="43.61135" lon="3.86789">
        <ele>43.784361</ele>
        <time>2021-01-03T13:46:20.967Z</time>
      </trkpt>
      <trkpt lat="43.61141" lon="3.86696">
        <ele>43.140265</ele>
        <time>2021-01-03T13:46:33.662Z</time>
      </trkpt>
      <trkpt lat="43.61143" lon="3.86667">
        <ele>42.939716</ele>
        <time>2021-01-03T13:46:37.754Z</time>
        <extensions>
          <visugpx:TrkExtension xmlns:visugpx="https://www.visugpx.com/editgpx/">
            <visugpx:node>34</visugpx:node>
            </visugpx:TrkExtension>
        </extensions>
      </trkpt>
      <trkpt lat="43.61143" lon="3.86667">
        <ele>40</ele>
      </trkpt>
      <trkpt lat="43.61144" lon="3.86657">
        <ele>40.1</ele>
      </trkpt>
      <trkpt lat="43.61144" lon="3.86645">
        <ele>40.1</ele>
      </trkpt>
      <trkpt lat="43.61144" lon="3.86641">
        <ele>40.2</ele>
      </trkpt>
      <trkpt lat="43.61147" lon="3.86593">
        <ele>40.4</ele>
      </trkpt>
      <trkpt lat="43.61147" lon="3.86591">
        <ele>40.4</ele>
      </trkpt>
      <trkpt lat="43.61148" lon="3.86577">
        <ele>40.5</ele>
      </trkpt>
      <trkpt lat="43.61148" lon="3.8657">
        <ele>40.6</ele>
      </trkpt>
      <trkpt lat="43.61148" lon="3.86566">
        <ele>40.7</ele>
      </trkpt>
      <trkpt lat="43.61152" lon="3.86516">
        <ele>41.2</ele>
      </trkpt>
      <trkpt lat="43.61153" lon="3.86507">
        <ele>41.2</ele>
      </trkpt>
      <trkpt lat="43.61157" lon="3.86459">
        <ele>41.7</ele>
      </trkpt>
      <trkpt lat="43.61159" lon="3.86424">
        <ele>42.1</ele>
      </trkpt>
      <trkpt lat="43.61164" lon="3.86364">
        <ele>42</ele>
      </trkpt>
      <trkpt lat="43.61166" lon="3.86333">
        <ele>42</ele>
      </trkpt>
      <trkpt lat="43.61171" lon="3.86273">
        <ele>43.3</ele>
      </trkpt>
      <trkpt lat="43.61173" lon="3.86242">
        <ele>43.9</ele>
      </trkpt>
      <trkpt lat="43.61175" lon="3.86213">
        <ele>44.2</ele>
      </trkpt>
      <trkpt lat="43.61175" lon="3.86212">
        <ele>44.2</ele>
        <extensions>
          <visugpx:TrkExtension xmlns:visugpx="https://www.visugpx.com/editgpx/">
            <visugpx:node>35</visugpx:node>
            </visugpx:TrkExtension>
        </extensions>
      </trkpt>
      <trkpt lat="43.61175" lon="3.86205">
        <ele>44.2</ele>
      </trkpt>
      <trkpt lat="43.61175" lon="3.86206">
        <ele>44.2</ele>
        <extensions>
          <visugpx:TrkExtension xmlns:visugpx="https://www.visugpx.com/editgpx/">
            <visugpx:node>36</visugpx:node>
            </visugpx:TrkExtension>
        </extensions>
      </trkpt>
      <trkpt lat="43.61173" lon="3.86196">
        <ele>47.189518</ele>
        <time>2021-01-03T13:48:40.861Z</time>
      </trkpt>
      <trkpt lat="43.61168" lon="3.86181">
        <ele>47.567853</ele>
        <time>2021-01-03T13:48:45.142Z</time>
      </trkpt>
      <trkpt lat="43.61163" lon="3.86164">
        <ele>47.992058</ele>
        <time>2021-01-03T13:48:50.689Z</time>
      </trkpt>
      <trkpt lat="43.61156" lon="3.86137">
        <ele>48.669142</ele>
        <time>2021-01-03T13:48:59.133Z</time>
      </trkpt>
      <trkpt lat="43.6115" lon="3.86116">
        <ele>49.189087</ele>
        <time>2021-01-03T13:49:06.663Z</time>
      </trkpt>
      <trkpt lat="43.61156" lon="3.8612">
        <ele>49.394871</ele>
        <time>2021-01-03T13:49:09.386Z</time>
      </trkpt>
      <trkpt lat="43.61162" lon="3.86117">
        <ele>49.602208</ele>
        <time>2021-01-03T13:49:12.481Z</time>
      </trkpt>
      <trkpt lat="43.61163" lon="3.86116">
        <ele>49.652906</ele>
        <time>2021-01-03T13:49:12.963Z</time>
      </trkpt>
      <trkpt lat="43.61167" lon="3.86114">
        <ele>49.770248</ele>
        <time>2021-01-03T13:49:14.635Z</time>
      </trkpt>
      <trkpt lat="43.61169" lon="3.86113">
        <ele>49.843866</ele>
        <time>2021-01-03T13:49:15.674Z</time>
      </trkpt>
      <trkpt lat="43.61172" lon="3.86112">
        <ele>49.996975</ele>
        <time>2021-01-03T13:49:17.240Z</time>
      </trkpt>
      <trkpt lat="43.61176" lon="3.86111">
        <ele>50.193302</ele>
        <time>2021-01-03T13:49:19.304Z</time>
      </trkpt>
      <trkpt lat="43.61173" lon="3.86097">
        <ele>50.69224</ele>
        <time>2021-01-03T13:49:24.797Z</time>
      </trkpt>
      <trkpt lat="43.61169" lon="3.86074">
        <ele>51.487111</ele>
        <time>2021-01-03T13:49:33.098Z</time>
      </trkpt>
      <trkpt lat="43.61156" lon="3.85987">
        <ele>54.490654</ele>
        <time>2021-01-03T13:50:03.925Z</time>
      </trkpt>
      <trkpt lat="43.61149" lon="3.85941">
        <ele>56.077526</ele>
        <time>2021-01-03T13:50:18.836Z</time>
      </trkpt>
      <trkpt lat="43.61142" lon="3.85896">
        <ele>57.621499</ele>
        <time>2021-01-03T13:50:32.998Z</time>
      </trkpt>
      <trkpt lat="43.61138" lon="3.85873">
        <ele>58.362669</ele>
        <time>2021-01-03T13:50:41.225Z</time>
      </trkpt>
      <trkpt lat="43.61129" lon="3.85815">
        <ele>59.639444</ele>
        <time>2021-01-03T13:50:59.730Z</time>
      </trkpt>
      <trkpt lat="43.61127" lon="3.85807">
        <ele>59.819121</ele>
        <time>2021-01-03T13:51:02.078Z</time>
      </trkpt>
      <trkpt lat="43.61122" lon="3.85773">
        <ele>60.568362</ele>
        <time>2021-01-03T13:51:12.549Z</time>
      </trkpt>
      <trkpt lat="43.61118" lon="3.85754">
        <ele>60.998039</ele>
        <time>2021-01-03T13:51:17.931Z</time>
      </trkpt>
      <trkpt lat="43.61112" lon="3.85739">
        <ele>61.3782</ele>
        <time>2021-01-03T13:51:23.099Z</time>
      </trkpt>
      <trkpt lat="43.61082" lon="3.85693">
        <ele>62.70775</ele>
        <time>2021-01-03T13:51:38.344Z</time>
      </trkpt>
      <trkpt lat="43.61058" lon="3.85656">
        <ele>63.663868</ele>
        <time>2021-01-03T13:51:48.207Z</time>
      </trkpt>
      <trkpt lat="43.61055" lon="3.85652">
        <ele>63.707409</ele>
        <time>2021-01-03T13:51:49.385Z</time>
      </trkpt>
      <trkpt lat="43.61053" lon="3.85648">
        <ele>63.739757</ele>
        <time>2021-01-03T13:51:50.173Z</time>
      </trkpt>
      <trkpt lat="43.6105" lon="3.85643">
        <ele>63.785365</ele>
        <time>2021-01-03T13:51:51.435Z</time>
      </trkpt>
      <trkpt lat="43.61049" lon="3.85641">
        <ele>63.798201</ele>
        <time>2021-01-03T13:51:51.796Z</time>
      </trkpt>
      <trkpt lat="43.61052" lon="3.85638">
        <ele>63.830331</ele>
        <time>2021-01-03T13:51:52.957Z</time>
      </trkpt>
      <trkpt lat="43.61045" lon="3.85618">
        <ele>63.983759</ele>
        <time>2021-01-03T13:51:57.748Z</time>
      </trkpt>
      <trkpt lat="43.61044" lon="3.85609">
        <ele>64.045923</ele>
        <time>2021-01-03T13:51:59.548Z</time>
      </trkpt>
      <trkpt lat="43.61041" lon="3.85548">
        <ele>64.466503</ele>
        <time>2021-01-03T13:52:12.814Z</time>
      </trkpt>
      <trkpt lat="43.6104" lon="3.85532">
        <ele>64.571306</ele>
        <time>2021-01-03T13:52:16.044Z</time>
      </trkpt>
      <trkpt lat="43.61039" lon="3.85528">
        <ele>64.602568</ele>
        <time>2021-01-03T13:52:17.238Z</time>
      </trkpt>
      <trkpt lat="43.61031" lon="3.85455">
        <ele>65.10794</ele>
        <time>2021-01-03T13:52:31.813Z</time>
      </trkpt>
      <trkpt lat="43.61029" lon="3.85445">
        <ele>65.180031</ele>
        <time>2021-01-03T13:52:33.962Z</time>
      </trkpt>
      <trkpt lat="43.61031" lon="3.85444">
        <ele>65.20014</ele>
        <time>2021-01-03T13:52:34.488Z</time>
      </trkpt>
      <trkpt lat="43.61031" lon="3.85438">
        <ele>65.236047</ele>
        <time>2021-01-03T13:52:35.652Z</time>
      </trkpt>
      <trkpt lat="43.6103" lon="3.85431">
        <ele>65.290017</ele>
        <time>2021-01-03T13:52:37.666Z</time>
      </trkpt>
      <trkpt lat="43.61033" lon="3.85409">
        <ele>65.230853</ele>
        <time>2021-01-03T13:52:42.299Z</time>
      </trkpt>
      <trkpt lat="43.61039" lon="3.85378">
        <ele>65.08305</ele>
        <time>2021-01-03T13:52:48.805Z</time>
      </trkpt>
      <trkpt lat="43.61041" lon="3.85367">
        <ele>65.03012</ele>
        <time>2021-01-03T13:52:51.041Z</time>
      </trkpt>
      <trkpt lat="43.6108" lon="3.85276">
        <ele>64.543459</ele>
        <time>2021-01-03T13:53:11.338Z</time>
      </trkpt>
      <trkpt lat="43.6108" lon="3.85276">
        <ele>64.540824</ele>
        <time>2021-01-03T13:53:11.446Z</time>
      </trkpt>
      <trkpt lat="43.61104" lon="3.85236">
        <ele>64.306916</ele>
        <time>2021-01-03T13:53:21.627Z</time>
      </trkpt>
      <trkpt lat="43.61113" lon="3.85239">
        <ele>64.244417</ele>
        <time>2021-01-03T13:53:24.238Z</time>
      </trkpt>
      <trkpt lat="43.61123" lon="3.85243">
        <ele>64.181402</ele>
        <time>2021-01-03T13:53:36.440Z</time>
      </trkpt>
      <trkpt lat="43.61133" lon="3.85246">
        <ele>64.10909</ele>
        <time>2021-01-03T13:53:39.423Z</time>
      </trkpt>
      <trkpt lat="43.61144" lon="3.85246">
        <ele>64.02975</ele>
        <time>2021-01-03T13:53:41.889Z</time>
      </trkpt>
      <trkpt lat="43.61151" lon="3.85247">
        <ele>63.984821</ele>
        <time>2021-01-03T13:53:43.171Z</time>
      </trkpt>
      <trkpt lat="43.61172" lon="3.85247">
        <ele>63.837461</ele>
        <time>2021-01-03T13:53:47.584Z</time>
      </trkpt>
      <trkpt lat="43.612" lon="3.85248">
        <ele>63.636076</ele>
        <time>2021-01-03T13:53:53.594Z</time>
      </trkpt>
      <trkpt lat="43.61223" lon="3.85257">
        <ele>63.469951</ele>
        <time>2021-01-03T13:53:58.455Z</time>
      </trkpt>
      <trkpt lat="43.61244" lon="3.85258">
        <ele>63.322466</ele>
        <time>2021-01-03T13:54:03.046Z</time>
      </trkpt>
      <trkpt lat="43.61268" lon="3.85273">
        <ele>63.137989</ele>
        <time>2021-01-03T13:54:08.590Z</time>
      </trkpt>
      <trkpt lat="43.61281" lon="3.85283">
        <ele>63.035077</ele>
        <time>2021-01-03T13:54:11.729Z</time>
      </trkpt>
      <trkpt lat="43.61291" lon="3.85296">
        <ele>62.937867</ele>
        <time>2021-01-03T13:54:14.791Z</time>
      </trkpt>
      <trkpt lat="43.61295" lon="3.85299">
        <ele>62.907312</ele>
        <time>2021-01-03T13:54:15.889Z</time>
      </trkpt>
      <trkpt lat="43.613" lon="3.85301">
        <ele>62.901572</ele>
        <time>2021-01-03T13:54:17.134Z</time>
      </trkpt>
      <trkpt lat="43.613" lon="3.85311">
        <ele>62.893986</ele>
        <time>2021-01-03T13:54:18.733Z</time>
      </trkpt>
      <trkpt lat="43.61303" lon="3.85325">
        <ele>62.882983</ele>
        <time>2021-01-03T13:54:21.058Z</time>
      </trkpt>
      <trkpt lat="43.61306" lon="3.85313">
        <ele>62.872719</ele>
        <time>2021-01-03T13:54:24.147Z</time>
      </trkpt>
      <trkpt lat="43.61308" lon="3.85304">
        <ele>62.865485</ele>
        <time>2021-01-03T13:54:26.190Z</time>
      </trkpt>
      <trkpt lat="43.61312" lon="3.85287">
        <ele>62.852072</ele>
        <time>2021-01-03T13:54:29.837Z</time>
      </trkpt>
      <trkpt lat="43.61333" lon="3.85243">
        <ele>62.81238</ele>
        <time>2021-01-03T13:54:40.850Z</time>
      </trkpt>
      <trkpt lat="43.61345" lon="3.8525">
        <ele>62.79862</ele>
        <time>2021-01-03T13:54:44.866Z</time>
      </trkpt>
      <trkpt lat="43.61384" lon="3.85263">
        <ele>62.756583</ele>
        <time>2021-01-03T13:54:56.510Z</time>
      </trkpt>
      <trkpt lat="43.61412" lon="3.85272">
        <ele>62.726996</ele>
        <time>2021-01-03T13:55:04.561Z</time>
      </trkpt>
      <trkpt lat="43.61452" lon="3.85231">
        <ele>62.967689</ele>
        <time>2021-01-03T13:55:19.526Z</time>
      </trkpt>
      <trkpt lat="43.61456" lon="3.85224">
        <ele>63.008421</ele>
        <time>2021-01-03T13:55:21.540Z</time>
      </trkpt>
      <trkpt lat="43.61463" lon="3.85218">
        <ele>63.056631</ele>
        <time>2021-01-03T13:55:24.488Z</time>
      </trkpt>
      <trkpt lat="43.61502" lon="3.85194">
        <ele>63.303047</ele>
        <time>2021-01-03T13:55:38.180Z</time>
      </trkpt>
      <trkpt lat="43.61492" lon="3.85109">
        <ele>63.667953</ele>
        <time>2021-01-03T13:55:59.337Z</time>
      </trkpt>
      <trkpt lat="43.61502" lon="3.85084">
        <ele>63.778797</ele>
        <time>2021-01-03T13:56:06.307Z</time>
      </trkpt>
      <trkpt lat="43.61517" lon="3.85032">
        <ele>63.871449</ele>
        <time>2021-01-03T13:56:20.131Z</time>
      </trkpt>
      <trkpt lat="43.61531" lon="3.84983">
        <ele>63.957446</ele>
        <time>2021-01-03T13:56:32.301Z</time>
      </trkpt>
      <trkpt lat="43.61532" lon="3.84978">
        <ele>63.966328</ele>
        <time>2021-01-03T13:56:33.400Z</time>
      </trkpt>
      <trkpt lat="43.61561" lon="3.84919">
        <ele>64.082887</ele>
        <time>2021-01-03T13:56:48.452Z</time>
      </trkpt>
      <trkpt lat="43.61579" lon="3.84898">
        <ele>64.136707</ele>
        <time>2021-01-03T13:56:55.118Z</time>
      </trkpt>
      <trkpt lat="43.61604" lon="3.84869">
        <ele>64.148727</ele>
        <time>2021-01-03T13:57:04.297Z</time>
      </trkpt>
      <trkpt lat="43.61632" lon="3.84847">
        <ele>64.068052</ele>
        <time>2021-01-03T13:57:13.172Z</time>
      </trkpt>
      <trkpt lat="43.61712" lon="3.84793">
        <ele>63.843395</ele>
        <time>2021-01-03T13:57:37.930Z</time>
      </trkpt>
      <trkpt lat="43.61718" lon="3.84789">
        <ele>63.827764</ele>
        <time>2021-01-03T13:57:39.707Z</time>
      </trkpt>
      <trkpt lat="43.6174" lon="3.84773">
        <ele>63.763735</ele>
        <time>2021-01-03T13:57:47.750Z</time>
      </trkpt>
      <trkpt lat="43.61745" lon="3.84767">
        <ele>63.747341</ele>
        <time>2021-01-03T13:57:49.778Z</time>
      </trkpt>
      <trkpt lat="43.61751" lon="3.84691">
        <ele>63.906376</ele>
        <time>2021-01-03T13:58:07.245Z</time>
      </trkpt>
      <trkpt lat="43.61754" lon="3.84655">
        <ele>64.005075</ele>
        <time>2021-01-03T13:58:15.526Z</time>
      </trkpt>
      <trkpt lat="43.6175" lon="3.84642">
        <ele>64.041451</ele>
        <time>2021-01-03T13:58:18.756Z</time>
      </trkpt>
      <trkpt lat="43.61731" lon="3.84625">
        <ele>64.125579</ele>
        <time>2021-01-03T13:58:25.564Z</time>
      </trkpt>
      <trkpt lat="43.61707" lon="3.84598">
        <ele>64.242028</ele>
        <time>2021-01-03T13:58:35.939Z</time>
      </trkpt>
      <trkpt lat="43.61711" lon="3.84591">
        <ele>64.265698</ele>
        <time>2021-01-03T13:58:37.282Z</time>
      </trkpt>
      <trkpt lat="43.61714" lon="3.84573">
        <ele>64.316305</ele>
        <time>2021-01-03T13:58:41.085Z</time>
      </trkpt>
      <trkpt lat="43.61715" lon="3.8456">
        <ele>64.350637</ele>
        <time>2021-01-03T13:58:43.354Z</time>
      </trkpt>
      <trkpt lat="43.61716" lon="3.84548">
        <ele>64.385504</ele>
        <time>2021-01-03T13:58:45.773Z</time>
      </trkpt>
      <trkpt lat="43.61718" lon="3.84527">
        <ele>64.394683</ele>
        <time>2021-01-03T13:58:49.414Z</time>
      </trkpt>
      <trkpt lat="43.61719" lon="3.84519">
        <ele>64.392365</ele>
        <time>2021-01-03T13:58:50.621Z</time>
      </trkpt>
      <trkpt lat="43.61722" lon="3.84511">
        <ele>64.38935</ele>
        <time>2021-01-03T13:58:52.291Z</time>
      </trkpt>
      <trkpt lat="43.61727" lon="3.84505">
        <ele>64.38648</ele>
        <time>2021-01-03T13:58:54.132Z</time>
      </trkpt>
      <trkpt lat="43.61735" lon="3.84495">
        <ele>64.381984</ele>
        <time>2021-01-03T13:58:56.464Z</time>
      </trkpt>
      <trkpt lat="43.61753" lon="3.8447">
        <ele>64.370873</ele>
        <time>2021-01-03T13:59:02.699Z</time>
      </trkpt>
      <trkpt lat="43.61756" lon="3.84466">
        <ele>64.368981</ele>
        <time>2021-01-03T13:59:03.581Z</time>
      </trkpt>
      <trkpt lat="43.61772" lon="3.84445">
        <ele>64.359669</ele>
        <time>2021-01-03T13:59:08.610Z</time>
      </trkpt>
      <trkpt lat="43.61775" lon="3.84441">
        <ele>64.357765</ele>
        <time>2021-01-03T13:59:09.689Z</time>
      </trkpt>
      <trkpt lat="43.61785" lon="3.84427">
        <ele>64.351652</ele>
        <time>2021-01-03T13:59:12.866Z</time>
      </trkpt>
      <trkpt lat="43.6179" lon="3.84421">
        <ele>64.34876</ele>
        <time>2021-01-03T13:59:14.390Z</time>
      </trkpt>
      <trkpt lat="43.61799" lon="3.84409">
        <ele>64.343127</ele>
        <time>2021-01-03T13:59:17.176Z</time>
      </trkpt>
      <trkpt lat="43.6181" lon="3.84395">
        <ele>64.336779</ele>
        <time>2021-01-03T13:59:20.536Z</time>
      </trkpt>
      <trkpt lat="43.61814" lon="3.84404">
        <ele>64.333559</ele>
        <time>2021-01-03T13:59:22.175Z</time>
      </trkpt>
      <trkpt lat="43.61819" lon="3.84414">
        <ele>64.329923</ele>
        <time>2021-01-03T13:59:23.918Z</time>
      </trkpt>
      <trkpt lat="43.619" lon="3.84349">
        <ele>63.989918</ele>
        <time>2021-01-03T13:59:50.621Z</time>
      </trkpt>
      <trkpt lat="43.61924" lon="3.84307">
        <ele>63.817218</ele>
        <time>2021-01-03T14:00:01.895Z</time>
      </trkpt>
      <trkpt lat="43.61936" lon="3.84285">
        <ele>63.729543</ele>
        <time>2021-01-03T14:00:07.562Z</time>
      </trkpt>
      <trkpt lat="43.61942" lon="3.84282">
        <ele>63.703306</ele>
        <time>2021-01-03T14:00:09.082Z</time>
      </trkpt>
      <trkpt lat="43.6209" lon="3.84101">
        <ele>62.12373</ele>
        <time>2021-01-03T14:01:02.725Z</time>
      </trkpt>
      <trkpt lat="43.62112" lon="3.8408">
        <ele>61.899607</ele>
        <time>2021-01-03T14:01:09.757Z</time>
      </trkpt>
      <trkpt lat="43.62127" lon="3.84074">
        <ele>61.808789</ele>
        <time>2021-01-03T14:01:14.020Z</time>
      </trkpt>
      <trkpt lat="43.62144" lon="3.8407">
        <ele>61.713918</ele>
        <time>2021-01-03T14:01:18.521Z</time>
      </trkpt>
      <trkpt lat="43.6219" lon="3.84063">
        <ele>61.451144</ele>
        <time>2021-01-03T14:01:31.076Z</time>
      </trkpt>
      <trkpt lat="43.62204" lon="3.84059">
        <ele>61.372955</ele>
        <time>2021-01-03T14:01:34.885Z</time>
      </trkpt>
      <trkpt lat="43.62214" lon="3.84053">
        <ele>61.307066</ele>
        <time>2021-01-03T14:01:38.058Z</time>
      </trkpt>
      <trkpt lat="43.6223" lon="3.84048">
        <ele>61.217887</ele>
        <time>2021-01-03T14:01:42.474Z</time>
      </trkpt>
      <trkpt lat="43.62279" lon="3.84027">
        <ele>60.924716</ele>
        <time>2021-01-03T14:01:57.205Z</time>
      </trkpt>
      <trkpt lat="43.62282" lon="3.84025">
        <ele>60.91055</ele>
        <time>2021-01-03T14:01:58.136Z</time>
      </trkpt>
      <trkpt lat="43.62312" lon="3.84015">
        <ele>61.338214</ele>
        <time>2021-01-03T14:02:07.645Z</time>
      </trkpt>
      <trkpt lat="43.62355" lon="3.84058">
        <ele>62.059994</ele>
        <time>2021-01-03T14:02:25.696Z</time>
      </trkpt>
      <trkpt lat="43.62363" lon="3.84065">
        <ele>62.190611</ele>
        <time>2021-01-03T14:02:29.316Z</time>
      </trkpt>
      <trkpt lat="43.62435" lon="3.8412">
        <ele>63.324155</ele>
        <time>2021-01-03T14:03:01.345Z</time>
      </trkpt>
      <trkpt lat="43.62445" lon="3.84121">
        <ele>63.578366</ele>
        <time>2021-01-03T14:03:05.003Z</time>
      </trkpt>
      <trkpt lat="43.62448" lon="3.84129">
        <ele>63.808741</ele>
        <time>2021-01-03T14:03:08.275Z</time>
      </trkpt>
      <trkpt lat="43.62455" lon="3.84129">
        <ele>64.067547</ele>
        <time>2021-01-03T14:03:11.346Z</time>
      </trkpt>
      <trkpt lat="43.62456" lon="3.84132">
        <ele>64.143641</ele>
        <time>2021-01-03T14:03:12.084Z</time>
      </trkpt>
      <trkpt lat="43.62464" lon="3.84138">
        <ele>64.485107</ele>
        <time>2021-01-03T14:03:15.556Z</time>
      </trkpt>
      <trkpt lat="43.62466" lon="3.84137">
        <ele>64.559088</ele>
        <time>2021-01-03T14:03:16.178Z</time>
      </trkpt>
      <trkpt lat="43.62468" lon="3.84135">
        <ele>64.632706</ele>
        <time>2021-01-03T14:03:16.884Z</time>
      </trkpt>
      <trkpt lat="43.62469" lon="3.84133">
        <ele>64.704849</ele>
        <time>2021-01-03T14:03:17.585Z</time>
      </trkpt>
      <trkpt lat="43.62469" lon="3.8413">
        <ele>64.780145</ele>
        <time>2021-01-03T14:03:18.301Z</time>
      </trkpt>
      <trkpt lat="43.62469" lon="3.84127">
        <ele>64.843674</ele>
        <time>2021-01-03T14:03:18.973Z</time>
      </trkpt>
      <trkpt lat="43.62468" lon="3.84125">
        <ele>64.907805</ele>
        <time>2021-01-03T14:03:19.800Z</time>
      </trkpt>
      <trkpt lat="43.62467" lon="3.84123">
        <ele>64.973276</ele>
        <time>2021-01-03T14:03:20.572Z</time>
      </trkpt>
      <trkpt lat="43.62466" lon="3.84121">
        <ele>65.036675</ele>
        <time>2021-01-03T14:03:21.402Z</time>
      </trkpt>
      <trkpt lat="43.6247" lon="3.84112">
        <ele>65.30814</ele>
        <time>2021-01-03T14:03:24.807Z</time>
      </trkpt>
      <trkpt lat="43.62481" lon="3.84085">
        <ele>66.09587</ele>
        <time>2021-01-03T14:03:33.787Z</time>
      </trkpt>
      <trkpt lat="43.62504" lon="3.84031">
        <ele>67.66914</ele>
        <time>2021-01-03T14:03:52.836Z</time>
      </trkpt>
      <trkpt lat="43.62527" lon="3.83975">
        <ele>69.28787</ele>
        <time>2021-01-03T14:04:12.938Z</time>
      </trkpt>
      <trkpt lat="43.62527" lon="3.83975">
        <ele>69.298558</ele>
        <time>2021-01-03T14:04:13.148Z</time>
      </trkpt>
      <trkpt lat="43.62537" lon="3.83957">
        <ele>69.863625</ele>
        <time>2021-01-03T14:04:20.574Z</time>
      </trkpt>
      <trkpt lat="43.62537" lon="3.83941">
        <ele>70.254448</ele>
        <time>2021-01-03T14:04:24.959Z</time>
      </trkpt>
      <trkpt lat="43.6253" lon="3.83909">
        <ele>71.116401</ele>
        <time>2021-01-03T14:04:36.925Z</time>
      </trkpt>
      <trkpt lat="43.62532" lon="3.83908">
        <ele>71.187796</ele>
        <time>2021-01-03T14:04:37.653Z</time>
      </trkpt>
      <trkpt lat="43.62533" lon="3.83906">
        <ele>71.257599</ele>
        <time>2021-01-03T14:04:38.374Z</time>
      </trkpt>
      <trkpt lat="43.62535" lon="3.83904">
        <ele>71.326814</ele>
        <time>2021-01-03T14:04:39.169Z</time>
      </trkpt>
      <trkpt lat="43.62536" lon="3.83899">
        <ele>71.464922</ele>
        <time>2021-01-03T14:04:40.643Z</time>
      </trkpt>
      <trkpt lat="43.62535" lon="3.83896">
        <ele>71.533346</ele>
        <time>2021-01-03T14:04:41.569Z</time>
      </trkpt>
      <trkpt lat="43.62534" lon="3.83893">
        <ele>71.617019</ele>
        <time>2021-01-03T14:04:42.735Z</time>
      </trkpt>
      <trkpt lat="43.6253" lon="3.8389">
        <ele>71.776601</ele>
        <time>2021-01-03T14:04:44.750Z</time>
      </trkpt>
      <trkpt lat="43.62527" lon="3.8389">
        <ele>71.887589</ele>
        <time>2021-01-03T14:04:46.368Z</time>
      </trkpt>
      <trkpt lat="43.62525" lon="3.83877">
        <ele>72.210017</ele>
        <time>2021-01-03T14:04:51.355Z</time>
      </trkpt>
      <trkpt lat="43.62517" lon="3.83843">
        <ele>73.104779</ele>
        <time>2021-01-03T14:05:01.944Z</time>
      </trkpt>
      <trkpt lat="43.62513" lon="3.83838">
        <ele>73.297635</ele>
        <time>2021-01-03T14:05:04.813Z</time>
      </trkpt>
      <trkpt lat="43.62474" lon="3.83807">
        <ele>74.853926</ele>
        <time>2021-01-03T14:05:22.795Z</time>
      </trkpt>
      <trkpt lat="43.62457" lon="3.83793">
        <ele>75.523487</ele>
        <time>2021-01-03T14:05:28.737Z</time>
      </trkpt>
      <trkpt lat="43.62446" lon="3.83782">
        <ele>75.847717</ele>
        <time>2021-01-03T14:05:34.841Z</time>
      </trkpt>
      <trkpt lat="43.62442" lon="3.83775">
        <ele>75.812332</ele>
        <time>2021-01-03T14:05:36.354Z</time>
      </trkpt>
      <trkpt lat="43.6244" lon="3.83767">
        <ele>75.777008</ele>
        <time>2021-01-03T14:05:37.780Z</time>
      </trkpt>
      <trkpt lat="43.62438" lon="3.83759">
        <ele>75.73755</ele>
        <time>2021-01-03T14:05:39.651Z</time>
      </trkpt>
      <trkpt lat="43.62431" lon="3.83721">
        <ele>75.565598</ele>
        <time>2021-01-03T14:05:47.615Z</time>
      </trkpt>
      <trkpt lat="43.62428" lon="3.83708">
        <ele>75.508412</ele>
        <time>2021-01-03T14:05:49.695Z</time>
      </trkpt>
      <trkpt lat="43.62427" lon="3.83699">
        <ele>75.465635</ele>
        <time>2021-01-03T14:05:51.768Z</time>
      </trkpt>
      <trkpt lat="43.62427" lon="3.83695">
        <ele>75.448992</ele>
        <time>2021-01-03T14:05:52.340Z</time>
      </trkpt>
      <trkpt lat="43.62432" lon="3.83694">
        <ele>75.419866</ele>
        <time>2021-01-03T14:05:53.296Z</time>
      </trkpt>
      <trkpt lat="43.62436" lon="3.83692">
        <ele>75.391156</ele>
        <time>2021-01-03T14:05:54.329Z</time>
      </trkpt>
      <trkpt lat="43.6244" lon="3.83688">
        <ele>75.361845</ele>
        <time>2021-01-03T14:05:55.315Z</time>
      </trkpt>
      <trkpt lat="43.62443" lon="3.83682">
        <ele>75.332455</ele>
        <time>2021-01-03T14:05:56.366Z</time>
      </trkpt>
      <trkpt lat="43.62439" lon="3.83683">
        <ele>75.306927</ele>
        <time>2021-01-03T14:05:57.260Z</time>
      </trkpt>
      <trkpt lat="43.62438" lon="3.83684">
        <ele>75.301971</ele>
        <time>2021-01-03T14:05:57.414Z</time>
      </trkpt>
      <trkpt lat="43.62421" lon="3.83689">
        <ele>75.198079</ele>
        <time>2021-01-03T14:06:00.994Z</time>
      </trkpt>
      <trkpt lat="43.6242" lon="3.83687">
        <ele>75.182245</ele>
        <time>2021-01-03T14:06:01.543Z</time>
      </trkpt>
      <trkpt lat="43.62419" lon="3.83685">
        <ele>75.175815</ele>
        <time>2021-01-03T14:06:01.761Z</time>
      </trkpt>
      <trkpt lat="43.62419" lon="3.83683">
        <ele>75.166158</ele>
        <time>2021-01-03T14:06:02.062Z</time>
      </trkpt>
      <trkpt lat="43.62415" lon="3.83673">
        <ele>75.117897</ele>
        <time>2021-01-03T14:06:03.530Z</time>
      </trkpt>
      <trkpt lat="43.62418" lon="3.83666">
        <ele>75.081308</ele>
        <time>2021-01-03T14:06:04.655Z</time>
      </trkpt>
      <trkpt lat="43.62422" lon="3.83669">
        <ele>75.049928</ele>
        <time>2021-01-03T14:06:06.128Z</time>
      </trkpt>
      <trkpt lat="43.62438" lon="3.83663">
        <ele>74.953587</ele>
        <time>2021-01-03T14:06:10.176Z</time>
      </trkpt>
      <trkpt lat="43.62465" lon="3.83652">
        <ele>74.75357</ele>
        <time>2021-01-03T14:06:17.018Z</time>
      </trkpt>
      <trkpt lat="43.62484" lon="3.83645">
        <ele>74.117119</ele>
        <time>2021-01-03T14:06:21.707Z</time>
      </trkpt>
      <trkpt lat="43.62486" lon="3.83644">
        <ele>74.044638</ele>
        <time>2021-01-03T14:06:22.227Z</time>
      </trkpt>
      <trkpt lat="43.6249" lon="3.83634">
        <ele>73.778723</ele>
        <time>2021-01-03T14:06:24.204Z</time>
      </trkpt>
      <trkpt lat="43.62492" lon="3.83632">
        <ele>73.706661</ele>
        <time>2021-01-03T14:06:24.715Z</time>
      </trkpt>
      <trkpt lat="43.62494" lon="3.83623">
        <ele>73.480405</ele>
        <time>2021-01-03T14:06:26.323Z</time>
      </trkpt>
      <trkpt lat="43.62501" lon="3.83609">
        <ele>73.092342</ele>
        <time>2021-01-03T14:06:29.203Z</time>
      </trkpt>
      <trkpt lat="43.62512" lon="3.83603">
        <ele>72.727859</ele>
        <time>2021-01-03T14:06:31.824Z</time>
      </trkpt>
      <trkpt lat="43.62533" lon="3.8361">
        <ele>72.01185</ele>
        <time>2021-01-03T14:06:37.091Z</time>
      </trkpt>
      <trkpt lat="43.62537" lon="3.83614">
        <ele>71.859128</ele>
        <time>2021-01-03T14:06:38.106Z</time>
      </trkpt>
      <trkpt lat="43.62539" lon="3.83615">
        <ele>71.787174</ele>
        <time>2021-01-03T14:06:38.631Z</time>
      </trkpt>
      <trkpt lat="43.62545" lon="3.83619">
        <ele>71.564002</ele>
        <time>2021-01-03T14:06:40.282Z</time>
      </trkpt>
      <trkpt lat="43.62548" lon="3.8362">
        <ele>71.470382</ele>
        <time>2021-01-03T14:06:40.932Z</time>
      </trkpt>
      <trkpt lat="43.62569" lon="3.83612">
        <ele>70.783538</ele>
        <time>2021-01-03T14:06:44.765Z</time>
      </trkpt>
      <trkpt lat="43.62573" lon="3.8361">
        <ele>70.626744</ele>
        <time>2021-01-03T14:06:45.592Z</time>
      </trkpt>
      <trkpt lat="43.62575" lon="3.8361">
        <ele>70.558331</ele>
        <time>2021-01-03T14:06:45.966Z</time>
      </trkpt>
      <trkpt lat="43.62577" lon="3.83611">
        <ele>70.49049</ele>
        <time>2021-01-03T14:06:46.396Z</time>
      </trkpt>
      <trkpt lat="43.62578" lon="3.83618">
        <ele>70.315614</ele>
        <time>2021-01-03T14:06:47.326Z</time>
      </trkpt>
      <trkpt lat="43.62578" lon="3.83673">
        <ele>69.035181</ele>
        <time>2021-01-03T14:06:54.253Z</time>
      </trkpt>
      <trkpt lat="43.62581" lon="3.83682">
        <ele>68.817891</ele>
        <time>2021-01-03T14:06:55.405Z</time>
      </trkpt>
      <trkpt lat="43.6265" lon="3.83776">
        <ele>65.761282</ele>
        <time>2021-01-03T14:07:13.053Z</time>
      </trkpt>
      <trkpt lat="43.62661" lon="3.83791">
        <ele>65.297374</ele>
        <time>2021-01-03T14:07:15.695Z</time>
      </trkpt>
      <trkpt lat="43.62663" lon="3.83794">
        <ele>65.182111</ele>
        <time>2021-01-03T14:07:16.370Z</time>
      </trkpt>
      <trkpt lat="43.62666" lon="3.83794">
        <ele>65.103015</ele>
        <time>2021-01-03T14:07:17.182Z</time>
      </trkpt>
      <trkpt lat="43.62667" lon="3.83794">
        <ele>65.074743</ele>
        <time>2021-01-03T14:07:17.457Z</time>
      </trkpt>
      <trkpt lat="43.6267" lon="3.83799">
        <ele>64.926839</ele>
        <time>2021-01-03T14:07:18.983Z</time>
      </trkpt>
      <trkpt lat="43.62673" lon="3.83807">
        <ele>64.706224</ele>
        <time>2021-01-03T14:07:21.214Z</time>
      </trkpt>
      <trkpt lat="43.62687" lon="3.8384">
        <ele>63.836095</ele>
        <time>2021-01-03T14:07:29.778Z</time>
      </trkpt>
      <trkpt lat="43.62707" lon="3.83888">
        <ele>62.890014</ele>
        <time>2021-01-03T14:07:42.190Z</time>
      </trkpt>
      <trkpt lat="43.62707" lon="3.83888">
        <ele>62.887654</ele>
        <time>2021-01-03T14:07:42.216Z</time>
      </trkpt>
      <trkpt lat="43.6274" lon="3.83943">
        <ele>61.900567</ele>
        <time>2021-01-03T14:07:58.507Z</time>
      </trkpt>
      <trkpt lat="43.62767" lon="3.83978">
        <ele>61.188991</ele>
        <time>2021-01-03T14:08:10.574Z</time>
      </trkpt>
      <trkpt lat="43.6277" lon="3.83983">
        <ele>61.09815</ele>
        <time>2021-01-03T14:08:12.136Z</time>
      </trkpt>
      <trkpt lat="43.62778" lon="3.8399">
        <ele>60.921187</ele>
        <time>2021-01-03T14:08:15.168Z</time>
      </trkpt>
      <trkpt lat="43.62789" lon="3.84005">
        <ele>60.631969</ele>
        <time>2021-01-03T14:08:20.230Z</time>
      </trkpt>
      <trkpt lat="43.62851" lon="3.84016">
        <ele>59.99384</ele>
        <time>2021-01-03T14:08:37.529Z</time>
      </trkpt>
      <trkpt lat="43.6286" lon="3.84014">
        <ele>60.022887</ele>
        <time>2021-01-03T14:08:39.973Z</time>
      </trkpt>
      <trkpt lat="43.62862" lon="3.84014">
        <ele>60.029739</ele>
        <time>2021-01-03T14:08:40.706Z</time>
      </trkpt>
      <trkpt lat="43.62974" lon="3.83972">
        <ele>60.404455</ele>
        <time>2021-01-03T14:09:17.449Z</time>
      </trkpt>
      <trkpt lat="43.62977" lon="3.8397">
        <ele>60.41792</ele>
        <time>2021-01-03T14:09:18.962Z</time>
      </trkpt>
      <trkpt lat="43.62981" lon="3.83968">
        <ele>60.431682</ele>
        <time>2021-01-03T14:09:20.801Z</time>
      </trkpt>
      <trkpt lat="43.63048" lon="3.83932">
        <ele>60.884297</ele>
        <time>2021-01-03T14:09:45.484Z</time>
      </trkpt>
      <trkpt lat="43.63077" lon="3.83885">
        <ele>61.221548</ele>
        <time>2021-01-03T14:10:00.423Z</time>
      </trkpt>
      <trkpt lat="43.6311" lon="3.83826">
        <ele>61.626574</ele>
        <time>2021-01-03T14:10:17.736Z</time>
      </trkpt>
      <trkpt lat="43.63127" lon="3.83803">
        <ele>61.805925</ele>
        <time>2021-01-03T14:10:25.637Z</time>
      </trkpt>
      <trkpt lat="43.63162" lon="3.83794">
        <ele>61.954624</ele>
        <time>2021-01-03T14:10:36.909Z</time>
      </trkpt>
      <trkpt lat="43.63173" lon="3.8379">
        <ele>61.994023</ele>
        <time>2021-01-03T14:10:40.104Z</time>
      </trkpt>
      <trkpt lat="43.63173" lon="3.8379">
        <ele>61.994023</ele>
        <time>2021-01-03T14:10:40.129Z</time>
      </trkpt>
      <trkpt lat="43.63173" lon="3.8379">
        <ele>61.994023</ele>
        <time>2021-01-03T14:10:40.154Z</time>
      </trkpt>
      <trkpt lat="43.63187" lon="3.83768">
        <ele>62.068952</ele>
        <time>2021-01-03T14:10:54.910Z</time>
      </trkpt>
      <trkpt lat="43.63193" lon="3.8376">
        <ele>62.099174</ele>
        <time>2021-01-03T14:11:00.818Z</time>
      </trkpt>
      <trkpt lat="43.63197" lon="3.83755">
        <ele>62.117622</ele>
        <time>2021-01-03T14:11:04.481Z</time>
      </trkpt>
      <trkpt lat="43.63203" lon="3.83749">
        <ele>62.142316</ele>
        <time>2021-01-03T14:11:09.337Z</time>
      </trkpt>
      <trkpt lat="43.6321" lon="3.8374">
        <ele>62.176099</ele>
        <time>2021-01-03T14:11:15.976Z</time>
      </trkpt>
      <trkpt lat="43.63214" lon="3.83732">
        <ele>62.20099</ele>
        <time>2021-01-03T14:11:20.911Z</time>
      </trkpt>
      <trkpt lat="43.63252" lon="3.83625">
        <ele>62.53504</ele>
        <time>2021-01-03T14:12:20.991Z</time>
      </trkpt>
      <trkpt lat="43.63283" lon="3.83583">
        <ele>62.884876</ele>
        <time>2021-01-03T14:12:51.022Z</time>
      </trkpt>
      <trkpt lat="43.63304" lon="3.83532">
        <ele>63.231082</ele>
        <time>2021-01-03T14:13:20.738Z</time>
      </trkpt>
      <trkpt lat="43.63306" lon="3.8352">
        <ele>63.303781</ele>
        <time>2021-01-03T14:13:26.948Z</time>
      </trkpt>
      <trkpt lat="43.63306" lon="3.8352">
        <ele>63.303781</ele>
        <time>2021-01-03T14:13:26.961Z</time>
      </trkpt>
      <trkpt lat="43.63308" lon="3.83519">
        <ele>63.319547</ele>
        <time>2021-01-03T14:13:28.293Z</time>
      </trkpt>
      <trkpt lat="43.63342" lon="3.83529">
        <ele>63.601979</ele>
        <time>2021-01-03T14:13:52.498Z</time>
      </trkpt>
      <trkpt lat="43.63355" lon="3.83524">
        <ele>63.708971</ele>
        <time>2021-01-03T14:14:01.617Z</time>
      </trkpt>
      <trkpt lat="43.63396" lon="3.83426">
        <ele>64.378901</ele>
        <time>2021-01-03T14:14:58.905Z</time>
      </trkpt>
      <trkpt lat="43.63396" lon="3.83426">
        <ele>64.381399</ele>
        <time>2021-01-03T14:14:59.111Z</time>
      </trkpt>
      <trkpt lat="43.63413" lon="3.83387">
        <ele>64.64449</ele>
        <time>2021-01-03T14:15:21.571Z</time>
      </trkpt>
      <trkpt lat="43.6342" lon="3.83375">
        <ele>64.738717</ele>
        <time>2021-01-03T14:15:29.624Z</time>
      </trkpt>
      <trkpt lat="43.63424" lon="3.83367">
        <ele>64.797064</ele>
        <time>2021-01-03T14:15:34.603Z</time>
      </trkpt>
      <trkpt lat="43.63421" lon="3.83364">
        <ele>64.825694</ele>
        <time>2021-01-03T14:15:35.325Z</time>
      </trkpt>
      <trkpt lat="43.63412" lon="3.83353">
        <ele>64.925777</ele>
        <time>2021-01-03T14:15:38.147Z</time>
      </trkpt>
      <trkpt lat="43.63422" lon="3.83337">
        <ele>65.047622</ele>
        <time>2021-01-03T14:15:42.382Z</time>
      </trkpt>
      <trkpt lat="43.63435" lon="3.83317">
        <ele>65.208503</ele>
        <time>2021-01-03T14:15:46.951Z</time>
      </trkpt>
      <trkpt lat="43.63442" lon="3.83305">
        <ele>65.296926</ele>
        <time>2021-01-03T14:15:50.089Z</time>
      </trkpt>
      <trkpt lat="43.63436" lon="3.83298">
        <ele>65.36323</ele>
        <time>2021-01-03T14:15:52.080Z</time>
      </trkpt>
      <trkpt lat="43.63415" lon="3.83275">
        <ele>65.859925</ele>
        <time>2021-01-03T14:15:59.268Z</time>
      </trkpt>
      <trkpt lat="43.63391" lon="3.83248">
        <ele>66.523438</ele>
        <time>2021-01-03T14:16:07.795Z</time>
      </trkpt>
      <trkpt lat="43.63391" lon="3.83248">
        <ele>66.523438</ele>
        <time>2021-01-03T14:16:07.834Z</time>
      </trkpt>
      <trkpt lat="43.63391" lon="3.83248">
        <ele>66.523438</ele>
        <time>2021-01-03T14:16:07.872Z</time>
      </trkpt>
      <trkpt lat="43.63387" lon="3.83243">
        <ele>66.630358</ele>
        <time>2021-01-03T14:16:09.508Z</time>
      </trkpt>
      <trkpt lat="43.63384" lon="3.8324">
        <ele>66.708224</ele>
        <time>2021-01-03T14:16:10.626Z</time>
      </trkpt>
      <trkpt lat="43.6338" lon="3.83248">
        <ele>66.868198</ele>
        <time>2021-01-03T14:16:13.920Z</time>
      </trkpt>
      <trkpt lat="43.63365" lon="3.83272">
        <ele>67.357841</ele>
        <time>2021-01-03T14:16:20.428Z</time>
      </trkpt>
      <trkpt lat="43.63347" lon="3.83303">
        <ele>67.974845</ele>
        <time>2021-01-03T14:16:30.773Z</time>
      </trkpt>
      <trkpt lat="43.63331" lon="3.83329">
        <ele>68.493685</ele>
        <time>2021-01-03T14:16:39.576Z</time>
      </trkpt>
      <trkpt lat="43.63327" lon="3.83336">
        <ele>68.635902</ele>
        <time>2021-01-03T14:16:41.629Z</time>
      </trkpt>
      <trkpt lat="43.63324" lon="3.83332">
        <ele>68.729612</ele>
        <time>2021-01-03T14:16:43.499Z</time>
      </trkpt>
      <trkpt lat="43.6332" lon="3.83328">
        <ele>68.827941</ele>
        <time>2021-01-03T14:16:45.401Z</time>
      </trkpt>
      <trkpt lat="43.63285" lon="3.83287">
        <ele>70.077273</ele>
        <time>2021-01-03T14:17:02.423Z</time>
      </trkpt>
      <trkpt lat="43.63285" lon="3.83287">
        <ele>70.077273</ele>
        <time>2021-01-03T14:17:02.714Z</time>
      </trkpt>
      <trkpt lat="43.63282" lon="3.83284">
        <ele>70.214189</ele>
        <time>2021-01-03T14:17:04.199Z</time>
      </trkpt>
      <trkpt lat="43.63245" lon="3.8324">
        <ele>71.791813</ele>
        <time>2021-01-03T14:17:22.598Z</time>
      </trkpt>
      <trkpt lat="43.63238" lon="3.83231">
        <ele>72.081062</ele>
        <time>2021-01-03T14:17:26.488Z</time>
      </trkpt>
      <trkpt lat="43.63242" lon="3.83225">
        <ele>72.2726</ele>
        <time>2021-01-03T14:17:28.441Z</time>
      </trkpt>
      <trkpt lat="43.63226" lon="3.83206">
        <ele>72.960218</ele>
        <time>2021-01-03T14:17:43.282Z</time>
      </trkpt>
      <trkpt lat="43.63219" lon="3.83199">
        <ele>73.226616</ele>
        <time>2021-01-03T14:17:49.057Z</time>
      </trkpt>
      <trkpt lat="43.63213" lon="3.83191">
        <ele>73.493986</ele>
        <time>2021-01-03T14:17:54.822Z</time>
      </trkpt>
      <trkpt lat="43.63207" lon="3.83184">
        <ele>73.746981</ele>
        <time>2021-01-03T14:18:00.317Z</time>
      </trkpt>
      <trkpt lat="43.63201" lon="3.83177">
        <ele>74.007908</ele>
        <time>2021-01-03T14:18:05.885Z</time>
      </trkpt>
      <trkpt lat="43.63195" lon="3.8317">
        <ele>74.268835</ele>
        <time>2021-01-03T14:18:11.534Z</time>
      </trkpt>
      <trkpt lat="43.63188" lon="3.83163">
        <ele>74.53373</ele>
        <time>2021-01-03T14:18:17.264Z</time>
      </trkpt>
      <trkpt lat="43.63188" lon="3.83163">
        <ele>74.53373</ele>
        <time>2021-01-03T14:18:17.279Z</time>
      </trkpt>
      <trkpt lat="43.63183" lon="3.83156">
        <ele>74.769358</ele>
        <time>2021-01-03T14:18:22.393Z</time>
      </trkpt>
      <trkpt lat="43.63177" lon="3.8315">
        <ele>75.008953</ele>
        <time>2021-01-03T14:18:27.555Z</time>
      </trkpt>
      <trkpt lat="43.63166" lon="3.83137">
        <ele>75.062936</ele>
        <time>2021-01-03T14:18:37.476Z</time>
      </trkpt>
      <trkpt lat="43.63161" lon="3.83131">
        <ele>75.065123</ele>
        <time>2021-01-03T14:18:41.925Z</time>
      </trkpt>
      <trkpt lat="43.6316" lon="3.83122">
        <ele>75.067402</ele>
        <time>2021-01-03T14:18:46.587Z</time>
      </trkpt>
      <trkpt lat="43.63135" lon="3.83129">
        <ele>75.075964</ele>
        <time>2021-01-03T14:18:55.008Z</time>
      </trkpt>
      <trkpt lat="43.63134" lon="3.83117">
        <ele>75.078888</ele>
        <time>2021-01-03T14:19:00.976Z</time>
      </trkpt>
      <trkpt lat="43.63133" lon="3.83114">
        <ele>75.07969</ele>
        <time>2021-01-03T14:19:02.593Z</time>
      </trkpt>
      <trkpt lat="43.63132" lon="3.83112">
        <ele>75.080347</ele>
        <time>2021-01-03T14:19:04.963Z</time>
      </trkpt>
      <trkpt lat="43.63132" lon="3.8311">
        <ele>75.080893</ele>
        <time>2021-01-03T14:19:06.099Z</time>
      </trkpt>
      <trkpt lat="43.63136" lon="3.83102">
        <ele>75.083355</ele>
        <time>2021-01-03T14:19:11.126Z</time>
      </trkpt>
      <trkpt lat="43.6314" lon="3.83094">
        <ele>75.085638</ele>
        <time>2021-01-03T14:19:15.772Z</time>
      </trkpt>
      <trkpt lat="43.63143" lon="3.83089">
        <ele>75.08724</ele>
        <time>2021-01-03T14:19:19.027Z</time>
      </trkpt>
      <trkpt lat="43.63156" lon="3.83067">
        <ele>75.094297</ele>
        <time>2021-01-03T14:19:33.409Z</time>
      </trkpt>
      <trkpt lat="43.63156" lon="3.83067">
        <ele>75.094297</ele>
        <time>2021-01-03T14:19:33.450Z</time>
      </trkpt>
      <trkpt lat="43.63174" lon="3.83037">
        <ele>75.10398</ele>
        <time>2021-01-03T14:19:53.212Z</time>
      </trkpt>
      <trkpt lat="43.63186" lon="3.83018">
        <ele>75.110134</ele>
        <time>2021-01-03T14:20:05.761Z</time>
      </trkpt>
      <trkpt lat="43.63181" lon="3.83012">
        <ele>75.112353</ele>
        <time>2021-01-03T14:20:07.006Z</time>
      </trkpt>
      <trkpt lat="43.6317" lon="3.82976">
        <ele>74.858637</ele>
        <time>2021-01-03T14:20:12.147Z</time>
      </trkpt>
      <trkpt lat="43.63169" lon="3.82972">
        <ele>74.720338</ele>
        <time>2021-01-03T14:20:12.703Z</time>
      </trkpt>
      <trkpt lat="43.63156" lon="3.82933">
        <ele>73.277693</ele>
        <time>2021-01-03T14:20:18.194Z</time>
      </trkpt>
      <trkpt lat="43.63149" lon="3.82912">
        <ele>72.482182</ele>
        <time>2021-01-03T14:20:21.178Z</time>
      </trkpt>
      <trkpt lat="43.63128" lon="3.82876">
        <ele>70.900722</ele>
        <time>2021-01-03T14:20:26.940Z</time>
      </trkpt>
      <trkpt lat="43.63114" lon="3.82847">
        <ele>69.733298</ele>
        <time>2021-01-03T14:20:31.085Z</time>
      </trkpt>
      <trkpt lat="43.63078" lon="3.82805">
        <ele>67.529215</ele>
        <time>2021-01-03T14:20:38.721Z</time>
      </trkpt>
      <trkpt lat="43.63047" lon="3.8273">
        <ele>64.517961</ele>
        <time>2021-01-03T14:20:48.655Z</time>
      </trkpt>
      <trkpt lat="43.63043" lon="3.82712">
        <ele>63.84823</ele>
        <time>2021-01-03T14:20:52.581Z</time>
      </trkpt>
      <trkpt lat="43.63043" lon="3.82712">
        <ele>63.844689</ele>
        <time>2021-01-03T14:20:52.612Z</time>
      </trkpt>
      <trkpt lat="43.6304" lon="3.82663">
        <ele>62.101279</ele>
        <time>2021-01-03T14:21:02.879Z</time>
      </trkpt>
      <trkpt lat="43.63041" lon="3.82638">
        <ele>61.208396</ele>
        <time>2021-01-03T14:21:08.134Z</time>
      </trkpt>
      <trkpt lat="43.63049" lon="3.82638">
        <ele>60.787099</ele>
        <time>2021-01-03T14:21:10.111Z</time>
      </trkpt>
      <trkpt lat="43.6305" lon="3.82633">
        <ele>60.581182</ele>
        <time>2021-01-03T14:21:10.844Z</time>
      </trkpt>
      <trkpt lat="43.6305" lon="3.82618">
        <ele>60.078322</ele>
        <time>2021-01-03T14:21:12.596Z</time>
      </trkpt>
      <trkpt lat="43.6305" lon="3.82608">
        <ele>59.713539</ele>
        <time>2021-01-03T14:21:13.947Z</time>
      </trkpt>
      <trkpt lat="43.6305" lon="3.82599">
        <ele>59.398367</ele>
        <time>2021-01-03T14:21:15.019Z</time>
      </trkpt>
      <trkpt lat="43.6305" lon="3.82588">
        <ele>59.001474</ele>
        <time>2021-01-03T14:21:16.535Z</time>
      </trkpt>
      <trkpt lat="43.63051" lon="3.82503">
        <ele>57.076444</ele>
        <time>2021-01-03T14:21:27.534Z</time>
      </trkpt>
      <trkpt lat="43.63051" lon="3.825">
        <ele>57.034737</ele>
        <time>2021-01-03T14:21:27.851Z</time>
      </trkpt>
      <trkpt lat="43.63051" lon="3.825">
        <ele>57.034737</ele>
        <time>2021-01-03T14:21:27.893Z</time>
      </trkpt>
      <trkpt lat="43.63051" lon="3.825">
        <ele>57.034737</ele>
        <time>2021-01-03T14:21:27.898Z</time>
      </trkpt>
      <trkpt lat="43.63052" lon="3.8248">
        <ele>56.725837</ele>
        <time>2021-01-03T14:21:30.778Z</time>
      </trkpt>
      <trkpt lat="43.63052" lon="3.8244">
        <ele>56.11021</ele>
        <time>2021-01-03T14:21:36.055Z</time>
      </trkpt>
      <trkpt lat="43.63052" lon="3.82429">
        <ele>55.9328</ele>
        <time>2021-01-03T14:21:37.746Z</time>
      </trkpt>
      <trkpt lat="43.63054" lon="3.82355">
        <ele>54.804508</ele>
        <time>2021-01-03T14:21:48.190Z</time>
      </trkpt>
      <trkpt lat="43.63054" lon="3.82355">
        <ele>54.798338</ele>
        <time>2021-01-03T14:21:48.242Z</time>
      </trkpt>
      <trkpt lat="43.63053" lon="3.82325">
        <ele>54.330663</ele>
        <time>2021-01-03T14:21:52.844Z</time>
      </trkpt>
      <trkpt lat="43.63054" lon="3.82307">
        <ele>54.093023</ele>
        <time>2021-01-03T14:21:55.425Z</time>
      </trkpt>
      <trkpt lat="43.63056" lon="3.82291">
        <ele>54.126611</ele>
        <time>2021-01-03T14:21:57.768Z</time>
      </trkpt>
      <trkpt lat="43.63056" lon="3.82284">
        <ele>54.142266</ele>
        <time>2021-01-03T14:21:59.028Z</time>
      </trkpt>
      <trkpt lat="43.63057" lon="3.82226">
        <ele>54.26379</ele>
        <time>2021-01-03T14:22:08.389Z</time>
      </trkpt>
      <trkpt lat="43.63056" lon="3.8221">
        <ele>54.296222</ele>
        <time>2021-01-03T14:22:10.852Z</time>
      </trkpt>
      <trkpt lat="43.63056" lon="3.82198">
        <ele>54.32091</ele>
        <time>2021-01-03T14:22:12.988Z</time>
      </trkpt>
      <trkpt lat="43.63056" lon="3.82184">
        <ele>54.350965</ele>
        <time>2021-01-03T14:22:15.850Z</time>
      </trkpt>
      <trkpt lat="43.63056" lon="3.82177">
        <ele>54.365365</ele>
        <time>2021-01-03T14:22:17.280Z</time>
      </trkpt>
      <trkpt lat="43.63056" lon="3.82147">
        <ele>54.428405</ele>
        <time>2021-01-03T14:22:23.166Z</time>
      </trkpt>
      <trkpt lat="43.63057" lon="3.82094">
        <ele>54.538855</ele>
        <time>2021-01-03T14:22:34.008Z</time>
      </trkpt>
      <trkpt lat="43.63058" lon="3.82079">
        <ele>54.569557</ele>
        <time>2021-01-03T14:22:37.202Z</time>
      </trkpt>
      <trkpt lat="43.63058" lon="3.82066">
        <ele>54.596296</ele>
        <time>2021-01-03T14:22:40.010Z</time>
      </trkpt>
      <trkpt lat="43.63058" lon="3.82021">
        <ele>54.718394</ele>
        <time>2021-01-03T14:22:50.027Z</time>
      </trkpt>
      <trkpt lat="43.63059" lon="3.81999">
        <ele>54.779638</ele>
        <time>2021-01-03T14:22:55.051Z</time>
      </trkpt>
      <trkpt lat="43.63059" lon="3.81974">
        <ele>54.848949</ele>
        <time>2021-01-03T14:23:00.293Z</time>
      </trkpt>
      <trkpt lat="43.6306" lon="3.81959">
        <ele>54.889135</ele>
        <time>2021-01-03T14:23:03.556Z</time>
      </trkpt>
      <trkpt lat="43.63059" lon="3.81952">
        <ele>54.910775</ele>
        <time>2021-01-03T14:23:05.248Z</time>
      </trkpt>
      <trkpt lat="43.63047" lon="3.81899">
        <ele>55.063414</ele>
        <time>2021-01-03T14:23:15.964Z</time>
      </trkpt>
      <trkpt lat="43.63022" lon="3.81864">
        <ele>55.202588</ele>
        <time>2021-01-03T14:23:24.173Z</time>
      </trkpt>
      <trkpt lat="43.62982" lon="3.81828">
        <ele>54.802232</ele>
        <time>2021-01-03T14:23:33.922Z</time>
      </trkpt>
      <trkpt lat="43.62978" lon="3.81825">
        <ele>54.714477</ele>
        <time>2021-01-03T14:23:34.663Z</time>
      </trkpt>
      <trkpt lat="43.62976" lon="3.81822">
        <ele>54.653264</ele>
        <time>2021-01-03T14:23:35.250Z</time>
      </trkpt>
      <trkpt lat="43.62973" lon="3.81819">
        <ele>54.578621</ele>
        <time>2021-01-03T14:23:35.967Z</time>
      </trkpt>
      <trkpt lat="43.62967" lon="3.81815">
        <ele>54.432772</ele>
        <time>2021-01-03T14:23:37.196Z</time>
      </trkpt>
      <trkpt lat="43.62966" lon="3.81814">
        <ele>54.392453</ele>
        <time>2021-01-03T14:23:37.536Z</time>
      </trkpt>
      <trkpt lat="43.62964" lon="3.81812">
        <ele>54.351055</ele>
        <time>2021-01-03T14:23:37.897Z</time>
      </trkpt>
      <trkpt lat="43.62962" lon="3.81812">
        <ele>54.309531</ele>
        <time>2021-01-03T14:23:38.249Z</time>
      </trkpt>
      <trkpt lat="43.62957" lon="3.81803">
        <ele>54.134207</ele>
        <time>2021-01-03T14:23:39.847Z</time>
      </trkpt>
      <trkpt lat="43.62954" lon="3.81802">
        <ele>54.072591</ele>
        <time>2021-01-03T14:23:40.386Z</time>
      </trkpt>
      <trkpt lat="43.62924" lon="3.81775">
        <ele>53.315306</ele>
        <time>2021-01-03T14:23:46.809Z</time>
      </trkpt>
      <trkpt lat="43.6291" lon="3.81767">
        <ele>52.985435</ele>
        <time>2021-01-03T14:23:49.627Z</time>
      </trkpt>
      <trkpt lat="43.62905" lon="3.81767">
        <ele>52.882983</ele>
        <time>2021-01-03T14:23:50.400Z</time>
      </trkpt>
      <trkpt lat="43.62906" lon="3.81759">
        <ele>52.75608</ele>
        <time>2021-01-03T14:23:51.489Z</time>
      </trkpt>
      <trkpt lat="43.62906" lon="3.81754">
        <ele>52.680246</ele>
        <time>2021-01-03T14:23:52.203Z</time>
      </trkpt>
      <trkpt lat="43.62906" lon="3.81742">
        <ele>52.507514</ele>
        <time>2021-01-03T14:23:53.784Z</time>
      </trkpt>
      <trkpt lat="43.62906" lon="3.81738">
        <ele>52.441202</ele>
        <time>2021-01-03T14:23:54.331Z</time>
      </trkpt>
      <trkpt lat="43.62904" lon="3.81697">
        <ele>51.803602</ele>
        <time>2021-01-03T14:24:00.069Z</time>
      </trkpt>
      <trkpt lat="43.62905" lon="3.81659">
        <ele>51.470315</ele>
        <time>2021-01-03T14:24:05.311Z</time>
      </trkpt>
      <trkpt lat="43.62908" lon="3.81635">
        <ele>51.480438</ele>
        <time>2021-01-03T14:24:09.030Z</time>
      </trkpt>
      <trkpt lat="43.62913" lon="3.81618">
        <ele>51.487695</ele>
        <time>2021-01-03T14:24:11.474Z</time>
      </trkpt>
      <trkpt lat="43.62929" lon="3.81629">
        <ele>51.49811</ele>
        <time>2021-01-03T14:24:17.995Z</time>
      </trkpt>
      <trkpt lat="43.62947" lon="3.8161">
        <ele>51.511003</ele>
        <time>2021-01-03T14:24:26.829Z</time>
      </trkpt>
      <trkpt lat="43.62954" lon="3.81606">
        <ele>51.515006</ele>
        <time>2021-01-03T14:24:29.456Z</time>
      </trkpt>
      <trkpt lat="43.62984" lon="3.81614">
        <ele>51.532613</ele>
        <time>2021-01-03T14:24:42.544Z</time>
      </trkpt>
      <trkpt lat="43.63076" lon="3.81646">
        <ele>51.763152</ele>
        <time>2021-01-03T14:25:23.656Z</time>
      </trkpt>
      <trkpt lat="43.63084" lon="3.81653">
        <ele>51.813511</ele>
        <time>2021-01-03T14:25:27.741Z</time>
      </trkpt>
      <trkpt lat="43.63085" lon="3.81654">
        <ele>51.820342</ele>
        <time>2021-01-03T14:25:29.463Z</time>
      </trkpt>
      <trkpt lat="43.63086" lon="3.81656">
        <ele>51.829428</ele>
        <time>2021-01-03T14:25:30.202Z</time>
      </trkpt>
      <trkpt lat="43.63087" lon="3.81656">
        <ele>51.836948</ele>
        <time>2021-01-03T14:25:30.750Z</time>
      </trkpt>
      <trkpt lat="43.63088" lon="3.81654">
        <ele>51.845409</ele>
        <time>2021-01-03T14:25:31.377Z</time>
      </trkpt>
      <trkpt lat="43.6309" lon="3.81653">
        <ele>51.854308</ele>
        <time>2021-01-03T14:25:31.937Z</time>
      </trkpt>
      <trkpt lat="43.63093" lon="3.81652">
        <ele>51.872754</ele>
        <time>2021-01-03T14:25:33.353Z</time>
      </trkpt>
      <trkpt lat="43.63094" lon="3.81652">
        <ele>51.87596</ele>
        <time>2021-01-03T14:25:33.540Z</time>
      </trkpt>
      <trkpt lat="43.63103" lon="3.81647">
        <ele>51.928507</ele>
        <time>2021-01-03T14:25:37.588Z</time>
      </trkpt>
      <trkpt lat="43.63115" lon="3.81646">
        <ele>51.993954</ele>
        <time>2021-01-03T14:25:42.827Z</time>
      </trkpt>
      <trkpt lat="43.63133" lon="3.81645">
        <ele>52.090706</ele>
        <time>2021-01-03T14:25:50.738Z</time>
      </trkpt>
      <trkpt lat="43.63174" lon="3.81621">
        <ele>52.327803</ele>
        <time>2021-01-03T14:26:06.851Z</time>
      </trkpt>
      <trkpt lat="43.63264" lon="3.81513">
        <ele>52.339847</ele>
        <time>2021-01-03T14:26:49.504Z</time>
      </trkpt>
      <trkpt lat="43.63295" lon="3.81478">
        <ele>52.248892</ele>
        <time>2021-01-03T14:27:03.834Z</time>
      </trkpt>
      <trkpt lat="43.63308" lon="3.81455">
        <ele>52.200668</ele>
        <time>2021-01-03T14:27:11.829Z</time>
      </trkpt>
      <trkpt lat="43.6334" lon="3.81415">
        <ele>52.170777</ele>
        <time>2021-01-03T14:27:27.994Z</time>
      </trkpt>
      <trkpt lat="43.63368" lon="3.81386">
        <ele>52.448334</ele>
        <time>2021-01-03T14:27:41.401Z</time>
      </trkpt>
      <trkpt lat="43.63428" lon="3.8134">
        <ele>52.996649</ele>
        <time>2021-01-03T14:28:10.173Z</time>
      </trkpt>
      <trkpt lat="43.63444" lon="3.81318">
        <ele>53.175887</ele>
        <time>2021-01-03T14:28:19.973Z</time>
      </trkpt>
      <trkpt lat="43.63455" lon="3.81292">
        <ele>53.349075</ele>
        <time>2021-01-03T14:28:29.374Z</time>
      </trkpt>
      <trkpt lat="43.6346" lon="3.81259">
        <ele>53.542816</ele>
        <time>2021-01-03T14:28:39.601Z</time>
      </trkpt>
      <trkpt lat="43.63462" lon="3.81208">
        <ele>53.838226</ele>
        <time>2021-01-03T14:28:54.914Z</time>
      </trkpt>
      <trkpt lat="43.63457" lon="3.81113">
        <ele>54.382928</ele>
        <time>2021-01-03T14:29:23.695Z</time>
      </trkpt>
      <trkpt lat="43.6343" lon="3.80955">
        <ele>55.539234</ele>
        <time>2021-01-03T14:30:10.693Z</time>
      </trkpt>
      <trkpt lat="43.6343" lon="3.80914">
        <ele>55.927398</ele>
        <time>2021-01-03T14:30:23.217Z</time>
      </trkpt>
      <trkpt lat="43.63432" lon="3.80901">
        <ele>56.052654</ele>
        <time>2021-01-03T14:30:28.084Z</time>
      </trkpt>
      <trkpt lat="43.63444" lon="3.80882">
        <ele>56.295336</ele>
        <time>2021-01-03T14:30:35.682Z</time>
      </trkpt>
      <trkpt lat="43.63452" lon="3.80864">
        <ele>56.494622</ele>
        <time>2021-01-03T14:30:42.861Z</time>
      </trkpt>
      <trkpt lat="43.63454" lon="3.80807">
        <ele>57.036785</ele>
        <time>2021-01-03T14:31:01.488Z</time>
      </trkpt>
      <trkpt lat="43.63462" lon="3.80783">
        <ele>57.296356</ele>
        <time>2021-01-03T14:31:09.956Z</time>
      </trkpt>
      <trkpt lat="43.63473" lon="3.80778">
        <ele>57.551936</ele>
        <time>2021-01-03T14:31:15.746Z</time>
      </trkpt>
      <trkpt lat="43.63506" lon="3.80774">
        <ele>58.410662</ele>
        <time>2021-01-03T14:31:31.414Z</time>
      </trkpt>
      <trkpt lat="43.63533" lon="3.80794">
        <ele>59.213479</ele>
        <time>2021-01-03T14:31:45.954Z</time>
      </trkpt>
      <trkpt lat="43.63587" lon="3.80856">
        <ele>61.046073</ele>
        <time>2021-01-03T14:32:21.912Z</time>
      </trkpt>
      <trkpt lat="43.63587" lon="3.80856">
        <ele>61.050662</ele>
        <time>2021-01-03T14:32:22.176Z</time>
      </trkpt>
      <trkpt lat="43.63626" lon="3.80872">
        <ele>62.094474</ele>
        <time>2021-01-03T14:32:44.842Z</time>
      </trkpt>
      <trkpt lat="43.63642" lon="3.80874">
        <ele>62.390742</ele>
        <time>2021-01-03T14:32:52.635Z</time>
      </trkpt>
      <trkpt lat="43.63683" lon="3.80855">
        <ele>63.227575</ele>
        <time>2021-01-03T14:33:15.136Z</time>
      </trkpt>
      <trkpt lat="43.63744" lon="3.80856">
        <ele>64.392232</ele>
        <time>2021-01-03T14:33:45.017Z</time>
      </trkpt>
      <trkpt lat="43.63797" lon="3.8084">
        <ele>65.434474</ele>
        <time>2021-01-03T14:34:07.290Z</time>
      </trkpt>
      <trkpt lat="43.63812" lon="3.8084">
        <ele>65.220479</ele>
        <time>2021-01-03T14:34:13.692Z</time>
      </trkpt>
      <trkpt lat="43.63826" lon="3.80849">
        <ele>64.904438</ele>
        <time>2021-01-03T14:34:19.126Z</time>
      </trkpt>
      <trkpt lat="43.63855" lon="3.80836">
        <ele>64.289412</ele>
        <time>2021-01-03T14:34:28.649Z</time>
      </trkpt>
      <trkpt lat="43.63876" lon="3.80845">
        <ele>63.8395</ele>
        <time>2021-01-03T14:34:36.842Z</time>
      </trkpt>
      <trkpt lat="43.63887" lon="3.80839">
        <ele>63.614411</ele>
        <time>2021-01-03T14:34:39.957Z</time>
      </trkpt>
      <trkpt lat="43.639" lon="3.8082">
        <ele>63.21661</ele>
        <time>2021-01-03T14:34:46.633Z</time>
      </trkpt>
      <trkpt lat="43.63907" lon="3.80792">
        <ele>62.787958</ele>
        <time>2021-01-03T14:34:52.901Z</time>
      </trkpt>
      <trkpt lat="43.6391" lon="3.80762">
        <ele>62.344841</ele>
        <time>2021-01-03T14:35:00.767Z</time>
      </trkpt>
      <trkpt lat="43.6391" lon="3.80762">
        <ele>62.338997</ele>
        <time>2021-01-03T14:35:00.844Z</time>
      </trkpt>
      <trkpt lat="43.63903" lon="3.8075">
        <ele>62.120753</ele>
        <time>2021-01-03T14:35:03.711Z</time>
      </trkpt>
      <trkpt lat="43.63907" lon="3.80733">
        <ele>61.857573</ele>
        <time>2021-01-03T14:35:08.065Z</time>
      </trkpt>
      <trkpt lat="43.63906" lon="3.80714">
        <ele>61.560126</ele>
        <time>2021-01-03T14:35:12.615Z</time>
      </trkpt>
      <trkpt lat="43.63905" lon="3.80701">
        <ele>61.362057</ele>
        <time>2021-01-03T14:35:15.015Z</time>
      </trkpt>
      <trkpt lat="43.63906" lon="3.80676">
        <ele>60.972772</ele>
        <time>2021-01-03T14:35:18.781Z</time>
      </trkpt>
      <trkpt lat="43.63908" lon="3.80658">
        <ele>60.676726</ele>
        <time>2021-01-03T14:35:21.107Z</time>
      </trkpt>
      <trkpt lat="43.63909" lon="3.80649">
        <ele>60.53502</ele>
        <time>2021-01-03T14:35:22.202Z</time>
      </trkpt>
      <trkpt lat="43.63907" lon="3.80538">
        <ele>58.815099</ele>
        <time>2021-01-03T14:35:37.359Z</time>
      </trkpt>
      <trkpt lat="43.63915" lon="3.80444">
        <ele>58.218771</ele>
        <time>2021-01-03T14:35:52.514Z</time>
      </trkpt>
      <trkpt lat="43.63859" lon="3.803">
        <ele>59.183339</ele>
        <time>2021-01-03T14:36:26.485Z</time>
      </trkpt>
      <trkpt lat="43.63844" lon="3.8026">
        <ele>59.456468</ele>
        <time>2021-01-03T14:36:36.667Z</time>
      </trkpt>
      <trkpt lat="43.6384" lon="3.8025">
        <ele>59.569128</ele>
        <time>2021-01-03T14:36:39.045Z</time>
      </trkpt>
      <trkpt lat="43.6384" lon="3.80219">
        <ele>59.874948</ele>
        <time>2021-01-03T14:36:46.184Z</time>
      </trkpt>
      <trkpt lat="43.63847" lon="3.80177">
        <ele>60.302162</ele>
        <time>2021-01-03T14:36:56.047Z</time>
      </trkpt>
      <trkpt lat="43.63881" lon="3.80114">
        <ele>61.081535</ele>
        <time>2021-01-03T14:37:13.943Z</time>
      </trkpt>
      <trkpt lat="43.63891" lon="3.80103">
        <ele>61.26164</ele>
        <time>2021-01-03T14:37:18.076Z</time>
      </trkpt>
      <trkpt lat="43.63987" lon="3.8005">
        <ele>62.184192</ele>
        <time>2021-01-03T14:37:46.644Z</time>
      </trkpt>
      <trkpt lat="43.642" lon="3.79889">
        <ele>63.302435</ele>
        <time>2021-01-03T14:38:45.885Z</time>
      </trkpt>
      <trkpt lat="43.64212" lon="3.79889">
        <ele>57.1</ele>
      </trkpt>
      <trkpt lat="43.6422" lon="3.79886">
        <ele>56.7</ele>
      </trkpt>
      <trkpt lat="43.6422" lon="3.79874">
        <ele>56.8</ele>
      </trkpt>
      <trkpt lat="43.6422" lon="3.79867">
        <ele>56.9</ele>
      </trkpt>
      <trkpt lat="43.64225" lon="3.79858">
        <ele>56.6</ele>
      </trkpt>
      <trkpt lat="43.64248" lon="3.79842">
        <ele>55.1</ele>
      </trkpt>
      <trkpt lat="43.64279" lon="3.79823">
        <ele>55.1</ele>
      </trkpt>
      <trkpt lat="43.64311" lon="3.79812">
        <ele>54.9</ele>
      </trkpt>
      <trkpt lat="43.64344" lon="3.7979">
        <ele>54.8</ele>
      </trkpt>
      <trkpt lat="43.64354" lon="3.79786">
        <ele>54.7</ele>
      </trkpt>
      <trkpt lat="43.64372" lon="3.79781">
        <ele>54.4</ele>
      </trkpt>
      <trkpt lat="43.64403" lon="3.79819">
        <ele>53.9</ele>
      </trkpt>
      <trkpt lat="43.64418" lon="3.79837">
        <ele>54.2</ele>
      </trkpt>
      <trkpt lat="43.64433" lon="3.79855">
        <ele>55.1</ele>
      </trkpt>
      <trkpt lat="43.64444" lon="3.79866">
        <ele>55.6</ele>
        <extensions>
          <visugpx:TrkExtension xmlns:visugpx="https://www.visugpx.com/editgpx/">
            <visugpx:node>6</visugpx:node>
            </visugpx:TrkExtension>
        </extensions>
      </trkpt>
      <trkpt lat="43.64529" lon="3.79957">
        <ele>58.5</ele>
      </trkpt>
      <trkpt lat="43.64569" lon="3.8">
        <ele>60.5</ele>
      </trkpt>
      <trkpt lat="43.6455" lon="3.8004">
        <ele>59.6</ele>
      </trkpt>
      <trkpt lat="43.64536" lon="3.80073">
        <ele>58.8</ele>
      </trkpt>
      <trkpt lat="43.64599" lon="3.80113">
        <ele>61.6</ele>
      </trkpt>
      <trkpt lat="43.64619" lon="3.80126">
        <ele>62.1</ele>
      </trkpt>
      <trkpt lat="43.64628" lon="3.80128">
        <ele>62.3</ele>
      </trkpt>
      <trkpt lat="43.64647" lon="3.80127">
        <ele>62.9</ele>
      </trkpt>
      <trkpt lat="43.64665" lon="3.80127">
        <ele>63.4</ele>
      </trkpt>
      <trkpt lat="43.64694" lon="3.80128">
        <ele>64.4</ele>
      </trkpt>
      <trkpt lat="43.647" lon="3.8013">
        <ele>64.6</ele>
      </trkpt>
      <trkpt lat="43.64705" lon="3.80133">
        <ele>64.7</ele>
      </trkpt>
      <trkpt lat="43.64699" lon="3.8015">
        <ele>64</ele>
      </trkpt>
      <trkpt lat="43.64697" lon="3.80155">
        <ele>63.8</ele>
      </trkpt>
      <trkpt lat="43.64691" lon="3.80177">
        <ele>63</ele>
      </trkpt>
      <trkpt lat="43.64688" lon="3.80191">
        <ele>62.7</ele>
      </trkpt>
      <trkpt lat="43.64686" lon="3.80203">
        <ele>62.5</ele>
      </trkpt>
      <trkpt lat="43.64684" lon="3.80215">
        <ele>62.3</ele>
      </trkpt>
      <trkpt lat="43.64682" lon="3.80232">
        <ele>62</ele>
      </trkpt>
      <trkpt lat="43.6468" lon="3.80241">
        <ele>61.7</ele>
      </trkpt>
      <trkpt lat="43.64675" lon="3.80246">
        <ele>61.4</ele>
      </trkpt>
      <trkpt lat="43.64673" lon="3.8027">
        <ele>61.3</ele>
      </trkpt>
      <trkpt lat="43.64672" lon="3.80276">
        <ele>61.2</ele>
        <extensions>
          <visugpx:TrkExtension xmlns:visugpx="https://www.visugpx.com/editgpx/">
            <visugpx:node>7</visugpx:node>
            </visugpx:TrkExtension>
        </extensions>
      </trkpt>
      <trkpt lat="43.64671" lon="3.80289">
        <ele>61.2</ele>
      </trkpt>
      <trkpt lat="43.6467" lon="3.80298">
        <ele>61.1</ele>
        <extensions>
          <visugpx:TrkExtension xmlns:visugpx="https://www.visugpx.com/editgpx/">
            <visugpx:node>8</visugpx:node>
            </visugpx:TrkExtension>
        </extensions>
      </trkpt>
      <trkpt lat="43.6467" lon="3.80306">
        <ele>60.539454</ele>
        <time>2021-01-03T14:41:49.117Z</time>
        <extensions>
          <visugpx:TrkExtension xmlns:visugpx="https://www.visugpx.com/editgpx/">
            <visugpx:node>1</visugpx:node>
            </visugpx:TrkExtension>
        </extensions>
      </trkpt>
      <trkpt lat="43.6466" lon="3.80408">
        <ele>61.517848</ele>
        <time>2021-01-03T14:42:12.455Z</time>
      </trkpt>
      <trkpt lat="43.64659" lon="3.80424">
        <ele>61.670161</ele>
        <time>2021-01-03T14:42:15.732Z</time>
      </trkpt>
      <trkpt lat="43.64673" lon="3.80534">
        <ele>62.480097</ele>
        <time>2021-01-03T14:42:39.438Z</time>
      </trkpt>
      <trkpt lat="43.64675" lon="3.80547">
        <ele>62.568323</ele>
        <time>2021-01-03T14:42:42.449Z</time>
      </trkpt>
      <trkpt lat="43.64678" lon="3.80587">
        <ele>62.833794</ele>
        <time>2021-01-03T14:42:50.160Z</time>
      </trkpt>
      <trkpt lat="43.64678" lon="3.80596">
        <ele>62.895159</ele>
        <time>2021-01-03T14:42:52.318Z</time>
      </trkpt>
      <trkpt lat="43.64679" lon="3.80602">
        <ele>62.935151</ele>
        <time>2021-01-03T14:42:53.524Z</time>
      </trkpt>
      <trkpt lat="43.6468" lon="3.80609">
        <ele>62.982013</ele>
        <time>2021-01-03T14:42:54.951Z</time>
      </trkpt>
      <trkpt lat="43.64679" lon="3.80616">
        <ele>63.0294</ele>
        <time>2021-01-03T14:42:56.412Z</time>
      </trkpt>
      <trkpt lat="43.64679" lon="3.80619">
        <ele>63.043218</ele>
        <time>2021-01-03T14:42:56.661Z</time>
      </trkpt>
      <trkpt lat="43.64675" lon="3.80689">
        <ele>63.506154</ele>
        <time>2021-01-03T14:43:09.980Z</time>
      </trkpt>
      <trkpt lat="43.64666" lon="3.80747">
        <ele>63.645319</ele>
        <time>2021-01-03T14:43:21.688Z</time>
      </trkpt>
      <trkpt lat="43.6465" lon="3.80792">
        <ele>63.732795</ele>
        <time>2021-01-03T14:43:30.733Z</time>
      </trkpt>
      <trkpt lat="43.64639" lon="3.80827">
        <ele>63.798912</ele>
        <time>2021-01-03T14:43:36.908Z</time>
      </trkpt>
      <trkpt lat="43.64618" lon="3.80919">
        <ele>63.967762</ele>
        <time>2021-01-03T14:43:53.364Z</time>
      </trkpt>
      <trkpt lat="43.64614" lon="3.80931">
        <ele>63.991193</ele>
        <time>2021-01-03T14:43:55.845Z</time>
      </trkpt>
      <trkpt lat="43.6461" lon="3.80949">
        <ele>64.023001</ele>
        <time>2021-01-03T14:43:58.845Z</time>
      </trkpt>
      <trkpt lat="43.64601" lon="3.80986">
        <ele>64.092808</ele>
        <time>2021-01-03T14:44:05.765Z</time>
      </trkpt>
      <trkpt lat="43.64596" lon="3.81005">
        <ele>64.128</ele>
        <time>2021-01-03T14:44:09.045Z</time>
      </trkpt>
      <trkpt lat="43.64595" lon="3.81011">
        <ele>64.138218</ele>
        <time>2021-01-03T14:44:10.011Z</time>
      </trkpt>
      <trkpt lat="43.64587" lon="3.81024">
        <ele>64.167547</ele>
        <time>2021-01-03T14:44:13.149Z</time>
      </trkpt>
      <trkpt lat="43.64585" lon="3.81028">
        <ele>64.176527</ele>
        <time>2021-01-03T14:44:14.097Z</time>
      </trkpt>
      <trkpt lat="43.6459" lon="3.81033">
        <ele>64.191374</ele>
        <time>2021-01-03T14:44:15.496Z</time>
      </trkpt>
      <trkpt lat="43.64589" lon="3.81037">
        <ele>64.198416</ele>
        <time>2021-01-03T14:44:16.162Z</time>
      </trkpt>
      <trkpt lat="43.64592" lon="3.81048">
        <ele>64.219019</ele>
        <time>2021-01-03T14:44:18.283Z</time>
      </trkpt>
      <trkpt lat="43.64595" lon="3.8105">
        <ele>64.225794</ele>
        <time>2021-01-03T14:44:19.024Z</time>
      </trkpt>
      <trkpt lat="43.64595" lon="3.8105">
        <ele>64.225794</ele>
        <time>2021-01-03T14:44:19.034Z</time>
      </trkpt>
      <trkpt lat="43.64597" lon="3.81058">
        <ele>64.241324</ele>
        <time>2021-01-03T14:44:20.766Z</time>
      </trkpt>
      <trkpt lat="43.64595" lon="3.81089">
        <ele>64.296812</ele>
        <time>2021-01-03T14:44:26.009Z</time>
      </trkpt>
      <trkpt lat="43.64604" lon="3.81094">
        <ele>64.319826</ele>
        <time>2021-01-03T14:44:28.454Z</time>
      </trkpt>
      <trkpt lat="43.64609" lon="3.81078">
        <ele>64.35002</ele>
        <time>2021-01-03T14:44:31.489Z</time>
      </trkpt>
      <trkpt lat="43.64609" lon="3.81072">
        <ele>64.36078</ele>
        <time>2021-01-03T14:44:32.578Z</time>
      </trkpt>
      <trkpt lat="43.64612" lon="3.81072">
        <ele>64.367329</ele>
        <time>2021-01-03T14:44:33.216Z</time>
      </trkpt>
      <trkpt lat="43.64619" lon="3.81075">
        <ele>64.386292</ele>
        <time>2021-01-03T14:44:35.024Z</time>
      </trkpt>
      <trkpt lat="43.64635" lon="3.81094">
        <ele>64.483693</ele>
        <time>2021-01-03T14:44:40.317Z</time>
      </trkpt>
      <trkpt lat="43.64644" lon="3.81109">
        <ele>64.63103</ele>
        <time>2021-01-03T14:44:43.604Z</time>
      </trkpt>
      <trkpt lat="43.6467" lon="3.81142">
        <ele>65.009564</ele>
        <time>2021-01-03T14:44:52.440Z</time>
      </trkpt>
      <trkpt lat="43.64676" lon="3.81155">
        <ele>65.123831</ele>
        <time>2021-01-03T14:44:55.231Z</time>
      </trkpt>
      <trkpt lat="43.64689" lon="3.81221">
        <ele>65.647751</ele>
        <time>2021-01-03T14:45:09.055Z</time>
      </trkpt>
      <trkpt lat="43.6469" lon="3.81227">
        <ele>65.693863</ele>
        <time>2021-01-03T14:45:10.436Z</time>
      </trkpt>
      <trkpt lat="43.64705" lon="3.81232">
        <ele>65.854187</ele>
        <time>2021-01-03T14:45:15.016Z</time>
      </trkpt>
      <trkpt lat="43.64706" lon="3.81234">
        <ele>65.874013</ele>
        <time>2021-01-03T14:45:15.638Z</time>
      </trkpt>
      <trkpt lat="43.64715" lon="3.81249">
        <ele>66.01964</ele>
        <time>2021-01-03T14:45:20.024Z</time>
      </trkpt>
      <trkpt lat="43.64719" lon="3.81271">
        <ele>66.198298</ele>
        <time>2021-01-03T14:45:25.562Z</time>
      </trkpt>
      <trkpt lat="43.64769" lon="3.81288">
        <ele>67.12919</ele>
        <time>2021-01-03T14:45:43.038Z</time>
      </trkpt>
      <trkpt lat="43.64778" lon="3.8129">
        <ele>67.303324</ele>
        <time>2021-01-03T14:45:46.252Z</time>
      </trkpt>
      <trkpt lat="43.64812" lon="3.81294">
        <ele>67.99166</ele>
        <time>2021-01-03T14:45:57.780Z</time>
      </trkpt>
      <trkpt lat="43.64849" lon="3.81311">
        <ele>68.784392</ele>
        <time>2021-01-03T14:46:11.088Z</time>
      </trkpt>
      <trkpt lat="43.64898" lon="3.8131">
        <ele>69.771904</ele>
        <time>2021-01-03T14:46:27.209Z</time>
      </trkpt>
      <trkpt lat="43.64922" lon="3.81324">
        <ele>70.222105</ele>
        <time>2021-01-03T14:46:35.701Z</time>
      </trkpt>
      <trkpt lat="43.64941" lon="3.81341">
        <ele>70.567201</ele>
        <time>2021-01-03T14:46:42.917Z</time>
      </trkpt>
      <trkpt lat="43.64957" lon="3.81364">
        <ele>70.908627</ele>
        <time>2021-01-03T14:46:49.951Z</time>
      </trkpt>
      <trkpt lat="43.64985" lon="3.81434">
        <ele>71.796854</ele>
        <time>2021-01-03T14:47:07.308Z</time>
      </trkpt>
      <trkpt lat="43.64999" lon="3.81467">
        <ele>72.213271</ele>
        <time>2021-01-03T14:47:15.249Z</time>
      </trkpt>
      <trkpt lat="43.65017" lon="3.81477">
        <ele>72.499792</ele>
        <time>2021-01-03T14:47:23.715Z</time>
      </trkpt>
      <trkpt lat="43.65062" lon="3.81503">
        <ele>73.363536</ele>
        <time>2021-01-03T14:47:45.640Z</time>
      </trkpt>
      <trkpt lat="43.65059" lon="3.81517">
        <ele>73.555899</ele>
        <time>2021-01-03T14:47:50.549Z</time>
      </trkpt>
      <trkpt lat="43.65085" lon="3.8153">
        <ele>74.049715</ele>
        <time>2021-01-03T14:48:02.723Z</time>
      </trkpt>
      <trkpt lat="43.65098" lon="3.81546">
        <ele>74.375304</ele>
        <time>2021-01-03T14:48:11.138Z</time>
      </trkpt>
      <trkpt lat="43.65183" lon="3.81567">
        <ele>75.958022</ele>
        <time>2021-01-03T14:48:52.693Z</time>
      </trkpt>
      <trkpt lat="43.65209" lon="3.81566">
        <ele>76.20166</ele>
        <time>2021-01-03T14:49:04.157Z</time>
      </trkpt>
      <trkpt lat="43.65225" lon="3.81579">
        <ele>76.374398</ele>
        <time>2021-01-03T14:49:13.110Z</time>
      </trkpt>
      <trkpt lat="43.65235" lon="3.81601">
        <ele>76.542166</ele>
        <time>2021-01-03T14:49:20.923Z</time>
      </trkpt>
      <trkpt lat="43.65243" lon="3.81616">
        <ele>76.665089</ele>
        <time>2021-01-03T14:49:27.121Z</time>
      </trkpt>
      <trkpt lat="43.65256" lon="3.81631">
        <ele>76.81435</ele>
        <time>2021-01-03T14:49:33.739Z</time>
      </trkpt>
      <trkpt lat="43.65283" lon="3.81665">
        <ele>77.153267</ele>
        <time>2021-01-03T14:49:49.014Z</time>
      </trkpt>
      <trkpt lat="43.65323" lon="3.81683">
        <ele>77.531617</ele>
        <time>2021-01-03T14:50:04.896Z</time>
      </trkpt>
      <trkpt lat="43.65331" lon="3.81693">
        <ele>77.615434</ele>
        <time>2021-01-03T14:50:08.977Z</time>
      </trkpt>
      <trkpt lat="43.65343" lon="3.81701">
        <ele>77.573897</ele>
        <time>2021-01-03T14:50:13.802Z</time>
      </trkpt>
      <trkpt lat="43.65353" lon="3.81727">
        <ele>77.506066</ele>
        <time>2021-01-03T14:50:21.667Z</time>
      </trkpt>
      <trkpt lat="43.65363" lon="3.81755">
        <ele>77.438323</ele>
        <time>2021-01-03T14:50:29.353Z</time>
      </trkpt>
      <trkpt lat="43.65395" lon="3.81811">
        <ele>77.276853</ele>
        <time>2021-01-03T14:50:47.602Z</time>
      </trkpt>
      <trkpt lat="43.65401" lon="3.8184">
        <ele>77.210041</ele>
        <time>2021-01-03T14:50:55.255Z</time>
      </trkpt>
      <trkpt lat="43.65401" lon="3.8184">
        <ele>77.210041</ele>
        <time>2021-01-03T14:50:55.277Z</time>
      </trkpt>
      <trkpt lat="43.65401" lon="3.8184">
        <ele>77.210041</ele>
        <time>2021-01-03T14:50:55.281Z</time>
      </trkpt>
      <trkpt lat="43.65396" lon="3.81837">
        <ele>77.192933</ele>
        <time>2021-01-03T14:50:57.107Z</time>
      </trkpt>
      <trkpt lat="43.65286" lon="3.81943">
        <ele>77.887049</ele>
        <time>2021-01-03T14:51:48.267Z</time>
      </trkpt>
      <trkpt lat="43.65247" lon="3.81965">
        <ele>78.272238</ele>
        <time>2021-01-03T14:52:06.430Z</time>
      </trkpt>
      <trkpt lat="43.65234" lon="3.81973">
        <ele>78.402694</ele>
        <time>2021-01-03T14:52:12.740Z</time>
      </trkpt>
      <trkpt lat="43.65228" lon="3.81976">
        <ele>78.464126</ele>
        <time>2021-01-03T14:52:16.443Z</time>
      </trkpt>
      <trkpt lat="43.65179" lon="3.82009">
        <ele>79.473557</ele>
        <time>2021-01-03T14:52:41.484Z</time>
      </trkpt>
      <trkpt lat="43.65088" lon="3.82053">
        <ele>82.053892</ele>
        <time>2021-01-03T14:53:30.374Z</time>
      </trkpt>
      <trkpt lat="43.65041" lon="3.82086">
        <ele>83.469334</ele>
        <time>2021-01-03T14:53:57.855Z</time>
      </trkpt>
      <trkpt lat="43.65016" lon="3.82117">
        <ele>84.635077</ele>
        <time>2021-01-03T14:54:15.762Z</time>
      </trkpt>
      <trkpt lat="43.64995" lon="3.82136">
        <ele>85.53139</ele>
        <time>2021-01-03T14:54:29.423Z</time>
      </trkpt>
      <trkpt lat="43.64989" lon="3.82144">
        <ele>85.81564</ele>
        <time>2021-01-03T14:54:33.808Z</time>
      </trkpt>
      <trkpt lat="43.64985" lon="3.82152">
        <ele>86.064448</ele>
        <time>2021-01-03T14:54:37.510Z</time>
      </trkpt>
      <trkpt lat="43.64978" lon="3.82158">
        <ele>86.341742</ele>
        <time>2021-01-03T14:54:41.864Z</time>
      </trkpt>
      <trkpt lat="43.64959" lon="3.82176">
        <ele>87.176505</ele>
        <time>2021-01-03T14:54:54.892Z</time>
      </trkpt>
      <trkpt lat="43.64876" lon="3.82228">
        <ele>90.376365</ele>
        <time>2021-01-03T14:55:46.063Z</time>
      </trkpt>
      <trkpt lat="43.6479" lon="3.82305">
        <ele>93.950765</ele>
        <time>2021-01-03T14:56:44.181Z</time>
      </trkpt>
      <trkpt lat="43.64764" lon="3.82317">
        <ele>94.932491</ele>
        <time>2021-01-03T14:56:59.427Z</time>
      </trkpt>
      <trkpt lat="43.64702" lon="3.82328">
        <ele>96.526301</ele>
        <time>2021-01-03T14:57:30.209Z</time>
      </trkpt>
      <trkpt lat="43.64693" lon="3.82325">
        <ele>96.644256</ele>
        <time>2021-01-03T14:57:35.034Z</time>
      </trkpt>
      <trkpt lat="43.64681" lon="3.82315">
        <ele>96.831146</ele>
        <time>2021-01-03T14:57:40.843Z</time>
      </trkpt>
      <trkpt lat="43.64633" lon="3.82325">
        <ele>97.474188</ele>
        <time>2021-01-03T14:58:02.014Z</time>
      </trkpt>
      <trkpt lat="43.64589" lon="3.82322">
        <ele>98.054944</ele>
        <time>2021-01-03T14:58:20.502Z</time>
      </trkpt>
      <trkpt lat="43.64581" lon="3.82322">
        <ele>98.170183</ele>
        <time>2021-01-03T14:58:23.925Z</time>
      </trkpt>
      <trkpt lat="43.64577" lon="3.82321">
        <ele>98.216431</ele>
        <time>2021-01-03T14:58:25.078Z</time>
      </trkpt>
      <trkpt lat="43.64546" lon="3.8231">
        <ele>98.562612</ele>
        <time>2021-01-03T14:58:38.146Z</time>
      </trkpt>
      <trkpt lat="43.64537" lon="3.82308">
        <ele>98.577733</ele>
        <time>2021-01-03T14:58:41.279Z</time>
      </trkpt>
      <trkpt lat="43.64527" lon="3.82306">
        <ele>98.594474</ele>
        <time>2021-01-03T14:58:45.055Z</time>
      </trkpt>
      <trkpt lat="43.64503" lon="3.82301">
        <ele>98.635561</ele>
        <time>2021-01-03T14:58:54.137Z</time>
      </trkpt>
      <trkpt lat="43.64488" lon="3.82286">
        <ele>98.667018</ele>
        <time>2021-01-03T14:59:01.523Z</time>
      </trkpt>
      <trkpt lat="43.64488" lon="3.82286">
        <ele>96.9</ele>
      </trkpt>
      <trkpt lat="43.64485" lon="3.82279">
        <ele>96.8</ele>
      </trkpt>
      <trkpt lat="43.64479" lon="3.82283">
        <ele>96.9</ele>
      </trkpt>
      <trkpt lat="43.64469" lon="3.82291">
        <ele>97.2</ele>
      </trkpt>
      <trkpt lat="43.64468" lon="3.82288">
        <ele>97.1</ele>
      </trkpt>
      <trkpt lat="43.64463" lon="3.82279">
        <ele>97</ele>
      </trkpt>
      <trkpt lat="43.6446" lon="3.82273">
        <ele>96.9</ele>
      </trkpt>
      <trkpt lat="43.64456" lon="3.82273">
        <ele>96.9</ele>
      </trkpt>
      <trkpt lat="43.6445" lon="3.8227">
        <ele>96.9</ele>
      </trkpt>
      <trkpt lat="43.64428" lon="3.82251">
        <ele>96.9</ele>
      </trkpt>
      <trkpt lat="43.64423" lon="3.82237">
        <ele>97.1</ele>
        <extensions>
          <visugpx:TrkExtension xmlns:visugpx="https://www.visugpx.com/editgpx/">
            <visugpx:node>10</visugpx:node>
            </visugpx:TrkExtension>
        </extensions>
      </trkpt>
      <trkpt lat="43.64421" lon="3.82232">
        <ele>97.2</ele>
      </trkpt>
      <trkpt lat="43.64416" lon="3.82234">
        <ele>97.2</ele>
      </trkpt>
      <trkpt lat="43.64413" lon="3.82236">
        <ele>97.4</ele>
        <extensions>
          <visugpx:TrkExtension xmlns:visugpx="https://www.visugpx.com/editgpx/">
            <visugpx:node>11</visugpx:node>
            </visugpx:TrkExtension>
        </extensions>
      </trkpt>
      <trkpt lat="43.64411" lon="3.82237">
        <ele>98.848816</ele>
        <time>2021-01-03T14:59:28.373Z</time>
        <extensions>
          <visugpx:TrkExtension xmlns:visugpx="https://www.visugpx.com/editgpx/">
            <visugpx:node>1</visugpx:node>
            </visugpx:TrkExtension>
        </extensions>
      </trkpt>
      <trkpt lat="43.64406" lon="3.82248">
        <ele>98.773125</ele>
        <time>2021-01-03T14:59:30.958Z</time>
      </trkpt>
      <trkpt lat="43.64385" lon="3.82258">
        <ele>98.483948</ele>
        <time>2021-01-03T14:59:35.901Z</time>
      </trkpt>
      <trkpt lat="43.64373" lon="3.82258">
        <ele>98.341614</ele>
        <time>2021-01-03T14:59:38.435Z</time>
      </trkpt>
      <trkpt lat="43.6437" lon="3.82261">
        <ele>98.285268</ele>
        <time>2021-01-03T14:59:39.610Z</time>
      </trkpt>
      <trkpt lat="43.64365" lon="3.8227">
        <ele>98.183188</ele>
        <time>2021-01-03T14:59:41.296Z</time>
      </trkpt>
      <trkpt lat="43.64363" lon="3.82275">
        <ele>98.129085</ele>
        <time>2021-01-03T14:59:42.083Z</time>
      </trkpt>
      <trkpt lat="43.64357" lon="3.82266">
        <ele>98.015212</ele>
        <time>2021-01-03T14:59:44.034Z</time>
      </trkpt>
      <trkpt lat="43.64346" lon="3.82282">
        <ele>97.810775</ele>
        <time>2021-01-03T14:59:49.784Z</time>
      </trkpt>
      <trkpt lat="43.6434" lon="3.82288">
        <ele>97.715764</ele>
        <time>2021-01-03T14:59:52.281Z</time>
      </trkpt>
      <trkpt lat="43.64338" lon="3.82289">
        <ele>97.684365</ele>
        <time>2021-01-03T14:59:53.045Z</time>
      </trkpt>
      <trkpt lat="43.64337" lon="3.82297">
        <ele>97.609982</ele>
        <time>2021-01-03T14:59:54.904Z</time>
      </trkpt>
      <trkpt lat="43.64327" lon="3.82335">
        <ele>97.231488</ele>
        <time>2021-01-03T15:00:05.071Z</time>
      </trkpt>
      <trkpt lat="43.64327" lon="3.82335">
        <ele>97.230562</ele>
        <time>2021-01-03T15:00:05.082Z</time>
      </trkpt>
      <trkpt lat="43.64311" lon="3.82366">
        <ele>96.874096</ele>
        <time>2021-01-03T15:00:14.302Z</time>
      </trkpt>
      <trkpt lat="43.64308" lon="3.8238">
        <ele>96.745321</ele>
        <time>2021-01-03T15:00:17.406Z</time>
      </trkpt>
      <trkpt lat="43.64289" lon="3.82396">
        <ele>96.300806</ele>
        <time>2021-01-03T15:00:24.534Z</time>
      </trkpt>
      <trkpt lat="43.64213" lon="3.82561">
        <ele>91.280589</ele>
        <time>2021-01-03T15:01:07.537Z</time>
      </trkpt>
      <trkpt lat="43.64173" lon="3.82621">
        <ele>89.033248</ele>
        <time>2021-01-03T15:01:24.935Z</time>
      </trkpt>
      <trkpt lat="43.64095" lon="3.82713">
        <ele>84.84509</ele>
        <time>2021-01-03T15:01:55.287Z</time>
      </trkpt>
      <trkpt lat="43.64095" lon="3.82713">
        <ele>84.842137</ele>
        <time>2021-01-03T15:01:55.344Z</time>
      </trkpt>
      <trkpt lat="43.64021" lon="3.82774">
        <ele>82.079067</ele>
        <time>2021-01-03T15:02:21.605Z</time>
      </trkpt>
      <trkpt lat="43.64016" lon="3.82786">
        <ele>81.878009</ele>
        <time>2021-01-03T15:02:24.603Z</time>
      </trkpt>
      <trkpt lat="43.64008" lon="3.82792">
        <ele>81.68716</ele>
        <time>2021-01-03T15:02:26.385Z</time>
      </trkpt>
      <trkpt lat="43.63996" lon="3.82793">
        <ele>81.43424</ele>
        <time>2021-01-03T15:02:28.536Z</time>
      </trkpt>
      <trkpt lat="43.63975" lon="3.82798">
        <ele>81.005264</ele>
        <time>2021-01-03T15:02:32.586Z</time>
      </trkpt>
      <trkpt lat="43.63976" lon="3.82801">
        <ele>80.95816</ele>
        <time>2021-01-03T15:02:33.057Z</time>
      </trkpt>
      <trkpt lat="43.63971" lon="3.82804">
        <ele>80.849579</ele>
        <time>2021-01-03T15:02:33.863Z</time>
      </trkpt>
      <trkpt lat="43.63955" lon="3.82825">
        <ele>80.403844</ele>
        <time>2021-01-03T15:02:38.008Z</time>
      </trkpt>
      <trkpt lat="43.63953" lon="3.82828">
        <ele>80.343001</ele>
        <time>2021-01-03T15:02:38.578Z</time>
      </trkpt>
      <trkpt lat="43.63949" lon="3.82833">
        <ele>80.226925</ele>
        <time>2021-01-03T15:02:39.703Z</time>
      </trkpt>
      <trkpt lat="43.63944" lon="3.82844">
        <ele>80.040814</ele>
        <time>2021-01-03T15:02:41.570Z</time>
      </trkpt>
      <trkpt lat="43.63939" lon="3.82851">
        <ele>79.886773</ele>
        <time>2021-01-03T15:02:43.109Z</time>
      </trkpt>
      <trkpt lat="43.63945" lon="3.82867">
        <ele>79.620215</ele>
        <time>2021-01-03T15:02:45.645Z</time>
      </trkpt>
      <trkpt lat="43.63954" lon="3.8288">
        <ele>79.365497</ele>
        <time>2021-01-03T15:02:48.305Z</time>
      </trkpt>
      <trkpt lat="43.63967" lon="3.82899">
        <ele>79.260298</ele>
        <time>2021-01-03T15:02:52.178Z</time>
      </trkpt>
      <trkpt lat="43.63991" lon="3.82933">
        <ele>79.677305</ele>
        <time>2021-01-03T15:03:00.413Z</time>
      </trkpt>
      <trkpt lat="43.6399" lon="3.82936">
        <ele>79.70671</ele>
        <time>2021-01-03T15:03:01.507Z</time>
      </trkpt>
      <trkpt lat="43.63885" lon="3.83123">
        <ele>81.989061</ele>
        <time>2021-01-03T15:03:55.747Z</time>
      </trkpt>
      <trkpt lat="43.63869" lon="3.83149">
        <ele>82.445792</ele>
        <time>2021-01-03T15:04:04.014Z</time>
      </trkpt>
      <trkpt lat="43.63841" lon="3.83195">
        <ele>83.257288</ele>
        <time>2021-01-03T15:04:19.063Z</time>
      </trkpt>
      <trkpt lat="43.63825" lon="3.8322">
        <ele>83.710554</ele>
        <time>2021-01-03T15:04:26.708Z</time>
      </trkpt>
      <trkpt lat="43.63818" lon="3.83233">
        <ele>83.929139</ele>
        <time>2021-01-03T15:04:31.047Z</time>
      </trkpt>
      <trkpt lat="43.638" lon="3.83265">
        <ele>84.46075</ele>
        <time>2021-01-03T15:04:40.095Z</time>
      </trkpt>
      <trkpt lat="43.63792" lon="3.83285">
        <ele>84.646582</ele>
        <time>2021-01-03T15:04:45.574Z</time>
      </trkpt>
      <trkpt lat="43.6379" lon="3.83291">
        <ele>84.651491</ele>
        <time>2021-01-03T15:04:47.083Z</time>
      </trkpt>
      <trkpt lat="43.63787" lon="3.83298">
        <ele>84.657026</ele>
        <time>2021-01-03T15:04:48.901Z</time>
      </trkpt>
      <trkpt lat="43.63784" lon="3.83306">
        <ele>84.663431</ele>
        <time>2021-01-03T15:04:51.174Z</time>
      </trkpt>
      <trkpt lat="43.63745" lon="3.83428">
        <ele>84.758418</ele>
        <time>2021-01-03T15:05:17.561Z</time>
      </trkpt>
      <trkpt lat="43.63735" lon="3.83456">
        <ele>84.780723</ele>
        <time>2021-01-03T15:05:22.587Z</time>
      </trkpt>
      <trkpt lat="43.63721" lon="3.83495">
        <ele>84.811896</ele>
        <time>2021-01-03T15:05:28.659Z</time>
      </trkpt>
      <trkpt lat="43.63704" lon="3.83533">
        <ele>83.964775</ele>
        <time>2021-01-03T15:05:34.524Z</time>
      </trkpt>
      <trkpt lat="43.63699" lon="3.83542">
        <ele>83.691867</ele>
        <time>2021-01-03T15:05:36.215Z</time>
      </trkpt>
      <trkpt lat="43.63699" lon="3.83542">
        <ele>83.691867</ele>
        <time>2021-01-03T15:05:36.223Z</time>
      </trkpt>
      <trkpt lat="43.63682" lon="3.83573">
        <ele>82.821943</ele>
        <time>2021-01-03T15:05:41.318Z</time>
        <extensions>
          <visugpx:TrkExtension xmlns:visugpx="https://www.visugpx.com/editgpx/">
            <visugpx:node>34</visugpx:node>
            </visugpx:TrkExtension>
        </extensions>
      </trkpt>
      <trkpt lat="43.63679" lon="3.8358">
        <ele>89.3</ele>
      </trkpt>
      <trkpt lat="43.63673" lon="3.8359">
        <ele>89.2</ele>
      </trkpt>
      <trkpt lat="43.63646" lon="3.83637">
        <ele>87.2</ele>
      </trkpt>
      <trkpt lat="43.63641" lon="3.83645">
        <ele>86.9</ele>
      </trkpt>
      <trkpt lat="43.63641" lon="3.83646">
        <ele>86.9</ele>
      </trkpt>
      <trkpt lat="43.63636" lon="3.83656">
        <ele>86.7</ele>
      </trkpt>
      <trkpt lat="43.63615" lon="3.83711">
        <ele>82.7</ele>
      </trkpt>
      <trkpt lat="43.63595" lon="3.83778">
        <ele>78.9</ele>
      </trkpt>
      <trkpt lat="43.63591" lon="3.83793">
        <ele>78.1</ele>
      </trkpt>
      <trkpt lat="43.63589" lon="3.83801">
        <ele>77.7</ele>
      </trkpt>
      <trkpt lat="43.63584" lon="3.83817">
        <ele>76.8</ele>
      </trkpt>
      <trkpt lat="43.63581" lon="3.83831">
        <ele>76.1</ele>
      </trkpt>
      <trkpt lat="43.63552" lon="3.83931">
        <ele>69.6</ele>
      </trkpt>
      <trkpt lat="43.63541" lon="3.83973">
        <ele>65.9</ele>
      </trkpt>
      <trkpt lat="43.63535" lon="3.83995">
        <ele>64.2</ele>
        <extensions>
          <visugpx:TrkExtension xmlns:visugpx="https://www.visugpx.com/editgpx/">
            <visugpx:node>35</visugpx:node>
            </visugpx:TrkExtension>
        </extensions>
      </trkpt>
      <trkpt lat="43.63533" lon="3.84003">
        <ele>62.069997</ele>
        <time>2021-01-03T15:11:41.720Z</time>
      </trkpt>
      <trkpt lat="43.63527" lon="3.84022">
        <ele>61.762397</ele>
        <time>2021-01-03T15:11:44.753Z</time>
      </trkpt>
      <trkpt lat="43.63533" lon="3.84023">
        <ele>61.639702</ele>
        <time>2021-01-03T15:11:46.268Z</time>
      </trkpt>
      <trkpt lat="43.63556" lon="3.84027">
        <ele>61.211795</ele>
        <time>2021-01-03T15:11:52.485Z</time>
      </trkpt>
      <trkpt lat="43.63581" lon="3.84043">
        <ele>60.789333</ele>
        <time>2021-01-03T15:11:59.700Z</time>
      </trkpt>
      <trkpt lat="43.63615" lon="3.84065">
        <ele>60.223769</ele>
        <time>2021-01-03T15:12:09.270Z</time>
      </trkpt>
      <trkpt lat="43.63622" lon="3.84069">
        <ele>60.118729</ele>
        <time>2021-01-03T15:12:11.051Z</time>
      </trkpt>
      <trkpt lat="43.63633" lon="3.84076">
        <ele>59.926071</ele>
        <time>2021-01-03T15:12:14.281Z</time>
      </trkpt>
      <trkpt lat="43.63699" lon="3.84091">
        <ele>58.912909</ele>
        <time>2021-01-03T15:12:31.621Z</time>
      </trkpt>
      <trkpt lat="43.63707" lon="3.84094">
        <ele>58.789072</ele>
        <time>2021-01-03T15:12:33.705Z</time>
      </trkpt>
      <trkpt lat="43.6374" lon="3.84109">
        <ele>58.436064</ele>
        <time>2021-01-03T15:12:42.496Z</time>
      </trkpt>
      <trkpt lat="43.63779" lon="3.84122">
        <ele>58.102659</ele>
        <time>2021-01-03T15:12:52.897Z</time>
      </trkpt>
      <trkpt lat="43.63806" lon="3.84131">
        <ele>57.875762</ele>
        <time>2021-01-03T15:13:00.320Z</time>
      </trkpt>
      <trkpt lat="43.63834" lon="3.84118">
        <ele>57.629495</ele>
        <time>2021-01-03T15:13:08.311Z</time>
      </trkpt>
      <trkpt lat="43.63864" lon="3.84157">
        <ele>57.288205</ele>
        <time>2021-01-03T15:13:59.261Z</time>
      </trkpt>
      <trkpt lat="43.63869" lon="3.84165">
        <ele>57.225154</ele>
        <time>2021-01-03T15:14:01.573Z</time>
      </trkpt>
      <trkpt lat="43.63912" lon="3.84221">
        <ele>57.524264</ele>
        <time>2021-01-03T15:14:19.606Z</time>
      </trkpt>
      <trkpt lat="43.6392" lon="3.84229">
        <ele>57.59908</ele>
        <time>2021-01-03T15:14:23.267Z</time>
      </trkpt>
      <trkpt lat="43.63956" lon="3.84264">
        <ele>57.923367</ele>
        <time>2021-01-03T15:14:37.566Z</time>
      </trkpt>
      <trkpt lat="43.63954" lon="3.84281">
        <ele>58.014987</ele>
        <time>2021-01-03T15:14:41.618Z</time>
      </trkpt>
      <trkpt lat="43.63958" lon="3.84301">
        <ele>58.124354</ele>
        <time>2021-01-03T15:14:47.276Z</time>
      </trkpt>
      <trkpt lat="43.63947" lon="3.84376">
        <ele>58.522674</ele>
        <time>2021-01-03T15:15:07.012Z</time>
      </trkpt>
      <trkpt lat="43.63947" lon="3.84381">
        <ele>58.542156</ele>
        <time>2021-01-03T15:15:08.652Z</time>
      </trkpt>
      <trkpt lat="43.63946" lon="3.84389">
        <ele>58.574185</ele>
        <time>2021-01-03T15:15:10.708Z</time>
      </trkpt>
      <trkpt lat="43.63973" lon="3.84481">
        <ele>58.975321</ele>
        <time>2021-01-03T15:15:34.781Z</time>
      </trkpt>
      <trkpt lat="43.63973" lon="3.84481">
        <ele>58.975321</ele>
        <time>2021-01-03T15:15:34.802Z</time>
      </trkpt>
      <trkpt lat="43.63989" lon="3.8451">
        <ele>59.122378</ele>
        <time>2021-01-03T15:15:42.251Z</time>
      </trkpt>
      <trkpt lat="43.6407" lon="3.84549">
        <ele>59.789863</ele>
        <time>2021-01-03T15:16:07.996Z</time>
      </trkpt>
      <trkpt lat="43.64074" lon="3.84547">
        <ele>59.846841</ele>
        <time>2021-01-03T15:16:09.354Z</time>
      </trkpt>
      <trkpt lat="43.64077" lon="3.84555">
        <ele>59.949463</ele>
        <time>2021-01-03T15:16:10.804Z</time>
      </trkpt>
      <trkpt lat="43.64085" lon="3.84575">
        <ele>60.193501</ele>
        <time>2021-01-03T15:16:15.462Z</time>
      </trkpt>
      <trkpt lat="43.64084" lon="3.84586">
        <ele>60.315115</ele>
        <time>2021-01-03T15:16:18.281Z</time>
      </trkpt>
      <trkpt lat="43.64078" lon="3.84603">
        <ele>60.51268</ele>
        <time>2021-01-03T15:16:21.358Z</time>
      </trkpt>
      <trkpt lat="43.64074" lon="3.84616">
        <ele>60.664247</ele>
        <time>2021-01-03T15:16:24.612Z</time>
      </trkpt>
      <trkpt lat="43.64072" lon="3.84637">
        <ele>60.8932</ele>
        <time>2021-01-03T15:16:30.317Z</time>
      </trkpt>
      <trkpt lat="43.64067" lon="3.84654">
        <ele>61.089991</ele>
        <time>2021-01-03T15:16:33.168Z</time>
      </trkpt>
      <trkpt lat="43.64064" lon="3.84665">
        <ele>61.21133</ele>
        <time>2021-01-03T15:16:36.264Z</time>
      </trkpt>
      <trkpt lat="43.64054" lon="3.84673">
        <ele>61.379334</ele>
        <time>2021-01-03T15:16:40.710Z</time>
      </trkpt>
      <trkpt lat="43.64049" lon="3.8468">
        <ele>61.483539</ele>
        <time>2021-01-03T15:16:42.757Z</time>
      </trkpt>
      <trkpt lat="43.64042" lon="3.84697">
        <ele>61.691162</ele>
        <time>2021-01-03T15:16:46.310Z</time>
      </trkpt>
      <trkpt lat="43.64041" lon="3.84706">
        <ele>61.794835</ele>
        <time>2021-01-03T15:16:49.257Z</time>
      </trkpt>
      <trkpt lat="43.6404" lon="3.84719">
        <ele>61.928789</ele>
        <time>2021-01-03T15:16:53.038Z</time>
      </trkpt>
      <trkpt lat="43.64045" lon="3.84743">
        <ele>62.262533</ele>
        <time>2021-01-03T15:16:57.845Z</time>
      </trkpt>
      <trkpt lat="43.64051" lon="3.84753">
        <ele>62.598728</ele>
        <time>2021-01-03T15:17:01.833Z</time>
        <extensions>
          <visugpx:TrkExtension xmlns:visugpx="https://www.visugpx.com/editgpx/">
            <visugpx:node>38</visugpx:node>
            </visugpx:TrkExtension>
        </extensions>
      </trkpt>
      <trkpt lat="43.64056" lon="3.8476">
        <ele>60.9</ele>
      </trkpt>
      <trkpt lat="43.64069" lon="3.84769">
        <ele>61.8</ele>
      </trkpt>
      <trkpt lat="43.64077" lon="3.84771">
        <ele>62.1</ele>
      </trkpt>
      <trkpt lat="43.64076" lon="3.84785">
        <ele>62.9</ele>
      </trkpt>
      <trkpt lat="43.64075" lon="3.84802">
        <ele>63.9</ele>
        <extensions>
          <visugpx:TrkExtension xmlns:visugpx="https://www.visugpx.com/editgpx/">
            <visugpx:node>39</visugpx:node>
            </visugpx:TrkExtension>
        </extensions>
      </trkpt>
      <trkpt lat="43.64075" lon="3.84806">
        <ele>64.2</ele>
      </trkpt>
      <trkpt lat="43.64073" lon="3.84823">
        <ele>65.1</ele>
      </trkpt>
      <trkpt lat="43.64075" lon="3.8483">
        <ele>65.6</ele>
      </trkpt>
      <trkpt lat="43.64079" lon="3.84846">
        <ele>66.3</ele>
      </trkpt>
      <trkpt lat="43.64081" lon="3.84855">
        <ele>66.7</ele>
      </trkpt>
      <trkpt lat="43.64081" lon="3.84856">
        <ele>66.7</ele>
        <extensions>
          <visugpx:TrkExtension xmlns:visugpx="https://www.visugpx.com/editgpx/">
            <visugpx:node>13</visugpx:node>
            </visugpx:TrkExtension>
        </extensions>
      </trkpt>
      <trkpt lat="43.64081" lon="3.84864">
        <ele>67</ele>
      </trkpt>
      <trkpt lat="43.6408" lon="3.84883">
        <ele>67.7</ele>
      </trkpt>
      <trkpt lat="43.64076" lon="3.84899">
        <ele>68.1</ele>
      </trkpt>
      <trkpt lat="43.64072" lon="3.84915">
        <ele>68.4</ele>
      </trkpt>
      <trkpt lat="43.64069" lon="3.84923">
        <ele>68.4</ele>
      </trkpt>
      <trkpt lat="43.64069" lon="3.84931">
        <ele>68.5</ele>
      </trkpt>
      <trkpt lat="43.64071" lon="3.84937">
        <ele>68.7</ele>
      </trkpt>
      <trkpt lat="43.64072" lon="3.8494">
        <ele>68.8</ele>
      </trkpt>
      <trkpt lat="43.64073" lon="3.84945">
        <ele>68.9</ele>
      </trkpt>
      <trkpt lat="43.64074" lon="3.84953">
        <ele>69</ele>
      </trkpt>
      <trkpt lat="43.64066" lon="3.84961">
        <ele>68.8</ele>
      </trkpt>
      <trkpt lat="43.64063" lon="3.84961">
        <ele>68.7</ele>
      </trkpt>
      <trkpt lat="43.64055" lon="3.84959">
        <ele>68.3</ele>
      </trkpt>
      <trkpt lat="43.64027" lon="3.84958">
        <ele>67.1</ele>
      </trkpt>
      <trkpt lat="43.64021" lon="3.84957">
        <ele>66.9</ele>
      </trkpt>
      <trkpt lat="43.64024" lon="3.84961">
        <ele>67.1</ele>
      </trkpt>
      <trkpt lat="43.6403" lon="3.8497">
        <ele>67.5</ele>
      </trkpt>
      <trkpt lat="43.64036" lon="3.8498">
        <ele>67.9</ele>
      </trkpt>
      <trkpt lat="43.64042" lon="3.84991">
        <ele>68.4</ele>
      </trkpt>
      <trkpt lat="43.64048" lon="3.85002">
        <ele>68.8</ele>
      </trkpt>
      <trkpt lat="43.64052" lon="3.85011">
        <ele>69.3</ele>
      </trkpt>
      <trkpt lat="43.64055" lon="3.8502">
        <ele>69.8</ele>
      </trkpt>
      <trkpt lat="43.64058" lon="3.85029">
        <ele>70.2</ele>
      </trkpt>
      <trkpt lat="43.64059" lon="3.8503">
        <ele>70.3</ele>
        <extensions>
          <visugpx:TrkExtension xmlns:visugpx="https://www.visugpx.com/editgpx/">
            <visugpx:node>14</visugpx:node>
            </visugpx:TrkExtension>
        </extensions>
      </trkpt>
      <trkpt lat="43.64062" lon="3.85038">
        <ele>70.512997</ele>
        <time>2021-01-03T15:18:07.853Z</time>
        <extensions>
          <visugpx:TrkExtension xmlns:visugpx="https://www.visugpx.com/editgpx/">
            <visugpx:node>1</visugpx:node>
            </visugpx:TrkExtension>
        </extensions>
      </trkpt>
      <trkpt lat="43.64071" lon="3.85079">
        <ele>71.441867</ele>
        <time>2021-01-03T15:18:21.667Z</time>
      </trkpt>
      <trkpt lat="43.64076" lon="3.85118">
        <ele>72.313867</ele>
        <time>2021-01-03T15:18:34.420Z</time>
      </trkpt>
      <trkpt lat="43.64077" lon="3.85149">
        <ele>73.003785</ele>
        <time>2021-01-03T15:18:44.199Z</time>
      </trkpt>
      <trkpt lat="43.64076" lon="3.85177">
        <ele>73.619307</ele>
        <time>2021-01-03T15:18:52.469Z</time>
      </trkpt>
      <trkpt lat="43.64074" lon="3.85203">
        <ele>74.186503</ele>
        <time>2021-01-03T15:19:00.087Z</time>
      </trkpt>
      <trkpt lat="43.64073" lon="3.85228">
        <ele>74.547866</ele>
        <time>2021-01-03T15:19:07.385Z</time>
      </trkpt>
      <trkpt lat="43.64068" lon="3.85239">
        <ele>74.705966</ele>
        <time>2021-01-03T15:19:11.263Z</time>
      </trkpt>
      <trkpt lat="43.64056" lon="3.85271">
        <ele>75.15283</ele>
        <time>2021-01-03T15:19:21.106Z</time>
      </trkpt>
      <trkpt lat="43.64055" lon="3.85284">
        <ele>75.317425</ele>
        <time>2021-01-03T15:19:24.920Z</time>
      </trkpt>
      <trkpt lat="43.64045" lon="3.85419">
        <ele>77.0154</ele>
        <time>2021-01-03T15:20:01.257Z</time>
      </trkpt>
      <trkpt lat="43.64044" lon="3.85433">
        <ele>77.19367</ele>
        <time>2021-01-03T15:20:05.444Z</time>
      </trkpt>
      <trkpt lat="43.64044" lon="3.85443">
        <ele>77.313387</ele>
        <time>2021-01-03T15:20:07.786Z</time>
      </trkpt>
      <trkpt lat="43.64042" lon="3.85454">
        <ele>77.440026</ele>
        <time>2021-01-03T15:20:10.733Z</time>
      </trkpt>
      <trkpt lat="43.64037" lon="3.85461">
        <ele>77.548025</ele>
        <time>2021-01-03T15:20:13.369Z</time>
      </trkpt>
      <trkpt lat="43.6403" lon="3.85469">
        <ele>77.674206</ele>
        <time>2021-01-03T15:20:16.841Z</time>
      </trkpt>
      <trkpt lat="43.64011" lon="3.85488">
        <ele>77.998623</ele>
        <time>2021-01-03T15:20:24.913Z</time>
      </trkpt>
      <trkpt lat="43.64001" lon="3.855">
        <ele>78.18862</ele>
        <time>2021-01-03T15:20:29.824Z</time>
      </trkpt>
      <trkpt lat="43.63991" lon="3.8551">
        <ele>78.364501</ele>
        <time>2021-01-03T15:20:34.060Z</time>
      </trkpt>
      <trkpt lat="43.64002" lon="3.85532">
        <ele>78.629476</ele>
        <time>2021-01-03T15:20:39.494Z</time>
      </trkpt>
      <trkpt lat="43.64035" lon="3.85597">
        <ele>79.444087</ele>
        <time>2021-01-03T15:20:56.087Z</time>
      </trkpt>
      <trkpt lat="43.64064" lon="3.85712">
        <ele>80.60037</ele>
        <time>2021-01-03T15:21:23.128Z</time>
      </trkpt>
      <trkpt lat="43.64068" lon="3.85732">
        <ele>80.789883</ele>
        <time>2021-01-03T15:21:28.200Z</time>
      </trkpt>
      <trkpt lat="43.6407" lon="3.85748">
        <ele>80.934509</ele>
        <time>2021-01-03T15:21:31.596Z</time>
      </trkpt>
      <trkpt lat="43.64073" lon="3.85761">
        <ele>81.053122</ele>
        <time>2021-01-03T15:21:33.897Z</time>
      </trkpt>
      <trkpt lat="43.64078" lon="3.85775">
        <ele>81.199071</ele>
        <time>2021-01-03T15:21:37.550Z</time>
      </trkpt>
      <trkpt lat="43.64079" lon="3.85777">
        <ele>81.221166</ele>
        <time>2021-01-03T15:21:38.184Z</time>
      </trkpt>
      <trkpt lat="43.64083" lon="3.85788">
        <ele>81.327706</ele>
        <time>2021-01-03T15:21:40.751Z</time>
      </trkpt>
      <trkpt lat="43.64084" lon="3.85791">
        <ele>81.356271</ele>
        <time>2021-01-03T15:21:41.461Z</time>
      </trkpt>
      <trkpt lat="43.64091" lon="3.8581">
        <ele>81.551405</ele>
        <time>2021-01-03T15:21:45.243Z</time>
      </trkpt>
      <trkpt lat="43.64099" lon="3.85815">
        <ele>81.659351</ele>
        <time>2021-01-03T15:21:47.971Z</time>
      </trkpt>
      <trkpt lat="43.64112" lon="3.85861">
        <ele>82.112837</ele>
        <time>2021-01-03T15:21:58.104Z</time>
      </trkpt>
      <trkpt lat="43.64127" lon="3.85902">
        <ele>82.005809</ele>
        <time>2021-01-03T15:22:06.521Z</time>
      </trkpt>
      <trkpt lat="43.64131" lon="3.85914">
        <ele>81.947341</ele>
        <time>2021-01-03T15:22:09.750Z</time>
      </trkpt>
      <trkpt lat="43.64141" lon="3.85933">
        <ele>81.849937</ele>
        <time>2021-01-03T15:22:13.247Z</time>
      </trkpt>
      <trkpt lat="43.64208" lon="3.86095">
        <ele>81.055458</ele>
        <time>2021-01-03T15:22:41.180Z</time>
      </trkpt>
      <trkpt lat="43.64198" lon="3.86108">
        <ele>80.969738</ele>
        <time>2021-01-03T15:22:43.932Z</time>
      </trkpt>
      <trkpt lat="43.64194" lon="3.86115">
        <ele>80.932224</ele>
        <time>2021-01-03T15:22:45.087Z</time>
      </trkpt>
      <trkpt lat="43.64174" lon="3.86121">
        <ele>80.806597</ele>
        <time>2021-01-03T15:22:49.260Z</time>
      </trkpt>
      <trkpt lat="43.64135" lon="3.86131">
        <ele>80.560828</ele>
        <time>2021-01-03T15:23:17.157Z</time>
      </trkpt>
      <trkpt lat="43.64129" lon="3.86134">
        <ele>80.52221</ele>
        <time>2021-01-03T15:23:18.336Z</time>
      </trkpt>
      <trkpt lat="43.64122" lon="3.86143">
        <ele>80.464002</ele>
        <time>2021-01-03T15:23:20.257Z</time>
      </trkpt>
      <trkpt lat="43.6413" lon="3.86173">
        <ele>80.32702</ele>
        <time>2021-01-03T15:23:25.094Z</time>
      </trkpt>
      <trkpt lat="43.6413" lon="3.86186">
        <ele>80.267612</ele>
        <time>2021-01-03T15:23:26.950Z</time>
      </trkpt>
      <trkpt lat="43.64134" lon="3.86203">
        <ele>80.186204</ele>
        <time>2021-01-03T15:23:29.894Z</time>
        <extensions>
          <visugpx:TrkExtension xmlns:visugpx="https://www.visugpx.com/editgpx/">
            <visugpx:node>41</visugpx:node>
            </visugpx:TrkExtension>
        </extensions>
      </trkpt>
      <trkpt lat="43.64134" lon="3.86203">
        <ele>79.6</ele>
      </trkpt>
      <trkpt lat="43.64134" lon="3.86203">
        <ele>79.6</ele>
      </trkpt>
      <trkpt lat="43.64141" lon="3.86213">
        <ele>80</ele>
      </trkpt>
      <trkpt lat="43.64136" lon="3.86224">
        <ele>79.9</ele>
      </trkpt>
      <trkpt lat="43.64132" lon="3.86235">
        <ele>79.8</ele>
      </trkpt>
      <trkpt lat="43.6413" lon="3.86249">
        <ele>79.8</ele>
      </trkpt>
      <trkpt lat="43.64123" lon="3.86301">
        <ele>80.3</ele>
      </trkpt>
      <trkpt lat="43.64116" lon="3.86323">
        <ele>80</ele>
      </trkpt>
      <trkpt lat="43.64114" lon="3.86329">
        <ele>79.9</ele>
      </trkpt>
      <trkpt lat="43.64112" lon="3.86328">
        <ele>79.7</ele>
      </trkpt>
      <trkpt lat="43.64107" lon="3.86329">
        <ele>79.2</ele>
      </trkpt>
      <trkpt lat="43.64103" lon="3.86334">
        <ele>78.9</ele>
      </trkpt>
      <trkpt lat="43.64103" lon="3.86337">
        <ele>78.9</ele>
      </trkpt>
      <trkpt lat="43.64103" lon="3.86339">
        <ele>78.9</ele>
      </trkpt>
      <trkpt lat="43.64103" lon="3.86341">
        <ele>78.8</ele>
        <extensions>
          <visugpx:TrkExtension xmlns:visugpx="https://www.visugpx.com/editgpx/">
            <visugpx:node>44</visugpx:node>
            </visugpx:TrkExtension>
        </extensions>
      </trkpt>
      <trkpt lat="43.64103" lon="3.86341">
        <ele>78.8</ele>
      </trkpt>
      <trkpt lat="43.64104" lon="3.86343">
        <ele>78.9</ele>
      </trkpt>
      <trkpt lat="43.64105" lon="3.86345">
        <ele>79</ele>
      </trkpt>
      <trkpt lat="43.64107" lon="3.86346">
        <ele>79.2</ele>
      </trkpt>
      <trkpt lat="43.64108" lon="3.86347">
        <ele>79.3</ele>
      </trkpt>
      <trkpt lat="43.64111" lon="3.86347">
        <ele>79.5</ele>
      </trkpt>
      <trkpt lat="43.64114" lon="3.86346">
        <ele>79.8</ele>
      </trkpt>
      <trkpt lat="43.64116" lon="3.86344">
        <ele>80</ele>
      </trkpt>
      <trkpt lat="43.64118" lon="3.86346">
        <ele>80.2</ele>
      </trkpt>
      <trkpt lat="43.64146" lon="3.86376">
        <ele>82.2</ele>
      </trkpt>
      <trkpt lat="43.64177" lon="3.864">
        <ele>84.3</ele>
      </trkpt>
      <trkpt lat="43.64177" lon="3.864">
        <ele>84.3</ele>
        <extensions>
          <visugpx:TrkExtension xmlns:visugpx="https://www.visugpx.com/editgpx/">
            <visugpx:node>42</visugpx:node>
            </visugpx:TrkExtension>
        </extensions>
      </trkpt>
      <trkpt lat="43.64179" lon="3.86402">
        <ele>82.222988</ele>
        <time>2021-01-03T15:24:13.293Z</time>
        <extensions>
          <visugpx:TrkExtension xmlns:visugpx="https://www.visugpx.com/editgpx/">
            <visugpx:node>1</visugpx:node>
            </visugpx:TrkExtension>
        </extensions>
      </trkpt>
      <trkpt lat="43.6419" lon="3.86411">
        <ele>82.439329</ele>
        <time>2021-01-03T15:24:16.892Z</time>
      </trkpt>
      <trkpt lat="43.6419" lon="3.86423">
        <ele>82.588957</ele>
        <time>2021-01-03T15:24:20.629Z</time>
      </trkpt>
      <trkpt lat="43.64193" lon="3.86507">
        <ele>82.886065</ele>
        <time>2021-01-03T15:24:36.792Z</time>
      </trkpt>
      <trkpt lat="43.64194" lon="3.8653">
        <ele>82.792218</ele>
        <time>2021-01-03T15:24:42.313Z</time>
      </trkpt>
      <trkpt lat="43.64195" lon="3.86559">
        <ele>82.677854</ele>
        <time>2021-01-03T15:24:49.733Z</time>
      </trkpt>
      <trkpt lat="43.64195" lon="3.86562">
        <ele>82.6651</ele>
        <time>2021-01-03T15:24:50.925Z</time>
      </trkpt>
      <trkpt lat="43.64196" lon="3.86588">
        <ele>82.559511</ele>
        <time>2021-01-03T15:24:58.970Z</time>
      </trkpt>
      <trkpt lat="43.64182" lon="3.86578">
        <ele>82.474946</ele>
        <time>2021-01-03T15:25:04.336Z</time>
      </trkpt>
      <trkpt lat="43.64143" lon="3.86523">
        <ele>82.16506</ele>
        <time>2021-01-03T15:25:23.202Z</time>
      </trkpt>
      <trkpt lat="43.64132" lon="3.86532">
        <ele>82.097577</ele>
        <time>2021-01-03T15:25:26.779Z</time>
      </trkpt>
      <trkpt lat="43.64129" lon="3.8656">
        <ele>81.566561</ele>
        <time>2021-01-03T15:25:33.575Z</time>
      </trkpt>
      <trkpt lat="43.64121" lon="3.86574">
        <ele>81.173915</ele>
        <time>2021-01-03T15:25:37.344Z</time>
      </trkpt>
      <trkpt lat="43.64107" lon="3.86575">
        <ele>80.715192</ele>
        <time>2021-01-03T15:25:41.775Z</time>
      </trkpt>
      <trkpt lat="43.64092" lon="3.86545">
        <ele>79.906816</ele>
        <time>2021-01-03T15:25:49.470Z</time>
      </trkpt>
      <trkpt lat="43.64083" lon="3.86541">
        <ele>79.60461</ele>
        <time>2021-01-03T15:25:52.405Z</time>
      </trkpt>
      <trkpt lat="43.6407" lon="3.86554">
        <ele>79.098979</ele>
        <time>2021-01-03T15:25:57.371Z</time>
      </trkpt>
      <trkpt lat="43.64063" lon="3.86571">
        <ele>78.649049</ele>
        <time>2021-01-03T15:26:01.652Z</time>
      </trkpt>
      <trkpt lat="43.64055" lon="3.86591">
        <ele>78.152697</ele>
        <time>2021-01-03T15:26:06.741Z</time>
      </trkpt>
      <trkpt lat="43.64049" lon="3.8661">
        <ele>77.686575</ele>
        <time>2021-01-03T15:26:11.255Z</time>
      </trkpt>
      <trkpt lat="43.64049" lon="3.8661">
        <ele>77.682094</ele>
        <time>2021-01-03T15:26:11.296Z</time>
      </trkpt>
      <trkpt lat="43.64047" lon="3.86642">
        <ele>76.957159</ele>
        <time>2021-01-03T15:26:18.844Z</time>
      </trkpt>
      <trkpt lat="43.64028" lon="3.86654">
        <ele>76.486669</ele>
        <time>2021-01-03T15:26:25.562Z</time>
      </trkpt>
      <trkpt lat="43.64015" lon="3.8668">
        <ele>76.423429</ele>
        <time>2021-01-03T15:26:32.851Z</time>
      </trkpt>
      <trkpt lat="43.63996" lon="3.86696">
        <ele>76.361816</ele>
        <time>2021-01-03T15:26:40.444Z</time>
      </trkpt>
      <trkpt lat="43.63984" lon="3.86703">
        <ele>76.32254</ele>
        <time>2021-01-03T15:26:44.954Z</time>
      </trkpt>
      <trkpt lat="43.63977" lon="3.86717">
        <ele>76.289294</ele>
        <time>2021-01-03T15:26:49.099Z</time>
      </trkpt>
      <trkpt lat="43.63965" lon="3.86756">
        <ele>76.202181</ele>
        <time>2021-01-03T15:27:00.501Z</time>
      </trkpt>
      <trkpt lat="43.63961" lon="3.86801">
        <ele>76.109294</ele>
        <time>2021-01-03T15:27:13.686Z</time>
      </trkpt>
      <trkpt lat="43.63962" lon="3.86812">
        <ele>76.087447</ele>
        <time>2021-01-03T15:27:17.216Z</time>
      </trkpt>
      <trkpt lat="43.63997" lon="3.86905">
        <ele>77.058402</ele>
        <time>2021-01-03T15:27:52.324Z</time>
      </trkpt>
      <trkpt lat="43.63999" lon="3.86917">
        <ele>77.277701</ele>
        <time>2021-01-03T15:27:56.829Z</time>
      </trkpt>
      <trkpt lat="43.63975" lon="3.86953">
        <ele>78.099911</ele>
        <time>2021-01-03T15:28:14.364Z</time>
      </trkpt>
      <trkpt lat="43.63973" lon="3.86978">
        <ele>78.534467</ele>
        <time>2021-01-03T15:28:24.113Z</time>
      </trkpt>
      <trkpt lat="43.63974" lon="3.86986">
        <ele>78.687708</ele>
        <time>2021-01-03T15:28:27.159Z</time>
      </trkpt>
      <trkpt lat="43.63984" lon="3.86996">
        <ele>78.966707</ele>
        <time>2021-01-03T15:28:32.800Z</time>
      </trkpt>
      <trkpt lat="43.63991" lon="3.86995">
        <ele>79.132113</ele>
        <time>2021-01-03T15:28:36.746Z</time>
      </trkpt>
      <trkpt lat="43.63991" lon="3.87002">
        <ele>79.24469</ele>
        <time>2021-01-03T15:28:39.585Z</time>
      </trkpt>
      <trkpt lat="43.63977" lon="3.87029">
        <ele>79.819052</ele>
        <time>2021-01-03T15:28:51.424Z</time>
      </trkpt>
      <trkpt lat="43.63976" lon="3.87048">
        <ele>80.145039</ele>
        <time>2021-01-03T15:28:59.007Z</time>
      </trkpt>
      <trkpt lat="43.63998" lon="3.87099">
        <ele>80.651943</ele>
        <time>2021-01-03T15:29:20.003Z</time>
      </trkpt>
      <trkpt lat="43.64016" lon="3.87125">
        <ele>80.926982</ele>
        <time>2021-01-03T15:29:32.613Z</time>
      </trkpt>
      <trkpt lat="43.64038" lon="3.87146">
        <ele>81.214964</ele>
        <time>2021-01-03T15:29:44.606Z</time>
      </trkpt>
      <trkpt lat="43.64054" lon="3.87182">
        <ele>81.538755</ele>
        <time>2021-01-03T15:29:58.219Z</time>
      </trkpt>
      <trkpt lat="43.64058" lon="3.87188">
        <ele>81.59849</ele>
        <time>2021-01-03T15:30:00.426Z</time>
      </trkpt>
      <trkpt lat="43.64075" lon="3.87193">
        <ele>81.779457</ele>
        <time>2021-01-03T15:30:07.243Z</time>
      </trkpt>
      <trkpt lat="43.64086" lon="3.87185">
        <ele>81.91794</ele>
        <time>2021-01-03T15:30:12.554Z</time>
      </trkpt>
      <trkpt lat="43.6411" lon="3.87131">
        <ele>81.4901</ele>
        <time>2021-01-03T15:30:27.798Z</time>
      </trkpt>
      <trkpt lat="43.64147" lon="3.87131">
        <ele>80.522943</ele>
        <time>2021-01-03T15:30:39.351Z</time>
      </trkpt>
      <trkpt lat="43.64161" lon="3.87125">
        <ele>80.114009</ele>
        <time>2021-01-03T15:30:43.804Z</time>
      </trkpt>
      <trkpt lat="43.64175" lon="3.87098">
        <ele>79.471461</ele>
        <time>2021-01-03T15:30:51.783Z</time>
      </trkpt>
      <trkpt lat="43.64175" lon="3.87098">
        <ele>79.466118</ele>
        <time>2021-01-03T15:30:51.844Z</time>
      </trkpt>
      <trkpt lat="43.64201" lon="3.87098">
        <ele>78.763468</ele>
        <time>2021-01-03T15:30:59.729Z</time>
      </trkpt>
      <trkpt lat="43.64212" lon="3.87095">
        <ele>78.468386</ele>
        <time>2021-01-03T15:31:03.188Z</time>
      </trkpt>
      <trkpt lat="43.64214" lon="3.87104">
        <ele>78.282292</ele>
        <time>2021-01-03T15:31:05.012Z</time>
      </trkpt>
      <trkpt lat="43.64227" lon="3.87112">
        <ele>77.8943</ele>
        <time>2021-01-03T15:31:09.744Z</time>
      </trkpt>
      <trkpt lat="43.64247" lon="3.87101">
        <ele>77.330841</ele>
        <time>2021-01-03T15:31:15.883Z</time>
      </trkpt>
      <trkpt lat="43.64271" lon="3.87106">
        <ele>76.835372</ele>
        <time>2021-01-03T15:31:23.783Z</time>
      </trkpt>
      <trkpt lat="43.6431" lon="3.87096">
        <ele>76.047605</ele>
        <time>2021-01-03T15:31:35.692Z</time>
      </trkpt>
      <trkpt lat="43.64348" lon="3.87094">
        <ele>75.266212</ele>
        <time>2021-01-03T15:31:48.075Z</time>
      </trkpt>
      <trkpt lat="43.64357" lon="3.87088">
        <ele>75.060466</ele>
        <time>2021-01-03T15:31:51.028Z</time>
      </trkpt>
      <trkpt lat="43.6438" lon="3.8705">
        <ele>74.339145</ele>
        <time>2021-01-03T15:32:04.874Z</time>
      </trkpt>
      <trkpt lat="43.64385" lon="3.87003">
        <ele>73.615316</ele>
        <time>2021-01-03T15:32:18.670Z</time>
      </trkpt>
      <trkpt lat="43.64385" lon="3.87003">
        <ele>73.60992</ele>
        <time>2021-01-03T15:32:18.877Z</time>
      </trkpt>
      <trkpt lat="43.64401" lon="3.86944">
        <ele>71.911445</ele>
        <time>2021-01-03T15:32:34.252Z</time>
      </trkpt>
      <trkpt lat="43.64399" lon="3.8693">
        <ele>71.52783</ele>
        <time>2021-01-03T15:32:37.201Z</time>
      </trkpt>
      <trkpt lat="43.644" lon="3.86919">
        <ele>71.217553</ele>
        <time>2021-01-03T15:32:39.851Z</time>
      </trkpt>
      <trkpt lat="43.64402" lon="3.86902">
        <ele>70.755055</ele>
        <time>2021-01-03T15:32:43.827Z</time>
      </trkpt>
      <trkpt lat="43.64411" lon="3.86846">
        <ele>69.222227</ele>
        <time>2021-01-03T15:32:56.031Z</time>
      </trkpt>
      <trkpt lat="43.64417" lon="3.86816">
        <ele>68.370491</ele>
        <time>2021-01-03T15:33:02.689Z</time>
      </trkpt>
      <trkpt lat="43.64427" lon="3.86813">
        <ele>67.984177</ele>
        <time>2021-01-03T15:33:05.440Z</time>
      </trkpt>
      <trkpt lat="43.6443" lon="3.86833">
        <ele>67.430496</ele>
        <time>2021-01-03T15:33:09.585Z</time>
      </trkpt>
      <trkpt lat="43.64455" lon="3.86838">
        <ele>65.878469</ele>
        <time>2021-01-03T15:33:17.033Z</time>
      </trkpt>
      <trkpt lat="43.64456" lon="3.86847">
        <ele>65.379171</ele>
        <time>2021-01-03T15:33:18.650Z</time>
      </trkpt>
      <trkpt lat="43.64463" lon="3.86846">
        <ele>64.833565</ele>
        <time>2021-01-03T15:33:19.598Z</time>
      </trkpt>
      <trkpt lat="43.64463" lon="3.8686">
        <ele>64.020862</ele>
        <time>2021-01-03T15:33:21.344Z</time>
      </trkpt>
      <trkpt lat="43.64464" lon="3.86888">
        <ele>62.396937</ele>
        <time>2021-01-03T15:33:24.388Z</time>
      </trkpt>
      <trkpt lat="43.64469" lon="3.86908">
        <ele>61.180556</ele>
        <time>2021-01-03T15:33:26.787Z</time>
      </trkpt>
      <trkpt lat="43.64475" lon="3.86911">
        <ele>60.676846</ele>
        <time>2021-01-03T15:33:27.712Z</time>
      </trkpt>
      <trkpt lat="43.64474" lon="3.86915">
        <ele>60.42049</ele>
        <time>2021-01-03T15:33:28.209Z</time>
      </trkpt>
      <trkpt lat="43.64475" lon="3.86928">
        <ele>59.675588</ele>
        <time>2021-01-03T15:33:29.553Z</time>
      </trkpt>
      <trkpt lat="43.64477" lon="3.86932">
        <ele>59.424618</ele>
        <time>2021-01-03T15:33:29.961Z</time>
      </trkpt>
      <trkpt lat="43.64478" lon="3.86934">
        <ele>59.217111</ele>
        <time>2021-01-03T15:33:30.317Z</time>
      </trkpt>
      <trkpt lat="43.64487" lon="3.86941">
        <ele>58.401614</ele>
        <time>2021-01-03T15:33:31.892Z</time>
      </trkpt>
      <trkpt lat="43.6449" lon="3.86941">
        <ele>58.192972</ele>
        <time>2021-01-03T15:33:32.239Z</time>
      </trkpt>
      <trkpt lat="43.64494" lon="3.8694">
        <ele>57.908732</ele>
        <time>2021-01-03T15:33:32.746Z</time>
      </trkpt>
      <trkpt lat="43.64504" lon="3.86927">
        <ele>56.800893</ele>
        <time>2021-01-03T15:33:34.760Z</time>
      </trkpt>
      <trkpt lat="43.64504" lon="3.86913">
        <ele>55.954245</ele>
        <time>2021-01-03T15:33:36.202Z</time>
      </trkpt>
      <trkpt lat="43.64502" lon="3.86908">
        <ele>55.663544</ele>
        <time>2021-01-03T15:33:36.742Z</time>
      </trkpt>
      <trkpt lat="43.64503" lon="3.86901">
        <ele>55.267985</ele>
        <time>2021-01-03T15:33:37.454Z</time>
      </trkpt>
      <trkpt lat="43.64503" lon="3.86895">
        <ele>54.908424</ele>
        <time>2021-01-03T15:33:38.133Z</time>
      </trkpt>
      <trkpt lat="43.64503" lon="3.86894">
        <ele>54.838389</ele>
        <time>2021-01-03T15:33:38.306Z</time>
      </trkpt>
      <trkpt lat="43.64503" lon="3.86891">
        <ele>54.652165</ele>
        <time>2021-01-03T15:33:38.707Z</time>
      </trkpt>
      <trkpt lat="43.64504" lon="3.86885">
        <ele>54.30199</ele>
        <time>2021-01-03T15:33:39.455Z</time>
      </trkpt>
      <trkpt lat="43.64505" lon="3.86879">
        <ele>53.943123</ele>
        <time>2021-01-03T15:33:40.102Z</time>
      </trkpt>
      <trkpt lat="43.64507" lon="3.86876">
        <ele>53.717172</ele>
        <time>2021-01-03T15:33:40.461Z</time>
      </trkpt>
      <trkpt lat="43.64531" lon="3.86854">
        <ele>51.947269</ele>
        <time>2021-01-03T15:33:44.906Z</time>
      </trkpt>
      <trkpt lat="43.64568" lon="3.8685">
        <ele>50.352031</ele>
        <time>2021-01-03T15:33:50.720Z</time>
      </trkpt>
      <trkpt lat="43.64589" lon="3.86849">
        <ele>49.486746</ele>
        <time>2021-01-03T15:33:53.778Z</time>
      </trkpt>
      <trkpt lat="43.64596" lon="3.86849">
        <ele>49.168586</ele>
        <time>2021-01-03T15:33:55.159Z</time>
      </trkpt>
      <trkpt lat="43.64627" lon="3.86851">
        <ele>47.843861</ele>
        <time>2021-01-03T15:34:00.449Z</time>
      </trkpt>
      <trkpt lat="43.64643" lon="3.86852">
        <ele>47.185871</ele>
        <time>2021-01-03T15:34:03.618Z</time>
      </trkpt>
      <trkpt lat="43.64659" lon="3.86853">
        <ele>46.502572</ele>
        <time>2021-01-03T15:34:06.173Z</time>
      </trkpt>
      <trkpt lat="43.64674" lon="3.86854">
        <ele>45.88665</ele>
        <time>2021-01-03T15:34:09.003Z</time>
      </trkpt>
      <trkpt lat="43.64679" lon="3.86855">
        <ele>45.653052</ele>
        <time>2021-01-03T15:34:10.061Z</time>
      </trkpt>
      <trkpt lat="43.64682" lon="3.86855">
        <ele>45.534136</ele>
        <time>2021-01-03T15:34:10.547Z</time>
      </trkpt>
      <trkpt lat="43.6469" lon="3.86855">
        <ele>45.177387</ele>
        <time>2021-01-03T15:34:12.085Z</time>
      </trkpt>
      <trkpt lat="43.64696" lon="3.86856">
        <ele>44.952616</ele>
        <time>2021-01-03T15:34:13.025Z</time>
      </trkpt>
      <trkpt lat="43.64701" lon="3.86856">
        <ele>44.934384</ele>
        <time>2021-01-03T15:34:14.041Z</time>
      </trkpt>
      <trkpt lat="43.64712" lon="3.86857">
        <ele>44.896549</ele>
        <time>2021-01-03T15:34:16.367Z</time>
      </trkpt>
      <trkpt lat="43.64746" lon="3.86857">
        <ele>44.781137</ele>
        <time>2021-01-03T15:34:22.743Z</time>
      </trkpt>
      <trkpt lat="43.64797" lon="3.86861">
        <ele>44.604029</ele>
        <time>2021-01-03T15:34:33.947Z</time>
      </trkpt>
      <trkpt lat="43.64806" lon="3.86861">
        <ele>44.572084</ele>
        <time>2021-01-03T15:34:35.812Z</time>
      </trkpt>
      <trkpt lat="43.64832" lon="3.86859">
        <ele>44.484667</ele>
        <time>2021-01-03T15:34:42.169Z</time>
      </trkpt>
      <trkpt lat="43.64866" lon="3.86843">
        <ele>44.360727</ele>
        <time>2021-01-03T15:34:51.603Z</time>
      </trkpt>
      <trkpt lat="43.64872" lon="3.86837">
        <ele>44.335811</ele>
        <time>2021-01-03T15:34:53.279Z</time>
        <extensions>
          <visugpx:TrkExtension xmlns:visugpx="https://www.visugpx.com/editgpx/">
            <visugpx:node>38</visugpx:node>
            </visugpx:TrkExtension>
        </extensions>
      </trkpt>
      <trkpt lat="43.64875" lon="3.86843">
        <ele>45.2</ele>
      </trkpt>
      <trkpt lat="43.64879" lon="3.86839">
        <ele>45.3</ele>
      </trkpt>
      <trkpt lat="43.64887" lon="3.86828">
        <ele>45.4</ele>
      </trkpt>
      <trkpt lat="43.64926" lon="3.86781">
        <ele>44.2</ele>
        <extensions>
          <visugpx:TrkExtension xmlns:visugpx="https://www.visugpx.com/editgpx/">
            <visugpx:node>39</visugpx:node>
            </visugpx:TrkExtension>
        </extensions>
      </trkpt>
      <trkpt lat="43.64965" lon="3.86734">
        <ele>45.6</ele>
      </trkpt>
      <trkpt lat="43.65" lon="3.86688">
        <ele>45.8</ele>
      </trkpt>
      <trkpt lat="43.65013" lon="3.86678">
        <ele>45.6</ele>
      </trkpt>
      <trkpt lat="43.65024" lon="3.86675">
        <ele>45.8</ele>
        <extensions>
          <visugpx:TrkExtension xmlns:visugpx="https://www.visugpx.com/editgpx/">
            <visugpx:node>40</visugpx:node>
            </visugpx:TrkExtension>
        </extensions>
      </trkpt>
      <trkpt lat="43.65031" lon="3.86674">
        <ele>45.9</ele>
      </trkpt>
      <trkpt lat="43.65038" lon="3.86668">
        <ele>45.9</ele>
      </trkpt>
      <trkpt lat="43.65043" lon="3.86659">
        <ele>46.2</ele>
      </trkpt>
      <trkpt lat="43.65051" lon="3.86648">
        <ele>46.5</ele>
      </trkpt>
      <trkpt lat="43.65052" lon="3.86651">
        <ele>46.5</ele>
      </trkpt>
      <trkpt lat="43.65064" lon="3.86654">
        <ele>46.6</ele>
        <extensions>
          <visugpx:TrkExtension xmlns:visugpx="https://www.visugpx.com/editgpx/">
            <visugpx:node>41</visugpx:node>
            </visugpx:TrkExtension>
        </extensions>
      </trkpt>
      <trkpt lat="43.65064" lon="3.86654">
        <ele>46.6</ele>
      </trkpt>
      <trkpt lat="43.65072" lon="3.86659">
        <ele>46.8</ele>
      </trkpt>
      <trkpt lat="43.65074" lon="3.86663">
        <ele>46.8</ele>
        <extensions>
          <visugpx:TrkExtension xmlns:visugpx="https://www.visugpx.com/editgpx/">
            <visugpx:node>42</visugpx:node>
            </visugpx:TrkExtension>
        </extensions>
      </trkpt>
      <trkpt lat="43.65076" lon="3.86666">
        <ele>45.141528</ele>
        <time>2021-01-03T15:35:58.046Z</time>
      </trkpt>
      <trkpt lat="43.6509" lon="3.86793">
        <ele>45.00821</ele>
        <time>2021-01-03T15:36:18.847Z</time>
      </trkpt>
      <trkpt lat="43.65112" lon="3.86892">
        <ele>44.378856</ele>
        <time>2021-01-03T15:36:34.499Z</time>
      </trkpt>
      <trkpt lat="43.65154" lon="3.87015">
        <ele>43.518347</ele>
        <time>2021-01-03T15:36:54.768Z</time>
      </trkpt>
      <trkpt lat="43.65158" lon="3.87026">
        <ele>43.437565</ele>
        <time>2021-01-03T15:36:56.684Z</time>
      </trkpt>
      <trkpt lat="43.6518" lon="3.87081">
        <ele>43.407723</ele>
        <time>2021-01-03T15:37:06.571Z</time>
      </trkpt>
      <trkpt lat="43.65187" lon="3.87098">
        <ele>43.404922</ele>
        <time>2021-01-03T15:37:09.636Z</time>
      </trkpt>
      <trkpt lat="43.65194" lon="3.87113">
        <ele>43.402273</ele>
        <time>2021-01-03T15:37:12.530Z</time>
      </trkpt>
      <trkpt lat="43.65207" lon="3.87137">
        <ele>43.39776</ele>
        <time>2021-01-03T15:37:17.515Z</time>
      </trkpt>
      <trkpt lat="43.65218" lon="3.87153">
        <ele>43.3945</ele>
        <time>2021-01-03T15:37:21.217Z</time>
      </trkpt>
      <trkpt lat="43.65251" lon="3.87198">
        <ele>43.385156</ele>
        <time>2021-01-03T15:37:32.156Z</time>
      </trkpt>
      <trkpt lat="43.65322" lon="3.87265">
        <ele>44.306857</ele>
        <time>2021-01-03T15:37:56.554Z</time>
      </trkpt>
      <trkpt lat="43.65329" lon="3.87308">
        <ele>44.800326</ele>
        <time>2021-01-03T15:38:06.800Z</time>
      </trkpt>
      <trkpt lat="43.65338" lon="3.87328">
        <ele>45.057941</ele>
        <time>2021-01-03T15:38:12.096Z</time>
      </trkpt>
      <trkpt lat="43.65358" lon="3.87361">
        <ele>45.546633</ele>
        <time>2021-01-03T15:38:22.500Z</time>
      </trkpt>
      <trkpt lat="43.65398" lon="3.87408">
        <ele>46.402776</ele>
        <time>2021-01-03T15:38:40.201Z</time>
      </trkpt>
      <trkpt lat="43.65416" lon="3.87422">
        <ele>46.802074</ele>
        <time>2021-01-03T15:38:47.251Z</time>
      </trkpt>
      <trkpt lat="43.65414" lon="3.87434">
        <ele>46.982574</ele>
        <time>2021-01-03T15:38:50.395Z</time>
      </trkpt>
      <trkpt lat="43.65426" lon="3.87449">
        <ele>47.307249</ele>
        <time>2021-01-03T15:38:55.949Z</time>
      </trkpt>
      <trkpt lat="43.65438" lon="3.87448">
        <ele>47.525617</ele>
        <time>2021-01-03T15:38:59.670Z</time>
      </trkpt>
      <trkpt lat="43.65456" lon="3.87458">
        <ele>47.908561</ele>
        <time>2021-01-03T15:39:06.116Z</time>
      </trkpt>
      <trkpt lat="43.6546" lon="3.87457">
        <ele>47.997956</ele>
        <time>2021-01-03T15:39:07.790Z</time>
      </trkpt>
      <trkpt lat="43.65493" lon="3.87448">
        <ele>48.644206</ele>
        <time>2021-01-03T15:39:18.771Z</time>
      </trkpt>
      <trkpt lat="43.65499" lon="3.87453">
        <ele>48.781932</ele>
        <time>2021-01-03T15:39:21.082Z</time>
      </trkpt>
      <trkpt lat="43.65502" lon="3.87551">
        <ele>49.772166</ele>
        <time>2021-01-03T15:39:44.153Z</time>
      </trkpt>
      <trkpt lat="43.65497" lon="3.87555">
        <ele>49.801099</ele>
        <time>2021-01-03T15:39:46.002Z</time>
      </trkpt>
      <trkpt lat="43.65497" lon="3.8755">
        <ele>49.81978</ele>
        <time>2021-01-03T15:39:47.346Z</time>
      </trkpt>
      <trkpt lat="43.6549" lon="3.87439">
        <ele>50.237319</ele>
        <time>2021-01-03T15:40:09.182Z</time>
      </trkpt>
      <trkpt lat="43.65505" lon="3.87398">
        <ele>50.407247</ele>
        <time>2021-01-03T15:40:16.605Z</time>
      </trkpt>
      <trkpt lat="43.65507" lon="3.87373">
        <ele>50.49978</ele>
        <time>2021-01-03T15:40:20.278Z</time>
      </trkpt>
      <trkpt lat="43.65507" lon="3.87365">
        <ele>50.533036</ele>
        <time>2021-01-03T15:40:21.928Z</time>
      </trkpt>
      <trkpt lat="43.65507" lon="3.87345">
        <ele>50.44052</ele>
        <time>2021-01-03T15:40:24.985Z</time>
      </trkpt>
      <trkpt lat="43.65508" lon="3.87338">
        <ele>50.362222</ele>
        <time>2021-01-03T15:40:26.099Z</time>
      </trkpt>
      <trkpt lat="43.6551" lon="3.87321">
        <ele>50.181132</ele>
        <time>2021-01-03T15:40:28.515Z</time>
      </trkpt>
      <trkpt lat="43.65528" lon="3.87234">
        <ele>49.237227</ele>
        <time>2021-01-03T15:40:41.610Z</time>
      </trkpt>
      <trkpt lat="43.65544" lon="3.87179">
        <ele>48.603693</ele>
        <time>2021-01-03T15:40:50.069Z</time>
      </trkpt>
      <trkpt lat="43.65552" lon="3.87165">
        <ele>48.419191</ele>
        <time>2021-01-03T15:40:52.471Z</time>
      </trkpt>
      <trkpt lat="43.65574" lon="3.87129">
        <ele>47.949956</ele>
        <time>2021-01-03T15:40:58.473Z</time>
      </trkpt>
      <trkpt lat="43.65626" lon="3.87069">
        <ele>47.799528</ele>
        <time>2021-01-03T15:41:11.973Z</time>
      </trkpt>
      <trkpt lat="43.65683" lon="3.87016">
        <ele>47.64578</ele>
        <time>2021-01-03T15:41:27.753Z</time>
      </trkpt>
      <trkpt lat="43.65749" lon="3.86955">
        <ele>48.153108</ele>
        <time>2021-01-03T15:41:49.009Z</time>
      </trkpt>
      <trkpt lat="43.65765" lon="3.8694">
        <ele>48.467053</ele>
        <time>2021-01-03T15:41:54.311Z</time>
      </trkpt>
      <trkpt lat="43.65859" lon="3.86847">
        <ele>50.317854</ele>
        <time>2021-01-03T15:42:30.898Z</time>
      </trkpt>
      <trkpt lat="43.65914" lon="3.86776">
        <ele>52.133368</ele>
        <time>2021-01-03T15:42:56.529Z</time>
      </trkpt>
      <trkpt lat="43.65917" lon="3.86777">
        <ele>52.202626</ele>
        <time>2021-01-03T15:42:58.669Z</time>
      </trkpt>
      <trkpt lat="43.65932" lon="3.86787">
        <ele>52.61292</ele>
        <time>2021-01-03T15:43:05.826Z</time>
      </trkpt>
      <trkpt lat="43.65946" lon="3.86789">
        <ele>52.974007</ele>
        <time>2021-01-03T15:43:12.913Z</time>
      </trkpt>
      <trkpt lat="43.65953" lon="3.86787">
        <ele>53.13999</ele>
        <time>2021-01-03T15:43:17.710Z</time>
      </trkpt>
      <trkpt lat="43.66003" lon="3.8677">
        <ele>54.429787</ele>
        <time>2021-01-03T15:43:42.224Z</time>
      </trkpt>
      <trkpt lat="43.66015" lon="3.86784">
        <ele>54.813103</ele>
        <time>2021-01-03T15:43:50.389Z</time>
      </trkpt>
      <trkpt lat="43.6602" lon="3.86825">
        <ele>55.595986</ele>
        <time>2021-01-03T15:44:05.499Z</time>
      </trkpt>
      <trkpt lat="43.66018" lon="3.86839">
        <ele>55.861497</ele>
        <time>2021-01-03T15:44:12.808Z</time>
      </trkpt>
      <trkpt lat="43.66027" lon="3.86834">
        <ele>56.116496</ele>
        <time>2021-01-03T15:44:16.915Z</time>
      </trkpt>
      <trkpt lat="43.66041" lon="3.86824">
        <ele>56.532833</ele>
        <time>2021-01-03T15:44:24.784Z</time>
      </trkpt>
      <trkpt lat="43.66051" lon="3.86783">
        <ele>57.338556</ele>
        <time>2021-01-03T15:44:40.245Z</time>
      </trkpt>
      <trkpt lat="43.66075" lon="3.8675">
        <ele>58.223154</ele>
        <time>2021-01-03T15:44:55.982Z</time>
      </trkpt>
      <trkpt lat="43.66152" lon="3.86708">
        <ele>60.704855</ele>
        <time>2021-01-03T15:45:38.788Z</time>
      </trkpt>
      <trkpt lat="43.66173" lon="3.86713">
        <ele>61.492829</ele>
        <time>2021-01-03T15:45:48.568Z</time>
      </trkpt>
      <trkpt lat="43.66206" lon="3.86741">
        <ele>62.95631</ele>
        <time>2021-01-03T15:46:08.211Z</time>
      </trkpt>
      <trkpt lat="43.66216" lon="3.86749">
        <ele>63.373449</ele>
        <time>2021-01-03T15:46:15.869Z</time>
      </trkpt>
      <trkpt lat="43.66222" lon="3.8674">
        <ele>63.736445</ele>
        <time>2021-01-03T15:46:21.767Z</time>
      </trkpt>
      <trkpt lat="43.66248" lon="3.86728">
        <ele>64.73567</ele>
        <time>2021-01-03T15:46:37.034Z</time>
      </trkpt>
      <trkpt lat="43.66306" lon="3.8672">
        <ele>67.208154</ele>
        <time>2021-01-03T15:47:12.455Z</time>
      </trkpt>
      <trkpt lat="43.66342" lon="3.86742">
        <ele>69.349268</ele>
        <time>2021-01-03T15:47:37.609Z</time>
      </trkpt>
      <trkpt lat="43.66351" lon="3.86749">
        <ele>69.915861</ele>
        <time>2021-01-03T15:47:45.557Z</time>
      </trkpt>
      <trkpt lat="43.66353" lon="3.86751">
        <ele>70.044657</ele>
        <time>2021-01-03T15:47:47.820Z</time>
      </trkpt>
      <trkpt lat="43.6639" lon="3.86775">
        <ele>72.253784</ele>
        <time>2021-01-03T15:48:14.711Z</time>
      </trkpt>
      <trkpt lat="43.66431" lon="3.86807">
        <ele>74.815372</ele>
        <time>2021-01-03T15:48:46.714Z</time>
      </trkpt>
      <trkpt lat="43.66482" lon="3.86836">
        <ele>76.676642</ele>
        <time>2021-01-03T15:49:19.423Z</time>
      </trkpt>
      <trkpt lat="43.66492" lon="3.86836">
        <ele>76.870426</ele>
        <time>2021-01-03T15:49:26.194Z</time>
      </trkpt>
      <trkpt lat="43.66497" lon="3.86837">
        <ele>76.968292</ele>
        <time>2021-01-03T15:49:29.907Z</time>
      </trkpt>
      <trkpt lat="43.66524" lon="3.86847">
        <ele>77.497531</ele>
        <time>2021-01-03T15:49:40.730Z</time>
      </trkpt>
      <trkpt lat="43.66535" lon="3.86854">
        <ele>77.725085</ele>
        <time>2021-01-03T15:49:47.776Z</time>
      </trkpt>
      <trkpt lat="43.66536" lon="3.86855">
        <ele>77.747307</ele>
        <time>2021-01-03T15:49:48.186Z</time>
      </trkpt>
      <trkpt lat="43.66577" lon="3.86905">
        <ele>78.768283</ele>
        <time>2021-01-03T15:50:07.840Z</time>
      </trkpt>
      <trkpt lat="43.66588" lon="3.86919">
        <ele>79.052962</ele>
        <time>2021-01-03T15:50:16.240Z</time>
      </trkpt>
      <trkpt lat="43.66596" lon="3.86928">
        <ele>79.237521</ele>
        <time>2021-01-03T15:50:19.790Z</time>
      </trkpt>
      <trkpt lat="43.66604" lon="3.86935">
        <ele>79.425429</ele>
        <time>2021-01-03T15:50:22.706Z</time>
      </trkpt>
      <trkpt lat="43.66621" lon="3.86929">
        <ele>79.776138</ele>
        <time>2021-01-03T15:50:31.955Z</time>
      </trkpt>
      <trkpt lat="43.66625" lon="3.86916">
        <ele>79.998848</ele>
        <time>2021-01-03T15:50:35.636Z</time>
      </trkpt>
      <trkpt lat="43.66631" lon="3.86901">
        <ele>80.259274</ele>
        <time>2021-01-03T15:50:39.404Z</time>
      </trkpt>
      <trkpt lat="43.66635" lon="3.86885">
        <ele>80.508509</ele>
        <time>2021-01-03T15:50:45.591Z</time>
      </trkpt>
      <trkpt lat="43.6664" lon="3.86877">
        <ele>80.66918</ele>
        <time>2021-01-03T15:50:49.417Z</time>
      </trkpt>
      <trkpt lat="43.66646" lon="3.86864">
        <ele>80.904727</ele>
        <time>2021-01-03T15:50:52.822Z</time>
      </trkpt>
      <trkpt lat="43.6665" lon="3.86858">
        <ele>81.029854</ele>
        <time>2021-01-03T15:50:55.245Z</time>
      </trkpt>
      <trkpt lat="43.66691" lon="3.86858">
        <ele>81.887832</ele>
        <time>2021-01-03T15:51:14.943Z</time>
      </trkpt>
      <trkpt lat="43.66691" lon="3.86858">
        <ele>81.892017</ele>
        <time>2021-01-03T15:51:15.189Z</time>
      </trkpt>
      <trkpt lat="43.66702" lon="3.86863">
        <ele>82.128374</ele>
        <time>2021-01-03T15:51:22.429Z</time>
      </trkpt>
      <trkpt lat="43.66722" lon="3.86893">
        <ele>82.752427</ele>
        <time>2021-01-03T15:51:36.757Z</time>
      </trkpt>
      <trkpt lat="43.66728" lon="3.86934">
        <ele>83.765769</ele>
        <time>2021-01-03T15:51:53.791Z</time>
      </trkpt>
      <trkpt lat="43.66727" lon="3.8695">
        <ele>84.514447</ele>
        <time>2021-01-03T15:52:02.199Z</time>
      </trkpt>
      <trkpt lat="43.66731" lon="3.86967">
        <ele>85.351558</ele>
        <time>2021-01-03T15:52:10.065Z</time>
      </trkpt>
      <trkpt lat="43.66735" lon="3.86977">
        <ele>85.914478</ele>
        <time>2021-01-03T15:52:16.416Z</time>
      </trkpt>
      <trkpt lat="43.66735" lon="3.86982">
        <ele>86.173473</ele>
        <time>2021-01-03T15:52:19.572Z</time>
      </trkpt>
      <trkpt lat="43.66742" lon="3.87016">
        <ele>87.852613</ele>
        <time>2021-01-03T15:52:39.381Z</time>
      </trkpt>
      <trkpt lat="43.66739" lon="3.8706">
        <ele>89.996795</ele>
        <time>2021-01-03T15:53:03.829Z</time>
      </trkpt>
      <trkpt lat="43.6673" lon="3.871">
        <ele>91.982542</ele>
        <time>2021-01-03T15:53:26.641Z</time>
      </trkpt>
      <trkpt lat="43.66733" lon="3.87159">
        <ele>94.802788</ele>
        <time>2021-01-03T15:53:58.274Z</time>
      </trkpt>
      <trkpt lat="43.66738" lon="3.87164">
        <ele>95.20369</ele>
        <time>2021-01-03T15:54:03.071Z</time>
      </trkpt>
      <trkpt lat="43.66752" lon="3.87166">
        <ele>95.849653</ele>
        <time>2021-01-03T15:54:11.505Z</time>
      </trkpt>
      <trkpt lat="43.66755" lon="3.87165">
        <ele>96.020497</ele>
        <time>2021-01-03T15:54:13.880Z</time>
      </trkpt>
      <trkpt lat="43.66761" lon="3.87162">
        <ele>96.332724</ele>
        <time>2021-01-03T15:54:19.196Z</time>
      </trkpt>
      <trkpt lat="43.6682" lon="3.87145">
        <ele>99.209786</ele>
        <time>2021-01-03T15:54:54.529Z</time>
      </trkpt>
      <trkpt lat="43.66908" lon="3.87138">
        <ele>103.451872</ele>
        <time>2021-01-03T15:55:46.929Z</time>
      </trkpt>
      <trkpt lat="43.66992" lon="3.87146">
        <ele>106.137321</ele>
        <time>2021-01-03T15:56:31.468Z</time>
      </trkpt>
      <trkpt lat="43.67009" lon="3.87149">
        <ele>106.650977</ele>
        <time>2021-01-03T15:56:41.086Z</time>
      </trkpt>
      <trkpt lat="43.67025" lon="3.87157">
        <ele>107.18731</ele>
        <time>2021-01-03T15:56:48.921Z</time>
      </trkpt>
      <trkpt lat="43.67037" lon="3.87169">
        <ele>107.630358</ele>
        <time>2021-01-03T15:56:57.108Z</time>
      </trkpt>
      <trkpt lat="43.67052" lon="3.87192">
        <ele>108.333764</ele>
        <time>2021-01-03T15:57:07.899Z</time>
      </trkpt>
      <trkpt lat="43.67076" lon="3.87232">
        <ele>109.354989</ele>
        <time>2021-01-03T15:57:26.692Z</time>
      </trkpt>
      <trkpt lat="43.67083" lon="3.87243">
        <ele>109.478565</ele>
        <time>2021-01-03T15:57:32.881Z</time>
      </trkpt>
      <trkpt lat="43.67082" lon="3.87245">
        <ele>113.4</ele>
      </trkpt>
      <trkpt lat="43.67087" lon="3.87252">
        <ele>113.6</ele>
      </trkpt>
      <trkpt lat="43.67093" lon="3.8726">
        <ele>113.2</ele>
      </trkpt>
      <trkpt lat="43.67099" lon="3.87266">
        <ele>112.7</ele>
      </trkpt>
      <trkpt lat="43.671" lon="3.87266">
        <ele>112.6</ele>
      </trkpt>
      <trkpt lat="43.67088" lon="3.87283">
        <ele>114.9</ele>
      </trkpt>
      <trkpt lat="43.67073" lon="3.87307">
        <ele>116.2</ele>
      </trkpt>
      <trkpt lat="43.6707" lon="3.87316">
        <ele>116.4</ele>
      </trkpt>
      <trkpt lat="43.6707" lon="3.87326">
        <ele>116.9</ele>
      </trkpt>
      <trkpt lat="43.67073" lon="3.87339">
        <ele>117.3</ele>
      </trkpt>
      <trkpt lat="43.6708" lon="3.87367">
        <ele>117.4</ele>
      </trkpt>
      <trkpt lat="43.67082" lon="3.87381">
        <ele>117.3</ele>
      </trkpt>
      <trkpt lat="43.67083" lon="3.87396">
        <ele>117.2</ele>
      </trkpt>
      <trkpt lat="43.67081" lon="3.87439">
        <ele>116.2</ele>
      </trkpt>
      <trkpt lat="43.67081" lon="3.87453">
        <ele>116</ele>
      </trkpt>
      <trkpt lat="43.67084" lon="3.87459">
        <ele>115.9</ele>
      </trkpt>
      <trkpt lat="43.67079" lon="3.87518">
        <ele>114.1</ele>
      </trkpt>
      <trkpt lat="43.67078" lon="3.87532">
        <ele>113.6</ele>
      </trkpt>
      <trkpt lat="43.67078" lon="3.87537">
        <ele>113.5</ele>
        <extensions>
          <visugpx:TrkExtension xmlns:visugpx="https://www.visugpx.com/editgpx/">
            <visugpx:node>16</visugpx:node>
            </visugpx:TrkExtension>
        </extensions>
      </trkpt>
      <trkpt lat="43.67079" lon="3.87553">
        <ele>110.40659</ele>
        <time>2021-01-03T15:58:46.425Z</time>
        <extensions>
          <visugpx:TrkExtension xmlns:visugpx="https://www.visugpx.com/editgpx/">
            <visugpx:node>1</visugpx:node>
            </visugpx:TrkExtension>
        </extensions>
      </trkpt>
      <trkpt lat="43.67103" lon="3.87666">
        <ele>109.326873</ele>
        <time>2021-01-03T15:59:15.093Z</time>
      </trkpt>
      <trkpt lat="43.67106" lon="3.87693">
        <ele>109.070889</ele>
        <time>2021-01-03T15:59:21.519Z</time>
      </trkpt>
      <trkpt lat="43.67104" lon="3.87709">
        <ele>109.081981</ele>
        <time>2021-01-03T15:59:25.445Z</time>
      </trkpt>
      <trkpt lat="43.67118" lon="3.8785">
        <ele>109.575586</ele>
        <time>2021-01-03T16:00:02.038Z</time>
      </trkpt>
      <trkpt lat="43.6713" lon="3.87887">
        <ele>109.714552</ele>
        <time>2021-01-03T16:00:14.991Z</time>
      </trkpt>
      <trkpt lat="43.67147" lon="3.87919">
        <ele>109.852696</ele>
        <time>2021-01-03T16:00:29.989Z</time>
      </trkpt>
      <trkpt lat="43.67149" lon="3.87933">
        <ele>109.92175</ele>
        <time>2021-01-03T16:00:34.706Z</time>
      </trkpt>
      <trkpt lat="43.6716" lon="3.87957">
        <ele>110.646218</ele>
        <time>2021-01-03T16:00:46.190Z</time>
      </trkpt>
      <trkpt lat="43.67206" lon="3.88002">
        <ele>112.633726</ele>
        <time>2021-01-03T16:01:17.250Z</time>
      </trkpt>
      <trkpt lat="43.67215" lon="3.88021">
        <ele>113.218799</ele>
        <time>2021-01-03T16:01:27.718Z</time>
      </trkpt>
      <trkpt lat="43.67231" lon="3.88054">
        <ele>114.240593</ele>
        <time>2021-01-03T16:01:44.658Z</time>
      </trkpt>
      <trkpt lat="43.67245" lon="3.8809">
        <ele>115.266465</ele>
        <time>2021-01-03T16:02:00.526Z</time>
      </trkpt>
      <trkpt lat="43.67272" lon="3.88133">
        <ele>116.353979</ele>
        <time>2021-01-03T16:02:23.331Z</time>
      </trkpt>
      <trkpt lat="43.67289" lon="3.88149">
        <ele>116.489391</ele>
        <time>2021-01-03T16:02:33.279Z</time>
      </trkpt>
      <trkpt lat="43.67301" lon="3.88161">
        <ele>116.584689</ele>
        <time>2021-01-03T16:02:40.746Z</time>
      </trkpt>
      <trkpt lat="43.67314" lon="3.88179">
        <ele>116.709434</ele>
        <time>2021-01-03T16:02:49.488Z</time>
      </trkpt>
      <trkpt lat="43.67334" lon="3.88194">
        <ele>116.853887</ele>
        <time>2021-01-03T16:02:59.691Z</time>
      </trkpt>
      <trkpt lat="43.67343" lon="3.88201">
        <ele>116.924223</ele>
        <time>2021-01-03T16:03:03.358Z</time>
      </trkpt>
      <trkpt lat="43.67389" lon="3.88243">
        <ele>117.285867</ele>
        <time>2021-01-03T16:03:23.249Z</time>
      </trkpt>
      <trkpt lat="43.674" lon="3.8825">
        <ele>117.365525</ele>
        <time>2021-01-03T16:03:27.206Z</time>
      </trkpt>
      <trkpt lat="43.67416" lon="3.8826">
        <ele>117.257899</ele>
        <time>2021-01-03T16:03:33.425Z</time>
      </trkpt>
      <trkpt lat="43.67447" lon="3.88266">
        <ele>116.148379</ele>
        <time>2021-01-03T16:03:42.900Z</time>
      </trkpt>
      <trkpt lat="43.67454" lon="3.88266">
        <ele>115.887884</ele>
        <time>2021-01-03T16:03:45.183Z</time>
      </trkpt>
      <trkpt lat="43.67454" lon="3.88266">
        <ele>115.887884</ele>
        <time>2021-01-03T16:03:45.206Z</time>
      </trkpt>
      <trkpt lat="43.67496" lon="3.88265">
        <ele>114.374837</ele>
        <time>2021-01-03T16:03:58.082Z</time>
      </trkpt>
      <trkpt lat="43.67526" lon="3.8827">
        <ele>113.324947</ele>
        <time>2021-01-03T16:04:07.108Z</time>
      </trkpt>
      <trkpt lat="43.67526" lon="3.8827">
        <ele>113.324947</ele>
        <time>2021-01-03T16:04:07.132Z</time>
      </trkpt>
      <trkpt lat="43.6752" lon="3.88276">
        <ele>113.069319</ele>
        <time>2021-01-03T16:04:09.378Z</time>
      </trkpt>
      <trkpt lat="43.67487" lon="3.88299">
        <ele>111.744267</ele>
        <time>2021-01-03T16:04:20.256Z</time>
      </trkpt>
      <trkpt lat="43.67472" lon="3.8831">
        <ele>111.149062</ele>
        <time>2021-01-03T16:04:24.955Z</time>
      </trkpt>
      <trkpt lat="43.67386" lon="3.88353">
        <ele>106.521093</ele>
        <time>2021-01-03T16:04:50.894Z</time>
      </trkpt>
      <trkpt lat="43.67379" lon="3.88364">
        <ele>105.964101</ele>
        <time>2021-01-03T16:04:53.782Z</time>
      </trkpt>
      <trkpt lat="43.67341" lon="3.88444">
        <ele>102.397868</ele>
        <time>2021-01-03T16:05:13.659Z</time>
      </trkpt>
      <trkpt lat="43.67334" lon="3.88468">
        <ele>101.544201</ele>
        <time>2021-01-03T16:05:19.321Z</time>
      </trkpt>
      <trkpt lat="43.67323" lon="3.88499">
        <ele>100.739512</ele>
        <time>2021-01-03T16:05:26.651Z</time>
      </trkpt>
      <trkpt lat="43.67281" lon="3.88593">
        <ele>98.144739</ele>
        <time>2021-01-03T16:05:51.243Z</time>
      </trkpt>
      <trkpt lat="43.67277" lon="3.88612">
        <ele>97.672206</ele>
        <time>2021-01-03T16:05:55.851Z</time>
      </trkpt>
      <trkpt lat="43.67263" lon="3.8863">
        <ele>97.065213</ele>
        <time>2021-01-03T16:06:01.495Z</time>
      </trkpt>
      <trkpt lat="43.67239" lon="3.88677">
        <ele>95.764175</ele>
        <time>2021-01-03T16:06:14.704Z</time>
      </trkpt>
      <trkpt lat="43.67233" lon="3.88701">
        <ele>95.309225</ele>
        <time>2021-01-03T16:06:21.212Z</time>
      </trkpt>
      <trkpt lat="43.67278" lon="3.88715">
        <ele>94.166821</ele>
        <time>2021-01-03T16:06:36.776Z</time>
      </trkpt>
      <trkpt lat="43.67279" lon="3.88716">
        <ele>94.123774</ele>
        <time>2021-01-03T16:06:37.205Z</time>
      </trkpt>
      <trkpt lat="43.67329" lon="3.88728">
        <ele>92.878961</ele>
        <time>2021-01-03T16:06:53.561Z</time>
      </trkpt>
      <trkpt lat="43.6733" lon="3.88729">
        <ele>92.835915</ele>
        <time>2021-01-03T16:06:54.081Z</time>
      </trkpt>
      <trkpt lat="43.67342" lon="3.88741">
        <ele>92.473113</ele>
        <time>2021-01-03T16:06:58.889Z</time>
      </trkpt>
      <trkpt lat="43.6735" lon="3.88758">
        <ele>92.109792</ele>
        <time>2021-01-03T16:07:03.210Z</time>
      </trkpt>
      <trkpt lat="43.67358" lon="3.88772">
        <ele>91.787077</ele>
        <time>2021-01-03T16:07:07.453Z</time>
      </trkpt>
      <trkpt lat="43.67367" lon="3.88791">
        <ele>91.321603</ele>
        <time>2021-01-03T16:07:12.304Z</time>
      </trkpt>
      <trkpt lat="43.67386" lon="3.88828">
        <ele>90.060547</ele>
        <time>2021-01-03T16:07:22.121Z</time>
      </trkpt>
      <trkpt lat="43.67421" lon="3.88886">
        <ele>87.964798</ele>
        <time>2021-01-03T16:07:38.515Z</time>
      </trkpt>
      <trkpt lat="43.67474" lon="3.88987">
        <ele>84.510769</ele>
        <time>2021-01-03T16:08:05.586Z</time>
      </trkpt>
      <trkpt lat="43.67496" lon="3.88992">
        <ele>83.78015</ele>
        <time>2021-01-03T16:08:12.137Z</time>
      </trkpt>
      <trkpt lat="43.67517" lon="3.88991">
        <ele>83.081214</ele>
        <time>2021-01-03T16:08:18.192Z</time>
      </trkpt>
      <trkpt lat="43.67512" lon="3.89027">
        <ele>82.211956</ele>
        <time>2021-01-03T16:08:26.170Z</time>
      </trkpt>
      <trkpt lat="43.67523" lon="3.89129">
        <ele>79.710167</ele>
        <time>2021-01-03T16:08:49.021Z</time>
      </trkpt>
      <trkpt lat="43.67515" lon="3.89166">
        <ele>78.754922</ele>
        <time>2021-01-03T16:08:57.765Z</time>
      </trkpt>
      <trkpt lat="43.6751" lon="3.89293">
        <ele>76.812903</ele>
        <time>2021-01-03T16:09:27.279Z</time>
      </trkpt>
      <trkpt lat="43.67513" lon="3.89299">
        <ele>76.696524</ele>
        <time>2021-01-03T16:09:29.070Z</time>
      </trkpt>
      <trkpt lat="43.67517" lon="3.89307">
        <ele>76.561124</ele>
        <time>2021-01-03T16:09:31.091Z</time>
      </trkpt>
      <trkpt lat="43.67539" lon="3.89517">
        <ele>74.620083</ele>
        <time>2021-01-03T16:10:23.004Z</time>
      </trkpt>
      <trkpt lat="43.67545" lon="3.89644">
        <ele>74.267855</ele>
        <time>2021-01-03T16:10:57.416Z</time>
      </trkpt>
      <trkpt lat="43.67549" lon="3.89729">
        <ele>74.423566</ele>
        <time>2021-01-03T16:11:22.456Z</time>
      </trkpt>
      <trkpt lat="43.67558" lon="3.89772">
        <ele>74.580837</ele>
        <time>2021-01-03T16:11:35.912Z</time>
      </trkpt>
      <trkpt lat="43.67566" lon="3.89788">
        <ele>74.648917</ele>
        <time>2021-01-03T16:11:41.648Z</time>
      </trkpt>
      <trkpt lat="43.67613" lon="3.89948">
        <ele>74.782633</ele>
        <time>2021-01-03T16:12:30.890Z</time>
      </trkpt>
      <trkpt lat="43.67619" lon="3.89997">
        <ele>74.486375</ele>
        <time>2021-01-03T16:12:43.131Z</time>
      </trkpt>
      <trkpt lat="43.67614" lon="3.90033">
        <ele>74.265798</ele>
        <time>2021-01-03T16:12:52.478Z</time>
      </trkpt>
      <trkpt lat="43.67591" lon="3.90093">
        <ele>73.861637</ele>
        <time>2021-01-03T16:13:09.919Z</time>
      </trkpt>
      <trkpt lat="43.67589" lon="3.90181">
        <ele>73.079133</ele>
        <time>2021-01-03T16:13:30.820Z</time>
      </trkpt>
      <trkpt lat="43.67563" lon="3.90193">
        <ele>72.634843</ele>
        <time>2021-01-03T16:13:35.732Z</time>
      </trkpt>
      <trkpt lat="43.67544" lon="3.90201">
        <ele>72.322405</ele>
        <time>2021-01-03T16:13:39.404Z</time>
      </trkpt>
      <trkpt lat="43.67534" lon="3.90283">
        <ele>71.360471</ele>
        <time>2021-01-03T16:13:58.999Z</time>
      </trkpt>
      <trkpt lat="43.67531" lon="3.90299">
        <ele>71.165775</ele>
        <time>2021-01-03T16:14:03.045Z</time>
      </trkpt>
      <trkpt lat="43.67525" lon="3.9032">
        <ele>70.902242</ele>
        <time>2021-01-03T16:14:08.572Z</time>
      </trkpt>
      <trkpt lat="43.67508" lon="3.9035">
        <ele>70.69215</ele>
        <time>2021-01-03T16:14:18.646Z</time>
      </trkpt>
      <trkpt lat="43.67499" lon="3.9036">
        <ele>70.680592</ele>
        <time>2021-01-03T16:14:23.025Z</time>
      </trkpt>
      <trkpt lat="43.67475" lon="3.90385">
        <ele>70.650744</ele>
        <time>2021-01-03T16:14:33.813Z</time>
      </trkpt>
      <trkpt lat="43.67467" lon="3.90393">
        <ele>70.64177</ele>
        <time>2021-01-03T16:14:37.376Z</time>
      </trkpt>
      <trkpt lat="43.67462" lon="3.90403">
        <ele>70.632876</ele>
        <time>2021-01-03T16:14:40.415Z</time>
      </trkpt>
      <trkpt lat="43.67461" lon="3.90427">
        <ele>70.616197</ele>
        <time>2021-01-03T16:14:46.443Z</time>
      </trkpt>
      <trkpt lat="43.67472" lon="3.9045">
        <ele>70.596344</ele>
        <time>2021-01-03T16:14:53.904Z</time>
      </trkpt>
      <trkpt lat="43.67464" lon="3.9067">
        <ele>70.881906</ele>
        <time>2021-01-03T16:15:58.386Z</time>
      </trkpt>
      <trkpt lat="43.67467" lon="3.907">
        <ele>70.965438</ele>
        <time>2021-01-03T16:16:06.845Z</time>
      </trkpt>
      <trkpt lat="43.67461" lon="3.90716">
        <ele>71.01539</ele>
        <time>2021-01-03T16:16:12.069Z</time>
      </trkpt>
      <trkpt lat="43.67433" lon="3.9074">
        <ele>71.140907</ele>
        <time>2021-01-03T16:16:25.028Z</time>
      </trkpt>
      <trkpt lat="43.67428" lon="3.90757">
        <ele>71.191307</ele>
        <time>2021-01-03T16:16:30.382Z</time>
      </trkpt>
      <trkpt lat="43.67432" lon="3.9078">
        <ele>71.048495</ele>
        <time>2021-01-03T16:16:37.061Z</time>
      </trkpt>
      <trkpt lat="43.67389" lon="3.90954">
        <ele>69.006767</ele>
        <time>2021-01-03T16:17:21.929Z</time>
      </trkpt>
      <trkpt lat="43.67388" lon="3.90976">
        <ele>68.750813</ele>
        <time>2021-01-03T16:17:27.012Z</time>
      </trkpt>
      <trkpt lat="43.6738" lon="3.91013">
        <ele>68.174202</ele>
        <time>2021-01-03T16:17:35.512Z</time>
      </trkpt>
      <trkpt lat="43.67355" lon="3.91097">
        <ele>65.960012</ele>
        <time>2021-01-03T16:17:55.894Z</time>
      </trkpt>
      <trkpt lat="43.67353" lon="3.91105">
        <ele>65.764599</ele>
        <time>2021-01-03T16:17:57.444Z</time>
      </trkpt>
      <trkpt lat="43.67351" lon="3.91114">
        <ele>65.534683</ele>
        <time>2021-01-03T16:17:59.668Z</time>
      </trkpt>
      <trkpt lat="43.67353" lon="3.91126">
        <ele>65.221165</ele>
        <time>2021-01-03T16:18:02.384Z</time>
      </trkpt>
      <trkpt lat="43.67352" lon="3.91149">
        <ele>64.646836</ele>
        <time>2021-01-03T16:18:07.540Z</time>
      </trkpt>
      <trkpt lat="43.67346" lon="3.91167">
        <ele>64.184092</ele>
        <time>2021-01-03T16:18:11.602Z</time>
      </trkpt>
      <trkpt lat="43.67292" lon="3.91225">
        <ele>62.105523</ele>
        <time>2021-01-03T16:18:32.395Z</time>
      </trkpt>
      <trkpt lat="43.67265" lon="3.91277">
        <ele>61.284388</ele>
        <time>2021-01-03T16:18:47.101Z</time>
      </trkpt>
      <trkpt lat="43.67232" lon="3.91345">
        <ele>60.241429</ele>
        <time>2021-01-03T16:19:07.992Z</time>
        <extensions>
          <visugpx:TrkExtension xmlns:visugpx="https://www.visugpx.com/editgpx/">
            <visugpx:node>18</visugpx:node>
            </visugpx:TrkExtension>
        </extensions>
      </trkpt>
      <trkpt lat="43.67231" lon="3.91344">
        <ele>60.7</ele>
      </trkpt>
      <trkpt lat="43.67225" lon="3.9134">
        <ele>60.8</ele>
      </trkpt>
      <trkpt lat="43.67192" lon="3.91313">
        <ele>60.6</ele>
      </trkpt>
      <trkpt lat="43.67186" lon="3.91306">
        <ele>60.5</ele>
      </trkpt>
      <trkpt lat="43.67181" lon="3.91298">
        <ele>60.4</ele>
      </trkpt>
      <trkpt lat="43.6718" lon="3.9129">
        <ele>60.3</ele>
      </trkpt>
      <trkpt lat="43.67177" lon="3.91284">
        <ele>60.3</ele>
      </trkpt>
      <trkpt lat="43.67168" lon="3.91274">
        <ele>60.3</ele>
      </trkpt>
      <trkpt lat="43.67163" lon="3.91272">
        <ele>60.3</ele>
      </trkpt>
      <trkpt lat="43.67152" lon="3.91275">
        <ele>60.6</ele>
      </trkpt>
      <trkpt lat="43.67147" lon="3.91279">
        <ele>60.7</ele>
      </trkpt>
      <trkpt lat="43.67143" lon="3.91285">
        <ele>60.9</ele>
      </trkpt>
      <trkpt lat="43.67139" lon="3.91299">
        <ele>61.1</ele>
      </trkpt>
      <trkpt lat="43.67139" lon="3.91307">
        <ele>61.1</ele>
      </trkpt>
      <trkpt lat="43.67141" lon="3.91313">
        <ele>61.1</ele>
      </trkpt>
      <trkpt lat="43.67143" lon="3.91318">
        <ele>61.2</ele>
      </trkpt>
      <trkpt lat="43.67145" lon="3.91322">
        <ele>61.2</ele>
      </trkpt>
      <trkpt lat="43.67148" lon="3.91333">
        <ele>61.2</ele>
      </trkpt>
      <trkpt lat="43.67149" lon="3.91339">
        <ele>61</ele>
      </trkpt>
      <trkpt lat="43.67149" lon="3.91344">
        <ele>60.7</ele>
      </trkpt>
      <trkpt lat="43.67145" lon="3.91344">
        <ele>60.8</ele>
      </trkpt>
      <trkpt lat="43.67138" lon="3.91334">
        <ele>61.3</ele>
      </trkpt>
      <trkpt lat="43.67133" lon="3.91334">
        <ele>61.4</ele>
      </trkpt>
      <trkpt lat="43.67129" lon="3.9133">
        <ele>61.4</ele>
      </trkpt>
      <trkpt lat="43.67125" lon="3.91313">
        <ele>61.4</ele>
      </trkpt>
      <trkpt lat="43.67119" lon="3.91299">
        <ele>61.4</ele>
      </trkpt>
      <trkpt lat="43.67112" lon="3.91292">
        <ele>61.5</ele>
      </trkpt>
      <trkpt lat="43.67102" lon="3.91286">
        <ele>61.6</ele>
      </trkpt>
      <trkpt lat="43.67098" lon="3.91283">
        <ele>61.7</ele>
        <extensions>
          <visugpx:TrkExtension xmlns:visugpx="https://www.visugpx.com/editgpx/">
            <visugpx:node>19</visugpx:node>
            </visugpx:TrkExtension>
        </extensions>
      </trkpt>
      <trkpt lat="43.67089" lon="3.91278">
        <ele>57.581015</ele>
        <time>2021-01-03T16:19:43.568Z</time>
      </trkpt>
      <trkpt lat="43.67062" lon="3.9126">
        <ele>57.101184</ele>
        <time>2021-01-03T16:19:49.560Z</time>
      </trkpt>
      <trkpt lat="43.66933" lon="3.91288">
        <ele>54.734074</ele>
        <time>2021-01-03T16:20:14.305Z</time>
      </trkpt>
      <trkpt lat="43.66886" lon="3.91296">
        <ele>53.807552</ele>
        <time>2021-01-03T16:20:23.604Z</time>
      </trkpt>
      <trkpt lat="43.6686" lon="3.91296">
        <ele>53.312672</ele>
        <time>2021-01-03T16:20:28.490Z</time>
      </trkpt>
      <trkpt lat="43.66861" lon="3.91306">
        <ele>53.180022</ele>
        <time>2021-01-03T16:20:30.307Z</time>
      </trkpt>
      <trkpt lat="43.66818" lon="3.91313">
        <ele>52.516447</ele>
        <time>2021-01-03T16:20:38.672Z</time>
      </trkpt>
      <trkpt lat="43.66812" lon="3.91315">
        <ele>52.439482</ele>
        <time>2021-01-03T16:20:39.878Z</time>
      </trkpt>
      <trkpt lat="43.66796" lon="3.91317">
        <ele>52.245423</ele>
        <time>2021-01-03T16:20:42.819Z</time>
      </trkpt>
      <trkpt lat="43.66796" lon="3.91314">
        <ele>52.216264</ele>
        <time>2021-01-03T16:20:43.305Z</time>
      </trkpt>
      <trkpt lat="43.66795" lon="3.91311">
        <ele>52.186775</ele>
        <time>2021-01-03T16:20:43.758Z</time>
      </trkpt>
      <trkpt lat="43.66793" lon="3.91308">
        <ele>52.157325</ele>
        <time>2021-01-03T16:20:44.852Z</time>
      </trkpt>
      <trkpt lat="43.66791" lon="3.91307">
        <ele>52.127594</ele>
        <time>2021-01-03T16:20:45.310Z</time>
      </trkpt>
      <trkpt lat="43.66784" lon="3.91309">
        <ele>52.042144</ele>
        <time>2021-01-03T16:20:46.624Z</time>
      </trkpt>
      <trkpt lat="43.66783" lon="3.91311">
        <ele>52.013667</ele>
        <time>2021-01-03T16:20:47.064Z</time>
      </trkpt>
      <trkpt lat="43.66782" lon="3.91315">
        <ele>51.983105</ele>
        <time>2021-01-03T16:20:47.515Z</time>
      </trkpt>
      <trkpt lat="43.66784" lon="3.91324">
        <ele>51.89685</ele>
        <time>2021-01-03T16:20:48.851Z</time>
      </trkpt>
      <trkpt lat="43.66786" lon="3.91326">
        <ele>51.866932</ele>
        <time>2021-01-03T16:20:49.302Z</time>
      </trkpt>
      <trkpt lat="43.66769" lon="3.91349">
        <ele>51.58798</ele>
        <time>2021-01-03T16:20:53.894Z</time>
      </trkpt>
      <trkpt lat="43.6675" lon="3.91375">
        <ele>51.257277</ele>
        <time>2021-01-03T16:20:59.312Z</time>
      </trkpt>
      <trkpt lat="43.6674" lon="3.91388">
        <ele>51.095359</ele>
        <time>2021-01-03T16:21:01.892Z</time>
      </trkpt>
      <trkpt lat="43.6672" lon="3.9142">
        <ele>50.723918</ele>
        <time>2021-01-03T16:21:08.097Z</time>
      </trkpt>
      <trkpt lat="43.66709" lon="3.91444">
        <ele>50.617493</ele>
        <time>2021-01-03T16:21:12.155Z</time>
      </trkpt>
      <trkpt lat="43.66707" lon="3.91447">
        <ele>50.616378</ele>
        <time>2021-01-03T16:21:12.659Z</time>
      </trkpt>
      <trkpt lat="43.66707" lon="3.91447">
        <ele>50.616378</ele>
        <time>2021-01-03T16:21:12.729Z</time>
      </trkpt>
      <trkpt lat="43.66707" lon="3.91447">
        <ele>50.616378</ele>
        <time>2021-01-03T16:21:12.750Z</time>
      </trkpt>
      <trkpt lat="43.66707" lon="3.91447">
        <ele>50.616378</ele>
        <time>2021-01-03T16:21:12.750Z</time>
      </trkpt>
      <trkpt lat="43.66678" lon="3.91514">
        <ele>50.592987</ele>
        <time>2021-01-03T16:21:27.406Z</time>
      </trkpt>
      <trkpt lat="43.66649" lon="3.91581">
        <ele>50.5696</ele>
        <time>2021-01-03T16:21:42.059Z</time>
      </trkpt>
      <trkpt lat="43.66642" lon="3.91581">
        <ele>50.567034</ele>
        <time>2021-01-03T16:21:44.564Z</time>
      </trkpt>
      <trkpt lat="43.66625" lon="3.91621">
        <ele>50.553129</ele>
        <time>2021-01-03T16:21:57.983Z</time>
      </trkpt>
      <trkpt lat="43.66622" lon="3.91627">
        <ele>50.551138</ele>
        <time>2021-01-03T16:22:00.266Z</time>
      </trkpt>
      <trkpt lat="43.66593" lon="3.91668">
        <ele>50.707096</ele>
        <time>2021-01-03T16:22:16.478Z</time>
      </trkpt>
      <trkpt lat="43.66577" lon="3.91681">
        <ele>50.789511</ele>
        <time>2021-01-03T16:22:23.151Z</time>
      </trkpt>
      <trkpt lat="43.66541" lon="3.9169">
        <ele>50.953439</ele>
        <time>2021-01-03T16:22:37.275Z</time>
      </trkpt>
      <trkpt lat="43.66538" lon="3.91692">
        <ele>50.966722</ele>
        <time>2021-01-03T16:22:38.778Z</time>
      </trkpt>
      <trkpt lat="43.66525" lon="3.91698">
        <ele>51.029944</ele>
        <time>2021-01-03T16:22:44.417Z</time>
      </trkpt>
      <trkpt lat="43.66509" lon="3.91708">
        <ele>51.108093</ele>
        <time>2021-01-03T16:22:50.851Z</time>
      </trkpt>
      <trkpt lat="43.66499" lon="3.91717">
        <ele>51.162258</ele>
        <time>2021-01-03T16:22:56.266Z</time>
      </trkpt>
      <trkpt lat="43.66492" lon="3.91724">
        <ele>51.201841</ele>
        <time>2021-01-03T16:22:59.802Z</time>
      </trkpt>
      <trkpt lat="43.66456" lon="3.91759">
        <ele>51.37238</ele>
        <time>2021-01-03T16:23:17.188Z</time>
      </trkpt>
      <trkpt lat="43.66445" lon="3.9177">
        <ele>51.394956</ele>
        <time>2021-01-03T16:23:22.903Z</time>
      </trkpt>
      <trkpt lat="43.66446" lon="3.91783">
        <ele>51.409737</ele>
        <time>2021-01-03T16:23:24.927Z</time>
      </trkpt>
      <trkpt lat="43.66454" lon="3.91826">
        <ele>51.462262</ele>
        <time>2021-01-03T16:23:32.516Z</time>
      </trkpt>
      <trkpt lat="43.6647" lon="3.91902">
        <ele>51.554604</ele>
        <time>2021-01-03T16:23:53.444Z</time>
      </trkpt>
      <trkpt lat="43.6647" lon="3.91902">
        <ele>51.554722</ele>
        <time>2021-01-03T16:23:53.558Z</time>
      </trkpt>
      <trkpt lat="43.6648" lon="3.91969">
        <ele>51.634532</ele>
        <time>2021-01-03T16:24:12.373Z</time>
      </trkpt>
      <trkpt lat="43.66483" lon="3.91987">
        <ele>51.640115</ele>
        <time>2021-01-03T16:24:17.656Z</time>
      </trkpt>
      <trkpt lat="43.66482" lon="3.92042">
        <ele>51.577232</ele>
        <time>2021-01-03T16:24:32.411Z</time>
      </trkpt>
      <trkpt lat="43.6648" lon="3.92059">
        <ele>51.557888</ele>
        <time>2021-01-03T16:24:36.810Z</time>
      </trkpt>
      <trkpt lat="43.66488" lon="3.92061">
        <ele>51.545549</ele>
        <time>2021-01-03T16:24:42.241Z</time>
      </trkpt>
      <trkpt lat="43.66488" lon="3.92066">
        <ele>51.539519</ele>
        <time>2021-01-03T16:24:43.274Z</time>
      </trkpt>
      <trkpt lat="43.66499" lon="3.92107">
        <ele>51.489407</ele>
        <time>2021-01-03T16:24:50.300Z</time>
      </trkpt>
      <trkpt lat="43.6651" lon="3.92146">
        <ele>51.441231</ele>
        <time>2021-01-03T16:24:57.066Z</time>
      </trkpt>
      <trkpt lat="43.66466" lon="3.92169">
        <ele>51.367034</ele>
        <time>2021-01-03T16:25:07.689Z</time>
      </trkpt>
      <trkpt lat="43.66465" lon="3.92188">
        <ele>51.271226</ele>
        <time>2021-01-03T16:25:13.006Z</time>
      </trkpt>
      <trkpt lat="43.66463" lon="3.92193">
        <ele>51.243402</ele>
        <time>2021-01-03T16:25:14.268Z</time>
      </trkpt>
      <trkpt lat="43.66461" lon="3.92196">
        <ele>51.220574</ele>
        <time>2021-01-03T16:25:14.853Z</time>
      </trkpt>
      <trkpt lat="43.66457" lon="3.92199">
        <ele>51.179012</ele>
        <time>2021-01-03T16:25:15.988Z</time>
      </trkpt>
      <trkpt lat="43.66455" lon="3.92202">
        <ele>51.155614</ele>
        <time>2021-01-03T16:25:16.600Z</time>
      </trkpt>
      <trkpt lat="43.66445" lon="3.92224">
        <ele>51.002487</ele>
        <time>2021-01-03T16:25:21.103Z</time>
      </trkpt>
      <trkpt lat="43.66443" lon="3.92229">
        <ele>50.969044</ele>
        <time>2021-01-03T16:25:22.035Z</time>
      </trkpt>
      <trkpt lat="43.66427" lon="3.92291">
        <ele>50.590157</ele>
        <time>2021-01-03T16:25:31.869Z</time>
      </trkpt>
      <trkpt lat="43.66419" lon="3.92319">
        <ele>50.414719</ele>
        <time>2021-01-03T16:25:36.300Z</time>
      </trkpt>
      <trkpt lat="43.66419" lon="3.92328">
        <ele>50.358933</ele>
        <time>2021-01-03T16:25:37.737Z</time>
      </trkpt>
      <trkpt lat="43.66437" lon="3.92368">
        <ele>50.088954</ele>
        <time>2021-01-03T16:25:44.708Z</time>
      </trkpt>
      <trkpt lat="43.66453" lon="3.92404">
        <ele>49.821396</ele>
        <time>2021-01-03T16:25:51.107Z</time>
      </trkpt>
      <trkpt lat="43.66449" lon="3.92406">
        <ele>49.784066</ele>
        <time>2021-01-03T16:25:51.913Z</time>
      </trkpt>
      <trkpt lat="43.66457" lon="3.92422">
        <ele>49.648749</ele>
        <time>2021-01-03T16:25:56.596Z</time>
      </trkpt>
      <trkpt lat="43.66462" lon="3.92429">
        <ele>49.572599</ele>
        <time>2021-01-03T16:25:59.176Z</time>
      </trkpt>
      <trkpt lat="43.66463" lon="3.92432">
        <ele>49.547192</ele>
        <time>2021-01-03T16:25:59.625Z</time>
      </trkpt>
      <trkpt lat="43.6649" lon="3.92479">
        <ele>49.112012</ele>
        <time>2021-01-03T16:26:08.670Z</time>
      </trkpt>
      <trkpt lat="43.66545" lon="3.92565">
        <ele>48.279534</ele>
        <time>2021-01-03T16:26:25.685Z</time>
      </trkpt>
      <trkpt lat="43.66579" lon="3.92604">
        <ele>48.055604</ele>
        <time>2021-01-03T16:26:35.202Z</time>
      </trkpt>
      <trkpt lat="43.66597" lon="3.9262">
        <ele>48.014109</ele>
        <time>2021-01-03T16:26:39.904Z</time>
      </trkpt>
      <trkpt lat="43.66575" lon="3.92621">
        <ele>47.970432</ele>
        <time>2021-01-03T16:26:48.138Z</time>
      </trkpt>
      <trkpt lat="43.66548" lon="3.92629">
        <ele>47.916824</ele>
        <time>2021-01-03T16:26:58.265Z</time>
      </trkpt>
      <trkpt lat="43.6653" lon="3.92641">
        <ele>47.877531</ele>
        <time>2021-01-03T16:27:05.614Z</time>
      </trkpt>
      <trkpt lat="43.6648" lon="3.92695">
        <ele>47.762614</ele>
        <time>2021-01-03T16:27:29.474Z</time>
      </trkpt>
      <trkpt lat="43.66469" lon="3.92704">
        <ele>47.784598</ele>
        <time>2021-01-03T16:27:34.395Z</time>
      </trkpt>
      <trkpt lat="43.66466" lon="3.92721">
        <ele>47.805706</ele>
        <time>2021-01-03T16:27:39.387Z</time>
      </trkpt>
      <trkpt lat="43.66336" lon="3.92836">
        <ele>48.060197</ele>
        <time>2021-01-03T16:28:38.313Z</time>
      </trkpt>
      <trkpt lat="43.66336" lon="3.92836">
        <ele>48.06025</ele>
        <time>2021-01-03T16:28:38.361Z</time>
      </trkpt>
      <trkpt lat="43.66297" lon="3.92854">
        <ele>48.077827</ele>
        <time>2021-01-03T16:28:53.524Z</time>
      </trkpt>
      <trkpt lat="43.66193" lon="3.92879">
        <ele>48.123553</ele>
        <time>2021-01-03T16:29:33.080Z</time>
      </trkpt>
      <trkpt lat="43.66136" lon="3.92873">
        <ele>48.012141</ele>
        <time>2021-01-03T16:29:53.892Z</time>
      </trkpt>
      <trkpt lat="43.6609" lon="3.92877">
        <ele>47.798095</ele>
        <time>2021-01-03T16:30:10.764Z</time>
      </trkpt>
      <trkpt lat="43.66068" lon="3.92887">
        <ele>47.690214</ele>
        <time>2021-01-03T16:30:19.248Z</time>
      </trkpt>
      <trkpt lat="43.66054" lon="3.92895">
        <ele>47.618646</ele>
        <time>2021-01-03T16:30:24.754Z</time>
      </trkpt>
      <trkpt lat="43.66032" lon="3.92917">
        <ele>47.492831</ele>
        <time>2021-01-03T16:30:34.353Z</time>
      </trkpt>
      <trkpt lat="43.65975" lon="3.93003">
        <ele>46.745779</ele>
        <time>2021-01-03T16:31:03.302Z</time>
      </trkpt>
      <trkpt lat="43.65968" lon="3.93021">
        <ele>46.554946</ele>
        <time>2021-01-03T16:31:08.392Z</time>
      </trkpt>
      <trkpt lat="43.65948" lon="3.93053">
        <ele>46.158813</ele>
        <time>2021-01-03T16:31:18.718Z</time>
      </trkpt>
      <trkpt lat="43.65935" lon="3.93073">
        <ele>45.915797</ele>
        <time>2021-01-03T16:31:25.034Z</time>
      </trkpt>
      <trkpt lat="43.65906" lon="3.93114">
        <ele>45.371113</ele>
        <time>2021-01-03T16:31:39.130Z</time>
      </trkpt>
      <trkpt lat="43.65888" lon="3.93136">
        <ele>45.065168</ele>
        <time>2021-01-03T16:31:47.143Z</time>
      </trkpt>
      <trkpt lat="43.65862" lon="3.93188">
        <ele>44.800639</ele>
        <time>2021-01-03T16:32:02.682Z</time>
      </trkpt>
      <trkpt lat="43.65821" lon="3.93229">
        <ele>44.565401</ele>
        <time>2021-01-03T16:32:20.379Z</time>
      </trkpt>
      <trkpt lat="43.65792" lon="3.93253">
        <ele>44.409373</ele>
        <time>2021-01-03T16:32:32.560Z</time>
      </trkpt>
      <trkpt lat="43.65787" lon="3.93265">
        <ele>44.363023</ele>
        <time>2021-01-03T16:32:36.549Z</time>
      </trkpt>
      <trkpt lat="43.65704" lon="3.93402">
        <ele>44.883133</ele>
        <time>2021-01-03T16:33:26.609Z</time>
      </trkpt>
      <trkpt lat="43.6566" lon="3.93466">
        <ele>45.45096</ele>
        <time>2021-01-03T16:33:54.870Z</time>
      </trkpt>
      <trkpt lat="43.65641" lon="3.93478">
        <ele>45.634094</ele>
        <time>2021-01-03T16:34:03.610Z</time>
      </trkpt>
      <trkpt lat="43.6563" lon="3.93485">
        <ele>45.744178</ele>
        <time>2021-01-03T16:34:09.832Z</time>
      </trkpt>
      <trkpt lat="43.65627" lon="3.935">
        <ele>45.791887</ele>
        <time>2021-01-03T16:34:17.316Z</time>
      </trkpt>
      <trkpt lat="43.65627" lon="3.9352">
        <ele>45.857189</ele>
        <time>2021-01-03T16:34:27.534Z</time>
      </trkpt>
      <trkpt lat="43.65616" lon="3.93506">
        <ele>45.922408</ele>
        <time>2021-01-03T16:34:32.503Z</time>
      </trkpt>
      <trkpt lat="43.65593" lon="3.93516">
        <ele>46.030356</ele>
        <time>2021-01-03T16:34:38.726Z</time>
      </trkpt>
      <trkpt lat="43.65585" lon="3.93512">
        <ele>46.068237</ele>
        <time>2021-01-03T16:34:41.649Z</time>
      </trkpt>
      <trkpt lat="43.65604" lon="3.9347">
        <ele>46.228622</ele>
        <time>2021-01-03T16:34:53.086Z</time>
      </trkpt>
      <trkpt lat="43.65607" lon="3.93439">
        <ele>46.330938</ele>
        <time>2021-01-03T16:34:59.555Z</time>
      </trkpt>
      <trkpt lat="43.65612" lon="3.93429">
        <ele>46.370037</ele>
        <time>2021-01-03T16:35:02.468Z</time>
      </trkpt>
      <trkpt lat="43.65629" lon="3.93408">
        <ele>46.470216</ele>
        <time>2021-01-03T16:35:08.715Z</time>
      </trkpt>
      <trkpt lat="43.65637" lon="3.93393">
        <ele>46.529117</ele>
        <time>2021-01-03T16:35:12.402Z</time>
      </trkpt>
      <trkpt lat="43.6565" lon="3.93334">
        <ele>46.263539</ele>
        <time>2021-01-03T16:35:28.348Z</time>
      </trkpt>
      <trkpt lat="43.65658" lon="3.93268">
        <ele>45.936472</ele>
        <time>2021-01-03T16:35:45.041Z</time>
      </trkpt>
      <trkpt lat="43.65668" lon="3.93153">
        <ele>45.368826</ele>
        <time>2021-01-03T16:36:13.818Z</time>
      </trkpt>
      <trkpt lat="43.65671" lon="3.93123">
        <ele>45.6081</ele>
        <time>2021-01-03T16:36:21.868Z</time>
      </trkpt>
      <trkpt lat="43.65669" lon="3.93087">
        <ele>46.058298</ele>
        <time>2021-01-03T16:36:31.519Z</time>
      </trkpt>
      <trkpt lat="43.6559" lon="3.92867">
        <ele>49.84139</ele>
        <time>2021-01-03T16:38:00.219Z</time>
      </trkpt>
      <trkpt lat="43.65577" lon="3.9281">
        <ele>51.303123</ele>
        <time>2021-01-03T16:38:24.399Z</time>
      </trkpt>
      <trkpt lat="43.65566" lon="3.9273">
        <ele>53.306895</ele>
        <time>2021-01-03T16:38:56.415Z</time>
      </trkpt>
      <trkpt lat="43.65566" lon="3.9273">
        <ele>53.30935</ele>
        <time>2021-01-03T16:38:56.778Z</time>
      </trkpt>
      <trkpt lat="43.65548" lon="3.92527">
        <ele>57.95115</ele>
        <time>2021-01-03T16:40:16.832Z</time>
      </trkpt>
      <trkpt lat="43.65516" lon="3.92369">
        <ele>61.195746</ele>
        <time>2021-01-03T16:41:15.675Z</time>
      </trkpt>
      <trkpt lat="43.65505" lon="3.92335">
        <ele>61.798912</ele>
        <time>2021-01-03T16:41:28.769Z</time>
      </trkpt>
      <trkpt lat="43.65491" lon="3.92296">
        <ele>62.514508</ele>
        <time>2021-01-03T16:41:44.169Z</time>
      </trkpt>
      <trkpt lat="43.65411" lon="3.92067">
        <ele>66.516365</ele>
        <time>2021-01-03T16:43:11.557Z</time>
      </trkpt>
      <trkpt lat="43.65412" lon="3.9206">
        <ele>66.61587</ele>
        <time>2021-01-03T16:43:13.575Z</time>
      </trkpt>
      <trkpt lat="43.65413" lon="3.92055">
        <ele>66.707217</ele>
        <time>2021-01-03T16:43:15.525Z</time>
      </trkpt>
      <trkpt lat="43.65386" lon="3.92">
        <ele>67.725578</ele>
        <time>2021-01-03T16:43:32.334Z</time>
      </trkpt>
      <trkpt lat="43.65352" lon="3.91926">
        <ele>68.816334</ele>
        <time>2021-01-03T16:43:53.976Z</time>
      </trkpt>
      <trkpt lat="43.65348" lon="3.91914">
        <ele>68.982877</ele>
        <time>2021-01-03T16:43:58.094Z</time>
      </trkpt>
      <trkpt lat="43.65346" lon="3.91909">
        <ele>69.047665</ele>
        <time>2021-01-03T16:43:59.683Z</time>
      </trkpt>
      <trkpt lat="43.6531" lon="3.91811">
        <ele>70.350867</ele>
        <time>2021-01-03T16:44:25.124Z</time>
      </trkpt>
      <trkpt lat="43.65297" lon="3.91764">
        <ele>70.884054</ele>
        <time>2021-01-03T16:44:34.862Z</time>
      </trkpt>
      <trkpt lat="43.6529" lon="3.91745">
        <ele>70.625817</ele>
        <time>2021-01-03T16:44:38.436Z</time>
      </trkpt>
      <trkpt lat="43.65277" lon="3.9173">
        <ele>70.340477</ele>
        <time>2021-01-03T16:44:42.819Z</time>
      </trkpt>
      <trkpt lat="43.65268" lon="3.91724">
        <ele>70.182406</ele>
        <time>2021-01-03T16:44:45.275Z</time>
      </trkpt>
      <trkpt lat="43.65261" lon="3.91715">
        <ele>70.012789</ele>
        <time>2021-01-03T16:44:47.267Z</time>
      </trkpt>
      <trkpt lat="43.65142" lon="3.91425">
        <ele>64.545012</ele>
        <time>2021-01-03T16:45:31.923Z</time>
      </trkpt>
      <trkpt lat="43.65118" lon="3.91356">
        <ele>62.934644</ele>
        <time>2021-01-03T16:45:41.523Z</time>
      </trkpt>
      <trkpt lat="43.65116" lon="3.9134">
        <ele>62.628506</ele>
        <time>2021-01-03T16:45:43.430Z</time>
      </trkpt>
      <trkpt lat="43.65085" lon="3.91229">
        <ele>61.254081</ele>
        <time>2021-01-03T16:45:59.826Z</time>
      </trkpt>
      <trkpt lat="43.65081" lon="3.91214">
        <ele>61.074371</ele>
        <time>2021-01-03T16:46:01.956Z</time>
      </trkpt>
      <trkpt lat="43.65084" lon="3.91213">
        <ele>55.6</ele>
      </trkpt>
      <trkpt lat="43.65084" lon="3.9121">
        <ele>55.5</ele>
      </trkpt>
      <trkpt lat="43.65079" lon="3.91186">
        <ele>55.3</ele>
      </trkpt>
      <trkpt lat="43.65077" lon="3.91176">
        <ele>55.2</ele>
      </trkpt>
      <trkpt lat="43.65077" lon="3.91171">
        <ele>55.1</ele>
      </trkpt>
      <trkpt lat="43.65077" lon="3.91158">
        <ele>54.9</ele>
      </trkpt>
      <trkpt lat="43.65065" lon="3.91159">
        <ele>55</ele>
      </trkpt>
      <trkpt lat="43.65009" lon="3.91153">
        <ele>55.4</ele>
      </trkpt>
      <trkpt lat="43.64999" lon="3.9115">
        <ele>55.4</ele>
      </trkpt>
      <trkpt lat="43.64978" lon="3.91142">
        <ele>55.7</ele>
      </trkpt>
      <trkpt lat="43.64958" lon="3.91138">
        <ele>56.2</ele>
      </trkpt>
      <trkpt lat="43.64936" lon="3.91125">
        <ele>56</ele>
      </trkpt>
      <trkpt lat="43.64922" lon="3.91113">
        <ele>55.7</ele>
      </trkpt>
      <trkpt lat="43.6492" lon="3.91104">
        <ele>55.2</ele>
      </trkpt>
      <trkpt lat="43.64917" lon="3.91087">
        <ele>54.2</ele>
      </trkpt>
      <trkpt lat="43.64917" lon="3.91072">
        <ele>53.6</ele>
      </trkpt>
      <trkpt lat="43.64919" lon="3.91064">
        <ele>53.3</ele>
      </trkpt>
      <trkpt lat="43.64922" lon="3.91052">
        <ele>52.9</ele>
      </trkpt>
      <trkpt lat="43.64922" lon="3.9104">
        <ele>52.5</ele>
      </trkpt>
      <trkpt lat="43.64921" lon="3.91021">
        <ele>51.8</ele>
      </trkpt>
      <trkpt lat="43.6491" lon="3.90993">
        <ele>51.2</ele>
      </trkpt>
      <trkpt lat="43.64902" lon="3.90974">
        <ele>51.4</ele>
      </trkpt>
      <trkpt lat="43.64898" lon="3.90967">
        <ele>51.5</ele>
      </trkpt>
      <trkpt lat="43.64889" lon="3.90958">
        <ele>51.6</ele>
      </trkpt>
      <trkpt lat="43.6488" lon="3.90944">
        <ele>51.7</ele>
      </trkpt>
      <trkpt lat="43.64878" lon="3.90939">
        <ele>51.7</ele>
        <extensions>
          <visugpx:TrkExtension xmlns:visugpx="https://www.visugpx.com/editgpx/">
            <visugpx:node>18</visugpx:node>
            </visugpx:TrkExtension>
        </extensions>
      </trkpt>
      <trkpt lat="43.64872" lon="3.90923">
        <ele>56.781847</ele>
        <time>2021-01-03T16:47:54.500Z</time>
        <extensions>
          <visugpx:TrkExtension xmlns:visugpx="https://www.visugpx.com/editgpx/">
            <visugpx:node>1</visugpx:node>
            </visugpx:TrkExtension>
        </extensions>
      </trkpt>
      <trkpt lat="43.64819" lon="3.90887">
        <ele>56.435388</ele>
        <time>2021-01-03T16:48:14.099Z</time>
      </trkpt>
      <trkpt lat="43.64785" lon="3.90842">
        <ele>56.164309</ele>
        <time>2021-01-03T16:48:32.400Z</time>
      </trkpt>
      <trkpt lat="43.64742" lon="3.90811">
        <ele>55.882127</ele>
        <time>2021-01-03T16:48:50.866Z</time>
      </trkpt>
      <trkpt lat="43.64728" lon="3.90793">
        <ele>55.821593</ele>
        <time>2021-01-03T16:48:58.448Z</time>
      </trkpt>
      <trkpt lat="43.64724" lon="3.90786">
        <ele>55.841297</ele>
        <time>2021-01-03T16:49:01.637Z</time>
      </trkpt>
      <trkpt lat="43.64722" lon="3.90783">
        <ele>55.850784</ele>
        <time>2021-01-03T16:49:02.551Z</time>
      </trkpt>
      <trkpt lat="43.64692" lon="3.90634">
        <ele>56.197257</ele>
        <time>2021-01-03T16:49:45.654Z</time>
      </trkpt>
      <trkpt lat="43.64692" lon="3.90634">
        <ele>56.198025</ele>
        <time>2021-01-03T16:49:45.742Z</time>
      </trkpt>
      <trkpt lat="43.64687" lon="3.9063">
        <ele>56.216819</ele>
        <time>2021-01-03T16:49:48.020Z</time>
      </trkpt>
      <trkpt lat="43.64671" lon="3.9064">
        <ele>56.271846</ele>
        <time>2021-01-03T16:49:54.992Z</time>
      </trkpt>
      <trkpt lat="43.64665" lon="3.90636">
        <ele>56.290983</ele>
        <time>2021-01-03T16:49:57.752Z</time>
      </trkpt>
      <trkpt lat="43.64643" lon="3.90577">
        <ele>56.46774</ele>
        <time>2021-01-03T16:50:15.523Z</time>
      </trkpt>
      <trkpt lat="43.64615" lon="3.90499">
        <ele>56.733497</ele>
        <time>2021-01-03T16:50:40.269Z</time>
      </trkpt>
      <trkpt lat="43.64587" lon="3.90426">
        <ele>56.987126</ele>
        <time>2021-01-03T16:51:04.429Z</time>
      </trkpt>
      <trkpt lat="43.64521" lon="3.90302">
        <ele>57.123839</ele>
        <time>2021-01-03T16:51:48.134Z</time>
      </trkpt>
      <trkpt lat="43.64496" lon="3.90207">
        <ele>57.127455</ele>
        <time>2021-01-03T16:52:15.247Z</time>
      </trkpt>
      <trkpt lat="43.64486" lon="3.90136">
        <ele>56.526584</ele>
        <time>2021-01-03T16:52:33.915Z</time>
      </trkpt>
      <trkpt lat="43.64489" lon="3.90129">
        <ele>56.379882</ele>
        <time>2021-01-03T16:52:35.921Z</time>
      </trkpt>
      <trkpt lat="43.64491" lon="3.90118">
        <ele>56.191593</ele>
        <time>2021-01-03T16:52:41.432Z</time>
      </trkpt>
      <trkpt lat="43.64486" lon="3.90044">
        <ele>54.906359</ele>
        <time>2021-01-03T16:53:19.140Z</time>
      </trkpt>
      <trkpt lat="43.64451" lon="3.89929">
        <ele>52.770028</ele>
        <time>2021-01-03T16:54:21.772Z</time>
      </trkpt>
      <trkpt lat="43.64446" lon="3.89913">
        <ele>52.467931</ele>
        <time>2021-01-03T16:54:30.471Z</time>
      </trkpt>
      <trkpt lat="43.64442" lon="3.8982">
        <ele>50.835432</ele>
        <time>2021-01-03T16:55:17.439Z</time>
      </trkpt>
      <trkpt lat="43.64443" lon="3.89808">
        <ele>50.616369</ele>
        <time>2021-01-03T16:55:23.774Z</time>
      </trkpt>
      <trkpt lat="43.64448" lon="3.89806">
        <ele>50.498186</ele>
        <time>2021-01-03T16:55:24.577Z</time>
      </trkpt>
      <trkpt lat="43.64461" lon="3.89823">
        <ele>50.062732</ele>
        <time>2021-01-03T16:55:28.456Z</time>
      </trkpt>
      <trkpt lat="43.64461" lon="3.89823">
        <ele>40.6</ele>
      </trkpt>
      <trkpt lat="43.64493" lon="3.89836">
        <ele>40.2</ele>
        <extensions>
          <visugpx:TrkExtension xmlns:visugpx="https://www.visugpx.com/editgpx/">
            <visugpx:node>21</visugpx:node>
            </visugpx:TrkExtension>
        </extensions>
      </trkpt>
      <trkpt lat="43.645" lon="3.89838">
        <ele>40.1</ele>
      </trkpt>
      <trkpt lat="43.64502" lon="3.89842">
        <ele>40.1</ele>
      </trkpt>
      <trkpt lat="43.64508" lon="3.89847">
        <ele>40.3</ele>
      </trkpt>
      <trkpt lat="43.64512" lon="3.89847">
        <ele>40.4</ele>
      </trkpt>
      <trkpt lat="43.64514" lon="3.89846">
        <ele>40.5</ele>
      </trkpt>
      <trkpt lat="43.64517" lon="3.89844">
        <ele>40.5</ele>
      </trkpt>
      <trkpt lat="43.64518" lon="3.89843">
        <ele>40.5</ele>
      </trkpt>
      <trkpt lat="43.64519" lon="3.8984">
        <ele>40.5</ele>
      </trkpt>
      <trkpt lat="43.6452" lon="3.89839">
        <ele>40.5</ele>
        <extensions>
          <visugpx:TrkExtension xmlns:visugpx="https://www.visugpx.com/editgpx/">
            <visugpx:node>22</visugpx:node>
            </visugpx:TrkExtension>
        </extensions>
      </trkpt>
      <trkpt lat="43.64521" lon="3.89836">
        <ele>40.5</ele>
      </trkpt>
      <trkpt lat="43.64521" lon="3.89831">
        <ele>40.5</ele>
      </trkpt>
      <trkpt lat="43.64521" lon="3.89826">
        <ele>40.5</ele>
      </trkpt>
      <trkpt lat="43.64517" lon="3.89819">
        <ele>40.3</ele>
      </trkpt>
      <trkpt lat="43.64514" lon="3.89817">
        <ele>40.2</ele>
      </trkpt>
      <trkpt lat="43.64514" lon="3.89814">
        <ele>40.2</ele>
        <extensions>
          <visugpx:TrkExtension xmlns:visugpx="https://www.visugpx.com/editgpx/">
            <visugpx:node>23</visugpx:node>
            </visugpx:TrkExtension>
        </extensions>
      </trkpt>
      <trkpt lat="43.64514" lon="3.89817">
        <ele>40.2</ele>
      </trkpt>
      <trkpt lat="43.64511" lon="3.89816">
        <ele>40.1</ele>
      </trkpt>
      <trkpt lat="43.64508" lon="3.89816">
        <ele>40</ele>
      </trkpt>
      <trkpt lat="43.64506" lon="3.89817">
        <ele>40</ele>
      </trkpt>
      <trkpt lat="43.64503" lon="3.89819">
        <ele>39.9</ele>
      </trkpt>
      <trkpt lat="43.64502" lon="3.89821">
        <ele>39.9</ele>
      </trkpt>
      <trkpt lat="43.64491" lon="3.89817">
        <ele>40</ele>
        <extensions>
          <visugpx:TrkExtension xmlns:visugpx="https://www.visugpx.com/editgpx/">
            <visugpx:node>24</visugpx:node>
            </visugpx:TrkExtension>
        </extensions>
      </trkpt>
      <trkpt lat="43.64487" lon="3.89815">
        <ele>48.633177</ele>
        <time>2021-01-03T16:55:44.113Z</time>
        <extensions>
          <visugpx:TrkExtension xmlns:visugpx="https://www.visugpx.com/editgpx/">
            <visugpx:node>1</visugpx:node>
            </visugpx:TrkExtension>
        </extensions>
      </trkpt>
      <trkpt lat="43.64449" lon="3.898">
        <ele>49.652451</ele>
        <time>2021-01-03T16:55:54.300Z</time>
      </trkpt>
      <trkpt lat="43.64415" lon="3.89768">
        <ele>50.720325</ele>
        <time>2021-01-03T16:56:06.995Z</time>
      </trkpt>
      <trkpt lat="43.64403" lon="3.89756">
        <ele>51.125728</ele>
        <time>2021-01-03T16:56:13.570Z</time>
      </trkpt>
      <trkpt lat="43.64396" lon="3.89747">
        <ele>51.375059</ele>
        <time>2021-01-03T16:56:18.335Z</time>
      </trkpt>
      <trkpt lat="43.64376" lon="3.89702">
        <ele>52.37213</ele>
        <time>2021-01-03T16:56:35.095Z</time>
      </trkpt>
      <trkpt lat="43.64369" lon="3.89675">
        <ele>52.917592</ele>
        <time>2021-01-03T16:56:44.769Z</time>
      </trkpt>
      <trkpt lat="43.64366" lon="3.89664">
        <ele>53.139962</ele>
        <time>2021-01-03T16:56:48.838Z</time>
      </trkpt>
      <trkpt lat="43.64353" lon="3.89618">
        <ele>53.611871</ele>
        <time>2021-01-03T16:57:03.756Z</time>
      </trkpt>
      <trkpt lat="43.64336" lon="3.89579">
        <ele>54.016557</ele>
        <time>2021-01-03T16:57:15.661Z</time>
      </trkpt>
      <trkpt lat="43.64301" lon="3.89535">
        <ele>54.598134</ele>
        <time>2021-01-03T16:57:28.227Z</time>
      </trkpt>
      <trkpt lat="43.64277" lon="3.89506">
        <ele>54.983195</ele>
        <time>2021-01-03T16:57:35.618Z</time>
      </trkpt>
      <trkpt lat="43.64268" lon="3.89495">
        <ele>55.141431</ele>
        <time>2021-01-03T16:57:38.076Z</time>
      </trkpt>
      <trkpt lat="43.64262" lon="3.89488">
        <ele>55.231197</ele>
        <time>2021-01-03T16:57:39.585Z</time>
      </trkpt>
      <trkpt lat="43.64258" lon="3.89483">
        <ele>55.301892</ele>
        <time>2021-01-03T16:57:40.808Z</time>
      </trkpt>
      <trkpt lat="43.64241" lon="3.89456">
        <ele>55.048792</ele>
        <time>2021-01-03T16:57:45.567Z</time>
      </trkpt>
      <trkpt lat="43.64192" lon="3.894">
        <ele>53.625879</ele>
        <time>2021-01-03T16:57:56.983Z</time>
      </trkpt>
      <trkpt lat="43.64152" lon="3.89338">
        <ele>52.309763</ele>
        <time>2021-01-03T16:58:07.020Z</time>
      </trkpt>
      <trkpt lat="43.64105" lon="3.89361">
        <ele>51.515313</ele>
        <time>2021-01-03T16:58:15.783Z</time>
      </trkpt>
      <trkpt lat="43.64028" lon="3.89386">
        <ele>52.285454</ele>
        <time>2021-01-03T16:58:36.326Z</time>
      </trkpt>
      <trkpt lat="43.64004" lon="3.89402">
        <ele>52.550747</ele>
        <time>2021-01-03T16:58:42.988Z</time>
      </trkpt>
      <trkpt lat="43.64" lon="3.89405">
        <ele>52.591974</ele>
        <time>2021-01-03T16:58:45.974Z</time>
      </trkpt>
      <trkpt lat="43.63996" lon="3.89405">
        <ele>52.638165</ele>
        <time>2021-01-03T16:58:48.032Z</time>
      </trkpt>
      <trkpt lat="43.63977" lon="3.89417">
        <ele>52.841607</ele>
        <time>2021-01-03T16:58:53.299Z</time>
      </trkpt>
      <trkpt lat="43.63969" lon="3.89422">
        <ele>52.924916</ele>
        <time>2021-01-03T16:58:57.014Z</time>
      </trkpt>
      <trkpt lat="43.63962" lon="3.89425">
        <ele>52.998278</ele>
        <time>2021-01-03T16:59:00.800Z</time>
      </trkpt>
      <trkpt lat="43.63936" lon="3.89431">
        <ele>53.453308</ele>
        <time>2021-01-03T16:59:08.413Z</time>
      </trkpt>
      <trkpt lat="43.63933" lon="3.89433">
        <ele>53.557195</ele>
        <time>2021-01-03T16:59:11.047Z</time>
      </trkpt>
      <trkpt lat="43.63919" lon="3.89432">
        <ele>54.060946</ele>
        <time>2021-01-03T16:59:16.438Z</time>
      </trkpt>
      <trkpt lat="43.63902" lon="3.89428">
        <ele>54.623353</ele>
        <time>2021-01-03T16:59:21.247Z</time>
      </trkpt>
      <trkpt lat="43.63899" lon="3.89427">
        <ele>54.719383</ele>
        <time>2021-01-03T16:59:23.352Z</time>
      </trkpt>
      <trkpt lat="43.6374" lon="3.89397">
        <ele>60.042564</ele>
        <time>2021-01-03T17:00:29.328Z</time>
      </trkpt>
      <trkpt lat="43.6374" lon="3.89397">
        <ele>60.057178</ele>
        <time>2021-01-03T17:00:29.610Z</time>
      </trkpt>
      <trkpt lat="43.6372" lon="3.89393">
        <ele>60.63228</ele>
        <time>2021-01-03T17:00:36.041Z</time>
      </trkpt>
      <trkpt lat="43.63709" lon="3.89391">
        <ele>60.94051</ele>
        <time>2021-01-03T17:00:39.600Z</time>
      </trkpt>
      <trkpt lat="43.63713" lon="3.89398">
        <ele>61.105035</ele>
        <time>2021-01-03T17:00:42.035Z</time>
      </trkpt>
      <trkpt lat="43.63718" lon="3.89402">
        <ele>61.276397</ele>
        <time>2021-01-03T17:00:44.112Z</time>
      </trkpt>
      <trkpt lat="43.63743" lon="3.89415">
        <ele>62.059928</ele>
        <time>2021-01-03T17:00:53.678Z</time>
      </trkpt>
      <trkpt lat="43.63756" lon="3.89422">
        <ele>62.469428</ele>
        <time>2021-01-03T17:00:58.900Z</time>
      </trkpt>
      <trkpt lat="43.63778" lon="3.89431">
        <ele>63.119097</ele>
        <time>2021-01-03T17:01:07.175Z</time>
      </trkpt>
      <trkpt lat="43.63851" lon="3.89464">
        <ele>65.20691</ele>
        <time>2021-01-03T17:01:36.242Z</time>
      </trkpt>
      <trkpt lat="43.63873" lon="3.8949">
        <ele>65.881507</ele>
        <time>2021-01-03T17:01:46.784Z</time>
      </trkpt>
      <trkpt lat="43.63891" lon="3.89528">
        <ele>66.667465</ele>
        <time>2021-01-03T17:01:58.036Z</time>
      </trkpt>
      <trkpt lat="43.63929" lon="3.89556">
        <ele>67.699802</ele>
        <time>2021-01-03T17:02:11.474Z</time>
      </trkpt>
      <trkpt lat="43.63964" lon="3.89604">
        <ele>68.884688</ele>
        <time>2021-01-03T17:02:30.075Z</time>
      </trkpt>
      <trkpt lat="43.63968" lon="3.89606">
        <ele>68.990533</ele>
        <time>2021-01-03T17:02:31.342Z</time>
      </trkpt>
      <trkpt lat="43.6397" lon="3.89611">
        <ele>69.086369</ele>
        <time>2021-01-03T17:02:32.676Z</time>
      </trkpt>
      <trkpt lat="43.6402" lon="3.89631">
        <ele>70.28504</ele>
        <time>2021-01-03T17:02:49.784Z</time>
      </trkpt>
      <trkpt lat="43.64021" lon="3.89635">
        <ele>70.35627</ele>
        <time>2021-01-03T17:02:50.644Z</time>
      </trkpt>
      <trkpt lat="43.64022" lon="3.89638">
        <ele>70.413418</ele>
        <time>2021-01-03T17:02:52.603Z</time>
      </trkpt>
      <trkpt lat="43.64015" lon="3.89686">
        <ele>71.234626</ele>
        <time>2021-01-03T17:03:04.447Z</time>
      </trkpt>
      <trkpt lat="43.64015" lon="3.89702">
        <ele>71.49897</ele>
        <time>2021-01-03T17:03:08.322Z</time>
      </trkpt>
      <trkpt lat="43.64018" lon="3.89729">
        <ele>71.968103</ele>
        <time>2021-01-03T17:03:13.993Z</time>
      </trkpt>
      <trkpt lat="43.64005" lon="3.89838">
        <ele>74.134252</ele>
        <time>2021-01-03T17:03:43.360Z</time>
      </trkpt>
      <trkpt lat="43.64" lon="3.89863">
        <ele>74.716409</ele>
        <time>2021-01-03T17:03:51.580Z</time>
      </trkpt>
      <trkpt lat="43.63995" lon="3.89888">
        <ele>75.310651</ele>
        <time>2021-01-03T17:03:59.282Z</time>
      </trkpt>
      <trkpt lat="43.63986" lon="3.89883">
        <ele>75.622998</ele>
        <time>2021-01-03T17:04:03.603Z</time>
      </trkpt>
      <trkpt lat="43.63952" lon="3.89861">
        <ele>76.80924</ele>
        <time>2021-01-03T17:04:19.982Z</time>
      </trkpt>
      <trkpt lat="43.63939" lon="3.89849">
        <ele>77.295517</ele>
        <time>2021-01-03T17:04:28.145Z</time>
      </trkpt>
      <trkpt lat="43.63905" lon="3.89796">
        <ele>78.583957</ele>
        <time>2021-01-03T17:04:45.479Z</time>
      </trkpt>
      <trkpt lat="43.63903" lon="3.8979">
        <ele>78.547452</ele>
        <time>2021-01-03T17:04:47.295Z</time>
      </trkpt>
      <trkpt lat="43.63895" lon="3.89774">
        <ele>78.448171</ele>
        <time>2021-01-03T17:04:52.605Z</time>
      </trkpt>
      <trkpt lat="43.63891" lon="3.89771">
        <ele>78.415172</ele>
        <time>2021-01-03T17:04:53.589Z</time>
      </trkpt>
      <trkpt lat="43.6381" lon="3.89749">
        <ele>77.827803</ele>
        <time>2021-01-03T17:05:13.089Z</time>
      </trkpt>
      <trkpt lat="43.63801" lon="3.89792">
        <ele>77.596318</ele>
        <time>2021-01-03T17:05:35.701Z</time>
      </trkpt>
      <trkpt lat="43.63777" lon="3.8982">
        <ele>77.371263</ele>
        <time>2021-01-03T17:05:57.616Z</time>
      </trkpt>
      <trkpt lat="43.63733" lon="3.89825">
        <ele>74.276482</ele>
        <time>2021-01-03T17:06:28.367Z</time>
      </trkpt>
      <trkpt lat="43.63733" lon="3.89825">
        <ele>74.26758</ele>
        <time>2021-01-03T17:06:28.486Z</time>
      </trkpt>
      <trkpt lat="43.63723" lon="3.89862">
        <ele>72.206253</ele>
        <time>2021-01-03T17:06:48.457Z</time>
      </trkpt>
      <trkpt lat="43.63721" lon="3.89909">
        <ele>69.735034</ele>
        <time>2021-01-03T17:07:12.413Z</time>
      </trkpt>
      <trkpt lat="43.63711" lon="3.89915">
        <ele>68.960735</ele>
        <time>2021-01-03T17:07:19.842Z</time>
      </trkpt>
      <trkpt lat="43.63715" lon="3.89945">
        <ele>67.363442</ele>
        <time>2021-01-03T17:07:35.283Z</time>
      </trkpt>
      <trkpt lat="43.63715" lon="3.89963">
        <ele>66.403052</ele>
        <time>2021-01-03T17:07:44.621Z</time>
      </trkpt>
      <trkpt lat="43.63707" lon="3.89968">
        <ele>65.774203</ele>
        <time>2021-01-03T17:07:45.947Z</time>
      </trkpt>
      <trkpt lat="43.63656" lon="3.90023">
        <ele>61.053936</ele>
        <time>2021-01-03T17:07:55.881Z</time>
      </trkpt>
      <trkpt lat="43.63653" lon="3.90024">
        <ele>60.82868</ele>
        <time>2021-01-03T17:07:56.327Z</time>
      </trkpt>
      <trkpt lat="43.63635" lon="3.90034">
        <ele>59.349889</ele>
        <time>2021-01-03T17:07:59.542Z</time>
      </trkpt>
      <trkpt lat="43.63613" lon="3.90046">
        <ele>57.638955</ele>
        <time>2021-01-03T17:08:02.995Z</time>
      </trkpt>
      <trkpt lat="43.63593" lon="3.90052">
        <ele>56.091027</ele>
        <time>2021-01-03T17:08:06.244Z</time>
      </trkpt>
      <trkpt lat="43.63568" lon="3.90057">
        <ele>54.177797</ele>
        <time>2021-01-03T17:08:10.220Z</time>
      </trkpt>
      <trkpt lat="43.63562" lon="3.90058">
        <ele>53.785865</ele>
        <time>2021-01-03T17:08:11.085Z</time>
      </trkpt>
      <trkpt lat="43.63535" lon="3.90075">
        <ele>51.584269</ele>
        <time>2021-01-03T17:08:15.802Z</time>
      </trkpt>
      <trkpt lat="43.63522" lon="3.90082">
        <ele>50.73926</ele>
        <time>2021-01-03T17:08:18.021Z</time>
      </trkpt>
      <trkpt lat="43.63489" lon="3.901">
        <ele>49.120365</ele>
        <time>2021-01-03T17:08:23.719Z</time>
      </trkpt>
      <trkpt lat="43.63486" lon="3.90103">
        <ele>48.922204</ele>
        <time>2021-01-03T17:08:24.377Z</time>
      </trkpt>
      <trkpt lat="43.63461" lon="3.9008">
        <ele>47.560957</ele>
        <time>2021-01-03T17:08:29.392Z</time>
      </trkpt>
      <trkpt lat="43.6345" lon="3.9007">
        <ele>46.957038</ele>
        <time>2021-01-03T17:08:31.547Z</time>
      </trkpt>
      <trkpt lat="43.63437" lon="3.90055">
        <ele>46.181547</ele>
        <time>2021-01-03T17:08:34.520Z</time>
      </trkpt>
      <trkpt lat="43.63426" lon="3.90042">
        <ele>45.531999</ele>
        <time>2021-01-03T17:08:36.888Z</time>
      </trkpt>
      <trkpt lat="43.63399" lon="3.89979">
        <ele>43.148848</ele>
        <time>2021-01-03T17:08:46.420Z</time>
      </trkpt>
      <trkpt lat="43.63398" lon="3.89975">
        <ele>42.985764</ele>
        <time>2021-01-03T17:08:47.087Z</time>
      </trkpt>
      <trkpt lat="43.63398" lon="3.89971">
        <ele>42.867464</ele>
        <time>2021-01-03T17:08:47.598Z</time>
      </trkpt>
      <trkpt lat="43.63396" lon="3.89966">
        <ele>42.789661</ele>
        <time>2021-01-03T17:08:48.371Z</time>
      </trkpt>
      <trkpt lat="43.63391" lon="3.89963">
        <ele>42.702679</ele>
        <time>2021-01-03T17:08:49.267Z</time>
      </trkpt>
      <trkpt lat="43.63384" lon="3.89961">
        <ele>42.580692</ele>
        <time>2021-01-03T17:08:50.588Z</time>
      </trkpt>
      <trkpt lat="43.63382" lon="3.89962">
        <ele>42.530007</ele>
        <time>2021-01-03T17:08:51.163Z</time>
      </trkpt>
      <trkpt lat="43.63379" lon="3.89962">
        <ele>42.49123</ele>
        <time>2021-01-03T17:08:51.610Z</time>
      </trkpt>
      <trkpt lat="43.63373" lon="3.89959">
        <ele>42.390293</ele>
        <time>2021-01-03T17:08:52.960Z</time>
      </trkpt>
      <trkpt lat="43.63351" lon="3.8993">
        <ele>41.866954</ele>
        <time>2021-01-03T17:08:59.383Z</time>
      </trkpt>
      <trkpt lat="43.63338" lon="3.89884">
        <ele>41.273749</ele>
        <time>2021-01-03T17:09:06.880Z</time>
      </trkpt>
      <trkpt lat="43.63319" lon="3.89814">
        <ele>40.367524</ele>
        <time>2021-01-03T17:09:17.816Z</time>
      </trkpt>
      <trkpt lat="43.63313" lon="3.89784">
        <ele>39.987905</ele>
        <time>2021-01-03T17:09:22.263Z</time>
      </trkpt>
      <trkpt lat="43.63306" lon="3.89757">
        <ele>39.560819</ele>
        <time>2021-01-03T17:09:26.219Z</time>
      </trkpt>
      <trkpt lat="43.63302" lon="3.89753">
        <ele>39.440287</ele>
        <time>2021-01-03T17:09:27.176Z</time>
      </trkpt>
      <trkpt lat="43.63298" lon="3.89754">
        <ele>39.358485</ele>
        <time>2021-01-03T17:09:27.885Z</time>
      </trkpt>
      <trkpt lat="43.63286" lon="3.89776">
        <ele>38.876368</ele>
        <time>2021-01-03T17:09:31.685Z</time>
      </trkpt>
      <trkpt lat="43.63281" lon="3.89788">
        <ele>38.633931</ele>
        <time>2021-01-03T17:09:33.628Z</time>
      </trkpt>
      <trkpt lat="43.63277" lon="3.89798">
        <ele>38.440987</ele>
        <time>2021-01-03T17:09:35.162Z</time>
      </trkpt>
      <trkpt lat="43.6326" lon="3.89835">
        <ele>37.673604</ele>
        <time>2021-01-03T17:09:41.181Z</time>
      </trkpt>
      <trkpt lat="43.63243" lon="3.89872">
        <ele>36.908971</ele>
        <time>2021-01-03T17:09:47.037Z</time>
      </trkpt>
      <trkpt lat="43.63223" lon="3.89914">
        <ele>36.041542</ele>
        <time>2021-01-03T17:09:53.642Z</time>
      </trkpt>
      <trkpt lat="43.63221" lon="3.89915">
        <ele>35.993565</ele>
        <time>2021-01-03T17:09:54.015Z</time>
      </trkpt>
      <trkpt lat="43.63215" lon="3.89921">
        <ele>35.800186</ele>
        <time>2021-01-03T17:09:55.472Z</time>
      </trkpt>
      <trkpt lat="43.63213" lon="3.89921">
        <ele>35.751462</ele>
        <time>2021-01-03T17:09:55.811Z</time>
      </trkpt>
      <trkpt lat="43.63211" lon="3.89921">
        <ele>35.700851</ele>
        <time>2021-01-03T17:09:56.170Z</time>
      </trkpt>
      <trkpt lat="43.63209" lon="3.89922">
        <ele>35.652939</ele>
        <time>2021-01-03T17:09:56.513Z</time>
      </trkpt>
      <trkpt lat="43.63208" lon="3.89924">
        <ele>35.615287</ele>
        <time>2021-01-03T17:09:56.775Z</time>
      </trkpt>
      <trkpt lat="43.63207" lon="3.89925">
        <ele>35.578742</ele>
        <time>2021-01-03T17:09:57.041Z</time>
      </trkpt>
      <trkpt lat="43.63206" lon="3.89927">
        <ele>35.542028</ele>
        <time>2021-01-03T17:09:57.308Z</time>
      </trkpt>
      <trkpt lat="43.63206" lon="3.89929">
        <ele>35.509283</ele>
        <time>2021-01-03T17:09:57.582Z</time>
      </trkpt>
      <trkpt lat="43.63206" lon="3.89931">
        <ele>35.48079</ele>
        <time>2021-01-03T17:09:57.856Z</time>
      </trkpt>
      <trkpt lat="43.63206" lon="3.89934">
        <ele>35.451579</ele>
        <time>2021-01-03T17:09:58.129Z</time>
      </trkpt>
      <trkpt lat="43.63207" lon="3.89949">
        <ele>35.244284</ele>
        <time>2021-01-03T17:10:00.089Z</time>
      </trkpt>
      <trkpt lat="43.63208" lon="3.89952">
        <ele>35.197391</ele>
        <time>2021-01-03T17:10:00.537Z</time>
      </trkpt>
      <trkpt lat="43.63209" lon="3.89963">
        <ele>35.050341</ele>
        <time>2021-01-03T17:10:01.904Z</time>
      </trkpt>
      <trkpt lat="43.63218" lon="3.90069">
        <ele>33.613534</ele>
        <time>2021-01-03T17:10:16.126Z</time>
      </trkpt>
      <trkpt lat="43.63219" lon="3.90073">
        <ele>33.554083</ele>
        <time>2021-01-03T17:10:16.792Z</time>
      </trkpt>
      <trkpt lat="43.63219" lon="3.90073">
        <ele>33.554083</ele>
        <time>2021-01-03T17:10:16.805Z</time>
      </trkpt>
      <trkpt lat="43.63219" lon="3.90083">
        <ele>33.425951</ele>
        <time>2021-01-03T17:10:18.073Z</time>
      </trkpt>
      <trkpt lat="43.6321" lon="3.90085">
        <ele>33.255333</ele>
        <time>2021-01-03T17:10:20.023Z</time>
      </trkpt>
      <trkpt lat="43.63207" lon="3.90086">
        <ele>33.198277</ele>
        <time>2021-01-03T17:10:20.664Z</time>
      </trkpt>
      <trkpt lat="43.63201" lon="3.90089">
        <ele>33.07838</ele>
        <time>2021-01-03T17:10:21.969Z</time>
      </trkpt>
      <trkpt lat="43.63161" lon="3.90114">
        <ele>32.257928</ele>
        <time>2021-01-03T17:10:30.882Z</time>
      </trkpt>
      <trkpt lat="43.63161" lon="3.90114">
        <ele>32.256583</ele>
        <time>2021-01-03T17:10:30.953Z</time>
      </trkpt>
      <trkpt lat="43.6315" lon="3.90121">
        <ele>32.079157</ele>
        <time>2021-01-03T17:10:33.334Z</time>
      </trkpt>
      <trkpt lat="43.63141" lon="3.90128">
        <ele>31.944035</ele>
        <time>2021-01-03T17:10:35.534Z</time>
      </trkpt>
      <trkpt lat="43.63126" lon="3.90138">
        <ele>31.734035</ele>
        <time>2021-01-03T17:10:38.892Z</time>
      </trkpt>
      <trkpt lat="43.63124" lon="3.9014">
        <ele>31.697601</ele>
        <time>2021-01-03T17:10:39.367Z</time>
      </trkpt>
      <trkpt lat="43.63072" lon="3.90176">
        <ele>30.943588</ele>
        <time>2021-01-03T17:10:51.678Z</time>
      </trkpt>
      <trkpt lat="43.63063" lon="3.90181">
        <ele>30.817197</ele>
        <time>2021-01-03T17:10:53.622Z</time>
      </trkpt>
      <trkpt lat="43.63064" lon="3.90187">
        <ele>30.758226</ele>
        <time>2021-01-03T17:10:54.418Z</time>
      </trkpt>
      <trkpt lat="43.63034" lon="3.90205">
        <ele>30.341381</ele>
        <time>2021-01-03T17:11:00.859Z</time>
      </trkpt>
      <trkpt lat="43.63016" lon="3.90217">
        <ele>30.072542</ele>
        <time>2021-01-03T17:11:05.054Z</time>
      </trkpt>
      <trkpt lat="43.63013" lon="3.90219">
        <ele>30.0374</ele>
        <time>2021-01-03T17:11:06.918Z</time>
      </trkpt>
      <trkpt lat="43.63014" lon="3.90223">
        <ele>29.991573</ele>
        <time>2021-01-03T17:11:09.391Z</time>
      </trkpt>
      <trkpt lat="43.63008" lon="3.90226">
        <ele>29.914561</ele>
        <time>2021-01-03T17:11:13.566Z</time>
      </trkpt>
      <trkpt lat="43.63003" lon="3.90228">
        <ele>29.845299</ele>
        <time>2021-01-03T17:11:17.620Z</time>
      </trkpt>
      <trkpt lat="43.63013" lon="3.90283">
        <ele>29.499907</ele>
        <time>2021-01-03T17:11:25.779Z</time>
      </trkpt>
      <trkpt lat="43.63017" lon="3.90299">
        <ele>29.397091</ele>
        <time>2021-01-03T17:11:28.356Z</time>
      </trkpt>
      <trkpt lat="43.63028" lon="3.9036">
        <ele>29.011461</ele>
        <time>2021-01-03T17:11:37.605Z</time>
      </trkpt>
      <trkpt lat="43.63025" lon="3.90361">
        <ele>28.979154</ele>
        <time>2021-01-03T17:11:38.370Z</time>
      </trkpt>
      <trkpt lat="43.62989" lon="3.90374">
        <ele>28.667881</ele>
        <time>2021-01-03T17:11:46.450Z</time>
      </trkpt>
      <trkpt lat="43.62988" lon="3.90373">
        <ele>28.654318</ele>
        <time>2021-01-03T17:11:46.734Z</time>
      </trkpt>
      <trkpt lat="43.62986" lon="3.90372">
        <ele>28.636183</ele>
        <time>2021-01-03T17:11:47.206Z</time>
      </trkpt>
      <trkpt lat="43.6297" lon="3.90328">
        <ele>28.342235</ele>
        <time>2021-01-03T17:11:54.907Z</time>
      </trkpt>
      <trkpt lat="43.62969" lon="3.90321">
        <ele>28.342235</ele>
        <time>2021-01-03T17:11:56.271Z</time>
      </trkpt>
      <trkpt lat="43.62952" lon="3.9024">
        <ele>28.342235</ele>
        <time>2021-01-03T17:12:09.776Z</time>
      </trkpt>
      <trkpt lat="43.62951" lon="3.90236">
        <ele>28.342235</ele>
        <time>2021-01-03T17:12:10.625Z</time>
      </trkpt>
      <trkpt lat="43.6291" lon="3.90263">
        <ele>28.342235</ele>
        <time>2021-01-03T17:12:22.070Z</time>
      </trkpt>
      <trkpt lat="43.62893" lon="3.90274">
        <ele>28.342235</ele>
        <time>2021-01-03T17:12:26.591Z</time>
      </trkpt>
      <trkpt lat="43.62883" lon="3.90281">
        <ele>28.342235</ele>
        <time>2021-01-03T17:12:29.809Z</time>
      </trkpt>
      <trkpt lat="43.62846" lon="3.90308">
        <ele>28.342235</ele>
        <time>2021-01-03T17:12:40.125Z</time>
      </trkpt>
      <trkpt lat="43.62844" lon="3.90308">
        <ele>28.342235</ele>
        <time>2021-01-03T17:12:40.539Z</time>
      </trkpt>
      <trkpt lat="43.62838" lon="3.90322">
        <ele>28.342235</ele>
        <time>2021-01-03T17:12:43.964Z</time>
      </trkpt>
      <trkpt lat="43.62823" lon="3.90308">
        <ele>28.342235</ele>
        <time>2021-01-03T17:12:49.567Z</time>
        <extensions>
          <visugpx:TrkExtension xmlns:visugpx="https://www.visugpx.com/editgpx/">
            <visugpx:node>46</visugpx:node>
            </visugpx:TrkExtension>
        </extensions>
      </trkpt>
    </trkseg>
  </trk>
</gpx>